<?xml version="1.0" encoding="UTF-8" standalone="no" ?>
<gpx xmlns="http://www.topografix.com/GPX/1/1" xmlns:xsi="http://www.w3.org/2001/XMLSchema-instance" xsi:schemaLocation="http://www.topografix.com/GPX/1/1 http://www.topografix.com/GPX/1/1/gpx.xsd" version="1.1" creator="VisuGPX - https://www.visugpx.com">
  <metadata>
    <name>Venon / Maupas / Uriage / Villeneuve / Combe de Gieres</name>
    <desc><![CDATA[Venon / Maupas / Uriage / Villeneuve / Combe de Gieres]]></desc>
  </metadata>
  <trk>
    <name><![CDATA[20171015 (norm)]]></name>
    <trkseg>
      <trkpt lat="45.22456" lon="5.8006">
        <ele>284</ele>
        <time>2017-10-15T10:29:13Z</time>
      </trkpt>
      <trkpt lat="45.22462" lon="5.80057">
        <ele>286</ele>
        <time>2017-10-15T10:31:22Z</time>
      </trkpt>
      <trkpt lat="45.22466" lon="5.80052">
        <ele>287</ele>
        <time>2017-10-15T10:31:25Z</time>
      </trkpt>
      <trkpt lat="45.22462" lon="5.80045">
        <ele>286</ele>
        <time>2017-10-15T10:31:29Z</time>
      </trkpt>
      <trkpt lat="45.22457" lon="5.80041">
        <ele>285</ele>
        <time>2017-10-15T10:31:30Z</time>
      </trkpt>
      <trkpt lat="45.22453" lon="5.80037">
        <ele>284</ele>
        <time>2017-10-15T10:31:31Z</time>
      </trkpt>
      <trkpt lat="45.22448" lon="5.80032">
        <ele>283</ele>
        <time>2017-10-15T10:31:32Z</time>
      </trkpt>
      <trkpt lat="45.22445" lon="5.80025">
        <ele>282</ele>
        <time>2017-10-15T10:31:33Z</time>
      </trkpt>
      <trkpt lat="45.22442" lon="5.80015">
        <ele>282</ele>
        <time>2017-10-15T10:31:34Z</time>
      </trkpt>
      <trkpt lat="45.2244" lon="5.79996">
        <ele>283</ele>
        <time>2017-10-15T10:31:35Z</time>
      </trkpt>
      <trkpt lat="45.2244" lon="5.79979">
        <ele>284</ele>
        <time>2017-10-15T10:31:37Z</time>
      </trkpt>
      <trkpt lat="45.22436" lon="5.79972">
        <ele>284</ele>
        <time>2017-10-15T10:31:38Z</time>
      </trkpt>
      <trkpt lat="45.22433" lon="5.79962">
        <ele>284</ele>
        <time>2017-10-15T10:31:39Z</time>
      </trkpt>
      <trkpt lat="45.2243" lon="5.79973">
        <ele>282</ele>
        <time>2017-10-15T10:31:45Z</time>
      </trkpt>
      <trkpt lat="45.22427" lon="5.79982">
        <ele>281</ele>
        <time>2017-10-15T10:31:54Z</time>
      </trkpt>
      <trkpt lat="45.22427" lon="5.79988">
        <ele>280</ele>
        <time>2017-10-15T10:31:55Z</time>
      </trkpt>
      <trkpt lat="45.22427" lon="5.80001">
        <ele>279</ele>
        <time>2017-10-15T10:31:57Z</time>
      </trkpt>
      <trkpt lat="45.22427" lon="5.80007">
        <ele>278</ele>
        <time>2017-10-15T10:31:58Z</time>
      </trkpt>
      <trkpt lat="45.22427" lon="5.80014">
        <ele>278</ele>
        <time>2017-10-15T10:31:59Z</time>
      </trkpt>
      <trkpt lat="45.22426" lon="5.8002">
        <ele>277</ele>
        <time>2017-10-15T10:32:00Z</time>
      </trkpt>
      <trkpt lat="45.22424" lon="5.80027">
        <ele>277</ele>
        <time>2017-10-15T10:32:01Z</time>
      </trkpt>
      <trkpt lat="45.22422" lon="5.80032">
        <ele>276</ele>
        <time>2017-10-15T10:32:02Z</time>
      </trkpt>
      <trkpt lat="45.22419" lon="5.80038">
        <ele>275</ele>
        <time>2017-10-15T10:32:03Z</time>
      </trkpt>
      <trkpt lat="45.22416" lon="5.80046">
        <ele>273</ele>
        <time>2017-10-15T10:32:04Z</time>
      </trkpt>
      <trkpt lat="45.22414" lon="5.80054">
        <ele>272</ele>
        <time>2017-10-15T10:32:05Z</time>
      </trkpt>
      <trkpt lat="45.22414" lon="5.80066">
        <ele>272</ele>
        <time>2017-10-15T10:32:07Z</time>
      </trkpt>
      <trkpt lat="45.22414" lon="5.80072">
        <ele>271</ele>
        <time>2017-10-15T10:32:08Z</time>
      </trkpt>
      <trkpt lat="45.22416" lon="5.80079">
        <ele>272</ele>
        <time>2017-10-15T10:32:09Z</time>
      </trkpt>
      <trkpt lat="45.2242" lon="5.80086">
        <ele>272</ele>
        <time>2017-10-15T10:32:10Z</time>
      </trkpt>
      <trkpt lat="45.22419" lon="5.80097">
        <ele>272</ele>
        <time>2017-10-15T10:32:12Z</time>
      </trkpt>
      <trkpt lat="45.22421" lon="5.80103">
        <ele>272</ele>
        <time>2017-10-15T10:32:13Z</time>
      </trkpt>
      <trkpt lat="45.22427" lon="5.80117">
        <ele>273</ele>
        <time>2017-10-15T10:32:15Z</time>
      </trkpt>
      <trkpt lat="45.22433" lon="5.8013">
        <ele>274</ele>
        <time>2017-10-15T10:32:17Z</time>
      </trkpt>
      <trkpt lat="45.22436" lon="5.8014">
        <ele>275</ele>
        <time>2017-10-15T10:32:19Z</time>
      </trkpt>
      <trkpt lat="45.22435" lon="5.80152">
        <ele>273</ele>
        <time>2017-10-15T10:32:22Z</time>
      </trkpt>
      <trkpt lat="45.22429" lon="5.80146">
        <ele>272</ele>
        <time>2017-10-15T10:32:25Z</time>
      </trkpt>
      <trkpt lat="45.22425" lon="5.80137">
        <ele>271</ele>
        <time>2017-10-15T10:32:27Z</time>
      </trkpt>
      <trkpt lat="45.22419" lon="5.80128">
        <ele>270</ele>
        <time>2017-10-15T10:32:29Z</time>
      </trkpt>
      <trkpt lat="45.22413" lon="5.80119">
        <ele>268</ele>
        <time>2017-10-15T10:32:30Z</time>
      </trkpt>
      <trkpt lat="45.22406" lon="5.80106">
        <ele>267</ele>
        <time>2017-10-15T10:32:32Z</time>
      </trkpt>
      <trkpt lat="45.22397" lon="5.80092">
        <ele>265</ele>
        <time>2017-10-15T10:32:34Z</time>
      </trkpt>
      <trkpt lat="45.22387" lon="5.80079">
        <ele>263</ele>
        <time>2017-10-15T10:32:36Z</time>
      </trkpt>
      <trkpt lat="45.22382" lon="5.80072">
        <ele>263</ele>
        <time>2017-10-15T10:32:37Z</time>
      </trkpt>
      <trkpt lat="45.2238" lon="5.80063">
        <ele>263</ele>
        <time>2017-10-15T10:32:38Z</time>
      </trkpt>
      <trkpt lat="45.2237" lon="5.80049">
        <ele>262</ele>
        <time>2017-10-15T10:32:41Z</time>
      </trkpt>
      <trkpt lat="45.22364" lon="5.80045">
        <ele>261</ele>
        <time>2017-10-15T10:32:43Z</time>
      </trkpt>
      <trkpt lat="45.22358" lon="5.80045">
        <ele>261</ele>
        <time>2017-10-15T10:32:45Z</time>
      </trkpt>
      <trkpt lat="45.22351" lon="5.80058">
        <ele>259</ele>
        <time>2017-10-15T10:32:49Z</time>
      </trkpt>
      <trkpt lat="45.22351" lon="5.80065">
        <ele>259</ele>
        <time>2017-10-15T10:32:50Z</time>
      </trkpt>
      <trkpt lat="45.2235" lon="5.80073">
        <ele>258</ele>
        <time>2017-10-15T10:32:52Z</time>
      </trkpt>
      <trkpt lat="45.22358" lon="5.80072">
        <ele>259</ele>
        <time>2017-10-15T10:32:59Z</time>
      </trkpt>
      <trkpt lat="45.22363" lon="5.80071">
        <ele>260</ele>
        <time>2017-10-15T10:33:06Z</time>
      </trkpt>
      <trkpt lat="45.22367" lon="5.80075">
        <ele>260</ele>
        <time>2017-10-15T10:33:22Z</time>
      </trkpt>
      <trkpt lat="45.22372" lon="5.80082">
        <ele>261</ele>
        <time>2017-10-15T10:33:24Z</time>
      </trkpt>
      <trkpt lat="45.22376" lon="5.80086">
        <ele>261</ele>
        <time>2017-10-15T10:33:25Z</time>
      </trkpt>
      <trkpt lat="45.22383" lon="5.80094">
        <ele>261</ele>
        <time>2017-10-15T10:33:27Z</time>
      </trkpt>
      <trkpt lat="45.22387" lon="5.80103">
        <ele>262</ele>
        <time>2017-10-15T10:33:29Z</time>
      </trkpt>
      <trkpt lat="45.22389" lon="5.80112">
        <ele>262</ele>
        <time>2017-10-15T10:33:31Z</time>
      </trkpt>
      <trkpt lat="45.2239" lon="5.80121">
        <ele>262</ele>
        <time>2017-10-15T10:33:33Z</time>
      </trkpt>
      <trkpt lat="45.22392" lon="5.8013">
        <ele>262</ele>
        <time>2017-10-15T10:33:35Z</time>
      </trkpt>
      <trkpt lat="45.22396" lon="5.8014">
        <ele>262</ele>
        <time>2017-10-15T10:33:37Z</time>
      </trkpt>
      <trkpt lat="45.224" lon="5.80149">
        <ele>263</ele>
        <time>2017-10-15T10:33:39Z</time>
      </trkpt>
      <trkpt lat="45.224" lon="5.8016">
        <ele>262</ele>
        <time>2017-10-15T10:33:41Z</time>
      </trkpt>
      <trkpt lat="45.224" lon="5.80171">
        <ele>261</ele>
        <time>2017-10-15T10:33:43Z</time>
      </trkpt>
      <trkpt lat="45.22402" lon="5.80182">
        <ele>261</ele>
        <time>2017-10-15T10:33:45Z</time>
      </trkpt>
      <trkpt lat="45.22404" lon="5.80188">
        <ele>261</ele>
        <time>2017-10-15T10:33:46Z</time>
      </trkpt>
      <trkpt lat="45.22406" lon="5.80194">
        <ele>261</ele>
        <time>2017-10-15T10:33:47Z</time>
      </trkpt>
      <trkpt lat="45.22409" lon="5.80205">
        <ele>261</ele>
        <time>2017-10-15T10:33:49Z</time>
      </trkpt>
      <trkpt lat="45.22414" lon="5.80215">
        <ele>262</ele>
        <time>2017-10-15T10:33:51Z</time>
      </trkpt>
      <trkpt lat="45.22417" lon="5.8022">
        <ele>263</ele>
        <time>2017-10-15T10:33:52Z</time>
      </trkpt>
      <trkpt lat="45.22423" lon="5.80229">
        <ele>264</ele>
        <time>2017-10-15T10:33:54Z</time>
      </trkpt>
      <trkpt lat="45.22427" lon="5.80239">
        <ele>264</ele>
        <time>2017-10-15T10:33:56Z</time>
      </trkpt>
      <trkpt lat="45.2243" lon="5.80248">
        <ele>264</ele>
        <time>2017-10-15T10:33:58Z</time>
      </trkpt>
      <trkpt lat="45.22434" lon="5.80252">
        <ele>264</ele>
        <time>2017-10-15T10:34:00Z</time>
      </trkpt>
      <trkpt lat="45.22436" lon="5.80258">
        <ele>264</ele>
        <time>2017-10-15T10:34:02Z</time>
      </trkpt>
      <trkpt lat="45.22437" lon="5.80266">
        <ele>264</ele>
        <time>2017-10-15T10:34:04Z</time>
      </trkpt>
      <trkpt lat="45.22441" lon="5.80274">
        <ele>264</ele>
        <time>2017-10-15T10:34:06Z</time>
      </trkpt>
      <trkpt lat="45.22444" lon="5.80286">
        <ele>263</ele>
        <time>2017-10-15T10:34:08Z</time>
      </trkpt>
      <trkpt lat="45.22446" lon="5.80293">
        <ele>263</ele>
        <time>2017-10-15T10:34:09Z</time>
      </trkpt>
      <trkpt lat="45.22449" lon="5.80304">
        <ele>262</ele>
        <time>2017-10-15T10:34:10Z</time>
      </trkpt>
      <trkpt lat="45.22448" lon="5.80313">
        <ele>261</ele>
        <time>2017-10-15T10:34:11Z</time>
      </trkpt>
      <trkpt lat="45.22443" lon="5.80325">
        <ele>259</ele>
        <time>2017-10-15T10:34:13Z</time>
      </trkpt>
      <trkpt lat="45.2244" lon="5.80334">
        <ele>257</ele>
        <time>2017-10-15T10:34:14Z</time>
      </trkpt>
      <trkpt lat="45.22436" lon="5.80341">
        <ele>256</ele>
        <time>2017-10-15T10:34:15Z</time>
      </trkpt>
      <trkpt lat="45.22432" lon="5.80347">
        <ele>255</ele>
        <time>2017-10-15T10:34:16Z</time>
      </trkpt>
      <trkpt lat="45.2242" lon="5.80354">
        <ele>253</ele>
        <time>2017-10-15T10:34:17Z</time>
      </trkpt>
      <trkpt lat="45.22411" lon="5.8036">
        <ele>251</ele>
        <time>2017-10-15T10:34:18Z</time>
      </trkpt>
      <trkpt lat="45.22403" lon="5.80364">
        <ele>250</ele>
        <time>2017-10-15T10:34:19Z</time>
      </trkpt>
      <trkpt lat="45.22393" lon="5.80369">
        <ele>248</ele>
        <time>2017-10-15T10:34:20Z</time>
      </trkpt>
      <trkpt lat="45.22384" lon="5.80373">
        <ele>247</ele>
        <time>2017-10-15T10:34:21Z</time>
      </trkpt>
      <trkpt lat="45.22376" lon="5.80383">
        <ele>246</ele>
        <time>2017-10-15T10:34:22Z</time>
      </trkpt>
      <trkpt lat="45.22368" lon="5.80389">
        <ele>245</ele>
        <time>2017-10-15T10:34:23Z</time>
      </trkpt>
      <trkpt lat="45.22361" lon="5.80392">
        <ele>245</ele>
        <time>2017-10-15T10:34:25Z</time>
      </trkpt>
      <trkpt lat="45.22354" lon="5.80396">
        <ele>244</ele>
        <time>2017-10-15T10:34:26Z</time>
      </trkpt>
      <trkpt lat="45.22349" lon="5.80398">
        <ele>244</ele>
        <time>2017-10-15T10:34:28Z</time>
      </trkpt>
      <trkpt lat="45.22345" lon="5.80397">
        <ele>243</ele>
        <time>2017-10-15T10:34:30Z</time>
      </trkpt>
      <trkpt lat="45.22344" lon="5.8039">
        <ele>243</ele>
        <time>2017-10-15T10:34:35Z</time>
      </trkpt>
      <trkpt lat="45.22339" lon="5.80394">
        <ele>243</ele>
        <time>2017-10-15T10:34:40Z</time>
      </trkpt>
      <trkpt lat="45.22334" lon="5.80395">
        <ele>243</ele>
        <time>2017-10-15T10:34:43Z</time>
      </trkpt>
      <trkpt lat="45.2233" lon="5.80397">
        <ele>242</ele>
        <time>2017-10-15T10:34:45Z</time>
      </trkpt>
      <trkpt lat="45.22323" lon="5.80402">
        <ele>242</ele>
        <time>2017-10-15T10:34:47Z</time>
      </trkpt>
      <trkpt lat="45.22315" lon="5.80407">
        <ele>241</ele>
        <time>2017-10-15T10:34:49Z</time>
      </trkpt>
      <trkpt lat="45.22306" lon="5.80413">
        <ele>241</ele>
        <time>2017-10-15T10:34:51Z</time>
      </trkpt>
      <trkpt lat="45.22298" lon="5.80417">
        <ele>240</ele>
        <time>2017-10-15T10:34:53Z</time>
      </trkpt>
      <trkpt lat="45.22294" lon="5.80419">
        <ele>240</ele>
        <time>2017-10-15T10:34:54Z</time>
      </trkpt>
      <trkpt lat="45.22289" lon="5.80422">
        <ele>240</ele>
        <time>2017-10-15T10:34:55Z</time>
      </trkpt>
      <trkpt lat="45.22285" lon="5.80425">
        <ele>240</ele>
        <time>2017-10-15T10:34:56Z</time>
      </trkpt>
      <trkpt lat="45.2228" lon="5.80428">
        <ele>240</ele>
        <time>2017-10-15T10:34:57Z</time>
      </trkpt>
      <trkpt lat="45.22276" lon="5.8043">
        <ele>240</ele>
        <time>2017-10-15T10:34:58Z</time>
      </trkpt>
      <trkpt lat="45.22271" lon="5.80432">
        <ele>240</ele>
        <time>2017-10-15T10:34:59Z</time>
      </trkpt>
      <trkpt lat="45.22263" lon="5.80437">
        <ele>240</ele>
        <time>2017-10-15T10:35:01Z</time>
      </trkpt>
      <trkpt lat="45.22258" lon="5.80439">
        <ele>239</ele>
        <time>2017-10-15T10:35:02Z</time>
      </trkpt>
      <trkpt lat="45.2225" lon="5.80445">
        <ele>239</ele>
        <time>2017-10-15T10:35:04Z</time>
      </trkpt>
      <trkpt lat="45.22246" lon="5.80448">
        <ele>239</ele>
        <time>2017-10-15T10:35:05Z</time>
      </trkpt>
      <trkpt lat="45.22239" lon="5.80453">
        <ele>239</ele>
        <time>2017-10-15T10:35:06Z</time>
      </trkpt>
      <trkpt lat="45.22229" lon="5.80462">
        <ele>239</ele>
        <time>2017-10-15T10:35:08Z</time>
      </trkpt>
      <trkpt lat="45.22226" lon="5.80467">
        <ele>239</ele>
        <time>2017-10-15T10:35:09Z</time>
      </trkpt>
      <trkpt lat="45.22231" lon="5.80472">
        <ele>239</ele>
        <time>2017-10-15T10:35:10Z</time>
      </trkpt>
      <trkpt lat="45.22237" lon="5.80483">
        <ele>239</ele>
        <time>2017-10-15T10:35:12Z</time>
      </trkpt>
      <trkpt lat="45.22244" lon="5.80494">
        <ele>238</ele>
        <time>2017-10-15T10:35:14Z</time>
      </trkpt>
      <trkpt lat="45.22248" lon="5.80504">
        <ele>239</ele>
        <time>2017-10-15T10:35:16Z</time>
      </trkpt>
      <trkpt lat="45.22254" lon="5.80514">
        <ele>239</ele>
        <time>2017-10-15T10:35:18Z</time>
      </trkpt>
      <trkpt lat="45.22258" lon="5.80524">
        <ele>239</ele>
        <time>2017-10-15T10:35:20Z</time>
      </trkpt>
      <trkpt lat="45.22262" lon="5.80534">
        <ele>239</ele>
        <time>2017-10-15T10:35:22Z</time>
      </trkpt>
      <trkpt lat="45.22265" lon="5.80539">
        <ele>239</ele>
        <time>2017-10-15T10:35:23Z</time>
      </trkpt>
      <trkpt lat="45.2227" lon="5.80549">
        <ele>239</ele>
        <time>2017-10-15T10:35:25Z</time>
      </trkpt>
      <trkpt lat="45.22272" lon="5.80558">
        <ele>239</ele>
        <time>2017-10-15T10:35:27Z</time>
      </trkpt>
      <trkpt lat="45.22268" lon="5.80567">
        <ele>238</ele>
        <time>2017-10-15T10:35:29Z</time>
      </trkpt>
      <trkpt lat="45.22261" lon="5.80573">
        <ele>238</ele>
        <time>2017-10-15T10:35:31Z</time>
      </trkpt>
      <trkpt lat="45.22257" lon="5.80583">
        <ele>238</ele>
        <time>2017-10-15T10:35:33Z</time>
      </trkpt>
      <trkpt lat="45.22252" lon="5.80592">
        <ele>238</ele>
        <time>2017-10-15T10:35:35Z</time>
      </trkpt>
      <trkpt lat="45.22242" lon="5.80598">
        <ele>238</ele>
        <time>2017-10-15T10:35:37Z</time>
      </trkpt>
      <trkpt lat="45.22236" lon="5.80603">
        <ele>238</ele>
        <time>2017-10-15T10:35:38Z</time>
      </trkpt>
      <trkpt lat="45.22234" lon="5.8061">
        <ele>238</ele>
        <time>2017-10-15T10:35:39Z</time>
      </trkpt>
      <trkpt lat="45.22226" lon="5.80618">
        <ele>238</ele>
        <time>2017-10-15T10:35:41Z</time>
      </trkpt>
      <trkpt lat="45.22223" lon="5.80625">
        <ele>238</ele>
        <time>2017-10-15T10:35:42Z</time>
      </trkpt>
      <trkpt lat="45.22213" lon="5.80634">
        <ele>237</ele>
        <time>2017-10-15T10:35:44Z</time>
      </trkpt>
      <trkpt lat="45.22208" lon="5.80639">
        <ele>237</ele>
        <time>2017-10-15T10:35:45Z</time>
      </trkpt>
      <trkpt lat="45.22207" lon="5.80649">
        <ele>237</ele>
        <time>2017-10-15T10:35:47Z</time>
      </trkpt>
      <trkpt lat="45.22201" lon="5.80655">
        <ele>237</ele>
        <time>2017-10-15T10:35:48Z</time>
      </trkpt>
      <trkpt lat="45.22193" lon="5.80665">
        <ele>237</ele>
        <time>2017-10-15T10:35:50Z</time>
      </trkpt>
      <trkpt lat="45.22188" lon="5.8067">
        <ele>236</ele>
        <time>2017-10-15T10:35:51Z</time>
      </trkpt>
      <trkpt lat="45.22178" lon="5.8068">
        <ele>236</ele>
        <time>2017-10-15T10:35:53Z</time>
      </trkpt>
      <trkpt lat="45.22171" lon="5.80683">
        <ele>236</ele>
        <time>2017-10-15T10:35:54Z</time>
      </trkpt>
      <trkpt lat="45.22158" lon="5.80694">
        <ele>235</ele>
        <time>2017-10-15T10:35:56Z</time>
      </trkpt>
      <trkpt lat="45.2215" lon="5.807">
        <ele>235</ele>
        <time>2017-10-15T10:35:57Z</time>
      </trkpt>
      <trkpt lat="45.22146" lon="5.80704">
        <ele>235</ele>
        <time>2017-10-15T10:35:58Z</time>
      </trkpt>
      <trkpt lat="45.22141" lon="5.80709">
        <ele>235</ele>
        <time>2017-10-15T10:35:59Z</time>
      </trkpt>
      <trkpt lat="45.22135" lon="5.80714">
        <ele>235</ele>
        <time>2017-10-15T10:36:00Z</time>
      </trkpt>
      <trkpt lat="45.22125" lon="5.80725">
        <ele>234</ele>
        <time>2017-10-15T10:36:03Z</time>
      </trkpt>
      <trkpt lat="45.22112" lon="5.80734">
        <ele>234</ele>
        <time>2017-10-15T10:36:05Z</time>
      </trkpt>
      <trkpt lat="45.22106" lon="5.8074">
        <ele>234</ele>
        <time>2017-10-15T10:36:06Z</time>
      </trkpt>
      <trkpt lat="45.221" lon="5.80746">
        <ele>234</ele>
        <time>2017-10-15T10:36:07Z</time>
      </trkpt>
      <trkpt lat="45.22096" lon="5.80755">
        <ele>233</ele>
        <time>2017-10-15T10:36:10Z</time>
      </trkpt>
      <trkpt lat="45.22088" lon="5.80764">
        <ele>233</ele>
        <time>2017-10-15T10:36:12Z</time>
      </trkpt>
      <trkpt lat="45.22083" lon="5.80767">
        <ele>233</ele>
        <time>2017-10-15T10:36:13Z</time>
      </trkpt>
      <trkpt lat="45.22074" lon="5.80775">
        <ele>233</ele>
        <time>2017-10-15T10:36:15Z</time>
      </trkpt>
      <trkpt lat="45.22062" lon="5.80785">
        <ele>232</ele>
        <time>2017-10-15T10:36:17Z</time>
      </trkpt>
      <trkpt lat="45.22052" lon="5.80794">
        <ele>232</ele>
        <time>2017-10-15T10:36:19Z</time>
      </trkpt>
      <trkpt lat="45.22047" lon="5.808">
        <ele>232</ele>
        <time>2017-10-15T10:36:20Z</time>
      </trkpt>
      <trkpt lat="45.22042" lon="5.80804">
        <ele>231</ele>
        <time>2017-10-15T10:36:21Z</time>
      </trkpt>
      <trkpt lat="45.22037" lon="5.80808">
        <ele>231</ele>
        <time>2017-10-15T10:36:22Z</time>
      </trkpt>
      <trkpt lat="45.22033" lon="5.80812">
        <ele>231</ele>
        <time>2017-10-15T10:36:23Z</time>
      </trkpt>
      <trkpt lat="45.22028" lon="5.80815">
        <ele>231</ele>
        <time>2017-10-15T10:36:24Z</time>
      </trkpt>
      <trkpt lat="45.22015" lon="5.80823">
        <ele>230</ele>
        <time>2017-10-15T10:36:26Z</time>
      </trkpt>
      <trkpt lat="45.22009" lon="5.80828">
        <ele>230</ele>
        <time>2017-10-15T10:36:27Z</time>
      </trkpt>
      <trkpt lat="45.22004" lon="5.80835">
        <ele>229</ele>
        <time>2017-10-15T10:36:28Z</time>
      </trkpt>
      <trkpt lat="45.21996" lon="5.8084">
        <ele>229</ele>
        <time>2017-10-15T10:36:29Z</time>
      </trkpt>
      <trkpt lat="45.2199" lon="5.80846">
        <ele>229</ele>
        <time>2017-10-15T10:36:30Z</time>
      </trkpt>
      <trkpt lat="45.21984" lon="5.80849">
        <ele>229</ele>
        <time>2017-10-15T10:36:31Z</time>
      </trkpt>
      <trkpt lat="45.21978" lon="5.80857">
        <ele>228</ele>
        <time>2017-10-15T10:36:32Z</time>
      </trkpt>
      <trkpt lat="45.21972" lon="5.80864">
        <ele>228</ele>
        <time>2017-10-15T10:36:34Z</time>
      </trkpt>
      <trkpt lat="45.21967" lon="5.8087">
        <ele>228</ele>
        <time>2017-10-15T10:36:35Z</time>
      </trkpt>
      <trkpt lat="45.21962" lon="5.80871">
        <ele>228</ele>
        <time>2017-10-15T10:36:36Z</time>
      </trkpt>
      <trkpt lat="45.21956" lon="5.80875">
        <ele>227</ele>
        <time>2017-10-15T10:36:37Z</time>
      </trkpt>
      <trkpt lat="45.2195" lon="5.80879">
        <ele>227</ele>
        <time>2017-10-15T10:36:38Z</time>
      </trkpt>
      <trkpt lat="45.21942" lon="5.80886">
        <ele>227</ele>
        <time>2017-10-15T10:36:40Z</time>
      </trkpt>
      <trkpt lat="45.21924" lon="5.809">
        <ele>226</ele>
        <time>2017-10-15T10:36:43Z</time>
      </trkpt>
      <trkpt lat="45.2192" lon="5.80905">
        <ele>226</ele>
        <time>2017-10-15T10:36:44Z</time>
      </trkpt>
      <trkpt lat="45.21915" lon="5.80909">
        <ele>226</ele>
        <time>2017-10-15T10:36:45Z</time>
      </trkpt>
      <trkpt lat="45.21911" lon="5.80914">
        <ele>225</ele>
        <time>2017-10-15T10:36:46Z</time>
      </trkpt>
      <trkpt lat="45.21905" lon="5.80917">
        <ele>225</ele>
        <time>2017-10-15T10:36:47Z</time>
      </trkpt>
      <trkpt lat="45.21896" lon="5.80923">
        <ele>225</ele>
        <time>2017-10-15T10:36:48Z</time>
      </trkpt>
      <trkpt lat="45.21887" lon="5.80931">
        <ele>224</ele>
        <time>2017-10-15T10:36:50Z</time>
      </trkpt>
      <trkpt lat="45.21883" lon="5.80934">
        <ele>224</ele>
        <time>2017-10-15T10:36:52Z</time>
      </trkpt>
      <trkpt lat="45.21878" lon="5.80937">
        <ele>224</ele>
        <time>2017-10-15T10:36:55Z</time>
      </trkpt>
      <trkpt lat="45.21872" lon="5.80939">
        <ele>223</ele>
        <time>2017-10-15T10:36:57Z</time>
      </trkpt>
      <trkpt lat="45.21876" lon="5.80948">
        <ele>223</ele>
        <time>2017-10-15T10:36:59Z</time>
      </trkpt>
      <trkpt lat="45.21882" lon="5.80956">
        <ele>223</ele>
        <time>2017-10-15T10:37:01Z</time>
      </trkpt>
      <trkpt lat="45.21885" lon="5.80962">
        <ele>223</ele>
        <time>2017-10-15T10:37:03Z</time>
      </trkpt>
      <trkpt lat="45.21889" lon="5.80968">
        <ele>223</ele>
        <time>2017-10-15T10:37:05Z</time>
      </trkpt>
      <trkpt lat="45.21894" lon="5.80975">
        <ele>223</ele>
        <time>2017-10-15T10:37:07Z</time>
      </trkpt>
      <trkpt lat="45.21898" lon="5.80984">
        <ele>223</ele>
        <time>2017-10-15T10:37:09Z</time>
      </trkpt>
      <trkpt lat="45.21903" lon="5.80993">
        <ele>223</ele>
        <time>2017-10-15T10:37:11Z</time>
      </trkpt>
      <trkpt lat="45.21909" lon="5.81005">
        <ele>224</ele>
        <time>2017-10-15T10:37:13Z</time>
      </trkpt>
      <trkpt lat="45.21912" lon="5.8101">
        <ele>224</ele>
        <time>2017-10-15T10:37:14Z</time>
      </trkpt>
      <trkpt lat="45.21915" lon="5.81015">
        <ele>224</ele>
        <time>2017-10-15T10:37:15Z</time>
      </trkpt>
      <trkpt lat="45.21921" lon="5.81024">
        <ele>224</ele>
        <time>2017-10-15T10:37:17Z</time>
      </trkpt>
      <trkpt lat="45.21925" lon="5.81029">
        <ele>224</ele>
        <time>2017-10-15T10:37:18Z</time>
      </trkpt>
      <trkpt lat="45.21932" lon="5.81038">
        <ele>224</ele>
        <time>2017-10-15T10:37:20Z</time>
      </trkpt>
      <trkpt lat="45.21935" lon="5.81044">
        <ele>224</ele>
        <time>2017-10-15T10:37:21Z</time>
      </trkpt>
      <trkpt lat="45.2194" lon="5.81051">
        <ele>224</ele>
        <time>2017-10-15T10:37:22Z</time>
      </trkpt>
      <trkpt lat="45.21945" lon="5.81056">
        <ele>224</ele>
        <time>2017-10-15T10:37:23Z</time>
      </trkpt>
      <trkpt lat="45.21948" lon="5.81062">
        <ele>224</ele>
        <time>2017-10-15T10:37:24Z</time>
      </trkpt>
      <trkpt lat="45.21952" lon="5.81066">
        <ele>225</ele>
        <time>2017-10-15T10:37:25Z</time>
      </trkpt>
      <trkpt lat="45.21955" lon="5.81072">
        <ele>225</ele>
        <time>2017-10-15T10:37:26Z</time>
      </trkpt>
      <trkpt lat="45.21957" lon="5.81078">
        <ele>224</ele>
        <time>2017-10-15T10:37:27Z</time>
      </trkpt>
      <trkpt lat="45.21963" lon="5.81084">
        <ele>225</ele>
        <time>2017-10-15T10:37:28Z</time>
      </trkpt>
      <trkpt lat="45.2197" lon="5.81097">
        <ele>225</ele>
        <time>2017-10-15T10:37:30Z</time>
      </trkpt>
      <trkpt lat="45.21971" lon="5.81104">
        <ele>225</ele>
        <time>2017-10-15T10:37:32Z</time>
      </trkpt>
      <trkpt lat="45.21975" lon="5.8111">
        <ele>225</ele>
        <time>2017-10-15T10:37:33Z</time>
      </trkpt>
      <trkpt lat="45.21978" lon="5.81115">
        <ele>225</ele>
        <time>2017-10-15T10:37:34Z</time>
      </trkpt>
      <trkpt lat="45.21982" lon="5.81124">
        <ele>225</ele>
        <time>2017-10-15T10:37:36Z</time>
      </trkpt>
      <trkpt lat="45.21989" lon="5.81133">
        <ele>225</ele>
        <time>2017-10-15T10:37:38Z</time>
      </trkpt>
      <trkpt lat="45.21993" lon="5.81139">
        <ele>225</ele>
        <time>2017-10-15T10:37:39Z</time>
      </trkpt>
      <trkpt lat="45.21997" lon="5.81143">
        <ele>225</ele>
        <time>2017-10-15T10:37:40Z</time>
      </trkpt>
      <trkpt lat="45.22001" lon="5.81148">
        <ele>225</ele>
        <time>2017-10-15T10:37:41Z</time>
      </trkpt>
      <trkpt lat="45.22006" lon="5.81155">
        <ele>225</ele>
        <time>2017-10-15T10:37:43Z</time>
      </trkpt>
      <trkpt lat="45.22008" lon="5.81162">
        <ele>225</ele>
        <time>2017-10-15T10:37:45Z</time>
      </trkpt>
      <trkpt lat="45.22007" lon="5.81171">
        <ele>225</ele>
        <time>2017-10-15T10:37:49Z</time>
      </trkpt>
      <trkpt lat="45.22006" lon="5.8118">
        <ele>224</ele>
        <time>2017-10-15T10:37:51Z</time>
      </trkpt>
      <trkpt lat="45.22005" lon="5.81188">
        <ele>224</ele>
        <time>2017-10-15T10:37:53Z</time>
      </trkpt>
      <trkpt lat="45.22001" lon="5.81196">
        <ele>224</ele>
        <time>2017-10-15T10:37:55Z</time>
      </trkpt>
      <trkpt lat="45.21994" lon="5.81206">
        <ele>224</ele>
        <time>2017-10-15T10:37:57Z</time>
      </trkpt>
      <trkpt lat="45.21988" lon="5.81211">
        <ele>223</ele>
        <time>2017-10-15T10:37:58Z</time>
      </trkpt>
      <trkpt lat="45.21984" lon="5.8122">
        <ele>223</ele>
        <time>2017-10-15T10:38:00Z</time>
      </trkpt>
      <trkpt lat="45.2198" lon="5.81224">
        <ele>223</ele>
        <time>2017-10-15T10:38:01Z</time>
      </trkpt>
      <trkpt lat="45.21975" lon="5.81229">
        <ele>223</ele>
        <time>2017-10-15T10:38:02Z</time>
      </trkpt>
      <trkpt lat="45.21969" lon="5.81238">
        <ele>223</ele>
        <time>2017-10-15T10:38:03Z</time>
      </trkpt>
      <trkpt lat="45.21965" lon="5.81241">
        <ele>222</ele>
        <time>2017-10-15T10:38:04Z</time>
      </trkpt>
      <trkpt lat="45.21962" lon="5.81247">
        <ele>222</ele>
        <time>2017-10-15T10:38:05Z</time>
      </trkpt>
      <trkpt lat="45.21956" lon="5.81262">
        <ele>222</ele>
        <time>2017-10-15T10:38:07Z</time>
      </trkpt>
      <trkpt lat="45.21953" lon="5.81274">
        <ele>222</ele>
        <time>2017-10-15T10:38:18Z</time>
      </trkpt>
      <trkpt lat="45.21955" lon="5.81282">
        <ele>222</ele>
        <time>2017-10-15T10:38:36Z</time>
      </trkpt>
      <trkpt lat="45.21956" lon="5.81291">
        <ele>222</ele>
        <time>2017-10-15T10:38:38Z</time>
      </trkpt>
      <trkpt lat="45.21956" lon="5.813">
        <ele>222</ele>
        <time>2017-10-15T10:38:40Z</time>
      </trkpt>
      <trkpt lat="45.21957" lon="5.81311">
        <ele>222</ele>
        <time>2017-10-15T10:38:42Z</time>
      </trkpt>
      <trkpt lat="45.21959" lon="5.81323">
        <ele>222</ele>
        <time>2017-10-15T10:38:44Z</time>
      </trkpt>
      <trkpt lat="45.21959" lon="5.81329">
        <ele>222</ele>
        <time>2017-10-15T10:38:45Z</time>
      </trkpt>
      <trkpt lat="45.21958" lon="5.81338">
        <ele>222</ele>
        <time>2017-10-15T10:38:46Z</time>
      </trkpt>
      <trkpt lat="45.21957" lon="5.8135">
        <ele>222</ele>
        <time>2017-10-15T10:38:48Z</time>
      </trkpt>
      <trkpt lat="45.21958" lon="5.81365">
        <ele>222</ele>
        <time>2017-10-15T10:38:50Z</time>
      </trkpt>
      <trkpt lat="45.21957" lon="5.81378">
        <ele>221</ele>
        <time>2017-10-15T10:38:52Z</time>
      </trkpt>
      <trkpt lat="45.21956" lon="5.81387">
        <ele>221</ele>
        <time>2017-10-15T10:38:53Z</time>
      </trkpt>
      <trkpt lat="45.21954" lon="5.81393">
        <ele>221</ele>
        <time>2017-10-15T10:38:54Z</time>
      </trkpt>
      <trkpt lat="45.21948" lon="5.81404">
        <ele>221</ele>
        <time>2017-10-15T10:38:56Z</time>
      </trkpt>
      <trkpt lat="45.21942" lon="5.8141">
        <ele>221</ele>
        <time>2017-10-15T10:38:57Z</time>
      </trkpt>
      <trkpt lat="45.21936" lon="5.81413">
        <ele>221</ele>
        <time>2017-10-15T10:38:58Z</time>
      </trkpt>
      <trkpt lat="45.21932" lon="5.81417">
        <ele>220</ele>
        <time>2017-10-15T10:38:59Z</time>
      </trkpt>
      <trkpt lat="45.21927" lon="5.81421">
        <ele>220</ele>
        <time>2017-10-15T10:39:00Z</time>
      </trkpt>
      <trkpt lat="45.2192" lon="5.81427">
        <ele>220</ele>
        <time>2017-10-15T10:39:02Z</time>
      </trkpt>
      <trkpt lat="45.21915" lon="5.81431">
        <ele>220</ele>
        <time>2017-10-15T10:39:03Z</time>
      </trkpt>
      <trkpt lat="45.21906" lon="5.81441">
        <ele>220</ele>
        <time>2017-10-15T10:39:05Z</time>
      </trkpt>
      <trkpt lat="45.21901" lon="5.81445">
        <ele>220</ele>
        <time>2017-10-15T10:39:06Z</time>
      </trkpt>
      <trkpt lat="45.21892" lon="5.81454">
        <ele>220</ele>
        <time>2017-10-15T10:39:08Z</time>
      </trkpt>
      <trkpt lat="45.21887" lon="5.81458">
        <ele>220</ele>
        <time>2017-10-15T10:39:09Z</time>
      </trkpt>
      <trkpt lat="45.21882" lon="5.81461">
        <ele>220</ele>
        <time>2017-10-15T10:39:10Z</time>
      </trkpt>
      <trkpt lat="45.21877" lon="5.81467">
        <ele>220</ele>
        <time>2017-10-15T10:39:11Z</time>
      </trkpt>
      <trkpt lat="45.21871" lon="5.81475">
        <ele>220</ele>
        <time>2017-10-15T10:39:13Z</time>
      </trkpt>
      <trkpt lat="45.21866" lon="5.81479">
        <ele>220</ele>
        <time>2017-10-15T10:39:14Z</time>
      </trkpt>
      <trkpt lat="45.21858" lon="5.81486">
        <ele>220</ele>
        <time>2017-10-15T10:39:15Z</time>
      </trkpt>
      <trkpt lat="45.21846" lon="5.81494">
        <ele>220</ele>
        <time>2017-10-15T10:39:17Z</time>
      </trkpt>
      <trkpt lat="45.21839" lon="5.81503">
        <ele>220</ele>
        <time>2017-10-15T10:39:19Z</time>
      </trkpt>
      <trkpt lat="45.21834" lon="5.81509">
        <ele>220</ele>
        <time>2017-10-15T10:39:20Z</time>
      </trkpt>
      <trkpt lat="45.21827" lon="5.81517">
        <ele>220</ele>
        <time>2017-10-15T10:39:22Z</time>
      </trkpt>
      <trkpt lat="45.21824" lon="5.81521">
        <ele>220</ele>
        <time>2017-10-15T10:39:23Z</time>
      </trkpt>
      <trkpt lat="45.21819" lon="5.81527">
        <ele>220</ele>
        <time>2017-10-15T10:39:24Z</time>
      </trkpt>
      <trkpt lat="45.21814" lon="5.81533">
        <ele>220</ele>
        <time>2017-10-15T10:39:25Z</time>
      </trkpt>
      <trkpt lat="45.21809" lon="5.81538">
        <ele>220</ele>
        <time>2017-10-15T10:39:26Z</time>
      </trkpt>
      <trkpt lat="45.21803" lon="5.81543">
        <ele>220</ele>
        <time>2017-10-15T10:39:27Z</time>
      </trkpt>
      <trkpt lat="45.21792" lon="5.8155">
        <ele>220</ele>
        <time>2017-10-15T10:39:29Z</time>
      </trkpt>
      <trkpt lat="45.21785" lon="5.81553">
        <ele>220</ele>
        <time>2017-10-15T10:39:30Z</time>
      </trkpt>
      <trkpt lat="45.21778" lon="5.81555">
        <ele>220</ele>
        <time>2017-10-15T10:39:31Z</time>
      </trkpt>
      <trkpt lat="45.21772" lon="5.81558">
        <ele>220</ele>
        <time>2017-10-15T10:39:32Z</time>
      </trkpt>
      <trkpt lat="45.21765" lon="5.81562">
        <ele>219</ele>
        <time>2017-10-15T10:39:33Z</time>
      </trkpt>
      <trkpt lat="45.2176" lon="5.8156">
        <ele>219</ele>
        <time>2017-10-15T10:39:34Z</time>
      </trkpt>
      <trkpt lat="45.21754" lon="5.8156">
        <ele>219</ele>
        <time>2017-10-15T10:39:35Z</time>
      </trkpt>
      <trkpt lat="45.21749" lon="5.81563">
        <ele>219</ele>
        <time>2017-10-15T10:39:36Z</time>
      </trkpt>
      <trkpt lat="45.21743" lon="5.81564">
        <ele>219</ele>
        <time>2017-10-15T10:39:37Z</time>
      </trkpt>
      <trkpt lat="45.21738" lon="5.81566">
        <ele>219</ele>
        <time>2017-10-15T10:39:38Z</time>
      </trkpt>
      <trkpt lat="45.21733" lon="5.81569">
        <ele>219</ele>
        <time>2017-10-15T10:39:39Z</time>
      </trkpt>
      <trkpt lat="45.21726" lon="5.81578">
        <ele>219</ele>
        <time>2017-10-15T10:39:41Z</time>
      </trkpt>
      <trkpt lat="45.21721" lon="5.81582">
        <ele>219</ele>
        <time>2017-10-15T10:39:42Z</time>
      </trkpt>
      <trkpt lat="45.21717" lon="5.81591">
        <ele>219</ele>
        <time>2017-10-15T10:39:44Z</time>
      </trkpt>
      <trkpt lat="45.21714" lon="5.81597">
        <ele>219</ele>
        <time>2017-10-15T10:39:45Z</time>
      </trkpt>
      <trkpt lat="45.2171" lon="5.81604">
        <ele>219</ele>
        <time>2017-10-15T10:39:46Z</time>
      </trkpt>
      <trkpt lat="45.21706" lon="5.81611">
        <ele>219</ele>
        <time>2017-10-15T10:39:47Z</time>
      </trkpt>
      <trkpt lat="45.21703" lon="5.81617">
        <ele>219</ele>
        <time>2017-10-15T10:39:48Z</time>
      </trkpt>
      <trkpt lat="45.21692" lon="5.8162">
        <ele>219</ele>
        <time>2017-10-15T10:39:52Z</time>
      </trkpt>
      <trkpt lat="45.21692" lon="5.81628">
        <ele>219</ele>
        <time>2017-10-15T10:39:53Z</time>
      </trkpt>
      <trkpt lat="45.21687" lon="5.81641">
        <ele>219</ele>
        <time>2017-10-15T10:39:54Z</time>
      </trkpt>
      <trkpt lat="45.21682" lon="5.81636">
        <ele>219</ele>
        <time>2017-10-15T10:39:55Z</time>
      </trkpt>
      <trkpt lat="45.21671" lon="5.81629">
        <ele>219</ele>
        <time>2017-10-15T10:39:57Z</time>
      </trkpt>
      <trkpt lat="45.21667" lon="5.81622">
        <ele>219</ele>
        <time>2017-10-15T10:39:58Z</time>
      </trkpt>
      <trkpt lat="45.21663" lon="5.81618">
        <ele>219</ele>
        <time>2017-10-15T10:39:59Z</time>
      </trkpt>
      <trkpt lat="45.21659" lon="5.81614">
        <ele>219</ele>
        <time>2017-10-15T10:40:00Z</time>
      </trkpt>
      <trkpt lat="45.21653" lon="5.81612">
        <ele>219</ele>
        <time>2017-10-15T10:40:01Z</time>
      </trkpt>
      <trkpt lat="45.21647" lon="5.81616">
        <ele>219</ele>
        <time>2017-10-15T10:40:03Z</time>
      </trkpt>
      <trkpt lat="45.21646" lon="5.81625">
        <ele>219</ele>
        <time>2017-10-15T10:40:04Z</time>
      </trkpt>
      <trkpt lat="45.2165" lon="5.81639">
        <ele>219</ele>
        <time>2017-10-15T10:40:06Z</time>
      </trkpt>
      <trkpt lat="45.21653" lon="5.81647">
        <ele>219</ele>
        <time>2017-10-15T10:40:08Z</time>
      </trkpt>
      <trkpt lat="45.21665" lon="5.81659">
        <ele>219</ele>
        <time>2017-10-15T10:40:11Z</time>
      </trkpt>
      <trkpt lat="45.21671" lon="5.81663">
        <ele>219</ele>
        <time>2017-10-15T10:40:13Z</time>
      </trkpt>
      <trkpt lat="45.21679" lon="5.81671">
        <ele>219</ele>
        <time>2017-10-15T10:40:15Z</time>
      </trkpt>
      <trkpt lat="45.21686" lon="5.81681">
        <ele>219</ele>
        <time>2017-10-15T10:40:17Z</time>
      </trkpt>
      <trkpt lat="45.21689" lon="5.81686">
        <ele>219</ele>
        <time>2017-10-15T10:40:18Z</time>
      </trkpt>
      <trkpt lat="45.21694" lon="5.8169">
        <ele>219</ele>
        <time>2017-10-15T10:40:19Z</time>
      </trkpt>
      <trkpt lat="45.21703" lon="5.81695">
        <ele>219</ele>
        <time>2017-10-15T10:40:21Z</time>
      </trkpt>
      <trkpt lat="45.21707" lon="5.817">
        <ele>219</ele>
        <time>2017-10-15T10:40:22Z</time>
      </trkpt>
      <trkpt lat="45.21711" lon="5.81705">
        <ele>219</ele>
        <time>2017-10-15T10:40:23Z</time>
      </trkpt>
      <trkpt lat="45.21719" lon="5.81713">
        <ele>219</ele>
        <time>2017-10-15T10:40:25Z</time>
      </trkpt>
      <trkpt lat="45.21723" lon="5.81717">
        <ele>219</ele>
        <time>2017-10-15T10:40:26Z</time>
      </trkpt>
      <trkpt lat="45.21728" lon="5.81721">
        <ele>219</ele>
        <time>2017-10-15T10:40:27Z</time>
      </trkpt>
      <trkpt lat="45.21732" lon="5.81726">
        <ele>219</ele>
        <time>2017-10-15T10:40:28Z</time>
      </trkpt>
      <trkpt lat="45.21737" lon="5.8173">
        <ele>219</ele>
        <time>2017-10-15T10:40:29Z</time>
      </trkpt>
      <trkpt lat="45.21743" lon="5.81739">
        <ele>219</ele>
        <time>2017-10-15T10:40:31Z</time>
      </trkpt>
      <trkpt lat="45.21751" lon="5.81749">
        <ele>219</ele>
        <time>2017-10-15T10:40:33Z</time>
      </trkpt>
      <trkpt lat="45.21759" lon="5.81757">
        <ele>219</ele>
        <time>2017-10-15T10:40:35Z</time>
      </trkpt>
      <trkpt lat="45.21766" lon="5.81763">
        <ele>219</ele>
        <time>2017-10-15T10:40:37Z</time>
      </trkpt>
      <trkpt lat="45.21773" lon="5.81769">
        <ele>220</ele>
        <time>2017-10-15T10:40:39Z</time>
      </trkpt>
      <trkpt lat="45.21781" lon="5.81777">
        <ele>220</ele>
        <time>2017-10-15T10:40:41Z</time>
      </trkpt>
      <trkpt lat="45.21789" lon="5.81782">
        <ele>220</ele>
        <time>2017-10-15T10:40:43Z</time>
      </trkpt>
      <trkpt lat="45.21794" lon="5.81786">
        <ele>220</ele>
        <time>2017-10-15T10:40:44Z</time>
      </trkpt>
      <trkpt lat="45.21798" lon="5.81789">
        <ele>220</ele>
        <time>2017-10-15T10:40:45Z</time>
      </trkpt>
      <trkpt lat="45.21807" lon="5.81798">
        <ele>219</ele>
        <time>2017-10-15T10:40:47Z</time>
      </trkpt>
      <trkpt lat="45.21817" lon="5.81807">
        <ele>219</ele>
        <time>2017-10-15T10:40:49Z</time>
      </trkpt>
      <trkpt lat="45.2182" lon="5.81813">
        <ele>219</ele>
        <time>2017-10-15T10:40:50Z</time>
      </trkpt>
      <trkpt lat="45.21832" lon="5.81827">
        <ele>219</ele>
        <time>2017-10-15T10:40:53Z</time>
      </trkpt>
      <trkpt lat="45.21842" lon="5.81837">
        <ele>220</ele>
        <time>2017-10-15T10:40:55Z</time>
      </trkpt>
      <trkpt lat="45.21848" lon="5.81847">
        <ele>220</ele>
        <time>2017-10-15T10:40:57Z</time>
      </trkpt>
      <trkpt lat="45.21855" lon="5.81853">
        <ele>220</ele>
        <time>2017-10-15T10:40:58Z</time>
      </trkpt>
      <trkpt lat="45.21859" lon="5.81857">
        <ele>220</ele>
        <time>2017-10-15T10:40:59Z</time>
      </trkpt>
      <trkpt lat="45.21865" lon="5.8186">
        <ele>220</ele>
        <time>2017-10-15T10:41:00Z</time>
      </trkpt>
      <trkpt lat="45.2187" lon="5.81864">
        <ele>220</ele>
        <time>2017-10-15T10:41:01Z</time>
      </trkpt>
      <trkpt lat="45.21874" lon="5.81868">
        <ele>220</ele>
        <time>2017-10-15T10:41:02Z</time>
      </trkpt>
      <trkpt lat="45.21878" lon="5.81872">
        <ele>220</ele>
        <time>2017-10-15T10:41:03Z</time>
      </trkpt>
      <trkpt lat="45.21882" lon="5.81877">
        <ele>220</ele>
        <time>2017-10-15T10:41:04Z</time>
      </trkpt>
      <trkpt lat="45.21887" lon="5.81881">
        <ele>220</ele>
        <time>2017-10-15T10:41:05Z</time>
      </trkpt>
      <trkpt lat="45.21895" lon="5.81887">
        <ele>220</ele>
        <time>2017-10-15T10:41:07Z</time>
      </trkpt>
      <trkpt lat="45.21904" lon="5.81895">
        <ele>220</ele>
        <time>2017-10-15T10:41:09Z</time>
      </trkpt>
      <trkpt lat="45.21909" lon="5.819">
        <ele>220</ele>
        <time>2017-10-15T10:41:10Z</time>
      </trkpt>
      <trkpt lat="45.21918" lon="5.8191">
        <ele>220</ele>
        <time>2017-10-15T10:41:12Z</time>
      </trkpt>
      <trkpt lat="45.21927" lon="5.81917">
        <ele>220</ele>
        <time>2017-10-15T10:41:15Z</time>
      </trkpt>
      <trkpt lat="45.21933" lon="5.81921">
        <ele>220</ele>
        <time>2017-10-15T10:41:16Z</time>
      </trkpt>
      <trkpt lat="45.21937" lon="5.81925">
        <ele>220</ele>
        <time>2017-10-15T10:41:17Z</time>
      </trkpt>
      <trkpt lat="45.21941" lon="5.8193">
        <ele>220</ele>
        <time>2017-10-15T10:41:18Z</time>
      </trkpt>
      <trkpt lat="45.21946" lon="5.81932">
        <ele>220</ele>
        <time>2017-10-15T10:41:19Z</time>
      </trkpt>
      <trkpt lat="45.21953" lon="5.81938">
        <ele>220</ele>
        <time>2017-10-15T10:41:20Z</time>
      </trkpt>
      <trkpt lat="45.21965" lon="5.8195">
        <ele>220</ele>
        <time>2017-10-15T10:41:22Z</time>
      </trkpt>
      <trkpt lat="45.21972" lon="5.81956">
        <ele>220</ele>
        <time>2017-10-15T10:41:23Z</time>
      </trkpt>
      <trkpt lat="45.21977" lon="5.81961">
        <ele>220</ele>
        <time>2017-10-15T10:41:24Z</time>
      </trkpt>
      <trkpt lat="45.21983" lon="5.81974">
        <ele>220</ele>
        <time>2017-10-15T10:41:27Z</time>
      </trkpt>
      <trkpt lat="45.21989" lon="5.81975">
        <ele>220</ele>
        <time>2017-10-15T10:41:28Z</time>
      </trkpt>
      <trkpt lat="45.21993" lon="5.81987">
        <ele>220</ele>
        <time>2017-10-15T10:41:29Z</time>
      </trkpt>
      <trkpt lat="45.22002" lon="5.81994">
        <ele>220</ele>
        <time>2017-10-15T10:41:31Z</time>
      </trkpt>
      <trkpt lat="45.22013" lon="5.82004">
        <ele>220</ele>
        <time>2017-10-15T10:41:34Z</time>
      </trkpt>
      <trkpt lat="45.22018" lon="5.82005">
        <ele>220</ele>
        <time>2017-10-15T10:41:35Z</time>
      </trkpt>
      <trkpt lat="45.22023" lon="5.82009">
        <ele>220</ele>
        <time>2017-10-15T10:41:36Z</time>
      </trkpt>
      <trkpt lat="45.22028" lon="5.82012">
        <ele>220</ele>
        <time>2017-10-15T10:41:37Z</time>
      </trkpt>
      <trkpt lat="45.22039" lon="5.82023">
        <ele>220</ele>
        <time>2017-10-15T10:41:39Z</time>
      </trkpt>
      <trkpt lat="45.22046" lon="5.82031">
        <ele>220</ele>
        <time>2017-10-15T10:41:41Z</time>
      </trkpt>
      <trkpt lat="45.22054" lon="5.82038">
        <ele>220</ele>
        <time>2017-10-15T10:41:43Z</time>
      </trkpt>
      <trkpt lat="45.22062" lon="5.82045">
        <ele>220</ele>
        <time>2017-10-15T10:41:45Z</time>
      </trkpt>
      <trkpt lat="45.2207" lon="5.8205">
        <ele>220</ele>
        <time>2017-10-15T10:41:47Z</time>
      </trkpt>
      <trkpt lat="45.22073" lon="5.82058">
        <ele>220</ele>
        <time>2017-10-15T10:41:48Z</time>
      </trkpt>
      <trkpt lat="45.22079" lon="5.82064">
        <ele>220</ele>
        <time>2017-10-15T10:41:49Z</time>
      </trkpt>
      <trkpt lat="45.22083" lon="5.82068">
        <ele>220</ele>
        <time>2017-10-15T10:41:50Z</time>
      </trkpt>
      <trkpt lat="45.22087" lon="5.82071">
        <ele>220</ele>
        <time>2017-10-15T10:41:51Z</time>
      </trkpt>
      <trkpt lat="45.22094" lon="5.82077">
        <ele>220</ele>
        <time>2017-10-15T10:41:53Z</time>
      </trkpt>
      <trkpt lat="45.22097" lon="5.82083">
        <ele>220</ele>
        <time>2017-10-15T10:41:54Z</time>
      </trkpt>
      <trkpt lat="45.22103" lon="5.8209">
        <ele>220</ele>
        <time>2017-10-15T10:41:56Z</time>
      </trkpt>
      <trkpt lat="45.22105" lon="5.821">
        <ele>220</ele>
        <time>2017-10-15T10:41:58Z</time>
      </trkpt>
      <trkpt lat="45.22106" lon="5.82106">
        <ele>220</ele>
        <time>2017-10-15T10:41:59Z</time>
      </trkpt>
      <trkpt lat="45.22103" lon="5.82115">
        <ele>220</ele>
        <time>2017-10-15T10:42:01Z</time>
      </trkpt>
      <trkpt lat="45.22097" lon="5.82119">
        <ele>220</ele>
        <time>2017-10-15T10:42:03Z</time>
      </trkpt>
      <trkpt lat="45.22089" lon="5.82122">
        <ele>220</ele>
        <time>2017-10-15T10:42:05Z</time>
      </trkpt>
      <trkpt lat="45.2208" lon="5.82129">
        <ele>220</ele>
        <time>2017-10-15T10:42:07Z</time>
      </trkpt>
      <trkpt lat="45.22072" lon="5.82133">
        <ele>220</ele>
        <time>2017-10-15T10:42:09Z</time>
      </trkpt>
      <trkpt lat="45.22066" lon="5.82137">
        <ele>220</ele>
        <time>2017-10-15T10:42:10Z</time>
      </trkpt>
      <trkpt lat="45.2206" lon="5.82143">
        <ele>220</ele>
        <time>2017-10-15T10:42:11Z</time>
      </trkpt>
      <trkpt lat="45.22056" lon="5.82145">
        <ele>220</ele>
        <time>2017-10-15T10:42:12Z</time>
      </trkpt>
      <trkpt lat="45.22049" lon="5.82147">
        <ele>220</ele>
        <time>2017-10-15T10:42:13Z</time>
      </trkpt>
      <trkpt lat="45.22041" lon="5.82152">
        <ele>220</ele>
        <time>2017-10-15T10:42:14Z</time>
      </trkpt>
      <trkpt lat="45.22036" lon="5.82157">
        <ele>220</ele>
        <time>2017-10-15T10:42:15Z</time>
      </trkpt>
      <trkpt lat="45.2203" lon="5.82159">
        <ele>220</ele>
        <time>2017-10-15T10:42:16Z</time>
      </trkpt>
      <trkpt lat="45.22018" lon="5.82166">
        <ele>220</ele>
        <time>2017-10-15T10:42:18Z</time>
      </trkpt>
      <trkpt lat="45.22012" lon="5.82168">
        <ele>220</ele>
        <time>2017-10-15T10:42:19Z</time>
      </trkpt>
      <trkpt lat="45.22006" lon="5.82173">
        <ele>220</ele>
        <time>2017-10-15T10:42:20Z</time>
      </trkpt>
      <trkpt lat="45.21998" lon="5.82179">
        <ele>220</ele>
        <time>2017-10-15T10:42:22Z</time>
      </trkpt>
      <trkpt lat="45.21993" lon="5.82184">
        <ele>220</ele>
        <time>2017-10-15T10:42:23Z</time>
      </trkpt>
      <trkpt lat="45.21986" lon="5.82188">
        <ele>220</ele>
        <time>2017-10-15T10:42:24Z</time>
      </trkpt>
      <trkpt lat="45.21981" lon="5.82191">
        <ele>220</ele>
        <time>2017-10-15T10:42:25Z</time>
      </trkpt>
      <trkpt lat="45.21973" lon="5.82195">
        <ele>220</ele>
        <time>2017-10-15T10:42:27Z</time>
      </trkpt>
      <trkpt lat="45.21968" lon="5.82199">
        <ele>220</ele>
        <time>2017-10-15T10:42:28Z</time>
      </trkpt>
      <trkpt lat="45.21961" lon="5.82203">
        <ele>220</ele>
        <time>2017-10-15T10:42:29Z</time>
      </trkpt>
      <trkpt lat="45.21954" lon="5.82208">
        <ele>220</ele>
        <time>2017-10-15T10:42:31Z</time>
      </trkpt>
      <trkpt lat="45.21949" lon="5.82212">
        <ele>220</ele>
        <time>2017-10-15T10:42:32Z</time>
      </trkpt>
      <trkpt lat="45.21944" lon="5.82217">
        <ele>220</ele>
        <time>2017-10-15T10:42:33Z</time>
      </trkpt>
      <trkpt lat="45.21939" lon="5.82221">
        <ele>220</ele>
        <time>2017-10-15T10:42:34Z</time>
      </trkpt>
      <trkpt lat="45.21932" lon="5.82228">
        <ele>220</ele>
        <time>2017-10-15T10:42:36Z</time>
      </trkpt>
      <trkpt lat="45.21923" lon="5.82234">
        <ele>220</ele>
        <time>2017-10-15T10:42:38Z</time>
      </trkpt>
      <trkpt lat="45.21918" lon="5.82235">
        <ele>220</ele>
        <time>2017-10-15T10:42:39Z</time>
      </trkpt>
      <trkpt lat="45.21913" lon="5.8224">
        <ele>220</ele>
        <time>2017-10-15T10:42:40Z</time>
      </trkpt>
      <trkpt lat="45.21909" lon="5.82242">
        <ele>220</ele>
        <time>2017-10-15T10:42:41Z</time>
      </trkpt>
      <trkpt lat="45.21904" lon="5.82248">
        <ele>220</ele>
        <time>2017-10-15T10:42:42Z</time>
      </trkpt>
      <trkpt lat="45.21899" lon="5.82258">
        <ele>220</ele>
        <time>2017-10-15T10:42:45Z</time>
      </trkpt>
      <trkpt lat="45.2189" lon="5.82262">
        <ele>220</ele>
        <time>2017-10-15T10:42:47Z</time>
      </trkpt>
      <trkpt lat="45.2188" lon="5.82264">
        <ele>220</ele>
        <time>2017-10-15T10:42:49Z</time>
      </trkpt>
      <trkpt lat="45.21875" lon="5.82266">
        <ele>220</ele>
        <time>2017-10-15T10:42:50Z</time>
      </trkpt>
      <trkpt lat="45.21869" lon="5.8227">
        <ele>220</ele>
        <time>2017-10-15T10:42:52Z</time>
      </trkpt>
      <trkpt lat="45.21863" lon="5.82272">
        <ele>220</ele>
        <time>2017-10-15T10:42:53Z</time>
      </trkpt>
      <trkpt lat="45.21857" lon="5.82274">
        <ele>220</ele>
        <time>2017-10-15T10:42:54Z</time>
      </trkpt>
      <trkpt lat="45.21852" lon="5.82276">
        <ele>220</ele>
        <time>2017-10-15T10:42:55Z</time>
      </trkpt>
      <trkpt lat="45.21846" lon="5.82279">
        <ele>220</ele>
        <time>2017-10-15T10:42:56Z</time>
      </trkpt>
      <trkpt lat="45.21841" lon="5.82282">
        <ele>220</ele>
        <time>2017-10-15T10:42:57Z</time>
      </trkpt>
      <trkpt lat="45.21834" lon="5.82284">
        <ele>219</ele>
        <time>2017-10-15T10:42:58Z</time>
      </trkpt>
      <trkpt lat="45.21826" lon="5.82288">
        <ele>219</ele>
        <time>2017-10-15T10:43:00Z</time>
      </trkpt>
      <trkpt lat="45.21821" lon="5.82292">
        <ele>219</ele>
        <time>2017-10-15T10:43:01Z</time>
      </trkpt>
      <trkpt lat="45.21817" lon="5.82295">
        <ele>219</ele>
        <time>2017-10-15T10:43:02Z</time>
      </trkpt>
      <trkpt lat="45.21806" lon="5.82302">
        <ele>219</ele>
        <time>2017-10-15T10:43:04Z</time>
      </trkpt>
      <trkpt lat="45.21797" lon="5.82307">
        <ele>219</ele>
        <time>2017-10-15T10:43:06Z</time>
      </trkpt>
      <trkpt lat="45.21792" lon="5.82313">
        <ele>219</ele>
        <time>2017-10-15T10:43:07Z</time>
      </trkpt>
      <trkpt lat="45.21787" lon="5.82315">
        <ele>219</ele>
        <time>2017-10-15T10:43:08Z</time>
      </trkpt>
      <trkpt lat="45.21781" lon="5.82322">
        <ele>219</ele>
        <time>2017-10-15T10:43:09Z</time>
      </trkpt>
      <trkpt lat="45.21772" lon="5.82332">
        <ele>219</ele>
        <time>2017-10-15T10:43:11Z</time>
      </trkpt>
      <trkpt lat="45.21765" lon="5.82339">
        <ele>219</ele>
        <time>2017-10-15T10:43:12Z</time>
      </trkpt>
      <trkpt lat="45.21759" lon="5.82344">
        <ele>219</ele>
        <time>2017-10-15T10:43:13Z</time>
      </trkpt>
      <trkpt lat="45.21752" lon="5.82348">
        <ele>219</ele>
        <time>2017-10-15T10:43:14Z</time>
      </trkpt>
      <trkpt lat="45.21746" lon="5.82351">
        <ele>219</ele>
        <time>2017-10-15T10:43:15Z</time>
      </trkpt>
      <trkpt lat="45.21737" lon="5.82358">
        <ele>219</ele>
        <time>2017-10-15T10:43:17Z</time>
      </trkpt>
      <trkpt lat="45.21726" lon="5.82366">
        <ele>219</ele>
        <time>2017-10-15T10:43:19Z</time>
      </trkpt>
      <trkpt lat="45.21719" lon="5.82371">
        <ele>219</ele>
        <time>2017-10-15T10:43:20Z</time>
      </trkpt>
      <trkpt lat="45.21709" lon="5.82377">
        <ele>219</ele>
        <time>2017-10-15T10:43:22Z</time>
      </trkpt>
      <trkpt lat="45.21704" lon="5.82381">
        <ele>219</ele>
        <time>2017-10-15T10:43:23Z</time>
      </trkpt>
      <trkpt lat="45.21698" lon="5.82384">
        <ele>219</ele>
        <time>2017-10-15T10:43:24Z</time>
      </trkpt>
      <trkpt lat="45.21693" lon="5.82388">
        <ele>219</ele>
        <time>2017-10-15T10:43:26Z</time>
      </trkpt>
      <trkpt lat="45.21682" lon="5.82399">
        <ele>219</ele>
        <time>2017-10-15T10:43:28Z</time>
      </trkpt>
      <trkpt lat="45.21676" lon="5.82404">
        <ele>219</ele>
        <time>2017-10-15T10:43:29Z</time>
      </trkpt>
      <trkpt lat="45.21666" lon="5.82414">
        <ele>219</ele>
        <time>2017-10-15T10:43:31Z</time>
      </trkpt>
      <trkpt lat="45.2166" lon="5.8242">
        <ele>219</ele>
        <time>2017-10-15T10:43:32Z</time>
      </trkpt>
      <trkpt lat="45.21653" lon="5.82426">
        <ele>219</ele>
        <time>2017-10-15T10:43:34Z</time>
      </trkpt>
      <trkpt lat="45.21648" lon="5.82428">
        <ele>219</ele>
        <time>2017-10-15T10:43:35Z</time>
      </trkpt>
      <trkpt lat="45.21642" lon="5.82433">
        <ele>219</ele>
        <time>2017-10-15T10:43:36Z</time>
      </trkpt>
      <trkpt lat="45.21631" lon="5.82442">
        <ele>219</ele>
        <time>2017-10-15T10:43:38Z</time>
      </trkpt>
      <trkpt lat="45.2162" lon="5.82449">
        <ele>219</ele>
        <time>2017-10-15T10:43:40Z</time>
      </trkpt>
      <trkpt lat="45.21615" lon="5.82453">
        <ele>219</ele>
        <time>2017-10-15T10:43:41Z</time>
      </trkpt>
      <trkpt lat="45.2161" lon="5.82457">
        <ele>219</ele>
        <time>2017-10-15T10:43:42Z</time>
      </trkpt>
      <trkpt lat="45.21602" lon="5.82463">
        <ele>219</ele>
        <time>2017-10-15T10:43:44Z</time>
      </trkpt>
      <trkpt lat="45.21597" lon="5.82467">
        <ele>219</ele>
        <time>2017-10-15T10:43:45Z</time>
      </trkpt>
      <trkpt lat="45.21589" lon="5.82474">
        <ele>219</ele>
        <time>2017-10-15T10:43:47Z</time>
      </trkpt>
      <trkpt lat="45.21584" lon="5.82479">
        <ele>219</ele>
        <time>2017-10-15T10:43:49Z</time>
      </trkpt>
      <trkpt lat="45.21578" lon="5.82482">
        <ele>219</ele>
        <time>2017-10-15T10:43:50Z</time>
      </trkpt>
      <trkpt lat="45.21573" lon="5.82485">
        <ele>219</ele>
        <time>2017-10-15T10:43:51Z</time>
      </trkpt>
      <trkpt lat="45.21568" lon="5.82488">
        <ele>219</ele>
        <time>2017-10-15T10:43:52Z</time>
      </trkpt>
      <trkpt lat="45.21563" lon="5.82493">
        <ele>219</ele>
        <time>2017-10-15T10:43:53Z</time>
      </trkpt>
      <trkpt lat="45.21557" lon="5.82497">
        <ele>219</ele>
        <time>2017-10-15T10:43:54Z</time>
      </trkpt>
      <trkpt lat="45.21553" lon="5.82501">
        <ele>219</ele>
        <time>2017-10-15T10:43:55Z</time>
      </trkpt>
      <trkpt lat="45.21544" lon="5.82509">
        <ele>219</ele>
        <time>2017-10-15T10:43:57Z</time>
      </trkpt>
      <trkpt lat="45.21539" lon="5.82514">
        <ele>219</ele>
        <time>2017-10-15T10:43:58Z</time>
      </trkpt>
      <trkpt lat="45.2153" lon="5.82519">
        <ele>219</ele>
        <time>2017-10-15T10:44:00Z</time>
      </trkpt>
      <trkpt lat="45.21522" lon="5.82524">
        <ele>219</ele>
        <time>2017-10-15T10:44:02Z</time>
      </trkpt>
      <trkpt lat="45.21512" lon="5.82531">
        <ele>219</ele>
        <time>2017-10-15T10:44:04Z</time>
      </trkpt>
      <trkpt lat="45.21502" lon="5.82539">
        <ele>219</ele>
        <time>2017-10-15T10:44:06Z</time>
      </trkpt>
      <trkpt lat="45.21496" lon="5.82543">
        <ele>219</ele>
        <time>2017-10-15T10:44:07Z</time>
      </trkpt>
      <trkpt lat="45.21488" lon="5.82549">
        <ele>218</ele>
        <time>2017-10-15T10:44:09Z</time>
      </trkpt>
      <trkpt lat="45.2148" lon="5.82555">
        <ele>218</ele>
        <time>2017-10-15T10:44:11Z</time>
      </trkpt>
      <trkpt lat="45.21475" lon="5.82559">
        <ele>218</ele>
        <time>2017-10-15T10:44:12Z</time>
      </trkpt>
      <trkpt lat="45.21465" lon="5.82568">
        <ele>218</ele>
        <time>2017-10-15T10:44:14Z</time>
      </trkpt>
      <trkpt lat="45.2146" lon="5.82572">
        <ele>218</ele>
        <time>2017-10-15T10:44:15Z</time>
      </trkpt>
      <trkpt lat="45.21454" lon="5.82575">
        <ele>218</ele>
        <time>2017-10-15T10:44:16Z</time>
      </trkpt>
      <trkpt lat="45.21449" lon="5.8258">
        <ele>218</ele>
        <time>2017-10-15T10:44:17Z</time>
      </trkpt>
      <trkpt lat="45.21443" lon="5.82584">
        <ele>218</ele>
        <time>2017-10-15T10:44:18Z</time>
      </trkpt>
      <trkpt lat="45.21438" lon="5.82588">
        <ele>218</ele>
        <time>2017-10-15T10:44:19Z</time>
      </trkpt>
      <trkpt lat="45.21427" lon="5.82597">
        <ele>218</ele>
        <time>2017-10-15T10:44:21Z</time>
      </trkpt>
      <trkpt lat="45.2142" lon="5.82602">
        <ele>218</ele>
        <time>2017-10-15T10:44:23Z</time>
      </trkpt>
      <trkpt lat="45.21415" lon="5.82605">
        <ele>218</ele>
        <time>2017-10-15T10:44:24Z</time>
      </trkpt>
      <trkpt lat="45.21405" lon="5.82613">
        <ele>218</ele>
        <time>2017-10-15T10:44:26Z</time>
      </trkpt>
      <trkpt lat="45.214" lon="5.82617">
        <ele>218</ele>
        <time>2017-10-15T10:44:27Z</time>
      </trkpt>
      <trkpt lat="45.21395" lon="5.82621">
        <ele>218</ele>
        <time>2017-10-15T10:44:28Z</time>
      </trkpt>
      <trkpt lat="45.21389" lon="5.82625">
        <ele>218</ele>
        <time>2017-10-15T10:44:29Z</time>
      </trkpt>
      <trkpt lat="45.21381" lon="5.82632">
        <ele>218</ele>
        <time>2017-10-15T10:44:31Z</time>
      </trkpt>
      <trkpt lat="45.21372" lon="5.8264">
        <ele>218</ele>
        <time>2017-10-15T10:44:33Z</time>
      </trkpt>
      <trkpt lat="45.21368" lon="5.82646">
        <ele>218</ele>
        <time>2017-10-15T10:44:35Z</time>
      </trkpt>
      <trkpt lat="45.21363" lon="5.82653">
        <ele>218</ele>
        <time>2017-10-15T10:44:37Z</time>
      </trkpt>
      <trkpt lat="45.21358" lon="5.82659">
        <ele>218</ele>
        <time>2017-10-15T10:44:38Z</time>
      </trkpt>
      <trkpt lat="45.21354" lon="5.82665">
        <ele>218</ele>
        <time>2017-10-15T10:44:40Z</time>
      </trkpt>
      <trkpt lat="45.21346" lon="5.82674">
        <ele>218</ele>
        <time>2017-10-15T10:44:42Z</time>
      </trkpt>
      <trkpt lat="45.21341" lon="5.8268">
        <ele>218</ele>
        <time>2017-10-15T10:44:44Z</time>
      </trkpt>
      <trkpt lat="45.21338" lon="5.82686">
        <ele>218</ele>
        <time>2017-10-15T10:44:45Z</time>
      </trkpt>
      <trkpt lat="45.21331" lon="5.82695">
        <ele>218</ele>
        <time>2017-10-15T10:44:47Z</time>
      </trkpt>
      <trkpt lat="45.21324" lon="5.82704">
        <ele>218</ele>
        <time>2017-10-15T10:44:49Z</time>
      </trkpt>
      <trkpt lat="45.2132" lon="5.82712">
        <ele>218</ele>
        <time>2017-10-15T10:44:51Z</time>
      </trkpt>
      <trkpt lat="45.21313" lon="5.82722">
        <ele>218</ele>
        <time>2017-10-15T10:44:53Z</time>
      </trkpt>
      <trkpt lat="45.21309" lon="5.8273">
        <ele>218</ele>
        <time>2017-10-15T10:44:55Z</time>
      </trkpt>
      <trkpt lat="45.21304" lon="5.8274">
        <ele>218</ele>
        <time>2017-10-15T10:44:57Z</time>
      </trkpt>
      <trkpt lat="45.21302" lon="5.82748">
        <ele>218</ele>
        <time>2017-10-15T10:44:59Z</time>
      </trkpt>
      <trkpt lat="45.21297" lon="5.82756">
        <ele>218</ele>
        <time>2017-10-15T10:45:01Z</time>
      </trkpt>
      <trkpt lat="45.21291" lon="5.82763">
        <ele>218</ele>
        <time>2017-10-15T10:45:03Z</time>
      </trkpt>
      <trkpt lat="45.21286" lon="5.82771">
        <ele>218</ele>
        <time>2017-10-15T10:45:05Z</time>
      </trkpt>
      <trkpt lat="45.21281" lon="5.82779">
        <ele>218</ele>
        <time>2017-10-15T10:45:07Z</time>
      </trkpt>
      <trkpt lat="45.21277" lon="5.82788">
        <ele>218</ele>
        <time>2017-10-15T10:45:09Z</time>
      </trkpt>
      <trkpt lat="45.21272" lon="5.82797">
        <ele>218</ele>
        <time>2017-10-15T10:45:11Z</time>
      </trkpt>
      <trkpt lat="45.21268" lon="5.82805">
        <ele>218</ele>
        <time>2017-10-15T10:45:13Z</time>
      </trkpt>
      <trkpt lat="45.21264" lon="5.82814">
        <ele>218</ele>
        <time>2017-10-15T10:45:15Z</time>
      </trkpt>
      <trkpt lat="45.21261" lon="5.82823">
        <ele>218</ele>
        <time>2017-10-15T10:45:17Z</time>
      </trkpt>
      <trkpt lat="45.21256" lon="5.82832">
        <ele>217</ele>
        <time>2017-10-15T10:45:19Z</time>
      </trkpt>
      <trkpt lat="45.21251" lon="5.82841">
        <ele>217</ele>
        <time>2017-10-15T10:45:21Z</time>
      </trkpt>
      <trkpt lat="45.21248" lon="5.8285">
        <ele>217</ele>
        <time>2017-10-15T10:45:23Z</time>
      </trkpt>
      <trkpt lat="45.21243" lon="5.82859">
        <ele>217</ele>
        <time>2017-10-15T10:45:25Z</time>
      </trkpt>
      <trkpt lat="45.21238" lon="5.82869">
        <ele>217</ele>
        <time>2017-10-15T10:45:27Z</time>
      </trkpt>
      <trkpt lat="45.21234" lon="5.82879">
        <ele>217</ele>
        <time>2017-10-15T10:45:29Z</time>
      </trkpt>
      <trkpt lat="45.21229" lon="5.8289">
        <ele>217</ele>
        <time>2017-10-15T10:45:31Z</time>
      </trkpt>
      <trkpt lat="45.21225" lon="5.829">
        <ele>217</ele>
        <time>2017-10-15T10:45:33Z</time>
      </trkpt>
      <trkpt lat="45.2122" lon="5.82911">
        <ele>217</ele>
        <time>2017-10-15T10:45:35Z</time>
      </trkpt>
      <trkpt lat="45.21215" lon="5.82921">
        <ele>216</ele>
        <time>2017-10-15T10:45:37Z</time>
      </trkpt>
      <trkpt lat="45.21211" lon="5.82931">
        <ele>216</ele>
        <time>2017-10-15T10:45:39Z</time>
      </trkpt>
      <trkpt lat="45.21206" lon="5.82941">
        <ele>216</ele>
        <time>2017-10-15T10:45:41Z</time>
      </trkpt>
      <trkpt lat="45.21201" lon="5.82951">
        <ele>216</ele>
        <time>2017-10-15T10:45:43Z</time>
      </trkpt>
      <trkpt lat="45.21196" lon="5.82961">
        <ele>216</ele>
        <time>2017-10-15T10:45:45Z</time>
      </trkpt>
      <trkpt lat="45.21188" lon="5.82971">
        <ele>216</ele>
        <time>2017-10-15T10:45:47Z</time>
      </trkpt>
      <trkpt lat="45.21186" lon="5.82977">
        <ele>216</ele>
        <time>2017-10-15T10:45:48Z</time>
      </trkpt>
      <trkpt lat="45.21183" lon="5.82982">
        <ele>216</ele>
        <time>2017-10-15T10:45:49Z</time>
      </trkpt>
      <trkpt lat="45.21181" lon="5.82992">
        <ele>216</ele>
        <time>2017-10-15T10:45:51Z</time>
      </trkpt>
      <trkpt lat="45.21179" lon="5.83">
        <ele>216</ele>
        <time>2017-10-15T10:45:52Z</time>
      </trkpt>
      <trkpt lat="45.21175" lon="5.83009">
        <ele>216</ele>
        <time>2017-10-15T10:45:54Z</time>
      </trkpt>
      <trkpt lat="45.21172" lon="5.83014">
        <ele>216</ele>
        <time>2017-10-15T10:45:55Z</time>
      </trkpt>
      <trkpt lat="45.21168" lon="5.83023">
        <ele>216</ele>
        <time>2017-10-15T10:45:57Z</time>
      </trkpt>
      <trkpt lat="45.21164" lon="5.83029">
        <ele>216</ele>
        <time>2017-10-15T10:45:58Z</time>
      </trkpt>
      <trkpt lat="45.21156" lon="5.83043">
        <ele>217</ele>
        <time>2017-10-15T10:46:01Z</time>
      </trkpt>
      <trkpt lat="45.21151" lon="5.83053">
        <ele>217</ele>
        <time>2017-10-15T10:46:03Z</time>
      </trkpt>
      <trkpt lat="45.21148" lon="5.83059">
        <ele>217</ele>
        <time>2017-10-15T10:46:04Z</time>
      </trkpt>
      <trkpt lat="45.21145" lon="5.83072">
        <ele>217</ele>
        <time>2017-10-15T10:46:06Z</time>
      </trkpt>
      <trkpt lat="45.21139" lon="5.83081">
        <ele>217</ele>
        <time>2017-10-15T10:46:08Z</time>
      </trkpt>
      <trkpt lat="45.21137" lon="5.83088">
        <ele>217</ele>
        <time>2017-10-15T10:46:09Z</time>
      </trkpt>
      <trkpt lat="45.21133" lon="5.83094">
        <ele>217</ele>
        <time>2017-10-15T10:46:10Z</time>
      </trkpt>
      <trkpt lat="45.2113" lon="5.83101">
        <ele>218</ele>
        <time>2017-10-15T10:46:11Z</time>
      </trkpt>
      <trkpt lat="45.21127" lon="5.83107">
        <ele>218</ele>
        <time>2017-10-15T10:46:12Z</time>
      </trkpt>
      <trkpt lat="45.21124" lon="5.83112">
        <ele>218</ele>
        <time>2017-10-15T10:46:13Z</time>
      </trkpt>
      <trkpt lat="45.21114" lon="5.83124">
        <ele>218</ele>
        <time>2017-10-15T10:46:15Z</time>
      </trkpt>
      <trkpt lat="45.21107" lon="5.8313">
        <ele>218</ele>
        <time>2017-10-15T10:46:17Z</time>
      </trkpt>
      <trkpt lat="45.21103" lon="5.83133">
        <ele>218</ele>
        <time>2017-10-15T10:46:18Z</time>
      </trkpt>
      <trkpt lat="45.2109" lon="5.83149">
        <ele>218</ele>
        <time>2017-10-15T10:46:21Z</time>
      </trkpt>
      <trkpt lat="45.2108" lon="5.83161">
        <ele>218</ele>
        <time>2017-10-15T10:46:23Z</time>
      </trkpt>
      <trkpt lat="45.21077" lon="5.83169">
        <ele>218</ele>
        <time>2017-10-15T10:46:24Z</time>
      </trkpt>
      <trkpt lat="45.21072" lon="5.83174">
        <ele>218</ele>
        <time>2017-10-15T10:46:26Z</time>
      </trkpt>
      <trkpt lat="45.21063" lon="5.83174">
        <ele>218</ele>
        <time>2017-10-15T10:46:28Z</time>
      </trkpt>
      <trkpt lat="45.21055" lon="5.83169">
        <ele>218</ele>
        <time>2017-10-15T10:46:29Z</time>
      </trkpt>
      <trkpt lat="45.21047" lon="5.83168">
        <ele>218</ele>
        <time>2017-10-15T10:46:30Z</time>
      </trkpt>
      <trkpt lat="45.21033" lon="5.83165">
        <ele>218</ele>
        <time>2017-10-15T10:46:32Z</time>
      </trkpt>
      <trkpt lat="45.21026" lon="5.8316">
        <ele>218</ele>
        <time>2017-10-15T10:46:33Z</time>
      </trkpt>
      <trkpt lat="45.21018" lon="5.83155">
        <ele>218</ele>
        <time>2017-10-15T10:46:35Z</time>
      </trkpt>
      <trkpt lat="45.21014" lon="5.8315">
        <ele>218</ele>
        <time>2017-10-15T10:46:36Z</time>
      </trkpt>
      <trkpt lat="45.21003" lon="5.8314">
        <ele>218</ele>
        <time>2017-10-15T10:46:38Z</time>
      </trkpt>
      <trkpt lat="45.20996" lon="5.8313">
        <ele>218</ele>
        <time>2017-10-15T10:46:39Z</time>
      </trkpt>
      <trkpt lat="45.20992" lon="5.83125">
        <ele>218</ele>
        <time>2017-10-15T10:46:40Z</time>
      </trkpt>
      <trkpt lat="45.20988" lon="5.83116">
        <ele>218</ele>
        <time>2017-10-15T10:46:41Z</time>
      </trkpt>
      <trkpt lat="45.20986" lon="5.83108">
        <ele>218</ele>
        <time>2017-10-15T10:46:42Z</time>
      </trkpt>
      <trkpt lat="45.20983" lon="5.83099">
        <ele>217</ele>
        <time>2017-10-15T10:46:43Z</time>
      </trkpt>
      <trkpt lat="45.20979" lon="5.83093">
        <ele>217</ele>
        <time>2017-10-15T10:46:44Z</time>
      </trkpt>
      <trkpt lat="45.20975" lon="5.83085">
        <ele>217</ele>
        <time>2017-10-15T10:46:45Z</time>
      </trkpt>
      <trkpt lat="45.20968" lon="5.83068">
        <ele>217</ele>
        <time>2017-10-15T10:46:47Z</time>
      </trkpt>
      <trkpt lat="45.20966" lon="5.8306">
        <ele>217</ele>
        <time>2017-10-15T10:46:48Z</time>
      </trkpt>
      <trkpt lat="45.20963" lon="5.83051">
        <ele>217</ele>
        <time>2017-10-15T10:46:49Z</time>
      </trkpt>
      <trkpt lat="45.2096" lon="5.83044">
        <ele>217</ele>
        <time>2017-10-15T10:46:50Z</time>
      </trkpt>
      <trkpt lat="45.20956" lon="5.83036">
        <ele>217</ele>
        <time>2017-10-15T10:46:51Z</time>
      </trkpt>
      <trkpt lat="45.20953" lon="5.83029">
        <ele>217</ele>
        <time>2017-10-15T10:46:52Z</time>
      </trkpt>
      <trkpt lat="45.20951" lon="5.83022">
        <ele>217</ele>
        <time>2017-10-15T10:46:53Z</time>
      </trkpt>
      <trkpt lat="45.20948" lon="5.83015">
        <ele>217</ele>
        <time>2017-10-15T10:46:54Z</time>
      </trkpt>
      <trkpt lat="45.20944" lon="5.83008">
        <ele>217</ele>
        <time>2017-10-15T10:46:55Z</time>
      </trkpt>
      <trkpt lat="45.20941" lon="5.83001">
        <ele>217</ele>
        <time>2017-10-15T10:46:56Z</time>
      </trkpt>
      <trkpt lat="45.20936" lon="5.82995">
        <ele>217</ele>
        <time>2017-10-15T10:46:57Z</time>
      </trkpt>
      <trkpt lat="45.20932" lon="5.82991">
        <ele>217</ele>
        <time>2017-10-15T10:46:58Z</time>
      </trkpt>
      <trkpt lat="45.20928" lon="5.82985">
        <ele>217</ele>
        <time>2017-10-15T10:46:59Z</time>
      </trkpt>
      <trkpt lat="45.20915" lon="5.82969">
        <ele>217</ele>
        <time>2017-10-15T10:47:02Z</time>
      </trkpt>
      <trkpt lat="45.20911" lon="5.82963">
        <ele>217</ele>
        <time>2017-10-15T10:47:03Z</time>
      </trkpt>
      <trkpt lat="45.20906" lon="5.82958">
        <ele>217</ele>
        <time>2017-10-15T10:47:04Z</time>
      </trkpt>
      <trkpt lat="45.20903" lon="5.82952">
        <ele>217</ele>
        <time>2017-10-15T10:47:05Z</time>
      </trkpt>
      <trkpt lat="45.20898" lon="5.82947">
        <ele>217</ele>
        <time>2017-10-15T10:47:06Z</time>
      </trkpt>
      <trkpt lat="45.20892" lon="5.82938">
        <ele>217</ele>
        <time>2017-10-15T10:47:08Z</time>
      </trkpt>
      <trkpt lat="45.20887" lon="5.82933">
        <ele>217</ele>
        <time>2017-10-15T10:47:09Z</time>
      </trkpt>
      <trkpt lat="45.20882" lon="5.82928">
        <ele>217</ele>
        <time>2017-10-15T10:47:10Z</time>
      </trkpt>
      <trkpt lat="45.20876" lon="5.82922">
        <ele>217</ele>
        <time>2017-10-15T10:47:11Z</time>
      </trkpt>
      <trkpt lat="45.20869" lon="5.82914">
        <ele>217</ele>
        <time>2017-10-15T10:47:13Z</time>
      </trkpt>
      <trkpt lat="45.20865" lon="5.82909">
        <ele>217</ele>
        <time>2017-10-15T10:47:14Z</time>
      </trkpt>
      <trkpt lat="45.2086" lon="5.82904">
        <ele>217</ele>
        <time>2017-10-15T10:47:15Z</time>
      </trkpt>
      <trkpt lat="45.20856" lon="5.82899">
        <ele>217</ele>
        <time>2017-10-15T10:47:16Z</time>
      </trkpt>
      <trkpt lat="45.20851" lon="5.82895">
        <ele>217</ele>
        <time>2017-10-15T10:47:17Z</time>
      </trkpt>
      <trkpt lat="45.20848" lon="5.82889">
        <ele>217</ele>
        <time>2017-10-15T10:47:18Z</time>
      </trkpt>
      <trkpt lat="45.20845" lon="5.82884">
        <ele>217</ele>
        <time>2017-10-15T10:47:19Z</time>
      </trkpt>
      <trkpt lat="45.2084" lon="5.8288">
        <ele>217</ele>
        <time>2017-10-15T10:47:20Z</time>
      </trkpt>
      <trkpt lat="45.20831" lon="5.82871">
        <ele>217</ele>
        <time>2017-10-15T10:47:22Z</time>
      </trkpt>
      <trkpt lat="45.20824" lon="5.82863">
        <ele>217</ele>
        <time>2017-10-15T10:47:24Z</time>
      </trkpt>
      <trkpt lat="45.20816" lon="5.82854">
        <ele>217</ele>
        <time>2017-10-15T10:47:26Z</time>
      </trkpt>
      <trkpt lat="45.20812" lon="5.8285">
        <ele>217</ele>
        <time>2017-10-15T10:47:27Z</time>
      </trkpt>
      <trkpt lat="45.20809" lon="5.82846">
        <ele>217</ele>
        <time>2017-10-15T10:47:28Z</time>
      </trkpt>
      <trkpt lat="45.20805" lon="5.82841">
        <ele>217</ele>
        <time>2017-10-15T10:47:29Z</time>
      </trkpt>
      <trkpt lat="45.208" lon="5.82837">
        <ele>217</ele>
        <time>2017-10-15T10:47:30Z</time>
      </trkpt>
      <trkpt lat="45.20798" lon="5.82832">
        <ele>217</ele>
        <time>2017-10-15T10:47:31Z</time>
      </trkpt>
      <trkpt lat="45.20793" lon="5.82827">
        <ele>217</ele>
        <time>2017-10-15T10:47:32Z</time>
      </trkpt>
      <trkpt lat="45.20789" lon="5.82823">
        <ele>217</ele>
        <time>2017-10-15T10:47:33Z</time>
      </trkpt>
      <trkpt lat="45.20782" lon="5.82814">
        <ele>217</ele>
        <time>2017-10-15T10:47:35Z</time>
      </trkpt>
      <trkpt lat="45.20778" lon="5.82809">
        <ele>217</ele>
        <time>2017-10-15T10:47:36Z</time>
      </trkpt>
      <trkpt lat="45.20773" lon="5.82805">
        <ele>217</ele>
        <time>2017-10-15T10:47:37Z</time>
      </trkpt>
      <trkpt lat="45.20768" lon="5.82801">
        <ele>217</ele>
        <time>2017-10-15T10:47:38Z</time>
      </trkpt>
      <trkpt lat="45.20764" lon="5.82798">
        <ele>217</ele>
        <time>2017-10-15T10:47:39Z</time>
      </trkpt>
      <trkpt lat="45.20754" lon="5.82786">
        <ele>217</ele>
        <time>2017-10-15T10:47:42Z</time>
      </trkpt>
      <trkpt lat="45.20749" lon="5.8278">
        <ele>217</ele>
        <time>2017-10-15T10:47:43Z</time>
      </trkpt>
      <trkpt lat="45.20745" lon="5.82775">
        <ele>217</ele>
        <time>2017-10-15T10:47:44Z</time>
      </trkpt>
      <trkpt lat="45.2074" lon="5.82769">
        <ele>217</ele>
        <time>2017-10-15T10:47:45Z</time>
      </trkpt>
      <trkpt lat="45.2073" lon="5.82757">
        <ele>217</ele>
        <time>2017-10-15T10:47:47Z</time>
      </trkpt>
      <trkpt lat="45.20724" lon="5.82754">
        <ele>217</ele>
        <time>2017-10-15T10:47:49Z</time>
      </trkpt>
      <trkpt lat="45.20717" lon="5.8275">
        <ele>217</ele>
        <time>2017-10-15T10:47:50Z</time>
      </trkpt>
      <trkpt lat="45.20708" lon="5.82734">
        <ele>217</ele>
        <time>2017-10-15T10:47:52Z</time>
      </trkpt>
      <trkpt lat="45.20702" lon="5.82729">
        <ele>217</ele>
        <time>2017-10-15T10:47:53Z</time>
      </trkpt>
      <trkpt lat="45.20697" lon="5.82721">
        <ele>217</ele>
        <time>2017-10-15T10:47:55Z</time>
      </trkpt>
      <trkpt lat="45.20692" lon="5.82714">
        <ele>217</ele>
        <time>2017-10-15T10:47:57Z</time>
      </trkpt>
      <trkpt lat="45.20688" lon="5.82707">
        <ele>217</ele>
        <time>2017-10-15T10:47:58Z</time>
      </trkpt>
      <trkpt lat="45.20684" lon="5.82701">
        <ele>216</ele>
        <time>2017-10-15T10:47:59Z</time>
      </trkpt>
      <trkpt lat="45.20674" lon="5.82694">
        <ele>217</ele>
        <time>2017-10-15T10:48:01Z</time>
      </trkpt>
      <trkpt lat="45.20668" lon="5.82688">
        <ele>217</ele>
        <time>2017-10-15T10:48:02Z</time>
      </trkpt>
      <trkpt lat="45.20664" lon="5.82686">
        <ele>216</ele>
        <time>2017-10-15T10:48:03Z</time>
      </trkpt>
      <trkpt lat="45.20656" lon="5.8268">
        <ele>216</ele>
        <time>2017-10-15T10:48:04Z</time>
      </trkpt>
      <trkpt lat="45.20651" lon="5.82673">
        <ele>216</ele>
        <time>2017-10-15T10:48:05Z</time>
      </trkpt>
      <trkpt lat="45.20646" lon="5.82667">
        <ele>216</ele>
        <time>2017-10-15T10:48:06Z</time>
      </trkpt>
      <trkpt lat="45.20638" lon="5.8266">
        <ele>216</ele>
        <time>2017-10-15T10:48:08Z</time>
      </trkpt>
      <trkpt lat="45.20635" lon="5.82653">
        <ele>216</ele>
        <time>2017-10-15T10:48:09Z</time>
      </trkpt>
      <trkpt lat="45.2063" lon="5.82649">
        <ele>216</ele>
        <time>2017-10-15T10:48:10Z</time>
      </trkpt>
      <trkpt lat="45.20626" lon="5.82643">
        <ele>216</ele>
        <time>2017-10-15T10:48:11Z</time>
      </trkpt>
      <trkpt lat="45.20622" lon="5.82639">
        <ele>216</ele>
        <time>2017-10-15T10:48:12Z</time>
      </trkpt>
      <trkpt lat="45.20613" lon="5.82627">
        <ele>216</ele>
        <time>2017-10-15T10:48:14Z</time>
      </trkpt>
      <trkpt lat="45.20609" lon="5.82623">
        <ele>216</ele>
        <time>2017-10-15T10:48:15Z</time>
      </trkpt>
      <trkpt lat="45.20604" lon="5.8262">
        <ele>216</ele>
        <time>2017-10-15T10:48:16Z</time>
      </trkpt>
      <trkpt lat="45.20599" lon="5.82615">
        <ele>216</ele>
        <time>2017-10-15T10:48:17Z</time>
      </trkpt>
      <trkpt lat="45.20593" lon="5.82603">
        <ele>216</ele>
        <time>2017-10-15T10:48:19Z</time>
      </trkpt>
      <trkpt lat="45.20583" lon="5.82592">
        <ele>216</ele>
        <time>2017-10-15T10:48:21Z</time>
      </trkpt>
      <trkpt lat="45.20578" lon="5.82588">
        <ele>216</ele>
        <time>2017-10-15T10:48:22Z</time>
      </trkpt>
      <trkpt lat="45.20571" lon="5.82577">
        <ele>216</ele>
        <time>2017-10-15T10:48:24Z</time>
      </trkpt>
      <trkpt lat="45.20567" lon="5.82571">
        <ele>216</ele>
        <time>2017-10-15T10:48:25Z</time>
      </trkpt>
      <trkpt lat="45.20564" lon="5.82564">
        <ele>216</ele>
        <time>2017-10-15T10:48:26Z</time>
      </trkpt>
      <trkpt lat="45.2056" lon="5.82558">
        <ele>216</ele>
        <time>2017-10-15T10:48:27Z</time>
      </trkpt>
      <trkpt lat="45.20555" lon="5.82552">
        <ele>216</ele>
        <time>2017-10-15T10:48:28Z</time>
      </trkpt>
      <trkpt lat="45.20552" lon="5.82546">
        <ele>216</ele>
        <time>2017-10-15T10:48:29Z</time>
      </trkpt>
      <trkpt lat="45.20548" lon="5.82539">
        <ele>216</ele>
        <time>2017-10-15T10:48:30Z</time>
      </trkpt>
      <trkpt lat="45.20544" lon="5.82531">
        <ele>216</ele>
        <time>2017-10-15T10:48:31Z</time>
      </trkpt>
      <trkpt lat="45.20543" lon="5.82524">
        <ele>216</ele>
        <time>2017-10-15T10:48:32Z</time>
      </trkpt>
      <trkpt lat="45.20542" lon="5.82518">
        <ele>216</ele>
        <time>2017-10-15T10:48:33Z</time>
      </trkpt>
      <trkpt lat="45.20541" lon="5.82505">
        <ele>216</ele>
        <time>2017-10-15T10:48:35Z</time>
      </trkpt>
      <trkpt lat="45.20536" lon="5.82492">
        <ele>216</ele>
        <time>2017-10-15T10:48:37Z</time>
      </trkpt>
      <trkpt lat="45.20531" lon="5.82489">
        <ele>216</ele>
        <time>2017-10-15T10:48:38Z</time>
      </trkpt>
      <trkpt lat="45.20522" lon="5.82487">
        <ele>216</ele>
        <time>2017-10-15T10:48:40Z</time>
      </trkpt>
      <trkpt lat="45.20513" lon="5.82485">
        <ele>216</ele>
        <time>2017-10-15T10:48:42Z</time>
      </trkpt>
      <trkpt lat="45.20507" lon="5.82486">
        <ele>216</ele>
        <time>2017-10-15T10:48:43Z</time>
      </trkpt>
      <trkpt lat="45.20501" lon="5.82483">
        <ele>216</ele>
        <time>2017-10-15T10:48:44Z</time>
      </trkpt>
      <trkpt lat="45.20492" lon="5.82479">
        <ele>216</ele>
        <time>2017-10-15T10:48:46Z</time>
      </trkpt>
      <trkpt lat="45.20487" lon="5.82468">
        <ele>216</ele>
        <time>2017-10-15T10:48:48Z</time>
      </trkpt>
      <trkpt lat="45.2048" lon="5.82463">
        <ele>216</ele>
        <time>2017-10-15T10:48:50Z</time>
      </trkpt>
      <trkpt lat="45.2047" lon="5.82453">
        <ele>216</ele>
        <time>2017-10-15T10:48:52Z</time>
      </trkpt>
      <trkpt lat="45.20462" lon="5.82446">
        <ele>216</ele>
        <time>2017-10-15T10:48:54Z</time>
      </trkpt>
      <trkpt lat="45.20458" lon="5.82441">
        <ele>216</ele>
        <time>2017-10-15T10:48:56Z</time>
      </trkpt>
      <trkpt lat="45.20458" lon="5.82434">
        <ele>216</ele>
        <time>2017-10-15T10:49:19Z</time>
      </trkpt>
      <trkpt lat="45.2045" lon="5.82436">
        <ele>216</ele>
        <time>2017-10-15T10:50:35Z</time>
      </trkpt>
      <trkpt lat="45.20444" lon="5.82429">
        <ele>216</ele>
        <time>2017-10-15T10:54:54Z</time>
      </trkpt>
      <trkpt lat="45.20439" lon="5.82424">
        <ele>216</ele>
        <time>2017-10-15T10:54:56Z</time>
      </trkpt>
      <trkpt lat="45.20434" lon="5.8242">
        <ele>216</ele>
        <time>2017-10-15T10:54:58Z</time>
      </trkpt>
      <trkpt lat="45.20429" lon="5.82414">
        <ele>216</ele>
        <time>2017-10-15T10:55:00Z</time>
      </trkpt>
      <trkpt lat="45.20423" lon="5.82408">
        <ele>216</ele>
        <time>2017-10-15T10:55:02Z</time>
      </trkpt>
      <trkpt lat="45.20416" lon="5.82401">
        <ele>216</ele>
        <time>2017-10-15T10:55:04Z</time>
      </trkpt>
      <trkpt lat="45.20413" lon="5.82396">
        <ele>216</ele>
        <time>2017-10-15T10:55:05Z</time>
      </trkpt>
      <trkpt lat="45.20406" lon="5.82388">
        <ele>216</ele>
        <time>2017-10-15T10:55:07Z</time>
      </trkpt>
      <trkpt lat="45.204" lon="5.8238">
        <ele>216</ele>
        <time>2017-10-15T10:55:09Z</time>
      </trkpt>
      <trkpt lat="45.20393" lon="5.82371">
        <ele>216</ele>
        <time>2017-10-15T10:55:11Z</time>
      </trkpt>
      <trkpt lat="45.20387" lon="5.82363">
        <ele>216</ele>
        <time>2017-10-15T10:55:13Z</time>
      </trkpt>
      <trkpt lat="45.20383" lon="5.82359">
        <ele>216</ele>
        <time>2017-10-15T10:55:14Z</time>
      </trkpt>
      <trkpt lat="45.20376" lon="5.8235">
        <ele>216</ele>
        <time>2017-10-15T10:55:16Z</time>
      </trkpt>
      <trkpt lat="45.20372" lon="5.82345">
        <ele>216</ele>
        <time>2017-10-15T10:55:17Z</time>
      </trkpt>
      <trkpt lat="45.20369" lon="5.82337">
        <ele>216</ele>
        <time>2017-10-15T10:55:18Z</time>
      </trkpt>
      <trkpt lat="45.20364" lon="5.82327">
        <ele>216</ele>
        <time>2017-10-15T10:55:20Z</time>
      </trkpt>
      <trkpt lat="45.20357" lon="5.82318">
        <ele>216</ele>
        <time>2017-10-15T10:55:22Z</time>
      </trkpt>
      <trkpt lat="45.20351" lon="5.82313">
        <ele>216</ele>
        <time>2017-10-15T10:55:23Z</time>
      </trkpt>
      <trkpt lat="45.20348" lon="5.82304">
        <ele>216</ele>
        <time>2017-10-15T10:55:25Z</time>
      </trkpt>
      <trkpt lat="45.20342" lon="5.82297">
        <ele>216</ele>
        <time>2017-10-15T10:55:27Z</time>
      </trkpt>
      <trkpt lat="45.20337" lon="5.82293">
        <ele>216</ele>
        <time>2017-10-15T10:55:28Z</time>
      </trkpt>
      <trkpt lat="45.20334" lon="5.82281">
        <ele>216</ele>
        <time>2017-10-15T10:55:30Z</time>
      </trkpt>
      <trkpt lat="45.20328" lon="5.82271">
        <ele>216</ele>
        <time>2017-10-15T10:55:32Z</time>
      </trkpt>
      <trkpt lat="45.20324" lon="5.82265">
        <ele>216</ele>
        <time>2017-10-15T10:55:33Z</time>
      </trkpt>
      <trkpt lat="45.20319" lon="5.82254">
        <ele>216</ele>
        <time>2017-10-15T10:55:35Z</time>
      </trkpt>
      <trkpt lat="45.20316" lon="5.82248">
        <ele>216</ele>
        <time>2017-10-15T10:55:36Z</time>
      </trkpt>
      <trkpt lat="45.20313" lon="5.82242">
        <ele>216</ele>
        <time>2017-10-15T10:55:37Z</time>
      </trkpt>
      <trkpt lat="45.2031" lon="5.82236">
        <ele>216</ele>
        <time>2017-10-15T10:55:38Z</time>
      </trkpt>
      <trkpt lat="45.20307" lon="5.82229">
        <ele>216</ele>
        <time>2017-10-15T10:55:39Z</time>
      </trkpt>
      <trkpt lat="45.20303" lon="5.82224">
        <ele>216</ele>
        <time>2017-10-15T10:55:40Z</time>
      </trkpt>
      <trkpt lat="45.20297" lon="5.82213">
        <ele>216</ele>
        <time>2017-10-15T10:55:42Z</time>
      </trkpt>
      <trkpt lat="45.20291" lon="5.82203">
        <ele>216</ele>
        <time>2017-10-15T10:55:44Z</time>
      </trkpt>
      <trkpt lat="45.20285" lon="5.82191">
        <ele>216</ele>
        <time>2017-10-15T10:55:46Z</time>
      </trkpt>
      <trkpt lat="45.20275" lon="5.82174">
        <ele>216</ele>
        <time>2017-10-15T10:55:49Z</time>
      </trkpt>
      <trkpt lat="45.20272" lon="5.82168">
        <ele>216</ele>
        <time>2017-10-15T10:55:50Z</time>
      </trkpt>
      <trkpt lat="45.20268" lon="5.82162">
        <ele>216</ele>
        <time>2017-10-15T10:55:51Z</time>
      </trkpt>
      <trkpt lat="45.20263" lon="5.82152">
        <ele>216</ele>
        <time>2017-10-15T10:55:53Z</time>
      </trkpt>
      <trkpt lat="45.20259" lon="5.82146">
        <ele>216</ele>
        <time>2017-10-15T10:55:54Z</time>
      </trkpt>
      <trkpt lat="45.20252" lon="5.82128">
        <ele>216</ele>
        <time>2017-10-15T10:55:57Z</time>
      </trkpt>
      <trkpt lat="45.20249" lon="5.82122">
        <ele>216</ele>
        <time>2017-10-15T10:55:58Z</time>
      </trkpt>
      <trkpt lat="45.20247" lon="5.8211">
        <ele>216</ele>
        <time>2017-10-15T10:56:00Z</time>
      </trkpt>
      <trkpt lat="45.20246" lon="5.82103">
        <ele>216</ele>
        <time>2017-10-15T10:56:01Z</time>
      </trkpt>
      <trkpt lat="45.20245" lon="5.82097">
        <ele>216</ele>
        <time>2017-10-15T10:56:02Z</time>
      </trkpt>
      <trkpt lat="45.20244" lon="5.8209">
        <ele>216</ele>
        <time>2017-10-15T10:56:03Z</time>
      </trkpt>
      <trkpt lat="45.20242" lon="5.82084">
        <ele>216</ele>
        <time>2017-10-15T10:56:04Z</time>
      </trkpt>
      <trkpt lat="45.20246" lon="5.82072">
        <ele>216</ele>
        <time>2017-10-15T10:56:05Z</time>
      </trkpt>
      <trkpt lat="45.20239" lon="5.82063">
        <ele>215</ele>
        <time>2017-10-15T10:56:07Z</time>
      </trkpt>
      <trkpt lat="45.20234" lon="5.82059">
        <ele>215</ele>
        <time>2017-10-15T10:56:09Z</time>
      </trkpt>
      <trkpt lat="45.20227" lon="5.82062">
        <ele>215</ele>
        <time>2017-10-15T10:56:11Z</time>
      </trkpt>
      <trkpt lat="45.20219" lon="5.82066">
        <ele>215</ele>
        <time>2017-10-15T10:56:13Z</time>
      </trkpt>
      <trkpt lat="45.20214" lon="5.82066">
        <ele>215</ele>
        <time>2017-10-15T10:56:14Z</time>
      </trkpt>
      <trkpt lat="45.20209" lon="5.82064">
        <ele>215</ele>
        <time>2017-10-15T10:56:15Z</time>
      </trkpt>
      <trkpt lat="45.20205" lon="5.82058">
        <ele>215</ele>
        <time>2017-10-15T10:56:16Z</time>
      </trkpt>
      <trkpt lat="45.20201" lon="5.82052">
        <ele>215</ele>
        <time>2017-10-15T10:56:17Z</time>
      </trkpt>
      <trkpt lat="45.20196" lon="5.82045">
        <ele>215</ele>
        <time>2017-10-15T10:56:18Z</time>
      </trkpt>
      <trkpt lat="45.20192" lon="5.82041">
        <ele>215</ele>
        <time>2017-10-15T10:56:19Z</time>
      </trkpt>
      <trkpt lat="45.20185" lon="5.82035">
        <ele>215</ele>
        <time>2017-10-15T10:56:21Z</time>
      </trkpt>
      <trkpt lat="45.20178" lon="5.82026">
        <ele>215</ele>
        <time>2017-10-15T10:56:23Z</time>
      </trkpt>
      <trkpt lat="45.20174" lon="5.82022">
        <ele>215</ele>
        <time>2017-10-15T10:56:24Z</time>
      </trkpt>
      <trkpt lat="45.20169" lon="5.82019">
        <ele>215</ele>
        <time>2017-10-15T10:56:25Z</time>
      </trkpt>
      <trkpt lat="45.20165" lon="5.82015">
        <ele>215</ele>
        <time>2017-10-15T10:56:26Z</time>
      </trkpt>
      <trkpt lat="45.2016" lon="5.82013">
        <ele>215</ele>
        <time>2017-10-15T10:56:27Z</time>
      </trkpt>
      <trkpt lat="45.20155" lon="5.82009">
        <ele>215</ele>
        <time>2017-10-15T10:56:28Z</time>
      </trkpt>
      <trkpt lat="45.2015" lon="5.82003">
        <ele>215</ele>
        <time>2017-10-15T10:56:29Z</time>
      </trkpt>
      <trkpt lat="45.20146" lon="5.82">
        <ele>215</ele>
        <time>2017-10-15T10:56:30Z</time>
      </trkpt>
      <trkpt lat="45.2014" lon="5.81996">
        <ele>215</ele>
        <time>2017-10-15T10:56:31Z</time>
      </trkpt>
      <trkpt lat="45.20135" lon="5.81991">
        <ele>215</ele>
        <time>2017-10-15T10:56:32Z</time>
      </trkpt>
      <trkpt lat="45.20124" lon="5.81984">
        <ele>215</ele>
        <time>2017-10-15T10:56:34Z</time>
      </trkpt>
      <trkpt lat="45.20118" lon="5.81982">
        <ele>215</ele>
        <time>2017-10-15T10:56:35Z</time>
      </trkpt>
      <trkpt lat="45.20113" lon="5.81979">
        <ele>215</ele>
        <time>2017-10-15T10:56:36Z</time>
      </trkpt>
      <trkpt lat="45.20104" lon="5.81976">
        <ele>215</ele>
        <time>2017-10-15T10:56:38Z</time>
      </trkpt>
      <trkpt lat="45.20098" lon="5.81971">
        <ele>215</ele>
        <time>2017-10-15T10:56:39Z</time>
      </trkpt>
      <trkpt lat="45.20093" lon="5.81967">
        <ele>215</ele>
        <time>2017-10-15T10:56:40Z</time>
      </trkpt>
      <trkpt lat="45.20087" lon="5.81966">
        <ele>215</ele>
        <time>2017-10-15T10:56:41Z</time>
      </trkpt>
      <trkpt lat="45.20082" lon="5.81964">
        <ele>215</ele>
        <time>2017-10-15T10:56:42Z</time>
      </trkpt>
      <trkpt lat="45.20075" lon="5.81961">
        <ele>215</ele>
        <time>2017-10-15T10:56:43Z</time>
      </trkpt>
      <trkpt lat="45.20069" lon="5.81956">
        <ele>215</ele>
        <time>2017-10-15T10:56:44Z</time>
      </trkpt>
      <trkpt lat="45.20059" lon="5.81951">
        <ele>215</ele>
        <time>2017-10-15T10:56:46Z</time>
      </trkpt>
      <trkpt lat="45.20054" lon="5.81949">
        <ele>215</ele>
        <time>2017-10-15T10:56:47Z</time>
      </trkpt>
      <trkpt lat="45.20042" lon="5.81944">
        <ele>215</ele>
        <time>2017-10-15T10:56:49Z</time>
      </trkpt>
      <trkpt lat="45.20037" lon="5.8194">
        <ele>215</ele>
        <time>2017-10-15T10:56:50Z</time>
      </trkpt>
      <trkpt lat="45.20033" lon="5.81938">
        <ele>215</ele>
        <time>2017-10-15T10:56:51Z</time>
      </trkpt>
      <trkpt lat="45.20028" lon="5.81936">
        <ele>215</ele>
        <time>2017-10-15T10:56:52Z</time>
      </trkpt>
      <trkpt lat="45.20023" lon="5.81932">
        <ele>215</ele>
        <time>2017-10-15T10:56:53Z</time>
      </trkpt>
      <trkpt lat="45.20018" lon="5.8193">
        <ele>215</ele>
        <time>2017-10-15T10:56:54Z</time>
      </trkpt>
      <trkpt lat="45.2001" lon="5.81927">
        <ele>215</ele>
        <time>2017-10-15T10:56:56Z</time>
      </trkpt>
      <trkpt lat="45.20005" lon="5.81925">
        <ele>215</ele>
        <time>2017-10-15T10:56:57Z</time>
      </trkpt>
      <trkpt lat="45.20001" lon="5.81923">
        <ele>215</ele>
        <time>2017-10-15T10:56:58Z</time>
      </trkpt>
      <trkpt lat="45.1999" lon="5.81917">
        <ele>215</ele>
        <time>2017-10-15T10:57:00Z</time>
      </trkpt>
      <trkpt lat="45.19985" lon="5.81914">
        <ele>215</ele>
        <time>2017-10-15T10:57:01Z</time>
      </trkpt>
      <trkpt lat="45.1998" lon="5.81911">
        <ele>216</ele>
        <time>2017-10-15T10:57:02Z</time>
      </trkpt>
      <trkpt lat="45.19972" lon="5.81907">
        <ele>216</ele>
        <time>2017-10-15T10:57:04Z</time>
      </trkpt>
      <trkpt lat="45.19965" lon="5.81903">
        <ele>216</ele>
        <time>2017-10-15T10:57:05Z</time>
      </trkpt>
      <trkpt lat="45.19961" lon="5.819">
        <ele>216</ele>
        <time>2017-10-15T10:57:06Z</time>
      </trkpt>
      <trkpt lat="45.19955" lon="5.81896">
        <ele>216</ele>
        <time>2017-10-15T10:57:07Z</time>
      </trkpt>
      <trkpt lat="45.19944" lon="5.81886">
        <ele>216</ele>
        <time>2017-10-15T10:57:09Z</time>
      </trkpt>
      <trkpt lat="45.19939" lon="5.81885">
        <ele>216</ele>
        <time>2017-10-15T10:57:10Z</time>
      </trkpt>
      <trkpt lat="45.19934" lon="5.81882">
        <ele>216</ele>
        <time>2017-10-15T10:57:11Z</time>
      </trkpt>
      <trkpt lat="45.1993" lon="5.81879">
        <ele>216</ele>
        <time>2017-10-15T10:57:12Z</time>
      </trkpt>
      <trkpt lat="45.19925" lon="5.81875">
        <ele>216</ele>
        <time>2017-10-15T10:57:13Z</time>
      </trkpt>
      <trkpt lat="45.1992" lon="5.81872">
        <ele>216</ele>
        <time>2017-10-15T10:57:14Z</time>
      </trkpt>
      <trkpt lat="45.19915" lon="5.81869">
        <ele>216</ele>
        <time>2017-10-15T10:57:15Z</time>
      </trkpt>
      <trkpt lat="45.1991" lon="5.81865">
        <ele>216</ele>
        <time>2017-10-15T10:57:16Z</time>
      </trkpt>
      <trkpt lat="45.19905" lon="5.81861">
        <ele>216</ele>
        <time>2017-10-15T10:57:17Z</time>
      </trkpt>
      <trkpt lat="45.199" lon="5.81858">
        <ele>216</ele>
        <time>2017-10-15T10:57:18Z</time>
      </trkpt>
      <trkpt lat="45.19896" lon="5.81854">
        <ele>216</ele>
        <time>2017-10-15T10:57:19Z</time>
      </trkpt>
      <trkpt lat="45.19891" lon="5.81851">
        <ele>216</ele>
        <time>2017-10-15T10:57:20Z</time>
      </trkpt>
      <trkpt lat="45.19886" lon="5.81846">
        <ele>216</ele>
        <time>2017-10-15T10:57:21Z</time>
      </trkpt>
      <trkpt lat="45.19879" lon="5.81841">
        <ele>216</ele>
        <time>2017-10-15T10:57:23Z</time>
      </trkpt>
      <trkpt lat="45.19875" lon="5.81837">
        <ele>216</ele>
        <time>2017-10-15T10:57:24Z</time>
      </trkpt>
      <trkpt lat="45.19866" lon="5.81829">
        <ele>216</ele>
        <time>2017-10-15T10:57:26Z</time>
      </trkpt>
      <trkpt lat="45.19854" lon="5.81817">
        <ele>216</ele>
        <time>2017-10-15T10:57:29Z</time>
      </trkpt>
      <trkpt lat="45.19849" lon="5.81813">
        <ele>216</ele>
        <time>2017-10-15T10:57:30Z</time>
      </trkpt>
      <trkpt lat="45.19842" lon="5.81807">
        <ele>216</ele>
        <time>2017-10-15T10:57:32Z</time>
      </trkpt>
      <trkpt lat="45.19836" lon="5.818">
        <ele>216</ele>
        <time>2017-10-15T10:57:34Z</time>
      </trkpt>
      <trkpt lat="45.19828" lon="5.81792">
        <ele>216</ele>
        <time>2017-10-15T10:57:36Z</time>
      </trkpt>
      <trkpt lat="45.19826" lon="5.81786">
        <ele>216</ele>
        <time>2017-10-15T10:57:37Z</time>
      </trkpt>
      <trkpt lat="45.19822" lon="5.81782">
        <ele>216</ele>
        <time>2017-10-15T10:57:38Z</time>
      </trkpt>
      <trkpt lat="45.19817" lon="5.81778">
        <ele>216</ele>
        <time>2017-10-15T10:57:39Z</time>
      </trkpt>
      <trkpt lat="45.1981" lon="5.81769">
        <ele>216</ele>
        <time>2017-10-15T10:57:41Z</time>
      </trkpt>
      <trkpt lat="45.19804" lon="5.81766">
        <ele>216</ele>
        <time>2017-10-15T10:57:43Z</time>
      </trkpt>
      <trkpt lat="45.19799" lon="5.81759">
        <ele>216</ele>
        <time>2017-10-15T10:57:44Z</time>
      </trkpt>
      <trkpt lat="45.19795" lon="5.81753">
        <ele>216</ele>
        <time>2017-10-15T10:57:45Z</time>
      </trkpt>
      <trkpt lat="45.1979" lon="5.81748">
        <ele>216</ele>
        <time>2017-10-15T10:57:46Z</time>
      </trkpt>
      <trkpt lat="45.19781" lon="5.81739">
        <ele>216</ele>
        <time>2017-10-15T10:57:48Z</time>
      </trkpt>
      <trkpt lat="45.19776" lon="5.81735">
        <ele>216</ele>
        <time>2017-10-15T10:57:49Z</time>
      </trkpt>
      <trkpt lat="45.19769" lon="5.8173">
        <ele>217</ele>
        <time>2017-10-15T10:57:50Z</time>
      </trkpt>
      <trkpt lat="45.19762" lon="5.81721">
        <ele>217</ele>
        <time>2017-10-15T10:57:52Z</time>
      </trkpt>
      <trkpt lat="45.19758" lon="5.81716">
        <ele>217</ele>
        <time>2017-10-15T10:57:53Z</time>
      </trkpt>
      <trkpt lat="45.19753" lon="5.81708">
        <ele>217</ele>
        <time>2017-10-15T10:57:55Z</time>
      </trkpt>
      <trkpt lat="45.1975" lon="5.81702">
        <ele>217</ele>
        <time>2017-10-15T10:57:56Z</time>
      </trkpt>
      <trkpt lat="45.19743" lon="5.8169">
        <ele>217</ele>
        <time>2017-10-15T10:57:58Z</time>
      </trkpt>
      <trkpt lat="45.19738" lon="5.81685">
        <ele>217</ele>
        <time>2017-10-15T10:57:59Z</time>
      </trkpt>
      <trkpt lat="45.19735" lon="5.8168">
        <ele>217</ele>
        <time>2017-10-15T10:58:00Z</time>
      </trkpt>
      <trkpt lat="45.19731" lon="5.81674">
        <ele>217</ele>
        <time>2017-10-15T10:58:01Z</time>
      </trkpt>
      <trkpt lat="45.19723" lon="5.81663">
        <ele>217</ele>
        <time>2017-10-15T10:58:03Z</time>
      </trkpt>
      <trkpt lat="45.1972" lon="5.81657">
        <ele>217</ele>
        <time>2017-10-15T10:58:04Z</time>
      </trkpt>
      <trkpt lat="45.19717" lon="5.81652">
        <ele>217</ele>
        <time>2017-10-15T10:58:05Z</time>
      </trkpt>
      <trkpt lat="45.19714" lon="5.81647">
        <ele>217</ele>
        <time>2017-10-15T10:58:06Z</time>
      </trkpt>
      <trkpt lat="45.19711" lon="5.81642">
        <ele>217</ele>
        <time>2017-10-15T10:58:07Z</time>
      </trkpt>
      <trkpt lat="45.19707" lon="5.81636">
        <ele>217</ele>
        <time>2017-10-15T10:58:08Z</time>
      </trkpt>
      <trkpt lat="45.19703" lon="5.8163">
        <ele>218</ele>
        <time>2017-10-15T10:58:09Z</time>
      </trkpt>
      <trkpt lat="45.19699" lon="5.81624">
        <ele>218</ele>
        <time>2017-10-15T10:58:10Z</time>
      </trkpt>
      <trkpt lat="45.19695" lon="5.81619">
        <ele>218</ele>
        <time>2017-10-15T10:58:11Z</time>
      </trkpt>
      <trkpt lat="45.19692" lon="5.81613">
        <ele>218</ele>
        <time>2017-10-15T10:58:12Z</time>
      </trkpt>
      <trkpt lat="45.19688" lon="5.81608">
        <ele>218</ele>
        <time>2017-10-15T10:58:13Z</time>
      </trkpt>
      <trkpt lat="45.19685" lon="5.81602">
        <ele>218</ele>
        <time>2017-10-15T10:58:14Z</time>
      </trkpt>
      <trkpt lat="45.19682" lon="5.81597">
        <ele>218</ele>
        <time>2017-10-15T10:58:15Z</time>
      </trkpt>
      <trkpt lat="45.19679" lon="5.81591">
        <ele>218</ele>
        <time>2017-10-15T10:58:16Z</time>
      </trkpt>
      <trkpt lat="45.19672" lon="5.81581">
        <ele>217</ele>
        <time>2017-10-15T10:58:18Z</time>
      </trkpt>
      <trkpt lat="45.19669" lon="5.81577">
        <ele>217</ele>
        <time>2017-10-15T10:58:19Z</time>
      </trkpt>
      <trkpt lat="45.19664" lon="5.81571">
        <ele>217</ele>
        <time>2017-10-15T10:58:20Z</time>
      </trkpt>
      <trkpt lat="45.19662" lon="5.81565">
        <ele>217</ele>
        <time>2017-10-15T10:58:21Z</time>
      </trkpt>
      <trkpt lat="45.19658" lon="5.81558">
        <ele>217</ele>
        <time>2017-10-15T10:58:22Z</time>
      </trkpt>
      <trkpt lat="45.19651" lon="5.81546">
        <ele>217</ele>
        <time>2017-10-15T10:58:24Z</time>
      </trkpt>
      <trkpt lat="45.19648" lon="5.8154">
        <ele>217</ele>
        <time>2017-10-15T10:58:25Z</time>
      </trkpt>
      <trkpt lat="45.19641" lon="5.81527">
        <ele>217</ele>
        <time>2017-10-15T10:58:27Z</time>
      </trkpt>
      <trkpt lat="45.19639" lon="5.81521">
        <ele>217</ele>
        <time>2017-10-15T10:58:28Z</time>
      </trkpt>
      <trkpt lat="45.19637" lon="5.81514">
        <ele>217</ele>
        <time>2017-10-15T10:58:29Z</time>
      </trkpt>
      <trkpt lat="45.19634" lon="5.81508">
        <ele>217</ele>
        <time>2017-10-15T10:58:30Z</time>
      </trkpt>
      <trkpt lat="45.19626" lon="5.81494">
        <ele>217</ele>
        <time>2017-10-15T10:58:32Z</time>
      </trkpt>
      <trkpt lat="45.19625" lon="5.81487">
        <ele>217</ele>
        <time>2017-10-15T10:58:33Z</time>
      </trkpt>
      <trkpt lat="45.19621" lon="5.81481">
        <ele>217</ele>
        <time>2017-10-15T10:58:34Z</time>
      </trkpt>
      <trkpt lat="45.19618" lon="5.81476">
        <ele>217</ele>
        <time>2017-10-15T10:58:35Z</time>
      </trkpt>
      <trkpt lat="45.19614" lon="5.8147">
        <ele>217</ele>
        <time>2017-10-15T10:58:36Z</time>
      </trkpt>
      <trkpt lat="45.19611" lon="5.81465">
        <ele>217</ele>
        <time>2017-10-15T10:58:37Z</time>
      </trkpt>
      <trkpt lat="45.19608" lon="5.81459">
        <ele>217</ele>
        <time>2017-10-15T10:58:38Z</time>
      </trkpt>
      <trkpt lat="45.19604" lon="5.81454">
        <ele>217</ele>
        <time>2017-10-15T10:58:39Z</time>
      </trkpt>
      <trkpt lat="45.19601" lon="5.81448">
        <ele>217</ele>
        <time>2017-10-15T10:58:40Z</time>
      </trkpt>
      <trkpt lat="45.19598" lon="5.81442">
        <ele>217</ele>
        <time>2017-10-15T10:58:41Z</time>
      </trkpt>
      <trkpt lat="45.19592" lon="5.81431">
        <ele>217</ele>
        <time>2017-10-15T10:58:43Z</time>
      </trkpt>
      <trkpt lat="45.19586" lon="5.81418">
        <ele>217</ele>
        <time>2017-10-15T10:58:45Z</time>
      </trkpt>
      <trkpt lat="45.1958" lon="5.81408">
        <ele>217</ele>
        <time>2017-10-15T10:58:47Z</time>
      </trkpt>
      <trkpt lat="45.19569" lon="5.8141">
        <ele>217</ele>
        <time>2017-10-15T10:58:50Z</time>
      </trkpt>
      <trkpt lat="45.19564" lon="5.81419">
        <ele>217</ele>
        <time>2017-10-15T10:58:52Z</time>
      </trkpt>
      <trkpt lat="45.19559" lon="5.81427">
        <ele>217</ele>
        <time>2017-10-15T10:58:54Z</time>
      </trkpt>
      <trkpt lat="45.19553" lon="5.81436">
        <ele>217</ele>
        <time>2017-10-15T10:58:56Z</time>
      </trkpt>
      <trkpt lat="45.1955" lon="5.81442">
        <ele>217</ele>
        <time>2017-10-15T10:58:57Z</time>
      </trkpt>
      <trkpt lat="45.19548" lon="5.81448">
        <ele>217</ele>
        <time>2017-10-15T10:58:58Z</time>
      </trkpt>
      <trkpt lat="45.19542" lon="5.81456">
        <ele>218</ele>
        <time>2017-10-15T10:59:00Z</time>
      </trkpt>
      <trkpt lat="45.19537" lon="5.81465">
        <ele>218</ele>
        <time>2017-10-15T10:59:02Z</time>
      </trkpt>
      <trkpt lat="45.19533" lon="5.81471">
        <ele>218</ele>
        <time>2017-10-15T10:59:03Z</time>
      </trkpt>
      <trkpt lat="45.19527" lon="5.8148">
        <ele>218</ele>
        <time>2017-10-15T10:59:05Z</time>
      </trkpt>
      <trkpt lat="45.19523" lon="5.81491">
        <ele>218</ele>
        <time>2017-10-15T10:59:07Z</time>
      </trkpt>
      <trkpt lat="45.19518" lon="5.81499">
        <ele>218</ele>
        <time>2017-10-15T10:59:09Z</time>
      </trkpt>
      <trkpt lat="45.19511" lon="5.81508">
        <ele>218</ele>
        <time>2017-10-15T10:59:11Z</time>
      </trkpt>
      <trkpt lat="45.19505" lon="5.81519">
        <ele>218</ele>
        <time>2017-10-15T10:59:13Z</time>
      </trkpt>
      <trkpt lat="45.19503" lon="5.81524">
        <ele>218</ele>
        <time>2017-10-15T10:59:14Z</time>
      </trkpt>
      <trkpt lat="45.19498" lon="5.81534">
        <ele>218</ele>
        <time>2017-10-15T10:59:16Z</time>
      </trkpt>
      <trkpt lat="45.19496" lon="5.81541">
        <ele>218</ele>
        <time>2017-10-15T10:59:17Z</time>
      </trkpt>
      <trkpt lat="45.19492" lon="5.81551">
        <ele>218</ele>
        <time>2017-10-15T10:59:19Z</time>
      </trkpt>
      <trkpt lat="45.19491" lon="5.81558">
        <ele>218</ele>
        <time>2017-10-15T10:59:20Z</time>
      </trkpt>
      <trkpt lat="45.19488" lon="5.81564">
        <ele>218</ele>
        <time>2017-10-15T10:59:21Z</time>
      </trkpt>
      <trkpt lat="45.19484" lon="5.81574">
        <ele>218</ele>
        <time>2017-10-15T10:59:23Z</time>
      </trkpt>
      <trkpt lat="45.19483" lon="5.81581">
        <ele>218</ele>
        <time>2017-10-15T10:59:24Z</time>
      </trkpt>
      <trkpt lat="45.19481" lon="5.816">
        <ele>218</ele>
        <time>2017-10-15T10:59:27Z</time>
      </trkpt>
      <trkpt lat="45.1948" lon="5.8161">
        <ele>218</ele>
        <time>2017-10-15T10:59:29Z</time>
      </trkpt>
      <trkpt lat="45.19482" lon="5.81621">
        <ele>218</ele>
        <time>2017-10-15T10:59:31Z</time>
      </trkpt>
      <trkpt lat="45.19484" lon="5.81627">
        <ele>218</ele>
        <time>2017-10-15T10:59:32Z</time>
      </trkpt>
      <trkpt lat="45.19484" lon="5.81638">
        <ele>218</ele>
        <time>2017-10-15T10:59:34Z</time>
      </trkpt>
      <trkpt lat="45.19485" lon="5.81648">
        <ele>218</ele>
        <time>2017-10-15T10:59:36Z</time>
      </trkpt>
      <trkpt lat="45.19486" lon="5.8166">
        <ele>218</ele>
        <time>2017-10-15T10:59:38Z</time>
      </trkpt>
      <trkpt lat="45.19488" lon="5.81679">
        <ele>218</ele>
        <time>2017-10-15T10:59:41Z</time>
      </trkpt>
      <trkpt lat="45.1949" lon="5.81691">
        <ele>218</ele>
        <time>2017-10-15T10:59:43Z</time>
      </trkpt>
      <trkpt lat="45.19492" lon="5.81706">
        <ele>218</ele>
        <time>2017-10-15T10:59:45Z</time>
      </trkpt>
      <trkpt lat="45.19492" lon="5.81712">
        <ele>218</ele>
        <time>2017-10-15T10:59:46Z</time>
      </trkpt>
      <trkpt lat="45.1949" lon="5.81724">
        <ele>218</ele>
        <time>2017-10-15T10:59:48Z</time>
      </trkpt>
      <trkpt lat="45.19488" lon="5.81737">
        <ele>218</ele>
        <time>2017-10-15T10:59:50Z</time>
      </trkpt>
      <trkpt lat="45.19486" lon="5.81743">
        <ele>218</ele>
        <time>2017-10-15T10:59:51Z</time>
      </trkpt>
      <trkpt lat="45.19478" lon="5.81756">
        <ele>218</ele>
        <time>2017-10-15T10:59:54Z</time>
      </trkpt>
      <trkpt lat="45.19472" lon="5.81764">
        <ele>218</ele>
        <time>2017-10-15T10:59:56Z</time>
      </trkpt>
      <trkpt lat="45.19466" lon="5.81771">
        <ele>218</ele>
        <time>2017-10-15T10:59:58Z</time>
      </trkpt>
      <trkpt lat="45.19461" lon="5.81777">
        <ele>218</ele>
        <time>2017-10-15T11:00:00Z</time>
      </trkpt>
      <trkpt lat="45.19456" lon="5.81783">
        <ele>218</ele>
        <time>2017-10-15T11:00:02Z</time>
      </trkpt>
      <trkpt lat="45.19451" lon="5.81789">
        <ele>218</ele>
        <time>2017-10-15T11:00:04Z</time>
      </trkpt>
      <trkpt lat="45.19446" lon="5.81795">
        <ele>219</ele>
        <time>2017-10-15T11:00:06Z</time>
      </trkpt>
      <trkpt lat="45.19441" lon="5.81802">
        <ele>219</ele>
        <time>2017-10-15T11:00:08Z</time>
      </trkpt>
      <trkpt lat="45.19434" lon="5.8181">
        <ele>219</ele>
        <time>2017-10-15T11:00:10Z</time>
      </trkpt>
      <trkpt lat="45.19428" lon="5.81817">
        <ele>219</ele>
        <time>2017-10-15T11:00:12Z</time>
      </trkpt>
      <trkpt lat="45.19421" lon="5.81824">
        <ele>219</ele>
        <time>2017-10-15T11:00:14Z</time>
      </trkpt>
      <trkpt lat="45.19412" lon="5.81834">
        <ele>219</ele>
        <time>2017-10-15T11:00:16Z</time>
      </trkpt>
      <trkpt lat="45.19406" lon="5.81841">
        <ele>219</ele>
        <time>2017-10-15T11:00:18Z</time>
      </trkpt>
      <trkpt lat="45.19401" lon="5.81849">
        <ele>219</ele>
        <time>2017-10-15T11:00:20Z</time>
      </trkpt>
      <trkpt lat="45.19395" lon="5.81855">
        <ele>219</ele>
        <time>2017-10-15T11:00:22Z</time>
      </trkpt>
      <trkpt lat="45.1939" lon="5.81862">
        <ele>219</ele>
        <time>2017-10-15T11:00:24Z</time>
      </trkpt>
      <trkpt lat="45.19385" lon="5.81862">
        <ele>219</ele>
        <time>2017-10-15T11:00:25Z</time>
      </trkpt>
      <trkpt lat="45.19378" lon="5.81859">
        <ele>219</ele>
        <time>2017-10-15T11:00:27Z</time>
      </trkpt>
      <trkpt lat="45.1937" lon="5.81855">
        <ele>219</ele>
        <time>2017-10-15T11:00:29Z</time>
      </trkpt>
      <trkpt lat="45.19363" lon="5.8185">
        <ele>220</ele>
        <time>2017-10-15T11:00:31Z</time>
      </trkpt>
      <trkpt lat="45.19356" lon="5.81845">
        <ele>220</ele>
        <time>2017-10-15T11:00:33Z</time>
      </trkpt>
      <trkpt lat="45.1935" lon="5.81841">
        <ele>220</ele>
        <time>2017-10-15T11:00:35Z</time>
      </trkpt>
      <trkpt lat="45.1934" lon="5.81834">
        <ele>220</ele>
        <time>2017-10-15T11:00:38Z</time>
      </trkpt>
      <trkpt lat="45.1933" lon="5.81827">
        <ele>220</ele>
        <time>2017-10-15T11:00:41Z</time>
      </trkpt>
      <trkpt lat="45.19324" lon="5.81823">
        <ele>220</ele>
        <time>2017-10-15T11:00:43Z</time>
      </trkpt>
      <trkpt lat="45.19318" lon="5.81818">
        <ele>220</ele>
        <time>2017-10-15T11:00:45Z</time>
      </trkpt>
      <trkpt lat="45.19312" lon="5.81814">
        <ele>220</ele>
        <time>2017-10-15T11:00:47Z</time>
      </trkpt>
      <trkpt lat="45.19305" lon="5.8181">
        <ele>220</ele>
        <time>2017-10-15T11:00:49Z</time>
      </trkpt>
      <trkpt lat="45.19298" lon="5.81805">
        <ele>220</ele>
        <time>2017-10-15T11:00:51Z</time>
      </trkpt>
      <trkpt lat="45.19291" lon="5.81802">
        <ele>220</ele>
        <time>2017-10-15T11:00:53Z</time>
      </trkpt>
      <trkpt lat="45.19284" lon="5.81798">
        <ele>220</ele>
        <time>2017-10-15T11:00:55Z</time>
      </trkpt>
      <trkpt lat="45.19278" lon="5.81795">
        <ele>220</ele>
        <time>2017-10-15T11:00:57Z</time>
      </trkpt>
      <trkpt lat="45.19271" lon="5.81791">
        <ele>220</ele>
        <time>2017-10-15T11:00:59Z</time>
      </trkpt>
      <trkpt lat="45.19265" lon="5.81789">
        <ele>220</ele>
        <time>2017-10-15T11:01:01Z</time>
      </trkpt>
      <trkpt lat="45.19258" lon="5.81787">
        <ele>221</ele>
        <time>2017-10-15T11:01:03Z</time>
      </trkpt>
      <trkpt lat="45.19251" lon="5.81786">
        <ele>221</ele>
        <time>2017-10-15T11:01:05Z</time>
      </trkpt>
      <trkpt lat="45.19245" lon="5.81786">
        <ele>221</ele>
        <time>2017-10-15T11:01:07Z</time>
      </trkpt>
      <trkpt lat="45.19239" lon="5.81791">
        <ele>221</ele>
        <time>2017-10-15T11:01:09Z</time>
      </trkpt>
      <trkpt lat="45.19234" lon="5.81795">
        <ele>221</ele>
        <time>2017-10-15T11:01:11Z</time>
      </trkpt>
      <trkpt lat="45.19228" lon="5.81798">
        <ele>221</ele>
        <time>2017-10-15T11:01:13Z</time>
      </trkpt>
      <trkpt lat="45.19223" lon="5.81796">
        <ele>222</ele>
        <time>2017-10-15T11:01:15Z</time>
      </trkpt>
      <trkpt lat="45.19217" lon="5.81795">
        <ele>222</ele>
        <time>2017-10-15T11:01:17Z</time>
      </trkpt>
      <trkpt lat="45.1921" lon="5.81794">
        <ele>222</ele>
        <time>2017-10-15T11:01:19Z</time>
      </trkpt>
      <trkpt lat="45.19204" lon="5.81793">
        <ele>223</ele>
        <time>2017-10-15T11:01:21Z</time>
      </trkpt>
      <trkpt lat="45.19198" lon="5.81793">
        <ele>223</ele>
        <time>2017-10-15T11:01:23Z</time>
      </trkpt>
      <trkpt lat="45.19192" lon="5.81793">
        <ele>223</ele>
        <time>2017-10-15T11:01:25Z</time>
      </trkpt>
      <trkpt lat="45.19186" lon="5.81792">
        <ele>224</ele>
        <time>2017-10-15T11:01:27Z</time>
      </trkpt>
      <trkpt lat="45.19181" lon="5.81792">
        <ele>224</ele>
        <time>2017-10-15T11:01:29Z</time>
      </trkpt>
      <trkpt lat="45.19175" lon="5.81792">
        <ele>224</ele>
        <time>2017-10-15T11:01:32Z</time>
      </trkpt>
      <trkpt lat="45.1917" lon="5.8179">
        <ele>225</ele>
        <time>2017-10-15T11:01:35Z</time>
      </trkpt>
      <trkpt lat="45.19163" lon="5.81788">
        <ele>225</ele>
        <time>2017-10-15T11:03:06Z</time>
      </trkpt>
      <trkpt lat="45.19159" lon="5.81795">
        <ele>225</ele>
        <time>2017-10-15T11:03:09Z</time>
      </trkpt>
      <trkpt lat="45.19156" lon="5.818">
        <ele>226</ele>
        <time>2017-10-15T11:03:11Z</time>
      </trkpt>
      <trkpt lat="45.19151" lon="5.81807">
        <ele>227</ele>
        <time>2017-10-15T11:03:14Z</time>
      </trkpt>
      <trkpt lat="45.19148" lon="5.81812">
        <ele>227</ele>
        <time>2017-10-15T11:03:16Z</time>
      </trkpt>
      <trkpt lat="45.19144" lon="5.81818">
        <ele>228</ele>
        <time>2017-10-15T11:03:18Z</time>
      </trkpt>
      <trkpt lat="45.19141" lon="5.81824">
        <ele>228</ele>
        <time>2017-10-15T11:03:20Z</time>
      </trkpt>
      <trkpt lat="45.19138" lon="5.81829">
        <ele>229</ele>
        <time>2017-10-15T11:03:22Z</time>
      </trkpt>
      <trkpt lat="45.19136" lon="5.81834">
        <ele>229</ele>
        <time>2017-10-15T11:03:24Z</time>
      </trkpt>
      <trkpt lat="45.19133" lon="5.81839">
        <ele>230</ele>
        <time>2017-10-15T11:03:26Z</time>
      </trkpt>
      <trkpt lat="45.19128" lon="5.81846">
        <ele>231</ele>
        <time>2017-10-15T11:03:29Z</time>
      </trkpt>
      <trkpt lat="45.19125" lon="5.81853">
        <ele>231</ele>
        <time>2017-10-15T11:03:32Z</time>
      </trkpt>
      <trkpt lat="45.1912" lon="5.81861">
        <ele>232</ele>
        <time>2017-10-15T11:03:35Z</time>
      </trkpt>
      <trkpt lat="45.19116" lon="5.81868">
        <ele>233</ele>
        <time>2017-10-15T11:03:38Z</time>
      </trkpt>
      <trkpt lat="45.19111" lon="5.81874">
        <ele>234</ele>
        <time>2017-10-15T11:03:41Z</time>
      </trkpt>
      <trkpt lat="45.19106" lon="5.81881">
        <ele>235</ele>
        <time>2017-10-15T11:03:44Z</time>
      </trkpt>
      <trkpt lat="45.19101" lon="5.81886">
        <ele>235</ele>
        <time>2017-10-15T11:03:47Z</time>
      </trkpt>
      <trkpt lat="45.19095" lon="5.81888">
        <ele>236</ele>
        <time>2017-10-15T11:03:50Z</time>
      </trkpt>
      <trkpt lat="45.1909" lon="5.81889">
        <ele>236</ele>
        <time>2017-10-15T11:03:52Z</time>
      </trkpt>
      <trkpt lat="45.19085" lon="5.81891">
        <ele>237</ele>
        <time>2017-10-15T11:03:54Z</time>
      </trkpt>
      <trkpt lat="45.1908" lon="5.81894">
        <ele>238</ele>
        <time>2017-10-15T11:03:56Z</time>
      </trkpt>
      <trkpt lat="45.19077" lon="5.81899">
        <ele>239</ele>
        <time>2017-10-15T11:03:58Z</time>
      </trkpt>
      <trkpt lat="45.19073" lon="5.81904">
        <ele>240</ele>
        <time>2017-10-15T11:04:00Z</time>
      </trkpt>
      <trkpt lat="45.19064" lon="5.81913">
        <ele>241</ele>
        <time>2017-10-15T11:04:05Z</time>
      </trkpt>
      <trkpt lat="45.1906" lon="5.81917">
        <ele>242</ele>
        <time>2017-10-15T11:04:07Z</time>
      </trkpt>
      <trkpt lat="45.19055" lon="5.81922">
        <ele>243</ele>
        <time>2017-10-15T11:04:10Z</time>
      </trkpt>
      <trkpt lat="45.1905" lon="5.81926">
        <ele>244</ele>
        <time>2017-10-15T11:04:13Z</time>
      </trkpt>
      <trkpt lat="45.19046" lon="5.8193">
        <ele>245</ele>
        <time>2017-10-15T11:04:16Z</time>
      </trkpt>
      <trkpt lat="45.19039" lon="5.8193">
        <ele>246</ele>
        <time>2017-10-15T11:04:19Z</time>
      </trkpt>
      <trkpt lat="45.19034" lon="5.81929">
        <ele>247</ele>
        <time>2017-10-15T11:04:21Z</time>
      </trkpt>
      <trkpt lat="45.19028" lon="5.81929">
        <ele>248</ele>
        <time>2017-10-15T11:04:24Z</time>
      </trkpt>
      <trkpt lat="45.19022" lon="5.81927">
        <ele>249</ele>
        <time>2017-10-15T11:04:27Z</time>
      </trkpt>
      <trkpt lat="45.19016" lon="5.81925">
        <ele>250</ele>
        <time>2017-10-15T11:04:30Z</time>
      </trkpt>
      <trkpt lat="45.1901" lon="5.81921">
        <ele>252</ele>
        <time>2017-10-15T11:04:33Z</time>
      </trkpt>
      <trkpt lat="45.19006" lon="5.81918">
        <ele>253</ele>
        <time>2017-10-15T11:04:35Z</time>
      </trkpt>
      <trkpt lat="45.19002" lon="5.81915">
        <ele>254</ele>
        <time>2017-10-15T11:04:37Z</time>
      </trkpt>
      <trkpt lat="45.18996" lon="5.81911">
        <ele>255</ele>
        <time>2017-10-15T11:04:40Z</time>
      </trkpt>
      <trkpt lat="45.18992" lon="5.81907">
        <ele>256</ele>
        <time>2017-10-15T11:04:43Z</time>
      </trkpt>
      <trkpt lat="45.18987" lon="5.81902">
        <ele>257</ele>
        <time>2017-10-15T11:04:46Z</time>
      </trkpt>
      <trkpt lat="45.18979" lon="5.81894">
        <ele>259</ele>
        <time>2017-10-15T11:04:51Z</time>
      </trkpt>
      <trkpt lat="45.18974" lon="5.8189">
        <ele>260</ele>
        <time>2017-10-15T11:04:54Z</time>
      </trkpt>
      <trkpt lat="45.18969" lon="5.81885">
        <ele>261</ele>
        <time>2017-10-15T11:04:57Z</time>
      </trkpt>
      <trkpt lat="45.18965" lon="5.8188">
        <ele>261</ele>
        <time>2017-10-15T11:05:00Z</time>
      </trkpt>
      <trkpt lat="45.18961" lon="5.81874">
        <ele>262</ele>
        <time>2017-10-15T11:05:03Z</time>
      </trkpt>
      <trkpt lat="45.18957" lon="5.81869">
        <ele>263</ele>
        <time>2017-10-15T11:05:06Z</time>
      </trkpt>
      <trkpt lat="45.18953" lon="5.81863">
        <ele>263</ele>
        <time>2017-10-15T11:05:09Z</time>
      </trkpt>
      <trkpt lat="45.18946" lon="5.81853">
        <ele>264</ele>
        <time>2017-10-15T11:05:16Z</time>
      </trkpt>
      <trkpt lat="45.18942" lon="5.81846">
        <ele>265</ele>
        <time>2017-10-15T11:05:20Z</time>
      </trkpt>
      <trkpt lat="45.18938" lon="5.81841">
        <ele>266</ele>
        <time>2017-10-15T11:05:23Z</time>
      </trkpt>
      <trkpt lat="45.18934" lon="5.81836">
        <ele>266</ele>
        <time>2017-10-15T11:05:26Z</time>
      </trkpt>
      <trkpt lat="45.18931" lon="5.81829">
        <ele>267</ele>
        <time>2017-10-15T11:05:29Z</time>
      </trkpt>
      <trkpt lat="45.18928" lon="5.81822">
        <ele>267</ele>
        <time>2017-10-15T11:05:32Z</time>
      </trkpt>
      <trkpt lat="45.18924" lon="5.81816">
        <ele>267</ele>
        <time>2017-10-15T11:05:35Z</time>
      </trkpt>
      <trkpt lat="45.1892" lon="5.81809">
        <ele>268</ele>
        <time>2017-10-15T11:05:38Z</time>
      </trkpt>
      <trkpt lat="45.18916" lon="5.81803">
        <ele>268</ele>
        <time>2017-10-15T11:05:41Z</time>
      </trkpt>
      <trkpt lat="45.18913" lon="5.81796">
        <ele>268</ele>
        <time>2017-10-15T11:05:44Z</time>
      </trkpt>
      <trkpt lat="45.1891" lon="5.81789">
        <ele>268</ele>
        <time>2017-10-15T11:05:47Z</time>
      </trkpt>
      <trkpt lat="45.18907" lon="5.81783">
        <ele>268</ele>
        <time>2017-10-15T11:05:50Z</time>
      </trkpt>
      <trkpt lat="45.18904" lon="5.81777">
        <ele>269</ele>
        <time>2017-10-15T11:05:53Z</time>
      </trkpt>
      <trkpt lat="45.189" lon="5.8177">
        <ele>269</ele>
        <time>2017-10-15T11:05:57Z</time>
      </trkpt>
      <trkpt lat="45.18898" lon="5.81762">
        <ele>268</ele>
        <time>2017-10-15T11:06:00Z</time>
      </trkpt>
      <trkpt lat="45.18895" lon="5.81754">
        <ele>268</ele>
        <time>2017-10-15T11:06:03Z</time>
      </trkpt>
      <trkpt lat="45.18893" lon="5.81747">
        <ele>268</ele>
        <time>2017-10-15T11:06:06Z</time>
      </trkpt>
      <trkpt lat="45.1889" lon="5.81741">
        <ele>268</ele>
        <time>2017-10-15T11:06:09Z</time>
      </trkpt>
      <trkpt lat="45.18887" lon="5.81735">
        <ele>268</ele>
        <time>2017-10-15T11:06:12Z</time>
      </trkpt>
      <trkpt lat="45.18883" lon="5.81729">
        <ele>268</ele>
        <time>2017-10-15T11:06:15Z</time>
      </trkpt>
      <trkpt lat="45.18881" lon="5.81723">
        <ele>268</ele>
        <time>2017-10-15T11:06:18Z</time>
      </trkpt>
      <trkpt lat="45.18876" lon="5.81719">
        <ele>269</ele>
        <time>2017-10-15T11:06:21Z</time>
      </trkpt>
      <trkpt lat="45.1887" lon="5.81716">
        <ele>271</ele>
        <time>2017-10-15T11:06:24Z</time>
      </trkpt>
      <trkpt lat="45.18864" lon="5.81714">
        <ele>274</ele>
        <time>2017-10-15T11:06:27Z</time>
      </trkpt>
      <trkpt lat="45.18858" lon="5.81712">
        <ele>276</ele>
        <time>2017-10-15T11:06:30Z</time>
      </trkpt>
      <trkpt lat="45.18852" lon="5.81706">
        <ele>278</ele>
        <time>2017-10-15T11:06:34Z</time>
      </trkpt>
      <trkpt lat="45.18849" lon="5.81699">
        <ele>278</ele>
        <time>2017-10-15T11:06:37Z</time>
      </trkpt>
      <trkpt lat="45.18845" lon="5.81694">
        <ele>279</ele>
        <time>2017-10-15T11:06:41Z</time>
      </trkpt>
      <trkpt lat="45.18844" lon="5.81686">
        <ele>279</ele>
        <time>2017-10-15T11:06:45Z</time>
      </trkpt>
      <trkpt lat="45.18841" lon="5.81679">
        <ele>279</ele>
        <time>2017-10-15T11:06:48Z</time>
      </trkpt>
      <trkpt lat="45.18839" lon="5.81672">
        <ele>278</ele>
        <time>2017-10-15T11:06:51Z</time>
      </trkpt>
      <trkpt lat="45.18835" lon="5.81666">
        <ele>279</ele>
        <time>2017-10-15T11:06:54Z</time>
      </trkpt>
      <trkpt lat="45.18832" lon="5.81658">
        <ele>280</ele>
        <time>2017-10-15T11:06:57Z</time>
      </trkpt>
      <trkpt lat="45.1883" lon="5.8165">
        <ele>279</ele>
        <time>2017-10-15T11:07:00Z</time>
      </trkpt>
      <trkpt lat="45.18827" lon="5.81642">
        <ele>279</ele>
        <time>2017-10-15T11:07:03Z</time>
      </trkpt>
      <trkpt lat="45.18825" lon="5.81633">
        <ele>279</ele>
        <time>2017-10-15T11:07:06Z</time>
      </trkpt>
      <trkpt lat="45.18822" lon="5.81625">
        <ele>279</ele>
        <time>2017-10-15T11:07:09Z</time>
      </trkpt>
      <trkpt lat="45.18819" lon="5.81617">
        <ele>279</ele>
        <time>2017-10-15T11:07:12Z</time>
      </trkpt>
      <trkpt lat="45.18811" lon="5.81605">
        <ele>281</ele>
        <time>2017-10-15T11:07:17Z</time>
      </trkpt>
      <trkpt lat="45.18807" lon="5.81598">
        <ele>282</ele>
        <time>2017-10-15T11:07:20Z</time>
      </trkpt>
      <trkpt lat="45.18803" lon="5.81591">
        <ele>283</ele>
        <time>2017-10-15T11:07:23Z</time>
      </trkpt>
      <trkpt lat="45.18802" lon="5.81583">
        <ele>283</ele>
        <time>2017-10-15T11:07:26Z</time>
      </trkpt>
      <trkpt lat="45.188" lon="5.81576">
        <ele>283</ele>
        <time>2017-10-15T11:07:29Z</time>
      </trkpt>
      <trkpt lat="45.18797" lon="5.81569">
        <ele>283</ele>
        <time>2017-10-15T11:07:32Z</time>
      </trkpt>
      <trkpt lat="45.18794" lon="5.81564">
        <ele>284</ele>
        <time>2017-10-15T11:07:35Z</time>
      </trkpt>
      <trkpt lat="45.18791" lon="5.81557">
        <ele>285</ele>
        <time>2017-10-15T11:07:39Z</time>
      </trkpt>
      <trkpt lat="45.1879" lon="5.8155">
        <ele>284</ele>
        <time>2017-10-15T11:07:43Z</time>
      </trkpt>
      <trkpt lat="45.18787" lon="5.81543">
        <ele>285</ele>
        <time>2017-10-15T11:07:46Z</time>
      </trkpt>
      <trkpt lat="45.18784" lon="5.81538">
        <ele>286</ele>
        <time>2017-10-15T11:07:48Z</time>
      </trkpt>
      <trkpt lat="45.1878" lon="5.8153">
        <ele>287</ele>
        <time>2017-10-15T11:07:51Z</time>
      </trkpt>
      <trkpt lat="45.18778" lon="5.81524">
        <ele>287</ele>
        <time>2017-10-15T11:07:53Z</time>
      </trkpt>
      <trkpt lat="45.18774" lon="5.81517">
        <ele>288</ele>
        <time>2017-10-15T11:07:56Z</time>
      </trkpt>
      <trkpt lat="45.18771" lon="5.8151">
        <ele>288</ele>
        <time>2017-10-15T11:07:59Z</time>
      </trkpt>
      <trkpt lat="45.18768" lon="5.81504">
        <ele>289</ele>
        <time>2017-10-15T11:08:02Z</time>
      </trkpt>
      <trkpt lat="45.18764" lon="5.81498">
        <ele>290</ele>
        <time>2017-10-15T11:08:05Z</time>
      </trkpt>
      <trkpt lat="45.1876" lon="5.81493">
        <ele>291</ele>
        <time>2017-10-15T11:08:08Z</time>
      </trkpt>
      <trkpt lat="45.18756" lon="5.81487">
        <ele>292</ele>
        <time>2017-10-15T11:08:11Z</time>
      </trkpt>
      <trkpt lat="45.18753" lon="5.8148">
        <ele>292</ele>
        <time>2017-10-15T11:08:14Z</time>
      </trkpt>
      <trkpt lat="45.18751" lon="5.81473">
        <ele>292</ele>
        <time>2017-10-15T11:08:17Z</time>
      </trkpt>
      <trkpt lat="45.18748" lon="5.81467">
        <ele>293</ele>
        <time>2017-10-15T11:08:20Z</time>
      </trkpt>
      <trkpt lat="45.18745" lon="5.81461">
        <ele>293</ele>
        <time>2017-10-15T11:08:23Z</time>
      </trkpt>
      <trkpt lat="45.18743" lon="5.81455">
        <ele>293</ele>
        <time>2017-10-15T11:08:26Z</time>
      </trkpt>
      <trkpt lat="45.18741" lon="5.81448">
        <ele>293</ele>
        <time>2017-10-15T11:08:29Z</time>
      </trkpt>
      <trkpt lat="45.18738" lon="5.81442">
        <ele>293</ele>
        <time>2017-10-15T11:08:32Z</time>
      </trkpt>
      <trkpt lat="45.18736" lon="5.81436">
        <ele>293</ele>
        <time>2017-10-15T11:08:35Z</time>
      </trkpt>
      <trkpt lat="45.18732" lon="5.81429">
        <ele>293</ele>
        <time>2017-10-15T11:08:38Z</time>
      </trkpt>
      <trkpt lat="45.18729" lon="5.81423">
        <ele>293</ele>
        <time>2017-10-15T11:08:41Z</time>
      </trkpt>
      <trkpt lat="45.18724" lon="5.81417">
        <ele>294</ele>
        <time>2017-10-15T11:08:44Z</time>
      </trkpt>
      <trkpt lat="45.18721" lon="5.81413">
        <ele>295</ele>
        <time>2017-10-15T11:08:46Z</time>
      </trkpt>
      <trkpt lat="45.18718" lon="5.81403">
        <ele>294</ele>
        <time>2017-10-15T11:08:50Z</time>
      </trkpt>
      <trkpt lat="45.18714" lon="5.81397">
        <ele>294</ele>
        <time>2017-10-15T11:08:53Z</time>
      </trkpt>
      <trkpt lat="45.18711" lon="5.81392">
        <ele>295</ele>
        <time>2017-10-15T11:08:56Z</time>
      </trkpt>
      <trkpt lat="45.18707" lon="5.81386">
        <ele>295</ele>
        <time>2017-10-15T11:08:59Z</time>
      </trkpt>
      <trkpt lat="45.18703" lon="5.8138">
        <ele>296</ele>
        <time>2017-10-15T11:09:02Z</time>
      </trkpt>
      <trkpt lat="45.18698" lon="5.81378">
        <ele>297</ele>
        <time>2017-10-15T11:09:05Z</time>
      </trkpt>
      <trkpt lat="45.18692" lon="5.81378">
        <ele>300</ele>
        <time>2017-10-15T11:09:08Z</time>
      </trkpt>
      <trkpt lat="45.18687" lon="5.81382">
        <ele>304</ele>
        <time>2017-10-15T11:09:11Z</time>
      </trkpt>
      <trkpt lat="45.18684" lon="5.81389">
        <ele>307</ele>
        <time>2017-10-15T11:09:14Z</time>
      </trkpt>
      <trkpt lat="45.18686" lon="5.81397">
        <ele>308</ele>
        <time>2017-10-15T11:09:17Z</time>
      </trkpt>
      <trkpt lat="45.18689" lon="5.81402">
        <ele>307</ele>
        <time>2017-10-15T11:09:19Z</time>
      </trkpt>
      <trkpt lat="45.18698" lon="5.8141">
        <ele>305</ele>
        <time>2017-10-15T11:09:24Z</time>
      </trkpt>
      <trkpt lat="45.18709" lon="5.81418">
        <ele>302</ele>
        <time>2017-10-15T11:09:30Z</time>
      </trkpt>
      <trkpt lat="45.18713" lon="5.81424">
        <ele>301</ele>
        <time>2017-10-15T11:09:33Z</time>
      </trkpt>
      <trkpt lat="45.18715" lon="5.81431">
        <ele>302</ele>
        <time>2017-10-15T11:09:36Z</time>
      </trkpt>
      <trkpt lat="45.18716" lon="5.81438">
        <ele>303</ele>
        <time>2017-10-15T11:09:39Z</time>
      </trkpt>
      <trkpt lat="45.18717" lon="5.81445">
        <ele>304</ele>
        <time>2017-10-15T11:09:43Z</time>
      </trkpt>
      <trkpt lat="45.18718" lon="5.81452">
        <ele>305</ele>
        <time>2017-10-15T11:09:46Z</time>
      </trkpt>
      <trkpt lat="45.18718" lon="5.8146">
        <ele>307</ele>
        <time>2017-10-15T11:09:49Z</time>
      </trkpt>
      <trkpt lat="45.18719" lon="5.81467">
        <ele>307</ele>
        <time>2017-10-15T11:09:52Z</time>
      </trkpt>
      <trkpt lat="45.18719" lon="5.81474">
        <ele>309</ele>
        <time>2017-10-15T11:09:55Z</time>
      </trkpt>
      <trkpt lat="45.18719" lon="5.81482">
        <ele>310</ele>
        <time>2017-10-15T11:09:58Z</time>
      </trkpt>
      <trkpt lat="45.18718" lon="5.81489">
        <ele>312</ele>
        <time>2017-10-15T11:10:01Z</time>
      </trkpt>
      <trkpt lat="45.18717" lon="5.81497">
        <ele>314</ele>
        <time>2017-10-15T11:10:04Z</time>
      </trkpt>
      <trkpt lat="45.18716" lon="5.81506">
        <ele>316</ele>
        <time>2017-10-15T11:10:07Z</time>
      </trkpt>
      <trkpt lat="45.18716" lon="5.81515">
        <ele>318</ele>
        <time>2017-10-15T11:10:10Z</time>
      </trkpt>
      <trkpt lat="45.18717" lon="5.81523">
        <ele>319</ele>
        <time>2017-10-15T11:10:13Z</time>
      </trkpt>
      <trkpt lat="45.18718" lon="5.81529">
        <ele>319</ele>
        <time>2017-10-15T11:10:17Z</time>
      </trkpt>
      <trkpt lat="45.18718" lon="5.81539">
        <ele>320</ele>
        <time>2017-10-15T11:10:20Z</time>
      </trkpt>
      <trkpt lat="45.1872" lon="5.81545">
        <ele>320</ele>
        <time>2017-10-15T11:10:22Z</time>
      </trkpt>
      <trkpt lat="45.18721" lon="5.81554">
        <ele>321</ele>
        <time>2017-10-15T11:10:25Z</time>
      </trkpt>
      <trkpt lat="45.18721" lon="5.81562">
        <ele>322</ele>
        <time>2017-10-15T11:10:28Z</time>
      </trkpt>
      <trkpt lat="45.18722" lon="5.81571">
        <ele>322</ele>
        <time>2017-10-15T11:10:31Z</time>
      </trkpt>
      <trkpt lat="45.18722" lon="5.81579">
        <ele>323</ele>
        <time>2017-10-15T11:10:34Z</time>
      </trkpt>
      <trkpt lat="45.18723" lon="5.81587">
        <ele>324</ele>
        <time>2017-10-15T11:10:37Z</time>
      </trkpt>
      <trkpt lat="45.18724" lon="5.81595">
        <ele>324</ele>
        <time>2017-10-15T11:10:40Z</time>
      </trkpt>
      <trkpt lat="45.18723" lon="5.81602">
        <ele>325</ele>
        <time>2017-10-15T11:10:43Z</time>
      </trkpt>
      <trkpt lat="45.18723" lon="5.8161">
        <ele>326</ele>
        <time>2017-10-15T11:10:46Z</time>
      </trkpt>
      <trkpt lat="45.18723" lon="5.81618">
        <ele>327</ele>
        <time>2017-10-15T11:10:49Z</time>
      </trkpt>
      <trkpt lat="45.18724" lon="5.81626">
        <ele>328</ele>
        <time>2017-10-15T11:10:52Z</time>
      </trkpt>
      <trkpt lat="45.18726" lon="5.81634">
        <ele>328</ele>
        <time>2017-10-15T11:10:55Z</time>
      </trkpt>
      <trkpt lat="45.18727" lon="5.81642">
        <ele>328</ele>
        <time>2017-10-15T11:10:58Z</time>
      </trkpt>
      <trkpt lat="45.18729" lon="5.81649">
        <ele>328</ele>
        <time>2017-10-15T11:11:01Z</time>
      </trkpt>
      <trkpt lat="45.18731" lon="5.81657">
        <ele>327</ele>
        <time>2017-10-15T11:11:04Z</time>
      </trkpt>
      <trkpt lat="45.18731" lon="5.81665">
        <ele>328</ele>
        <time>2017-10-15T11:11:07Z</time>
      </trkpt>
      <trkpt lat="45.18732" lon="5.81673">
        <ele>329</ele>
        <time>2017-10-15T11:11:10Z</time>
      </trkpt>
      <trkpt lat="45.18733" lon="5.8168">
        <ele>329</ele>
        <time>2017-10-15T11:11:13Z</time>
      </trkpt>
      <trkpt lat="45.18733" lon="5.81688">
        <ele>330</ele>
        <time>2017-10-15T11:11:16Z</time>
      </trkpt>
      <trkpt lat="45.18734" lon="5.81696">
        <ele>330</ele>
        <time>2017-10-15T11:11:19Z</time>
      </trkpt>
      <trkpt lat="45.18735" lon="5.81703">
        <ele>330</ele>
        <time>2017-10-15T11:11:22Z</time>
      </trkpt>
      <trkpt lat="45.18734" lon="5.8171">
        <ele>332</ele>
        <time>2017-10-15T11:11:25Z</time>
      </trkpt>
      <trkpt lat="45.18734" lon="5.81719">
        <ele>333</ele>
        <time>2017-10-15T11:11:28Z</time>
      </trkpt>
      <trkpt lat="45.18735" lon="5.81728">
        <ele>333</ele>
        <time>2017-10-15T11:11:31Z</time>
      </trkpt>
      <trkpt lat="45.18734" lon="5.81736">
        <ele>335</ele>
        <time>2017-10-15T11:11:34Z</time>
      </trkpt>
      <trkpt lat="45.1873" lon="5.81743">
        <ele>338</ele>
        <time>2017-10-15T11:11:37Z</time>
      </trkpt>
      <trkpt lat="45.18724" lon="5.81744">
        <ele>342</ele>
        <time>2017-10-15T11:11:40Z</time>
      </trkpt>
      <trkpt lat="45.18721" lon="5.81738">
        <ele>342</ele>
        <time>2017-10-15T11:11:43Z</time>
      </trkpt>
      <trkpt lat="45.18721" lon="5.81729">
        <ele>341</ele>
        <time>2017-10-15T11:11:46Z</time>
      </trkpt>
      <trkpt lat="45.18721" lon="5.8172">
        <ele>340</ele>
        <time>2017-10-15T11:11:49Z</time>
      </trkpt>
      <trkpt lat="45.18721" lon="5.81711">
        <ele>339</ele>
        <time>2017-10-15T11:11:52Z</time>
      </trkpt>
      <trkpt lat="45.1872" lon="5.81702">
        <ele>339</ele>
        <time>2017-10-15T11:11:55Z</time>
      </trkpt>
      <trkpt lat="45.18718" lon="5.81694">
        <ele>339</ele>
        <time>2017-10-15T11:11:58Z</time>
      </trkpt>
      <trkpt lat="45.18715" lon="5.81686">
        <ele>339</ele>
        <time>2017-10-15T11:12:01Z</time>
      </trkpt>
      <trkpt lat="45.18712" lon="5.81679">
        <ele>341</ele>
        <time>2017-10-15T11:12:04Z</time>
      </trkpt>
      <trkpt lat="45.18708" lon="5.81672">
        <ele>342</ele>
        <time>2017-10-15T11:12:07Z</time>
      </trkpt>
      <trkpt lat="45.18706" lon="5.81665">
        <ele>342</ele>
        <time>2017-10-15T11:12:10Z</time>
      </trkpt>
      <trkpt lat="45.18703" lon="5.81657">
        <ele>343</ele>
        <time>2017-10-15T11:12:13Z</time>
      </trkpt>
      <trkpt lat="45.18699" lon="5.8165">
        <ele>344</ele>
        <time>2017-10-15T11:12:16Z</time>
      </trkpt>
      <trkpt lat="45.18698" lon="5.81643">
        <ele>344</ele>
        <time>2017-10-15T11:12:19Z</time>
      </trkpt>
      <trkpt lat="45.18694" lon="5.81635">
        <ele>345</ele>
        <time>2017-10-15T11:12:23Z</time>
      </trkpt>
      <trkpt lat="45.18693" lon="5.81627">
        <ele>345</ele>
        <time>2017-10-15T11:12:26Z</time>
      </trkpt>
      <trkpt lat="45.18691" lon="5.8162">
        <ele>345</ele>
        <time>2017-10-15T11:12:29Z</time>
      </trkpt>
      <trkpt lat="45.18689" lon="5.81612">
        <ele>345</ele>
        <time>2017-10-15T11:12:32Z</time>
      </trkpt>
      <trkpt lat="45.18688" lon="5.81605">
        <ele>345</ele>
        <time>2017-10-15T11:12:35Z</time>
      </trkpt>
      <trkpt lat="45.18689" lon="5.81598">
        <ele>344</ele>
        <time>2017-10-15T11:12:38Z</time>
      </trkpt>
      <trkpt lat="45.18688" lon="5.81591">
        <ele>344</ele>
        <time>2017-10-15T11:12:41Z</time>
      </trkpt>
      <trkpt lat="45.18684" lon="5.81585">
        <ele>345</ele>
        <time>2017-10-15T11:12:44Z</time>
      </trkpt>
      <trkpt lat="45.18683" lon="5.81578">
        <ele>345</ele>
        <time>2017-10-15T11:12:47Z</time>
      </trkpt>
      <trkpt lat="45.1868" lon="5.81571">
        <ele>345</ele>
        <time>2017-10-15T11:12:50Z</time>
      </trkpt>
      <trkpt lat="45.18678" lon="5.81564">
        <ele>345</ele>
        <time>2017-10-15T11:12:53Z</time>
      </trkpt>
      <trkpt lat="45.18677" lon="5.81557">
        <ele>345</ele>
        <time>2017-10-15T11:12:56Z</time>
      </trkpt>
      <trkpt lat="45.18676" lon="5.81549">
        <ele>344</ele>
        <time>2017-10-15T11:12:59Z</time>
      </trkpt>
      <trkpt lat="45.18673" lon="5.81542">
        <ele>345</ele>
        <time>2017-10-15T11:13:02Z</time>
      </trkpt>
      <trkpt lat="45.1867" lon="5.81536">
        <ele>345</ele>
        <time>2017-10-15T11:13:05Z</time>
      </trkpt>
      <trkpt lat="45.18666" lon="5.81529">
        <ele>346</ele>
        <time>2017-10-15T11:13:08Z</time>
      </trkpt>
      <trkpt lat="45.18663" lon="5.81522">
        <ele>347</ele>
        <time>2017-10-15T11:13:11Z</time>
      </trkpt>
      <trkpt lat="45.18661" lon="5.81516">
        <ele>347</ele>
        <time>2017-10-15T11:13:14Z</time>
      </trkpt>
      <trkpt lat="45.18658" lon="5.8151">
        <ele>347</ele>
        <time>2017-10-15T11:13:17Z</time>
      </trkpt>
      <trkpt lat="45.18655" lon="5.81504">
        <ele>348</ele>
        <time>2017-10-15T11:13:20Z</time>
      </trkpt>
      <trkpt lat="45.18653" lon="5.81499">
        <ele>348</ele>
        <time>2017-10-15T11:13:23Z</time>
      </trkpt>
      <trkpt lat="45.18648" lon="5.81494">
        <ele>350</ele>
        <time>2017-10-15T11:13:26Z</time>
      </trkpt>
      <trkpt lat="45.18644" lon="5.81489">
        <ele>351</ele>
        <time>2017-10-15T11:13:29Z</time>
      </trkpt>
      <trkpt lat="45.18641" lon="5.81484">
        <ele>352</ele>
        <time>2017-10-15T11:13:32Z</time>
      </trkpt>
      <trkpt lat="45.18638" lon="5.81478">
        <ele>353</ele>
        <time>2017-10-15T11:13:35Z</time>
      </trkpt>
      <trkpt lat="45.18634" lon="5.81471">
        <ele>354</ele>
        <time>2017-10-15T11:13:39Z</time>
      </trkpt>
      <trkpt lat="45.18631" lon="5.81466">
        <ele>355</ele>
        <time>2017-10-15T11:13:42Z</time>
      </trkpt>
      <trkpt lat="45.18627" lon="5.8146">
        <ele>356</ele>
        <time>2017-10-15T11:13:45Z</time>
      </trkpt>
      <trkpt lat="45.18623" lon="5.81455">
        <ele>357</ele>
        <time>2017-10-15T11:13:48Z</time>
      </trkpt>
      <trkpt lat="45.18621" lon="5.8145">
        <ele>358</ele>
        <time>2017-10-15T11:13:51Z</time>
      </trkpt>
      <trkpt lat="45.18619" lon="5.81444">
        <ele>357</ele>
        <time>2017-10-15T11:13:54Z</time>
      </trkpt>
      <trkpt lat="45.18615" lon="5.81433">
        <ele>357</ele>
        <time>2017-10-15T11:13:59Z</time>
      </trkpt>
      <trkpt lat="45.18613" lon="5.81426">
        <ele>356</ele>
        <time>2017-10-15T11:14:03Z</time>
      </trkpt>
      <trkpt lat="45.1861" lon="5.8142">
        <ele>356</ele>
        <time>2017-10-15T11:14:06Z</time>
      </trkpt>
      <trkpt lat="45.18609" lon="5.81414">
        <ele>356</ele>
        <time>2017-10-15T11:14:09Z</time>
      </trkpt>
      <trkpt lat="45.18606" lon="5.81408">
        <ele>355</ele>
        <time>2017-10-15T11:14:12Z</time>
      </trkpt>
      <trkpt lat="45.18604" lon="5.81402">
        <ele>354</ele>
        <time>2017-10-15T11:14:15Z</time>
      </trkpt>
      <trkpt lat="45.18601" lon="5.81396">
        <ele>354</ele>
        <time>2017-10-15T11:14:18Z</time>
      </trkpt>
      <trkpt lat="45.18599" lon="5.81389">
        <ele>353</ele>
        <time>2017-10-15T11:14:21Z</time>
      </trkpt>
      <trkpt lat="45.18596" lon="5.81382">
        <ele>353</ele>
        <time>2017-10-15T11:14:24Z</time>
      </trkpt>
      <trkpt lat="45.18593" lon="5.81376">
        <ele>353</ele>
        <time>2017-10-15T11:14:27Z</time>
      </trkpt>
      <trkpt lat="45.18589" lon="5.81369">
        <ele>352</ele>
        <time>2017-10-15T11:14:30Z</time>
      </trkpt>
      <trkpt lat="45.18585" lon="5.81364">
        <ele>352</ele>
        <time>2017-10-15T11:14:33Z</time>
      </trkpt>
      <trkpt lat="45.18582" lon="5.81357">
        <ele>352</ele>
        <time>2017-10-15T11:14:36Z</time>
      </trkpt>
      <trkpt lat="45.18578" lon="5.81351">
        <ele>352</ele>
        <time>2017-10-15T11:14:39Z</time>
      </trkpt>
      <trkpt lat="45.18574" lon="5.81344">
        <ele>352</ele>
        <time>2017-10-15T11:14:42Z</time>
      </trkpt>
      <trkpt lat="45.18571" lon="5.81337">
        <ele>352</ele>
        <time>2017-10-15T11:14:45Z</time>
      </trkpt>
      <trkpt lat="45.18567" lon="5.81331">
        <ele>352</ele>
        <time>2017-10-15T11:14:48Z</time>
      </trkpt>
      <trkpt lat="45.18564" lon="5.81326">
        <ele>353</ele>
        <time>2017-10-15T11:14:51Z</time>
      </trkpt>
      <trkpt lat="45.18559" lon="5.81322">
        <ele>353</ele>
        <time>2017-10-15T11:14:54Z</time>
      </trkpt>
      <trkpt lat="45.18553" lon="5.81321">
        <ele>356</ele>
        <time>2017-10-15T11:14:57Z</time>
      </trkpt>
      <trkpt lat="45.18549" lon="5.81326">
        <ele>359</ele>
        <time>2017-10-15T11:15:00Z</time>
      </trkpt>
      <trkpt lat="45.18547" lon="5.81333">
        <ele>362</ele>
        <time>2017-10-15T11:15:03Z</time>
      </trkpt>
      <trkpt lat="45.18549" lon="5.81341">
        <ele>363</ele>
        <time>2017-10-15T11:15:06Z</time>
      </trkpt>
      <trkpt lat="45.18553" lon="5.81347">
        <ele>363</ele>
        <time>2017-10-15T11:15:09Z</time>
      </trkpt>
      <trkpt lat="45.18557" lon="5.81352">
        <ele>362</ele>
        <time>2017-10-15T11:15:12Z</time>
      </trkpt>
      <trkpt lat="45.18562" lon="5.81356">
        <ele>361</ele>
        <time>2017-10-15T11:15:15Z</time>
      </trkpt>
      <trkpt lat="45.18566" lon="5.81362">
        <ele>361</ele>
        <time>2017-10-15T11:15:18Z</time>
      </trkpt>
      <trkpt lat="45.1857" lon="5.81367">
        <ele>360</ele>
        <time>2017-10-15T11:15:21Z</time>
      </trkpt>
      <trkpt lat="45.18572" lon="5.81373">
        <ele>361</ele>
        <time>2017-10-15T11:15:24Z</time>
      </trkpt>
      <trkpt lat="45.18575" lon="5.81379">
        <ele>361</ele>
        <time>2017-10-15T11:15:27Z</time>
      </trkpt>
      <trkpt lat="45.18577" lon="5.81386">
        <ele>362</ele>
        <time>2017-10-15T11:15:30Z</time>
      </trkpt>
      <trkpt lat="45.18578" lon="5.81394">
        <ele>364</ele>
        <time>2017-10-15T11:15:33Z</time>
      </trkpt>
      <trkpt lat="45.1858" lon="5.81401">
        <ele>365</ele>
        <time>2017-10-15T11:15:36Z</time>
      </trkpt>
      <trkpt lat="45.18582" lon="5.81408">
        <ele>366</ele>
        <time>2017-10-15T11:15:39Z</time>
      </trkpt>
      <trkpt lat="45.18583" lon="5.81415">
        <ele>367</ele>
        <time>2017-10-15T11:15:42Z</time>
      </trkpt>
      <trkpt lat="45.18584" lon="5.81423">
        <ele>369</ele>
        <time>2017-10-15T11:15:46Z</time>
      </trkpt>
      <trkpt lat="45.18585" lon="5.8143">
        <ele>370</ele>
        <time>2017-10-15T11:15:49Z</time>
      </trkpt>
      <trkpt lat="45.18587" lon="5.81437">
        <ele>371</ele>
        <time>2017-10-15T11:15:52Z</time>
      </trkpt>
      <trkpt lat="45.18588" lon="5.81444">
        <ele>373</ele>
        <time>2017-10-15T11:15:55Z</time>
      </trkpt>
      <trkpt lat="45.18589" lon="5.81451">
        <ele>374</ele>
        <time>2017-10-15T11:15:58Z</time>
      </trkpt>
      <trkpt lat="45.1859" lon="5.81458">
        <ele>375</ele>
        <time>2017-10-15T11:16:01Z</time>
      </trkpt>
      <trkpt lat="45.18591" lon="5.81466">
        <ele>376</ele>
        <time>2017-10-15T11:16:04Z</time>
      </trkpt>
      <trkpt lat="45.18593" lon="5.81473">
        <ele>376</ele>
        <time>2017-10-15T11:16:07Z</time>
      </trkpt>
      <trkpt lat="45.18592" lon="5.8148">
        <ele>377</ele>
        <time>2017-10-15T11:16:10Z</time>
      </trkpt>
      <trkpt lat="45.18592" lon="5.81488">
        <ele>379</ele>
        <time>2017-10-15T11:16:13Z</time>
      </trkpt>
      <trkpt lat="45.18594" lon="5.81495">
        <ele>379</ele>
        <time>2017-10-15T11:16:16Z</time>
      </trkpt>
      <trkpt lat="45.18593" lon="5.81503">
        <ele>380</ele>
        <time>2017-10-15T11:16:19Z</time>
      </trkpt>
      <trkpt lat="45.18593" lon="5.81511">
        <ele>382</ele>
        <time>2017-10-15T11:16:22Z</time>
      </trkpt>
      <trkpt lat="45.18592" lon="5.81521">
        <ele>384</ele>
        <time>2017-10-15T11:16:25Z</time>
      </trkpt>
      <trkpt lat="45.18592" lon="5.8153">
        <ele>385</ele>
        <time>2017-10-15T11:16:28Z</time>
      </trkpt>
      <trkpt lat="45.18594" lon="5.81539">
        <ele>385</ele>
        <time>2017-10-15T11:16:31Z</time>
      </trkpt>
      <trkpt lat="45.18596" lon="5.81548">
        <ele>385</ele>
        <time>2017-10-15T11:16:34Z</time>
      </trkpt>
      <trkpt lat="45.18596" lon="5.81556">
        <ele>386</ele>
        <time>2017-10-15T11:16:37Z</time>
      </trkpt>
      <trkpt lat="45.18596" lon="5.81563">
        <ele>387</ele>
        <time>2017-10-15T11:16:40Z</time>
      </trkpt>
      <trkpt lat="45.18594" lon="5.81571">
        <ele>389</ele>
        <time>2017-10-15T11:16:43Z</time>
      </trkpt>
      <trkpt lat="45.18596" lon="5.81579">
        <ele>389</ele>
        <time>2017-10-15T11:16:46Z</time>
      </trkpt>
      <trkpt lat="45.18597" lon="5.81587">
        <ele>389</ele>
        <time>2017-10-15T11:16:49Z</time>
      </trkpt>
      <trkpt lat="45.18597" lon="5.81595">
        <ele>390</ele>
        <time>2017-10-15T11:16:52Z</time>
      </trkpt>
      <trkpt lat="45.186" lon="5.81603">
        <ele>390</ele>
        <time>2017-10-15T11:16:55Z</time>
      </trkpt>
      <trkpt lat="45.18602" lon="5.81611">
        <ele>390</ele>
        <time>2017-10-15T11:16:58Z</time>
      </trkpt>
      <trkpt lat="45.18605" lon="5.81619">
        <ele>390</ele>
        <time>2017-10-15T11:17:01Z</time>
      </trkpt>
      <trkpt lat="45.18606" lon="5.81628">
        <ele>391</ele>
        <time>2017-10-15T11:17:04Z</time>
      </trkpt>
      <trkpt lat="45.18605" lon="5.81636">
        <ele>393</ele>
        <time>2017-10-15T11:17:07Z</time>
      </trkpt>
      <trkpt lat="45.18605" lon="5.81644">
        <ele>394</ele>
        <time>2017-10-15T11:17:10Z</time>
      </trkpt>
      <trkpt lat="45.18607" lon="5.81653">
        <ele>394</ele>
        <time>2017-10-15T11:17:13Z</time>
      </trkpt>
      <trkpt lat="45.18607" lon="5.81662">
        <ele>395</ele>
        <time>2017-10-15T11:17:16Z</time>
      </trkpt>
      <trkpt lat="45.18609" lon="5.81669">
        <ele>395</ele>
        <time>2017-10-15T11:17:19Z</time>
      </trkpt>
      <trkpt lat="45.1861" lon="5.81677">
        <ele>395</ele>
        <time>2017-10-15T11:17:22Z</time>
      </trkpt>
      <trkpt lat="45.18612" lon="5.81685">
        <ele>394</ele>
        <time>2017-10-15T11:17:25Z</time>
      </trkpt>
      <trkpt lat="45.18614" lon="5.81692">
        <ele>394</ele>
        <time>2017-10-15T11:17:28Z</time>
      </trkpt>
      <trkpt lat="45.18615" lon="5.81701">
        <ele>394</ele>
        <time>2017-10-15T11:17:31Z</time>
      </trkpt>
      <trkpt lat="45.18617" lon="5.8171">
        <ele>394</ele>
        <time>2017-10-15T11:17:34Z</time>
      </trkpt>
      <trkpt lat="45.18619" lon="5.81718">
        <ele>393</ele>
        <time>2017-10-15T11:17:37Z</time>
      </trkpt>
      <trkpt lat="45.18621" lon="5.81726">
        <ele>393</ele>
        <time>2017-10-15T11:17:40Z</time>
      </trkpt>
      <trkpt lat="45.18622" lon="5.81734">
        <ele>392</ele>
        <time>2017-10-15T11:17:43Z</time>
      </trkpt>
      <trkpt lat="45.18623" lon="5.81742">
        <ele>392</ele>
        <time>2017-10-15T11:17:46Z</time>
      </trkpt>
      <trkpt lat="45.18624" lon="5.81749">
        <ele>392</ele>
        <time>2017-10-15T11:17:49Z</time>
      </trkpt>
      <trkpt lat="45.18624" lon="5.81757">
        <ele>392</ele>
        <time>2017-10-15T11:17:52Z</time>
      </trkpt>
      <trkpt lat="45.18624" lon="5.81765">
        <ele>392</ele>
        <time>2017-10-15T11:17:55Z</time>
      </trkpt>
      <trkpt lat="45.18623" lon="5.81773">
        <ele>392</ele>
        <time>2017-10-15T11:17:58Z</time>
      </trkpt>
      <trkpt lat="45.18621" lon="5.81782">
        <ele>393</ele>
        <time>2017-10-15T11:18:01Z</time>
      </trkpt>
      <trkpt lat="45.18617" lon="5.81788">
        <ele>395</ele>
        <time>2017-10-15T11:18:04Z</time>
      </trkpt>
      <trkpt lat="45.18612" lon="5.81791">
        <ele>397</ele>
        <time>2017-10-15T11:18:07Z</time>
      </trkpt>
      <trkpt lat="45.18606" lon="5.81793">
        <ele>399</ele>
        <time>2017-10-15T11:18:10Z</time>
      </trkpt>
      <trkpt lat="45.186" lon="5.81795">
        <ele>401</ele>
        <time>2017-10-15T11:18:13Z</time>
      </trkpt>
      <trkpt lat="45.18595" lon="5.81798">
        <ele>402</ele>
        <time>2017-10-15T11:18:16Z</time>
      </trkpt>
      <trkpt lat="45.1859" lon="5.81805">
        <ele>404</ele>
        <time>2017-10-15T11:18:19Z</time>
      </trkpt>
      <trkpt lat="45.18588" lon="5.81811">
        <ele>405</ele>
        <time>2017-10-15T11:18:21Z</time>
      </trkpt>
      <trkpt lat="45.18586" lon="5.8182">
        <ele>406</ele>
        <time>2017-10-15T11:18:24Z</time>
      </trkpt>
      <trkpt lat="45.18588" lon="5.81829">
        <ele>406</ele>
        <time>2017-10-15T11:18:27Z</time>
      </trkpt>
      <trkpt lat="45.18589" lon="5.81835">
        <ele>406</ele>
        <time>2017-10-15T11:18:29Z</time>
      </trkpt>
      <trkpt lat="45.18592" lon="5.81841">
        <ele>405</ele>
        <time>2017-10-15T11:18:31Z</time>
      </trkpt>
      <trkpt lat="45.18596" lon="5.81846">
        <ele>404</ele>
        <time>2017-10-15T11:18:33Z</time>
      </trkpt>
      <trkpt lat="45.18599" lon="5.81851">
        <ele>404</ele>
        <time>2017-10-15T11:18:35Z</time>
      </trkpt>
      <trkpt lat="45.18604" lon="5.81855">
        <ele>402</ele>
        <time>2017-10-15T11:18:37Z</time>
      </trkpt>
      <trkpt lat="45.18609" lon="5.8186">
        <ele>401</ele>
        <time>2017-10-15T11:18:39Z</time>
      </trkpt>
      <trkpt lat="45.18615" lon="5.81864">
        <ele>400</ele>
        <time>2017-10-15T11:18:41Z</time>
      </trkpt>
      <trkpt lat="45.1862" lon="5.81867">
        <ele>399</ele>
        <time>2017-10-15T11:18:43Z</time>
      </trkpt>
      <trkpt lat="45.18625" lon="5.81868">
        <ele>397</ele>
        <time>2017-10-15T11:18:45Z</time>
      </trkpt>
      <trkpt lat="45.1863" lon="5.81868">
        <ele>396</ele>
        <time>2017-10-15T11:18:47Z</time>
      </trkpt>
      <trkpt lat="45.18636" lon="5.8187">
        <ele>394</ele>
        <time>2017-10-15T11:18:49Z</time>
      </trkpt>
      <trkpt lat="45.1864" lon="5.81874">
        <ele>394</ele>
        <time>2017-10-15T11:18:51Z</time>
      </trkpt>
      <trkpt lat="45.18644" lon="5.81879">
        <ele>394</ele>
        <time>2017-10-15T11:18:53Z</time>
      </trkpt>
      <trkpt lat="45.18647" lon="5.81885">
        <ele>394</ele>
        <time>2017-10-15T11:18:55Z</time>
      </trkpt>
      <trkpt lat="45.1865" lon="5.81891">
        <ele>394</ele>
        <time>2017-10-15T11:18:57Z</time>
      </trkpt>
      <trkpt lat="45.18652" lon="5.81897">
        <ele>394</ele>
        <time>2017-10-15T11:18:59Z</time>
      </trkpt>
      <trkpt lat="45.18654" lon="5.81903">
        <ele>395</ele>
        <time>2017-10-15T11:19:01Z</time>
      </trkpt>
      <trkpt lat="45.18656" lon="5.81909">
        <ele>395</ele>
        <time>2017-10-15T11:19:03Z</time>
      </trkpt>
      <trkpt lat="45.18658" lon="5.81915">
        <ele>396</ele>
        <time>2017-10-15T11:19:05Z</time>
      </trkpt>
      <trkpt lat="45.1866" lon="5.81921">
        <ele>396</ele>
        <time>2017-10-15T11:19:07Z</time>
      </trkpt>
      <trkpt lat="45.18661" lon="5.81928">
        <ele>397</ele>
        <time>2017-10-15T11:19:09Z</time>
      </trkpt>
      <trkpt lat="45.18663" lon="5.81935">
        <ele>397</ele>
        <time>2017-10-15T11:19:11Z</time>
      </trkpt>
      <trkpt lat="45.18665" lon="5.81941">
        <ele>398</ele>
        <time>2017-10-15T11:19:13Z</time>
      </trkpt>
      <trkpt lat="45.18667" lon="5.81948">
        <ele>398</ele>
        <time>2017-10-15T11:19:15Z</time>
      </trkpt>
      <trkpt lat="45.18668" lon="5.81954">
        <ele>398</ele>
        <time>2017-10-15T11:19:17Z</time>
      </trkpt>
      <trkpt lat="45.1867" lon="5.8196">
        <ele>398</ele>
        <time>2017-10-15T11:19:19Z</time>
      </trkpt>
      <trkpt lat="45.18673" lon="5.81968">
        <ele>398</ele>
        <time>2017-10-15T11:19:22Z</time>
      </trkpt>
      <trkpt lat="45.18675" lon="5.81976">
        <ele>399</ele>
        <time>2017-10-15T11:19:25Z</time>
      </trkpt>
      <trkpt lat="45.18677" lon="5.81985">
        <ele>399</ele>
        <time>2017-10-15T11:19:28Z</time>
      </trkpt>
      <trkpt lat="45.18678" lon="5.81992">
        <ele>399</ele>
        <time>2017-10-15T11:19:30Z</time>
      </trkpt>
      <trkpt lat="45.18679" lon="5.81999">
        <ele>400</ele>
        <time>2017-10-15T11:19:32Z</time>
      </trkpt>
      <trkpt lat="45.18679" lon="5.82006">
        <ele>400</ele>
        <time>2017-10-15T11:19:34Z</time>
      </trkpt>
      <trkpt lat="45.18678" lon="5.82013">
        <ele>401</ele>
        <time>2017-10-15T11:19:36Z</time>
      </trkpt>
      <trkpt lat="45.18676" lon="5.8202">
        <ele>402</ele>
        <time>2017-10-15T11:19:38Z</time>
      </trkpt>
      <trkpt lat="45.18674" lon="5.82026">
        <ele>403</ele>
        <time>2017-10-15T11:19:40Z</time>
      </trkpt>
      <trkpt lat="45.18671" lon="5.82032">
        <ele>404</ele>
        <time>2017-10-15T11:19:42Z</time>
      </trkpt>
      <trkpt lat="45.1867" lon="5.82038">
        <ele>405</ele>
        <time>2017-10-15T11:19:44Z</time>
      </trkpt>
      <trkpt lat="45.18667" lon="5.82045">
        <ele>406</ele>
        <time>2017-10-15T11:19:46Z</time>
      </trkpt>
      <trkpt lat="45.18665" lon="5.82051">
        <ele>407</ele>
        <time>2017-10-15T11:19:48Z</time>
      </trkpt>
      <trkpt lat="45.18662" lon="5.82057">
        <ele>409</ele>
        <time>2017-10-15T11:19:50Z</time>
      </trkpt>
      <trkpt lat="45.1866" lon="5.82066">
        <ele>410</ele>
        <time>2017-10-15T11:19:53Z</time>
      </trkpt>
      <trkpt lat="45.18657" lon="5.82072">
        <ele>411</ele>
        <time>2017-10-15T11:19:55Z</time>
      </trkpt>
      <trkpt lat="45.18654" lon="5.82077">
        <ele>411</ele>
        <time>2017-10-15T11:19:57Z</time>
      </trkpt>
      <trkpt lat="45.18651" lon="5.82081">
        <ele>412</ele>
        <time>2017-10-15T11:19:59Z</time>
      </trkpt>
      <trkpt lat="45.18646" lon="5.82082">
        <ele>414</ele>
        <time>2017-10-15T11:20:01Z</time>
      </trkpt>
      <trkpt lat="45.18642" lon="5.8208">
        <ele>415</ele>
        <time>2017-10-15T11:20:03Z</time>
      </trkpt>
      <trkpt lat="45.18639" lon="5.82075">
        <ele>417</ele>
        <time>2017-10-15T11:20:05Z</time>
      </trkpt>
      <trkpt lat="45.18637" lon="5.82068">
        <ele>418</ele>
        <time>2017-10-15T11:20:07Z</time>
      </trkpt>
      <trkpt lat="45.18636" lon="5.82061">
        <ele>418</ele>
        <time>2017-10-15T11:20:09Z</time>
      </trkpt>
      <trkpt lat="45.18634" lon="5.82054">
        <ele>418</ele>
        <time>2017-10-15T11:20:11Z</time>
      </trkpt>
      <trkpt lat="45.18634" lon="5.82046">
        <ele>417</ele>
        <time>2017-10-15T11:20:13Z</time>
      </trkpt>
      <trkpt lat="45.18633" lon="5.8204">
        <ele>417</ele>
        <time>2017-10-15T11:20:15Z</time>
      </trkpt>
      <trkpt lat="45.18631" lon="5.82033">
        <ele>417</ele>
        <time>2017-10-15T11:20:17Z</time>
      </trkpt>
      <trkpt lat="45.1863" lon="5.82027">
        <ele>418</ele>
        <time>2017-10-15T11:20:19Z</time>
      </trkpt>
      <trkpt lat="45.18627" lon="5.82022">
        <ele>418</ele>
        <time>2017-10-15T11:20:21Z</time>
      </trkpt>
      <trkpt lat="45.18619" lon="5.8201">
        <ele>420</ele>
        <time>2017-10-15T11:20:26Z</time>
      </trkpt>
      <trkpt lat="45.18614" lon="5.82004">
        <ele>421</ele>
        <time>2017-10-15T11:20:29Z</time>
      </trkpt>
      <trkpt lat="45.18609" lon="5.81999">
        <ele>422</ele>
        <time>2017-10-15T11:20:32Z</time>
      </trkpt>
      <trkpt lat="45.18604" lon="5.81993">
        <ele>423</ele>
        <time>2017-10-15T11:20:35Z</time>
      </trkpt>
      <trkpt lat="45.186" lon="5.81986">
        <ele>423</ele>
        <time>2017-10-15T11:20:38Z</time>
      </trkpt>
      <trkpt lat="45.18595" lon="5.8198">
        <ele>424</ele>
        <time>2017-10-15T11:20:41Z</time>
      </trkpt>
      <trkpt lat="45.1859" lon="5.81975">
        <ele>425</ele>
        <time>2017-10-15T11:20:44Z</time>
      </trkpt>
      <trkpt lat="45.18586" lon="5.81968">
        <ele>425</ele>
        <time>2017-10-15T11:20:47Z</time>
      </trkpt>
      <trkpt lat="45.18579" lon="5.81959">
        <ele>426</ele>
        <time>2017-10-15T11:20:52Z</time>
      </trkpt>
      <trkpt lat="45.18575" lon="5.81953">
        <ele>426</ele>
        <time>2017-10-15T11:20:55Z</time>
      </trkpt>
      <trkpt lat="45.18572" lon="5.81947">
        <ele>427</ele>
        <time>2017-10-15T11:20:58Z</time>
      </trkpt>
      <trkpt lat="45.18568" lon="5.81941">
        <ele>427</ele>
        <time>2017-10-15T11:21:01Z</time>
      </trkpt>
      <trkpt lat="45.18564" lon="5.81936">
        <ele>428</ele>
        <time>2017-10-15T11:21:04Z</time>
      </trkpt>
      <trkpt lat="45.1856" lon="5.8193">
        <ele>428</ele>
        <time>2017-10-15T11:21:07Z</time>
      </trkpt>
      <trkpt lat="45.18554" lon="5.81923">
        <ele>429</ele>
        <time>2017-10-15T11:21:11Z</time>
      </trkpt>
      <trkpt lat="45.18551" lon="5.81918">
        <ele>429</ele>
        <time>2017-10-15T11:21:14Z</time>
      </trkpt>
      <trkpt lat="45.18547" lon="5.81911">
        <ele>429</ele>
        <time>2017-10-15T11:21:17Z</time>
      </trkpt>
      <trkpt lat="45.18544" lon="5.81905">
        <ele>429</ele>
        <time>2017-10-15T11:21:20Z</time>
      </trkpt>
      <trkpt lat="45.1854" lon="5.81899">
        <ele>429</ele>
        <time>2017-10-15T11:21:23Z</time>
      </trkpt>
      <trkpt lat="45.18536" lon="5.81894">
        <ele>429</ele>
        <time>2017-10-15T11:21:26Z</time>
      </trkpt>
      <trkpt lat="45.18531" lon="5.81889">
        <ele>430</ele>
        <time>2017-10-15T11:21:29Z</time>
      </trkpt>
      <trkpt lat="45.18527" lon="5.81884">
        <ele>431</ele>
        <time>2017-10-15T11:21:32Z</time>
      </trkpt>
      <trkpt lat="45.18523" lon="5.81878">
        <ele>431</ele>
        <time>2017-10-15T11:21:35Z</time>
      </trkpt>
      <trkpt lat="45.18519" lon="5.81872">
        <ele>431</ele>
        <time>2017-10-15T11:21:38Z</time>
      </trkpt>
      <trkpt lat="45.18515" lon="5.81866">
        <ele>431</ele>
        <time>2017-10-15T11:21:41Z</time>
      </trkpt>
      <trkpt lat="45.18512" lon="5.81861">
        <ele>432</ele>
        <time>2017-10-15T11:21:44Z</time>
      </trkpt>
      <trkpt lat="45.18509" lon="5.81854">
        <ele>432</ele>
        <time>2017-10-15T11:21:47Z</time>
      </trkpt>
      <trkpt lat="45.18505" lon="5.81847">
        <ele>433</ele>
        <time>2017-10-15T11:21:50Z</time>
      </trkpt>
      <trkpt lat="45.18502" lon="5.81841">
        <ele>433</ele>
        <time>2017-10-15T11:21:53Z</time>
      </trkpt>
      <trkpt lat="45.18498" lon="5.81835">
        <ele>434</ele>
        <time>2017-10-15T11:21:56Z</time>
      </trkpt>
      <trkpt lat="45.18494" lon="5.81831">
        <ele>435</ele>
        <time>2017-10-15T11:21:59Z</time>
      </trkpt>
      <trkpt lat="45.18488" lon="5.81828">
        <ele>437</ele>
        <time>2017-10-15T11:22:02Z</time>
      </trkpt>
      <trkpt lat="45.18483" lon="5.8183">
        <ele>438</ele>
        <time>2017-10-15T11:22:05Z</time>
      </trkpt>
      <trkpt lat="45.18479" lon="5.81837">
        <ele>440</ele>
        <time>2017-10-15T11:22:08Z</time>
      </trkpt>
      <trkpt lat="45.18479" lon="5.81846">
        <ele>441</ele>
        <time>2017-10-15T11:22:11Z</time>
      </trkpt>
      <trkpt lat="45.18482" lon="5.81853">
        <ele>441</ele>
        <time>2017-10-15T11:22:14Z</time>
      </trkpt>
      <trkpt lat="45.18486" lon="5.81859">
        <ele>440</ele>
        <time>2017-10-15T11:22:17Z</time>
      </trkpt>
      <trkpt lat="45.18491" lon="5.81865">
        <ele>439</ele>
        <time>2017-10-15T11:22:20Z</time>
      </trkpt>
      <trkpt lat="45.18494" lon="5.81872">
        <ele>439</ele>
        <time>2017-10-15T11:22:23Z</time>
      </trkpt>
      <trkpt lat="45.18498" lon="5.81879">
        <ele>439</ele>
        <time>2017-10-15T11:22:26Z</time>
      </trkpt>
      <trkpt lat="45.18501" lon="5.81887">
        <ele>440</ele>
        <time>2017-10-15T11:22:29Z</time>
      </trkpt>
      <trkpt lat="45.18504" lon="5.81895">
        <ele>441</ele>
        <time>2017-10-15T11:22:32Z</time>
      </trkpt>
      <trkpt lat="45.18507" lon="5.81903">
        <ele>441</ele>
        <time>2017-10-15T11:22:35Z</time>
      </trkpt>
      <trkpt lat="45.18512" lon="5.81914">
        <ele>442</ele>
        <time>2017-10-15T11:22:39Z</time>
      </trkpt>
      <trkpt lat="45.18515" lon="5.81923">
        <ele>442</ele>
        <time>2017-10-15T11:22:42Z</time>
      </trkpt>
      <trkpt lat="45.18518" lon="5.81931">
        <ele>443</ele>
        <time>2017-10-15T11:22:45Z</time>
      </trkpt>
      <trkpt lat="45.18521" lon="5.81939">
        <ele>443</ele>
        <time>2017-10-15T11:22:48Z</time>
      </trkpt>
      <trkpt lat="45.18524" lon="5.81946">
        <ele>443</ele>
        <time>2017-10-15T11:22:51Z</time>
      </trkpt>
      <trkpt lat="45.18527" lon="5.81954">
        <ele>443</ele>
        <time>2017-10-15T11:22:54Z</time>
      </trkpt>
      <trkpt lat="45.1853" lon="5.81961">
        <ele>443</ele>
        <time>2017-10-15T11:22:57Z</time>
      </trkpt>
      <trkpt lat="45.18532" lon="5.81968">
        <ele>444</ele>
        <time>2017-10-15T11:23:00Z</time>
      </trkpt>
      <trkpt lat="45.18535" lon="5.81975">
        <ele>444</ele>
        <time>2017-10-15T11:23:03Z</time>
      </trkpt>
      <trkpt lat="45.18538" lon="5.81982">
        <ele>444</ele>
        <time>2017-10-15T11:23:06Z</time>
      </trkpt>
      <trkpt lat="45.18541" lon="5.8199">
        <ele>444</ele>
        <time>2017-10-15T11:23:09Z</time>
      </trkpt>
      <trkpt lat="45.18544" lon="5.81996">
        <ele>444</ele>
        <time>2017-10-15T11:23:12Z</time>
      </trkpt>
      <trkpt lat="45.18547" lon="5.82002">
        <ele>444</ele>
        <time>2017-10-15T11:23:15Z</time>
      </trkpt>
      <trkpt lat="45.18551" lon="5.82008">
        <ele>443</ele>
        <time>2017-10-15T11:23:18Z</time>
      </trkpt>
      <trkpt lat="45.18554" lon="5.82014">
        <ele>442</ele>
        <time>2017-10-15T11:23:21Z</time>
      </trkpt>
      <trkpt lat="45.18556" lon="5.82021">
        <ele>442</ele>
        <time>2017-10-15T11:23:24Z</time>
      </trkpt>
      <trkpt lat="45.1856" lon="5.82028">
        <ele>440</ele>
        <time>2017-10-15T11:23:27Z</time>
      </trkpt>
      <trkpt lat="45.18563" lon="5.82036">
        <ele>440</ele>
        <time>2017-10-15T11:23:30Z</time>
      </trkpt>
      <trkpt lat="45.18564" lon="5.82043">
        <ele>440</ele>
        <time>2017-10-15T11:23:33Z</time>
      </trkpt>
      <trkpt lat="45.18564" lon="5.82054">
        <ele>441</ele>
        <time>2017-10-15T11:23:37Z</time>
      </trkpt>
      <trkpt lat="45.18561" lon="5.82061">
        <ele>442</ele>
        <time>2017-10-15T11:23:40Z</time>
      </trkpt>
      <trkpt lat="45.18557" lon="5.82067">
        <ele>443</ele>
        <time>2017-10-15T11:23:43Z</time>
      </trkpt>
      <trkpt lat="45.18553" lon="5.82074">
        <ele>444</ele>
        <time>2017-10-15T11:23:46Z</time>
      </trkpt>
      <trkpt lat="45.18549" lon="5.82081">
        <ele>445</ele>
        <time>2017-10-15T11:23:49Z</time>
      </trkpt>
      <trkpt lat="45.18546" lon="5.82088">
        <ele>446</ele>
        <time>2017-10-15T11:23:52Z</time>
      </trkpt>
      <trkpt lat="45.18544" lon="5.82096">
        <ele>446</ele>
        <time>2017-10-15T11:23:55Z</time>
      </trkpt>
      <trkpt lat="45.18543" lon="5.82105">
        <ele>446</ele>
        <time>2017-10-15T11:23:58Z</time>
      </trkpt>
      <trkpt lat="45.18544" lon="5.82113">
        <ele>446</ele>
        <time>2017-10-15T11:24:01Z</time>
      </trkpt>
      <trkpt lat="45.18546" lon="5.82121">
        <ele>445</ele>
        <time>2017-10-15T11:24:04Z</time>
      </trkpt>
      <trkpt lat="45.18547" lon="5.82129">
        <ele>444</ele>
        <time>2017-10-15T11:24:07Z</time>
      </trkpt>
      <trkpt lat="45.18549" lon="5.82136">
        <ele>443</ele>
        <time>2017-10-15T11:24:10Z</time>
      </trkpt>
      <trkpt lat="45.1855" lon="5.82143">
        <ele>443</ele>
        <time>2017-10-15T11:24:13Z</time>
      </trkpt>
      <trkpt lat="45.18551" lon="5.82151">
        <ele>442</ele>
        <time>2017-10-15T11:24:16Z</time>
      </trkpt>
      <trkpt lat="45.18551" lon="5.8216">
        <ele>442</ele>
        <time>2017-10-15T11:24:19Z</time>
      </trkpt>
      <trkpt lat="45.18551" lon="5.82168">
        <ele>441</ele>
        <time>2017-10-15T11:24:22Z</time>
      </trkpt>
      <trkpt lat="45.18549" lon="5.82174">
        <ele>442</ele>
        <time>2017-10-15T11:24:25Z</time>
      </trkpt>
      <trkpt lat="45.18546" lon="5.82181">
        <ele>442</ele>
        <time>2017-10-15T11:24:28Z</time>
      </trkpt>
      <trkpt lat="45.18544" lon="5.82188">
        <ele>443</ele>
        <time>2017-10-15T11:24:31Z</time>
      </trkpt>
      <trkpt lat="45.18542" lon="5.82196">
        <ele>443</ele>
        <time>2017-10-15T11:24:34Z</time>
      </trkpt>
      <trkpt lat="45.18539" lon="5.82204">
        <ele>444</ele>
        <time>2017-10-15T11:24:37Z</time>
      </trkpt>
      <trkpt lat="45.18538" lon="5.82212">
        <ele>444</ele>
        <time>2017-10-15T11:24:40Z</time>
      </trkpt>
      <trkpt lat="45.18536" lon="5.82219">
        <ele>444</ele>
        <time>2017-10-15T11:24:43Z</time>
      </trkpt>
      <trkpt lat="45.18537" lon="5.82227">
        <ele>444</ele>
        <time>2017-10-15T11:24:46Z</time>
      </trkpt>
      <trkpt lat="45.18536" lon="5.82235">
        <ele>444</ele>
        <time>2017-10-15T11:24:49Z</time>
      </trkpt>
      <trkpt lat="45.18535" lon="5.82242">
        <ele>444</ele>
        <time>2017-10-15T11:24:52Z</time>
      </trkpt>
      <trkpt lat="45.18535" lon="5.82251">
        <ele>444</ele>
        <time>2017-10-15T11:24:55Z</time>
      </trkpt>
      <trkpt lat="45.18536" lon="5.8226">
        <ele>444</ele>
        <time>2017-10-15T11:24:58Z</time>
      </trkpt>
      <trkpt lat="45.18538" lon="5.82268">
        <ele>443</ele>
        <time>2017-10-15T11:25:01Z</time>
      </trkpt>
      <trkpt lat="45.18538" lon="5.82277">
        <ele>443</ele>
        <time>2017-10-15T11:25:04Z</time>
      </trkpt>
      <trkpt lat="45.18537" lon="5.82285">
        <ele>443</ele>
        <time>2017-10-15T11:25:07Z</time>
      </trkpt>
      <trkpt lat="45.18536" lon="5.82295">
        <ele>444</ele>
        <time>2017-10-15T11:25:10Z</time>
      </trkpt>
      <trkpt lat="45.18536" lon="5.82303">
        <ele>444</ele>
        <time>2017-10-15T11:25:12Z</time>
      </trkpt>
      <trkpt lat="45.18535" lon="5.82311">
        <ele>444</ele>
        <time>2017-10-15T11:25:14Z</time>
      </trkpt>
      <trkpt lat="45.18533" lon="5.82319">
        <ele>445</ele>
        <time>2017-10-15T11:25:16Z</time>
      </trkpt>
      <trkpt lat="45.18531" lon="5.82326">
        <ele>445</ele>
        <time>2017-10-15T11:25:18Z</time>
      </trkpt>
      <trkpt lat="45.18527" lon="5.82332">
        <ele>447</ele>
        <time>2017-10-15T11:25:20Z</time>
      </trkpt>
      <trkpt lat="45.18522" lon="5.8233">
        <ele>449</ele>
        <time>2017-10-15T11:25:22Z</time>
      </trkpt>
      <trkpt lat="45.18518" lon="5.82322">
        <ele>450</ele>
        <time>2017-10-15T11:25:24Z</time>
      </trkpt>
      <trkpt lat="45.18521" lon="5.82314">
        <ele>449</ele>
        <time>2017-10-15T11:25:26Z</time>
      </trkpt>
      <trkpt lat="45.18525" lon="5.82306">
        <ele>447</ele>
        <time>2017-10-15T11:25:28Z</time>
      </trkpt>
      <trkpt lat="45.18529" lon="5.82297">
        <ele>446</ele>
        <time>2017-10-15T11:25:30Z</time>
      </trkpt>
      <trkpt lat="45.18531" lon="5.82288">
        <ele>445</ele>
        <time>2017-10-15T11:25:32Z</time>
      </trkpt>
      <trkpt lat="45.18533" lon="5.82279">
        <ele>445</ele>
        <time>2017-10-15T11:25:34Z</time>
      </trkpt>
      <trkpt lat="45.18533" lon="5.82268">
        <ele>445</ele>
        <time>2017-10-15T11:25:36Z</time>
      </trkpt>
      <trkpt lat="45.18532" lon="5.82257">
        <ele>445</ele>
        <time>2017-10-15T11:25:38Z</time>
      </trkpt>
      <trkpt lat="45.18531" lon="5.82247">
        <ele>445</ele>
        <time>2017-10-15T11:25:40Z</time>
      </trkpt>
      <trkpt lat="45.18531" lon="5.82236">
        <ele>446</ele>
        <time>2017-10-15T11:25:42Z</time>
      </trkpt>
      <trkpt lat="45.1853" lon="5.82225">
        <ele>446</ele>
        <time>2017-10-15T11:25:44Z</time>
      </trkpt>
      <trkpt lat="45.18529" lon="5.82214">
        <ele>446</ele>
        <time>2017-10-15T11:25:46Z</time>
      </trkpt>
      <trkpt lat="45.18528" lon="5.82203">
        <ele>447</ele>
        <time>2017-10-15T11:25:48Z</time>
      </trkpt>
      <trkpt lat="45.18526" lon="5.82193">
        <ele>448</ele>
        <time>2017-10-15T11:25:50Z</time>
      </trkpt>
      <trkpt lat="45.18521" lon="5.82183">
        <ele>450</ele>
        <time>2017-10-15T11:25:52Z</time>
      </trkpt>
      <trkpt lat="45.18514" lon="5.82178">
        <ele>452</ele>
        <time>2017-10-15T11:25:54Z</time>
      </trkpt>
      <trkpt lat="45.18506" lon="5.82175">
        <ele>454</ele>
        <time>2017-10-15T11:25:56Z</time>
      </trkpt>
      <trkpt lat="45.18498" lon="5.82175">
        <ele>456</ele>
        <time>2017-10-15T11:25:58Z</time>
      </trkpt>
      <trkpt lat="45.1849" lon="5.82174">
        <ele>458</ele>
        <time>2017-10-15T11:26:00Z</time>
      </trkpt>
      <trkpt lat="45.18482" lon="5.82173">
        <ele>460</ele>
        <time>2017-10-15T11:26:02Z</time>
      </trkpt>
      <trkpt lat="45.18474" lon="5.82172">
        <ele>463</ele>
        <time>2017-10-15T11:26:04Z</time>
      </trkpt>
      <trkpt lat="45.18467" lon="5.82168">
        <ele>465</ele>
        <time>2017-10-15T11:26:06Z</time>
      </trkpt>
      <trkpt lat="45.18462" lon="5.82164">
        <ele>466</ele>
        <time>2017-10-15T11:26:08Z</time>
      </trkpt>
      <trkpt lat="45.18458" lon="5.8216">
        <ele>467</ele>
        <time>2017-10-15T11:26:10Z</time>
      </trkpt>
      <trkpt lat="45.18454" lon="5.82155">
        <ele>469</ele>
        <time>2017-10-15T11:26:12Z</time>
      </trkpt>
      <trkpt lat="45.18449" lon="5.8215">
        <ele>470</ele>
        <time>2017-10-15T11:26:15Z</time>
      </trkpt>
      <trkpt lat="45.18444" lon="5.82147">
        <ele>472</ele>
        <time>2017-10-15T11:26:18Z</time>
      </trkpt>
      <trkpt lat="45.18438" lon="5.82145">
        <ele>473</ele>
        <time>2017-10-15T11:26:21Z</time>
      </trkpt>
      <trkpt lat="45.18432" lon="5.82146">
        <ele>475</ele>
        <time>2017-10-15T11:26:24Z</time>
      </trkpt>
      <trkpt lat="45.18427" lon="5.8215">
        <ele>476</ele>
        <time>2017-10-15T11:26:27Z</time>
      </trkpt>
      <trkpt lat="45.18422" lon="5.82155">
        <ele>478</ele>
        <time>2017-10-15T11:26:30Z</time>
      </trkpt>
      <trkpt lat="45.18419" lon="5.82162">
        <ele>478</ele>
        <time>2017-10-15T11:26:33Z</time>
      </trkpt>
      <trkpt lat="45.18416" lon="5.82169">
        <ele>479</ele>
        <time>2017-10-15T11:26:36Z</time>
      </trkpt>
      <trkpt lat="45.18413" lon="5.82177">
        <ele>480</ele>
        <time>2017-10-15T11:26:39Z</time>
      </trkpt>
      <trkpt lat="45.1841" lon="5.82184">
        <ele>481</ele>
        <time>2017-10-15T11:26:42Z</time>
      </trkpt>
      <trkpt lat="45.18409" lon="5.82192">
        <ele>481</ele>
        <time>2017-10-15T11:26:45Z</time>
      </trkpt>
      <trkpt lat="45.18408" lon="5.82201">
        <ele>481</ele>
        <time>2017-10-15T11:26:48Z</time>
      </trkpt>
      <trkpt lat="45.18408" lon="5.8221">
        <ele>481</ele>
        <time>2017-10-15T11:26:51Z</time>
      </trkpt>
      <trkpt lat="45.18407" lon="5.82218">
        <ele>481</ele>
        <time>2017-10-15T11:26:54Z</time>
      </trkpt>
      <trkpt lat="45.18407" lon="5.82227">
        <ele>482</ele>
        <time>2017-10-15T11:26:57Z</time>
      </trkpt>
      <trkpt lat="45.18407" lon="5.82236">
        <ele>482</ele>
        <time>2017-10-15T11:27:00Z</time>
      </trkpt>
      <trkpt lat="45.18407" lon="5.82245">
        <ele>482</ele>
        <time>2017-10-15T11:27:03Z</time>
      </trkpt>
      <trkpt lat="45.18407" lon="5.82254">
        <ele>482</ele>
        <time>2017-10-15T11:27:06Z</time>
      </trkpt>
      <trkpt lat="45.18408" lon="5.82262">
        <ele>482</ele>
        <time>2017-10-15T11:27:09Z</time>
      </trkpt>
      <trkpt lat="45.18408" lon="5.8227">
        <ele>483</ele>
        <time>2017-10-15T11:27:12Z</time>
      </trkpt>
      <trkpt lat="45.18409" lon="5.82277">
        <ele>483</ele>
        <time>2017-10-15T11:27:15Z</time>
      </trkpt>
      <trkpt lat="45.18411" lon="5.82284">
        <ele>482</ele>
        <time>2017-10-15T11:27:18Z</time>
      </trkpt>
      <trkpt lat="45.18413" lon="5.82291">
        <ele>482</ele>
        <time>2017-10-15T11:27:21Z</time>
      </trkpt>
      <trkpt lat="45.18415" lon="5.82299">
        <ele>482</ele>
        <time>2017-10-15T11:27:24Z</time>
      </trkpt>
      <trkpt lat="45.18417" lon="5.82308">
        <ele>482</ele>
        <time>2017-10-15T11:27:27Z</time>
      </trkpt>
      <trkpt lat="45.1842" lon="5.82316">
        <ele>482</ele>
        <time>2017-10-15T11:27:30Z</time>
      </trkpt>
      <trkpt lat="45.18422" lon="5.82324">
        <ele>482</ele>
        <time>2017-10-15T11:27:33Z</time>
      </trkpt>
      <trkpt lat="45.18425" lon="5.82332">
        <ele>481</ele>
        <time>2017-10-15T11:27:36Z</time>
      </trkpt>
      <trkpt lat="45.18427" lon="5.82339">
        <ele>481</ele>
        <time>2017-10-15T11:27:39Z</time>
      </trkpt>
      <trkpt lat="45.18429" lon="5.82347">
        <ele>480</ele>
        <time>2017-10-15T11:27:42Z</time>
      </trkpt>
      <trkpt lat="45.18429" lon="5.82358">
        <ele>480</ele>
        <time>2017-10-15T11:27:46Z</time>
      </trkpt>
      <trkpt lat="45.18425" lon="5.82363">
        <ele>481</ele>
        <time>2017-10-15T11:27:49Z</time>
      </trkpt>
      <trkpt lat="45.18419" lon="5.82363">
        <ele>483</ele>
        <time>2017-10-15T11:27:52Z</time>
      </trkpt>
      <trkpt lat="45.18414" lon="5.82358">
        <ele>485</ele>
        <time>2017-10-15T11:27:55Z</time>
      </trkpt>
      <trkpt lat="45.18411" lon="5.8235">
        <ele>486</ele>
        <time>2017-10-15T11:27:58Z</time>
      </trkpt>
      <trkpt lat="45.18408" lon="5.82343">
        <ele>487</ele>
        <time>2017-10-15T11:28:01Z</time>
      </trkpt>
      <trkpt lat="45.18406" lon="5.82335">
        <ele>488</ele>
        <time>2017-10-15T11:28:04Z</time>
      </trkpt>
      <trkpt lat="45.18403" lon="5.82328">
        <ele>488</ele>
        <time>2017-10-15T11:28:07Z</time>
      </trkpt>
      <trkpt lat="45.18401" lon="5.82321">
        <ele>488</ele>
        <time>2017-10-15T11:28:10Z</time>
      </trkpt>
      <trkpt lat="45.18398" lon="5.82313">
        <ele>489</ele>
        <time>2017-10-15T11:28:13Z</time>
      </trkpt>
      <trkpt lat="45.18396" lon="5.82306">
        <ele>489</ele>
        <time>2017-10-15T11:28:16Z</time>
      </trkpt>
      <trkpt lat="45.18392" lon="5.82299">
        <ele>490</ele>
        <time>2017-10-15T11:28:19Z</time>
      </trkpt>
      <trkpt lat="45.18387" lon="5.82292">
        <ele>491</ele>
        <time>2017-10-15T11:28:22Z</time>
      </trkpt>
      <trkpt lat="45.18384" lon="5.82284">
        <ele>492</ele>
        <time>2017-10-15T11:28:25Z</time>
      </trkpt>
      <trkpt lat="45.1838" lon="5.82277">
        <ele>493</ele>
        <time>2017-10-15T11:28:28Z</time>
      </trkpt>
      <trkpt lat="45.18378" lon="5.82269">
        <ele>493</ele>
        <time>2017-10-15T11:28:31Z</time>
      </trkpt>
      <trkpt lat="45.18374" lon="5.8226">
        <ele>494</ele>
        <time>2017-10-15T11:28:35Z</time>
      </trkpt>
      <trkpt lat="45.1837" lon="5.82253">
        <ele>495</ele>
        <time>2017-10-15T11:28:38Z</time>
      </trkpt>
      <trkpt lat="45.18367" lon="5.82245">
        <ele>496</ele>
        <time>2017-10-15T11:28:41Z</time>
      </trkpt>
      <trkpt lat="45.18364" lon="5.82238">
        <ele>497</ele>
        <time>2017-10-15T11:28:44Z</time>
      </trkpt>
      <trkpt lat="45.1836" lon="5.82228">
        <ele>498</ele>
        <time>2017-10-15T11:28:48Z</time>
      </trkpt>
      <trkpt lat="45.18358" lon="5.8222">
        <ele>499</ele>
        <time>2017-10-15T11:28:51Z</time>
      </trkpt>
      <trkpt lat="45.18355" lon="5.82212">
        <ele>499</ele>
        <time>2017-10-15T11:28:54Z</time>
      </trkpt>
      <trkpt lat="45.18353" lon="5.82204">
        <ele>500</ele>
        <time>2017-10-15T11:28:57Z</time>
      </trkpt>
      <trkpt lat="45.18353" lon="5.82195">
        <ele>499</ele>
        <time>2017-10-15T11:29:00Z</time>
      </trkpt>
      <trkpt lat="45.18352" lon="5.82187">
        <ele>500</ele>
        <time>2017-10-15T11:29:03Z</time>
      </trkpt>
      <trkpt lat="45.18351" lon="5.82179">
        <ele>500</ele>
        <time>2017-10-15T11:29:06Z</time>
      </trkpt>
      <trkpt lat="45.1835" lon="5.8217">
        <ele>500</ele>
        <time>2017-10-15T11:29:09Z</time>
      </trkpt>
      <trkpt lat="45.1835" lon="5.82162">
        <ele>500</ele>
        <time>2017-10-15T11:29:12Z</time>
      </trkpt>
      <trkpt lat="45.18349" lon="5.82153">
        <ele>500</ele>
        <time>2017-10-15T11:29:15Z</time>
      </trkpt>
      <trkpt lat="45.18349" lon="5.82145">
        <ele>500</ele>
        <time>2017-10-15T11:29:18Z</time>
      </trkpt>
      <trkpt lat="45.18348" lon="5.82136">
        <ele>500</ele>
        <time>2017-10-15T11:29:21Z</time>
      </trkpt>
      <trkpt lat="45.18347" lon="5.82129">
        <ele>500</ele>
        <time>2017-10-15T11:29:23Z</time>
      </trkpt>
      <trkpt lat="45.18346" lon="5.8212">
        <ele>500</ele>
        <time>2017-10-15T11:29:26Z</time>
      </trkpt>
      <trkpt lat="45.18346" lon="5.82111">
        <ele>500</ele>
        <time>2017-10-15T11:29:29Z</time>
      </trkpt>
      <trkpt lat="45.18345" lon="5.82102">
        <ele>501</ele>
        <time>2017-10-15T11:29:32Z</time>
      </trkpt>
      <trkpt lat="45.18343" lon="5.82093">
        <ele>501</ele>
        <time>2017-10-15T11:29:35Z</time>
      </trkpt>
      <trkpt lat="45.18343" lon="5.82085">
        <ele>501</ele>
        <time>2017-10-15T11:29:38Z</time>
      </trkpt>
      <trkpt lat="45.18342" lon="5.82076">
        <ele>501</ele>
        <time>2017-10-15T11:29:41Z</time>
      </trkpt>
      <trkpt lat="45.18341" lon="5.82068">
        <ele>501</ele>
        <time>2017-10-15T11:29:44Z</time>
      </trkpt>
      <trkpt lat="45.1834" lon="5.82059">
        <ele>501</ele>
        <time>2017-10-15T11:29:47Z</time>
      </trkpt>
      <trkpt lat="45.1834" lon="5.8205">
        <ele>500</ele>
        <time>2017-10-15T11:29:50Z</time>
      </trkpt>
      <trkpt lat="45.18338" lon="5.82042">
        <ele>501</ele>
        <time>2017-10-15T11:29:53Z</time>
      </trkpt>
      <trkpt lat="45.18338" lon="5.82033">
        <ele>500</ele>
        <time>2017-10-15T11:29:56Z</time>
      </trkpt>
      <trkpt lat="45.18337" lon="5.82024">
        <ele>501</ele>
        <time>2017-10-15T11:29:59Z</time>
      </trkpt>
      <trkpt lat="45.18334" lon="5.82016">
        <ele>501</ele>
        <time>2017-10-15T11:30:02Z</time>
      </trkpt>
      <trkpt lat="45.18332" lon="5.82008">
        <ele>501</ele>
        <time>2017-10-15T11:30:05Z</time>
      </trkpt>
      <trkpt lat="45.18329" lon="5.82">
        <ele>502</ele>
        <time>2017-10-15T11:30:08Z</time>
      </trkpt>
      <trkpt lat="45.18325" lon="5.81993">
        <ele>502</ele>
        <time>2017-10-15T11:30:11Z</time>
      </trkpt>
      <trkpt lat="45.18322" lon="5.81987">
        <ele>502</ele>
        <time>2017-10-15T11:30:14Z</time>
      </trkpt>
      <trkpt lat="45.18317" lon="5.81982">
        <ele>502</ele>
        <time>2017-10-15T11:30:17Z</time>
      </trkpt>
      <trkpt lat="45.18311" lon="5.8198">
        <ele>504</ele>
        <time>2017-10-15T11:30:20Z</time>
      </trkpt>
      <trkpt lat="45.18306" lon="5.81977">
        <ele>504</ele>
        <time>2017-10-15T11:30:23Z</time>
      </trkpt>
      <trkpt lat="45.18301" lon="5.81979">
        <ele>506</ele>
        <time>2017-10-15T11:30:26Z</time>
      </trkpt>
      <trkpt lat="45.18296" lon="5.81982">
        <ele>507</ele>
        <time>2017-10-15T11:30:29Z</time>
      </trkpt>
      <trkpt lat="45.18292" lon="5.81988">
        <ele>509</ele>
        <time>2017-10-15T11:30:32Z</time>
      </trkpt>
      <trkpt lat="45.1829" lon="5.81994">
        <ele>510</ele>
        <time>2017-10-15T11:30:34Z</time>
      </trkpt>
      <trkpt lat="45.18286" lon="5.82001">
        <ele>512</ele>
        <time>2017-10-15T11:30:37Z</time>
      </trkpt>
      <trkpt lat="45.18281" lon="5.82006">
        <ele>514</ele>
        <time>2017-10-15T11:30:40Z</time>
      </trkpt>
      <trkpt lat="45.18276" lon="5.82011">
        <ele>516</ele>
        <time>2017-10-15T11:30:43Z</time>
      </trkpt>
      <trkpt lat="45.18271" lon="5.82011">
        <ele>517</ele>
        <time>2017-10-15T11:30:46Z</time>
      </trkpt>
      <trkpt lat="45.18266" lon="5.82005">
        <ele>518</ele>
        <time>2017-10-15T11:30:49Z</time>
      </trkpt>
      <trkpt lat="45.18263" lon="5.81998">
        <ele>518</ele>
        <time>2017-10-15T11:30:52Z</time>
      </trkpt>
      <trkpt lat="45.18258" lon="5.81994">
        <ele>519</ele>
        <time>2017-10-15T11:30:55Z</time>
      </trkpt>
      <trkpt lat="45.18253" lon="5.8199">
        <ele>520</ele>
        <time>2017-10-15T11:30:58Z</time>
      </trkpt>
      <trkpt lat="45.18247" lon="5.81988">
        <ele>521</ele>
        <time>2017-10-15T11:31:01Z</time>
      </trkpt>
      <trkpt lat="45.18242" lon="5.81983">
        <ele>522</ele>
        <time>2017-10-15T11:31:04Z</time>
      </trkpt>
      <trkpt lat="45.18236" lon="5.81981">
        <ele>524</ele>
        <time>2017-10-15T11:31:07Z</time>
      </trkpt>
      <trkpt lat="45.18231" lon="5.81979">
        <ele>525</ele>
        <time>2017-10-15T11:31:10Z</time>
      </trkpt>
      <trkpt lat="45.18226" lon="5.81975">
        <ele>525</ele>
        <time>2017-10-15T11:31:13Z</time>
      </trkpt>
      <trkpt lat="45.18222" lon="5.8197">
        <ele>526</ele>
        <time>2017-10-15T11:31:16Z</time>
      </trkpt>
      <trkpt lat="45.18217" lon="5.81964">
        <ele>526</ele>
        <time>2017-10-15T11:31:20Z</time>
      </trkpt>
      <trkpt lat="45.18211" lon="5.81962">
        <ele>527</ele>
        <time>2017-10-15T11:31:23Z</time>
      </trkpt>
      <trkpt lat="45.18207" lon="5.81958">
        <ele>528</ele>
        <time>2017-10-15T11:31:26Z</time>
      </trkpt>
      <trkpt lat="45.18203" lon="5.81953">
        <ele>528</ele>
        <time>2017-10-15T11:31:29Z</time>
      </trkpt>
      <trkpt lat="45.18194" lon="5.81947">
        <ele>529</ele>
        <time>2017-10-15T11:31:34Z</time>
      </trkpt>
      <trkpt lat="45.18189" lon="5.81946">
        <ele>531</ele>
        <time>2017-10-15T11:31:37Z</time>
      </trkpt>
      <trkpt lat="45.18184" lon="5.81945">
        <ele>532</ele>
        <time>2017-10-15T11:31:40Z</time>
      </trkpt>
      <trkpt lat="45.18179" lon="5.81944">
        <ele>534</ele>
        <time>2017-10-15T11:31:43Z</time>
      </trkpt>
      <trkpt lat="45.18175" lon="5.81941">
        <ele>534</ele>
        <time>2017-10-15T11:31:46Z</time>
      </trkpt>
      <trkpt lat="45.1817" lon="5.81937">
        <ele>535</ele>
        <time>2017-10-15T11:31:49Z</time>
      </trkpt>
      <trkpt lat="45.18162" lon="5.81931">
        <ele>536</ele>
        <time>2017-10-15T11:31:54Z</time>
      </trkpt>
      <trkpt lat="45.18157" lon="5.81927">
        <ele>538</ele>
        <time>2017-10-15T11:31:57Z</time>
      </trkpt>
      <trkpt lat="45.18152" lon="5.81923">
        <ele>539</ele>
        <time>2017-10-15T11:32:00Z</time>
      </trkpt>
      <trkpt lat="45.18147" lon="5.81919">
        <ele>540</ele>
        <time>2017-10-15T11:32:03Z</time>
      </trkpt>
      <trkpt lat="45.18143" lon="5.81915">
        <ele>541</ele>
        <time>2017-10-15T11:32:06Z</time>
      </trkpt>
      <trkpt lat="45.18138" lon="5.81912">
        <ele>542</ele>
        <time>2017-10-15T11:32:09Z</time>
      </trkpt>
      <trkpt lat="45.18134" lon="5.81907">
        <ele>543</ele>
        <time>2017-10-15T11:32:12Z</time>
      </trkpt>
      <trkpt lat="45.1813" lon="5.81902">
        <ele>544</ele>
        <time>2017-10-15T11:32:15Z</time>
      </trkpt>
      <trkpt lat="45.18126" lon="5.81899">
        <ele>545</ele>
        <time>2017-10-15T11:32:18Z</time>
      </trkpt>
      <trkpt lat="45.18121" lon="5.81896">
        <ele>546</ele>
        <time>2017-10-15T11:32:21Z</time>
      </trkpt>
      <trkpt lat="45.18117" lon="5.81891">
        <ele>547</ele>
        <time>2017-10-15T11:32:24Z</time>
      </trkpt>
      <trkpt lat="45.18115" lon="5.81886">
        <ele>548</ele>
        <time>2017-10-15T11:32:27Z</time>
      </trkpt>
      <trkpt lat="45.18113" lon="5.81879">
        <ele>547</ele>
        <time>2017-10-15T11:32:30Z</time>
      </trkpt>
      <trkpt lat="45.18109" lon="5.81874">
        <ele>548</ele>
        <time>2017-10-15T11:32:34Z</time>
      </trkpt>
      <trkpt lat="45.18106" lon="5.81869">
        <ele>548</ele>
        <time>2017-10-15T11:32:37Z</time>
      </trkpt>
      <trkpt lat="45.18097" lon="5.81863">
        <ele>551</ele>
        <time>2017-10-15T11:32:43Z</time>
      </trkpt>
      <trkpt lat="45.18088" lon="5.81858">
        <ele>553</ele>
        <time>2017-10-15T11:32:49Z</time>
      </trkpt>
      <trkpt lat="45.18084" lon="5.81856">
        <ele>554</ele>
        <time>2017-10-15T11:32:52Z</time>
      </trkpt>
      <trkpt lat="45.18079" lon="5.81854">
        <ele>555</ele>
        <time>2017-10-15T11:32:55Z</time>
      </trkpt>
      <trkpt lat="45.1807" lon="5.81853">
        <ele>558</ele>
        <time>2017-10-15T11:33:01Z</time>
      </trkpt>
      <trkpt lat="45.18065" lon="5.81854">
        <ele>560</ele>
        <time>2017-10-15T11:33:04Z</time>
      </trkpt>
      <trkpt lat="45.1806" lon="5.81852">
        <ele>561</ele>
        <time>2017-10-15T11:33:07Z</time>
      </trkpt>
      <trkpt lat="45.18054" lon="5.8185">
        <ele>562</ele>
        <time>2017-10-15T11:33:10Z</time>
      </trkpt>
      <trkpt lat="45.18044" lon="5.81846">
        <ele>565</ele>
        <time>2017-10-15T11:33:15Z</time>
      </trkpt>
      <trkpt lat="45.18039" lon="5.81842">
        <ele>566</ele>
        <time>2017-10-15T11:33:18Z</time>
      </trkpt>
      <trkpt lat="45.18035" lon="5.81837">
        <ele>566</ele>
        <time>2017-10-15T11:33:20Z</time>
      </trkpt>
      <trkpt lat="45.18031" lon="5.81832">
        <ele>566</ele>
        <time>2017-10-15T11:33:22Z</time>
      </trkpt>
      <trkpt lat="45.18027" lon="5.81827">
        <ele>566</ele>
        <time>2017-10-15T11:33:24Z</time>
      </trkpt>
      <trkpt lat="45.18022" lon="5.81822">
        <ele>566</ele>
        <time>2017-10-15T11:33:26Z</time>
      </trkpt>
      <trkpt lat="45.18016" lon="5.81815">
        <ele>566</ele>
        <time>2017-10-15T11:33:28Z</time>
      </trkpt>
      <trkpt lat="45.18009" lon="5.81806">
        <ele>566</ele>
        <time>2017-10-15T11:33:30Z</time>
      </trkpt>
      <trkpt lat="45.18005" lon="5.81802">
        <ele>566</ele>
        <time>2017-10-15T11:33:31Z</time>
      </trkpt>
      <trkpt lat="45.18001" lon="5.81796">
        <ele>565</ele>
        <time>2017-10-15T11:33:32Z</time>
      </trkpt>
      <trkpt lat="45.17997" lon="5.81791">
        <ele>565</ele>
        <time>2017-10-15T11:33:33Z</time>
      </trkpt>
      <trkpt lat="45.17993" lon="5.81788">
        <ele>565</ele>
        <time>2017-10-15T11:33:34Z</time>
      </trkpt>
      <trkpt lat="45.17989" lon="5.81784">
        <ele>564</ele>
        <time>2017-10-15T11:33:35Z</time>
      </trkpt>
      <trkpt lat="45.17985" lon="5.8178">
        <ele>564</ele>
        <time>2017-10-15T11:33:36Z</time>
      </trkpt>
      <trkpt lat="45.17981" lon="5.81776">
        <ele>564</ele>
        <time>2017-10-15T11:33:37Z</time>
      </trkpt>
      <trkpt lat="45.17977" lon="5.81773">
        <ele>564</ele>
        <time>2017-10-15T11:33:38Z</time>
      </trkpt>
      <trkpt lat="45.17967" lon="5.81763">
        <ele>563</ele>
        <time>2017-10-15T11:33:41Z</time>
      </trkpt>
      <trkpt lat="45.1796" lon="5.81758">
        <ele>563</ele>
        <time>2017-10-15T11:33:43Z</time>
      </trkpt>
      <trkpt lat="45.17955" lon="5.81756">
        <ele>564</ele>
        <time>2017-10-15T11:33:45Z</time>
      </trkpt>
      <trkpt lat="45.17949" lon="5.81755">
        <ele>565</ele>
        <time>2017-10-15T11:33:47Z</time>
      </trkpt>
      <trkpt lat="45.17943" lon="5.81754">
        <ele>567</ele>
        <time>2017-10-15T11:33:49Z</time>
      </trkpt>
      <trkpt lat="45.17937" lon="5.81753">
        <ele>568</ele>
        <time>2017-10-15T11:33:51Z</time>
      </trkpt>
      <trkpt lat="45.17928" lon="5.81753">
        <ele>570</ele>
        <time>2017-10-15T11:33:53Z</time>
      </trkpt>
      <trkpt lat="45.17923" lon="5.81752">
        <ele>571</ele>
        <time>2017-10-15T11:33:54Z</time>
      </trkpt>
      <trkpt lat="45.17917" lon="5.81752">
        <ele>573</ele>
        <time>2017-10-15T11:33:55Z</time>
      </trkpt>
      <trkpt lat="45.17913" lon="5.81749">
        <ele>574</ele>
        <time>2017-10-15T11:33:56Z</time>
      </trkpt>
      <trkpt lat="45.17909" lon="5.81746">
        <ele>576</ele>
        <time>2017-10-15T11:33:57Z</time>
      </trkpt>
      <trkpt lat="45.17903" lon="5.81736">
        <ele>576</ele>
        <time>2017-10-15T11:33:59Z</time>
      </trkpt>
      <trkpt lat="45.17901" lon="5.8173">
        <ele>576</ele>
        <time>2017-10-15T11:34:00Z</time>
      </trkpt>
      <trkpt lat="45.17899" lon="5.81724">
        <ele>576</ele>
        <time>2017-10-15T11:34:01Z</time>
      </trkpt>
      <trkpt lat="45.17896" lon="5.8171">
        <ele>576</ele>
        <time>2017-10-15T11:34:03Z</time>
      </trkpt>
      <trkpt lat="45.17895" lon="5.81702">
        <ele>575</ele>
        <time>2017-10-15T11:34:04Z</time>
      </trkpt>
      <trkpt lat="45.17896" lon="5.81694">
        <ele>574</ele>
        <time>2017-10-15T11:34:05Z</time>
      </trkpt>
      <trkpt lat="45.17897" lon="5.81685">
        <ele>573</ele>
        <time>2017-10-15T11:34:06Z</time>
      </trkpt>
      <trkpt lat="45.179" lon="5.81675">
        <ele>571</ele>
        <time>2017-10-15T11:34:07Z</time>
      </trkpt>
      <trkpt lat="45.17902" lon="5.81663">
        <ele>569</ele>
        <time>2017-10-15T11:34:08Z</time>
      </trkpt>
      <trkpt lat="45.17902" lon="5.81652">
        <ele>569</ele>
        <time>2017-10-15T11:34:09Z</time>
      </trkpt>
      <trkpt lat="45.17902" lon="5.81639">
        <ele>568</ele>
        <time>2017-10-15T11:34:10Z</time>
      </trkpt>
      <trkpt lat="45.17902" lon="5.81629">
        <ele>567</ele>
        <time>2017-10-15T11:34:11Z</time>
      </trkpt>
      <trkpt lat="45.17901" lon="5.81616">
        <ele>567</ele>
        <time>2017-10-15T11:34:12Z</time>
      </trkpt>
      <trkpt lat="45.179" lon="5.81603">
        <ele>566</ele>
        <time>2017-10-15T11:34:13Z</time>
      </trkpt>
      <trkpt lat="45.17899" lon="5.81592">
        <ele>566</ele>
        <time>2017-10-15T11:34:14Z</time>
      </trkpt>
      <trkpt lat="45.17897" lon="5.81581">
        <ele>566</ele>
        <time>2017-10-15T11:34:15Z</time>
      </trkpt>
      <trkpt lat="45.17896" lon="5.81571">
        <ele>566</ele>
        <time>2017-10-15T11:34:16Z</time>
      </trkpt>
      <trkpt lat="45.17893" lon="5.81563">
        <ele>567</ele>
        <time>2017-10-15T11:34:17Z</time>
      </trkpt>
      <trkpt lat="45.17892" lon="5.81557">
        <ele>567</ele>
        <time>2017-10-15T11:34:18Z</time>
      </trkpt>
      <trkpt lat="45.17889" lon="5.81546">
        <ele>567</ele>
        <time>2017-10-15T11:34:20Z</time>
      </trkpt>
      <trkpt lat="45.17886" lon="5.81539">
        <ele>568</ele>
        <time>2017-10-15T11:34:22Z</time>
      </trkpt>
      <trkpt lat="45.17884" lon="5.81533">
        <ele>568</ele>
        <time>2017-10-15T11:34:24Z</time>
      </trkpt>
      <trkpt lat="45.17881" lon="5.81526">
        <ele>569</ele>
        <time>2017-10-15T11:34:27Z</time>
      </trkpt>
      <trkpt lat="45.17876" lon="5.81521">
        <ele>571</ele>
        <time>2017-10-15T11:34:30Z</time>
      </trkpt>
      <trkpt lat="45.17873" lon="5.81513">
        <ele>571</ele>
        <time>2017-10-15T11:34:33Z</time>
      </trkpt>
      <trkpt lat="45.17868" lon="5.81508">
        <ele>573</ele>
        <time>2017-10-15T11:34:36Z</time>
      </trkpt>
      <trkpt lat="45.17865" lon="5.81501">
        <ele>574</ele>
        <time>2017-10-15T11:34:39Z</time>
      </trkpt>
      <trkpt lat="45.1786" lon="5.81496">
        <ele>575</ele>
        <time>2017-10-15T11:34:42Z</time>
      </trkpt>
      <trkpt lat="45.17856" lon="5.8149">
        <ele>577</ele>
        <time>2017-10-15T11:34:45Z</time>
      </trkpt>
      <trkpt lat="45.17851" lon="5.81486">
        <ele>578</ele>
        <time>2017-10-15T11:34:48Z</time>
      </trkpt>
      <trkpt lat="45.17847" lon="5.81481">
        <ele>579</ele>
        <time>2017-10-15T11:34:51Z</time>
      </trkpt>
      <trkpt lat="45.17843" lon="5.81475">
        <ele>581</ele>
        <time>2017-10-15T11:34:54Z</time>
      </trkpt>
      <trkpt lat="45.17841" lon="5.81468">
        <ele>581</ele>
        <time>2017-10-15T11:34:57Z</time>
      </trkpt>
      <trkpt lat="45.17838" lon="5.8146">
        <ele>581</ele>
        <time>2017-10-15T11:35:00Z</time>
      </trkpt>
      <trkpt lat="45.17835" lon="5.81454">
        <ele>582</ele>
        <time>2017-10-15T11:35:02Z</time>
      </trkpt>
      <trkpt lat="45.17832" lon="5.81446">
        <ele>582</ele>
        <time>2017-10-15T11:35:05Z</time>
      </trkpt>
      <trkpt lat="45.17829" lon="5.81437">
        <ele>583</ele>
        <time>2017-10-15T11:35:08Z</time>
      </trkpt>
      <trkpt lat="45.17828" lon="5.81427">
        <ele>582</ele>
        <time>2017-10-15T11:35:11Z</time>
      </trkpt>
      <trkpt lat="45.17827" lon="5.81419">
        <ele>582</ele>
        <time>2017-10-15T11:35:13Z</time>
      </trkpt>
      <trkpt lat="45.17825" lon="5.81411">
        <ele>582</ele>
        <time>2017-10-15T11:35:15Z</time>
      </trkpt>
      <trkpt lat="45.17823" lon="5.81402">
        <ele>582</ele>
        <time>2017-10-15T11:35:17Z</time>
      </trkpt>
      <trkpt lat="45.1782" lon="5.81392">
        <ele>582</ele>
        <time>2017-10-15T11:35:19Z</time>
      </trkpt>
      <trkpt lat="45.17819" lon="5.81382">
        <ele>582</ele>
        <time>2017-10-15T11:35:21Z</time>
      </trkpt>
      <trkpt lat="45.17816" lon="5.81373">
        <ele>582</ele>
        <time>2017-10-15T11:35:23Z</time>
      </trkpt>
      <trkpt lat="45.17814" lon="5.81365">
        <ele>582</ele>
        <time>2017-10-15T11:35:25Z</time>
      </trkpt>
      <trkpt lat="45.17811" lon="5.81358">
        <ele>583</ele>
        <time>2017-10-15T11:35:27Z</time>
      </trkpt>
      <trkpt lat="45.17809" lon="5.8135">
        <ele>583</ele>
        <time>2017-10-15T11:35:29Z</time>
      </trkpt>
      <trkpt lat="45.17806" lon="5.81343">
        <ele>584</ele>
        <time>2017-10-15T11:35:31Z</time>
      </trkpt>
      <trkpt lat="45.17803" lon="5.81336">
        <ele>584</ele>
        <time>2017-10-15T11:35:33Z</time>
      </trkpt>
      <trkpt lat="45.17801" lon="5.8133">
        <ele>584</ele>
        <time>2017-10-15T11:35:35Z</time>
      </trkpt>
      <trkpt lat="45.17798" lon="5.81321">
        <ele>584</ele>
        <time>2017-10-15T11:35:38Z</time>
      </trkpt>
      <trkpt lat="45.17797" lon="5.81312">
        <ele>583</ele>
        <time>2017-10-15T11:35:41Z</time>
      </trkpt>
      <trkpt lat="45.17793" lon="5.81304">
        <ele>584</ele>
        <time>2017-10-15T11:35:44Z</time>
      </trkpt>
      <trkpt lat="45.17788" lon="5.81293">
        <ele>584</ele>
        <time>2017-10-15T11:35:48Z</time>
      </trkpt>
      <trkpt lat="45.17786" lon="5.81288">
        <ele>584</ele>
        <time>2017-10-15T11:35:50Z</time>
      </trkpt>
      <trkpt lat="45.17783" lon="5.81282">
        <ele>584</ele>
        <time>2017-10-15T11:35:52Z</time>
      </trkpt>
      <trkpt lat="45.1778" lon="5.81277">
        <ele>585</ele>
        <time>2017-10-15T11:35:54Z</time>
      </trkpt>
      <trkpt lat="45.17777" lon="5.81269">
        <ele>585</ele>
        <time>2017-10-15T11:35:57Z</time>
      </trkpt>
      <trkpt lat="45.17774" lon="5.81263">
        <ele>585</ele>
        <time>2017-10-15T11:35:59Z</time>
      </trkpt>
      <trkpt lat="45.17772" lon="5.81257">
        <ele>585</ele>
        <time>2017-10-15T11:36:01Z</time>
      </trkpt>
      <trkpt lat="45.17769" lon="5.81251">
        <ele>585</ele>
        <time>2017-10-15T11:36:03Z</time>
      </trkpt>
      <trkpt lat="45.17765" lon="5.81244">
        <ele>585</ele>
        <time>2017-10-15T11:36:05Z</time>
      </trkpt>
      <trkpt lat="45.17761" lon="5.81238">
        <ele>585</ele>
        <time>2017-10-15T11:36:07Z</time>
      </trkpt>
      <trkpt lat="45.17757" lon="5.81231">
        <ele>585</ele>
        <time>2017-10-15T11:36:09Z</time>
      </trkpt>
      <trkpt lat="45.17753" lon="5.81225">
        <ele>586</ele>
        <time>2017-10-15T11:36:11Z</time>
      </trkpt>
      <trkpt lat="45.17748" lon="5.8122">
        <ele>586</ele>
        <time>2017-10-15T11:36:13Z</time>
      </trkpt>
      <trkpt lat="45.17744" lon="5.81214">
        <ele>586</ele>
        <time>2017-10-15T11:36:15Z</time>
      </trkpt>
      <trkpt lat="45.1774" lon="5.81208">
        <ele>586</ele>
        <time>2017-10-15T11:36:17Z</time>
      </trkpt>
      <trkpt lat="45.17735" lon="5.81202">
        <ele>586</ele>
        <time>2017-10-15T11:36:19Z</time>
      </trkpt>
      <trkpt lat="45.1773" lon="5.81195">
        <ele>585</ele>
        <time>2017-10-15T11:36:21Z</time>
      </trkpt>
      <trkpt lat="45.17726" lon="5.8119">
        <ele>585</ele>
        <time>2017-10-15T11:36:22Z</time>
      </trkpt>
      <trkpt lat="45.1772" lon="5.81183">
        <ele>584</ele>
        <time>2017-10-15T11:36:24Z</time>
      </trkpt>
      <trkpt lat="45.17714" lon="5.81175">
        <ele>584</ele>
        <time>2017-10-15T11:36:26Z</time>
      </trkpt>
      <trkpt lat="45.17707" lon="5.81168">
        <ele>584</ele>
        <time>2017-10-15T11:36:28Z</time>
      </trkpt>
      <trkpt lat="45.17702" lon="5.81162">
        <ele>585</ele>
        <time>2017-10-15T11:36:30Z</time>
      </trkpt>
      <trkpt lat="45.17696" lon="5.81159">
        <ele>585</ele>
        <time>2017-10-15T11:36:32Z</time>
      </trkpt>
      <trkpt lat="45.17693" lon="5.81149">
        <ele>585</ele>
        <time>2017-10-15T11:44:07Z</time>
      </trkpt>
      <trkpt lat="45.17691" lon="5.81143">
        <ele>584</ele>
        <time>2017-10-15T11:44:09Z</time>
      </trkpt>
      <trkpt lat="45.17685" lon="5.81137">
        <ele>584</ele>
        <time>2017-10-15T11:44:11Z</time>
      </trkpt>
      <trkpt lat="45.1768" lon="5.8113">
        <ele>584</ele>
        <time>2017-10-15T11:44:13Z</time>
      </trkpt>
      <trkpt lat="45.17675" lon="5.81123">
        <ele>583</ele>
        <time>2017-10-15T11:44:15Z</time>
      </trkpt>
      <trkpt lat="45.1767" lon="5.81114">
        <ele>583</ele>
        <time>2017-10-15T11:44:17Z</time>
      </trkpt>
      <trkpt lat="45.17665" lon="5.81105">
        <ele>582</ele>
        <time>2017-10-15T11:44:19Z</time>
      </trkpt>
      <trkpt lat="45.17661" lon="5.81097">
        <ele>581</ele>
        <time>2017-10-15T11:44:21Z</time>
      </trkpt>
      <trkpt lat="45.17657" lon="5.8109">
        <ele>581</ele>
        <time>2017-10-15T11:44:23Z</time>
      </trkpt>
      <trkpt lat="45.17652" lon="5.81085">
        <ele>580</ele>
        <time>2017-10-15T11:44:25Z</time>
      </trkpt>
      <trkpt lat="45.17646" lon="5.81074">
        <ele>579</ele>
        <time>2017-10-15T11:44:27Z</time>
      </trkpt>
      <trkpt lat="45.17641" lon="5.81056">
        <ele>579</ele>
        <time>2017-10-15T11:44:29Z</time>
      </trkpt>
      <trkpt lat="45.17638" lon="5.81047">
        <ele>578</ele>
        <time>2017-10-15T11:44:30Z</time>
      </trkpt>
      <trkpt lat="45.17636" lon="5.81036">
        <ele>577</ele>
        <time>2017-10-15T11:44:31Z</time>
      </trkpt>
      <trkpt lat="45.17633" lon="5.81028">
        <ele>577</ele>
        <time>2017-10-15T11:44:32Z</time>
      </trkpt>
      <trkpt lat="45.17631" lon="5.81018">
        <ele>577</ele>
        <time>2017-10-15T11:44:33Z</time>
      </trkpt>
      <trkpt lat="45.17625" lon="5.81">
        <ele>576</ele>
        <time>2017-10-15T11:44:35Z</time>
      </trkpt>
      <trkpt lat="45.17624" lon="5.80991">
        <ele>575</ele>
        <time>2017-10-15T11:44:36Z</time>
      </trkpt>
      <trkpt lat="45.17622" lon="5.80977">
        <ele>574</ele>
        <time>2017-10-15T11:44:38Z</time>
      </trkpt>
      <trkpt lat="45.1762" lon="5.80971">
        <ele>574</ele>
        <time>2017-10-15T11:44:39Z</time>
      </trkpt>
      <trkpt lat="45.17616" lon="5.80965">
        <ele>574</ele>
        <time>2017-10-15T11:44:40Z</time>
      </trkpt>
      <trkpt lat="45.17613" lon="5.80956">
        <ele>573</ele>
        <time>2017-10-15T11:44:41Z</time>
      </trkpt>
      <trkpt lat="45.17609" lon="5.80948">
        <ele>573</ele>
        <time>2017-10-15T11:44:42Z</time>
      </trkpt>
      <trkpt lat="45.17606" lon="5.80941">
        <ele>573</ele>
        <time>2017-10-15T11:44:43Z</time>
      </trkpt>
      <trkpt lat="45.17602" lon="5.80935">
        <ele>573</ele>
        <time>2017-10-15T11:44:44Z</time>
      </trkpt>
      <trkpt lat="45.176" lon="5.80927">
        <ele>572</ele>
        <time>2017-10-15T11:44:45Z</time>
      </trkpt>
      <trkpt lat="45.17596" lon="5.80921">
        <ele>572</ele>
        <time>2017-10-15T11:44:46Z</time>
      </trkpt>
      <trkpt lat="45.17594" lon="5.80915">
        <ele>572</ele>
        <time>2017-10-15T11:44:47Z</time>
      </trkpt>
      <trkpt lat="45.17589" lon="5.80899">
        <ele>570</ele>
        <time>2017-10-15T11:44:49Z</time>
      </trkpt>
      <trkpt lat="45.17587" lon="5.80891">
        <ele>569</ele>
        <time>2017-10-15T11:44:50Z</time>
      </trkpt>
      <trkpt lat="45.17585" lon="5.80882">
        <ele>568</ele>
        <time>2017-10-15T11:44:51Z</time>
      </trkpt>
      <trkpt lat="45.17586" lon="5.80873">
        <ele>566</ele>
        <time>2017-10-15T11:44:52Z</time>
      </trkpt>
      <trkpt lat="45.17586" lon="5.8086">
        <ele>564</ele>
        <time>2017-10-15T11:44:53Z</time>
      </trkpt>
      <trkpt lat="45.17584" lon="5.80853">
        <ele>563</ele>
        <time>2017-10-15T11:44:54Z</time>
      </trkpt>
      <trkpt lat="45.17587" lon="5.80842">
        <ele>560</ele>
        <time>2017-10-15T11:44:55Z</time>
      </trkpt>
      <trkpt lat="45.17587" lon="5.80833">
        <ele>558</ele>
        <time>2017-10-15T11:44:56Z</time>
      </trkpt>
      <trkpt lat="45.17584" lon="5.80823">
        <ele>557</ele>
        <time>2017-10-15T11:44:57Z</time>
      </trkpt>
      <trkpt lat="45.1758" lon="5.80816">
        <ele>556</ele>
        <time>2017-10-15T11:44:58Z</time>
      </trkpt>
      <trkpt lat="45.17575" lon="5.80809">
        <ele>555</ele>
        <time>2017-10-15T11:44:59Z</time>
      </trkpt>
      <trkpt lat="45.17564" lon="5.80799">
        <ele>556</ele>
        <time>2017-10-15T11:45:01Z</time>
      </trkpt>
      <trkpt lat="45.17553" lon="5.80787">
        <ele>556</ele>
        <time>2017-10-15T11:45:03Z</time>
      </trkpt>
      <trkpt lat="45.17548" lon="5.80783">
        <ele>556</ele>
        <time>2017-10-15T11:45:04Z</time>
      </trkpt>
      <trkpt lat="45.17537" lon="5.80772">
        <ele>556</ele>
        <time>2017-10-15T11:45:06Z</time>
      </trkpt>
      <trkpt lat="45.17529" lon="5.80763">
        <ele>555</ele>
        <time>2017-10-15T11:45:08Z</time>
      </trkpt>
      <trkpt lat="45.17524" lon="5.80756">
        <ele>555</ele>
        <time>2017-10-15T11:45:09Z</time>
      </trkpt>
      <trkpt lat="45.17519" lon="5.8075">
        <ele>554</ele>
        <time>2017-10-15T11:45:10Z</time>
      </trkpt>
      <trkpt lat="45.17511" lon="5.80738">
        <ele>553</ele>
        <time>2017-10-15T11:45:12Z</time>
      </trkpt>
      <trkpt lat="45.175" lon="5.80723">
        <ele>552</ele>
        <time>2017-10-15T11:45:14Z</time>
      </trkpt>
      <trkpt lat="45.17493" lon="5.80714">
        <ele>551</ele>
        <time>2017-10-15T11:45:15Z</time>
      </trkpt>
      <trkpt lat="45.17487" lon="5.80707">
        <ele>551</ele>
        <time>2017-10-15T11:45:16Z</time>
      </trkpt>
      <trkpt lat="45.17481" lon="5.80698">
        <ele>550</ele>
        <time>2017-10-15T11:45:17Z</time>
      </trkpt>
      <trkpt lat="45.17464" lon="5.80681">
        <ele>550</ele>
        <time>2017-10-15T11:45:19Z</time>
      </trkpt>
      <trkpt lat="45.17458" lon="5.80672">
        <ele>550</ele>
        <time>2017-10-15T11:45:20Z</time>
      </trkpt>
      <trkpt lat="45.1745" lon="5.80665">
        <ele>550</ele>
        <time>2017-10-15T11:45:21Z</time>
      </trkpt>
      <trkpt lat="45.17444" lon="5.80662">
        <ele>551</ele>
        <time>2017-10-15T11:45:22Z</time>
      </trkpt>
      <trkpt lat="45.17438" lon="5.80656">
        <ele>551</ele>
        <time>2017-10-15T11:45:23Z</time>
      </trkpt>
      <trkpt lat="45.17433" lon="5.80651">
        <ele>551</ele>
        <time>2017-10-15T11:45:24Z</time>
      </trkpt>
      <trkpt lat="45.17427" lon="5.80639">
        <ele>550</ele>
        <time>2017-10-15T11:45:25Z</time>
      </trkpt>
      <trkpt lat="45.17421" lon="5.80631">
        <ele>549</ele>
        <time>2017-10-15T11:45:26Z</time>
      </trkpt>
      <trkpt lat="45.17413" lon="5.80624">
        <ele>550</ele>
        <time>2017-10-15T11:45:27Z</time>
      </trkpt>
      <trkpt lat="45.17405" lon="5.80613">
        <ele>550</ele>
        <time>2017-10-15T11:45:29Z</time>
      </trkpt>
      <trkpt lat="45.174" lon="5.806">
        <ele>548</ele>
        <time>2017-10-15T11:45:31Z</time>
      </trkpt>
      <trkpt lat="45.17396" lon="5.80594">
        <ele>547</ele>
        <time>2017-10-15T11:45:32Z</time>
      </trkpt>
      <trkpt lat="45.17389" lon="5.80582">
        <ele>546</ele>
        <time>2017-10-15T11:45:34Z</time>
      </trkpt>
      <trkpt lat="45.17387" lon="5.80576">
        <ele>545</ele>
        <time>2017-10-15T11:45:35Z</time>
      </trkpt>
      <trkpt lat="45.17383" lon="5.80571">
        <ele>544</ele>
        <time>2017-10-15T11:45:36Z</time>
      </trkpt>
      <trkpt lat="45.17376" lon="5.80565">
        <ele>544</ele>
        <time>2017-10-15T11:45:37Z</time>
      </trkpt>
      <trkpt lat="45.17373" lon="5.8056">
        <ele>544</ele>
        <time>2017-10-15T11:45:38Z</time>
      </trkpt>
      <trkpt lat="45.17369" lon="5.80555">
        <ele>543</ele>
        <time>2017-10-15T11:45:39Z</time>
      </trkpt>
      <trkpt lat="45.17365" lon="5.8055">
        <ele>543</ele>
        <time>2017-10-15T11:45:40Z</time>
      </trkpt>
      <trkpt lat="45.17357" lon="5.80541">
        <ele>542</ele>
        <time>2017-10-15T11:45:42Z</time>
      </trkpt>
      <trkpt lat="45.17352" lon="5.80537">
        <ele>542</ele>
        <time>2017-10-15T11:45:43Z</time>
      </trkpt>
      <trkpt lat="45.17347" lon="5.80532">
        <ele>542</ele>
        <time>2017-10-15T11:45:45Z</time>
      </trkpt>
      <trkpt lat="45.17342" lon="5.80525">
        <ele>541</ele>
        <time>2017-10-15T11:45:47Z</time>
      </trkpt>
      <trkpt lat="45.17338" lon="5.8052">
        <ele>540</ele>
        <time>2017-10-15T11:45:49Z</time>
      </trkpt>
      <trkpt lat="45.17334" lon="5.80512">
        <ele>539</ele>
        <time>2017-10-15T11:45:51Z</time>
      </trkpt>
      <trkpt lat="45.17328" lon="5.80504">
        <ele>537</ele>
        <time>2017-10-15T11:45:54Z</time>
      </trkpt>
      <trkpt lat="45.17322" lon="5.80499">
        <ele>537</ele>
        <time>2017-10-15T11:45:56Z</time>
      </trkpt>
      <trkpt lat="45.17316" lon="5.80493">
        <ele>536</ele>
        <time>2017-10-15T11:45:58Z</time>
      </trkpt>
      <trkpt lat="45.1731" lon="5.80487">
        <ele>535</ele>
        <time>2017-10-15T11:46:00Z</time>
      </trkpt>
      <trkpt lat="45.17305" lon="5.8048">
        <ele>535</ele>
        <time>2017-10-15T11:46:02Z</time>
      </trkpt>
      <trkpt lat="45.173" lon="5.80474">
        <ele>534</ele>
        <time>2017-10-15T11:46:04Z</time>
      </trkpt>
      <trkpt lat="45.17295" lon="5.80469">
        <ele>533</ele>
        <time>2017-10-15T11:46:06Z</time>
      </trkpt>
      <trkpt lat="45.17286" lon="5.80462">
        <ele>532</ele>
        <time>2017-10-15T11:46:09Z</time>
      </trkpt>
      <trkpt lat="45.1728" lon="5.80459">
        <ele>532</ele>
        <time>2017-10-15T11:46:11Z</time>
      </trkpt>
      <trkpt lat="45.17273" lon="5.80457">
        <ele>532</ele>
        <time>2017-10-15T11:46:13Z</time>
      </trkpt>
      <trkpt lat="45.17262" lon="5.80456">
        <ele>532</ele>
        <time>2017-10-15T11:46:16Z</time>
      </trkpt>
      <trkpt lat="45.17256" lon="5.80454">
        <ele>531</ele>
        <time>2017-10-15T11:46:18Z</time>
      </trkpt>
      <trkpt lat="45.17252" lon="5.80452">
        <ele>531</ele>
        <time>2017-10-15T11:46:20Z</time>
      </trkpt>
      <trkpt lat="45.17247" lon="5.80452">
        <ele>531</ele>
        <time>2017-10-15T11:46:22Z</time>
      </trkpt>
      <trkpt lat="45.17241" lon="5.80456">
        <ele>532</ele>
        <time>2017-10-15T11:46:24Z</time>
      </trkpt>
      <trkpt lat="45.17236" lon="5.80461">
        <ele>533</ele>
        <time>2017-10-15T11:46:26Z</time>
      </trkpt>
      <trkpt lat="45.1723" lon="5.80466">
        <ele>533</ele>
        <time>2017-10-15T11:46:28Z</time>
      </trkpt>
      <trkpt lat="45.17225" lon="5.8047">
        <ele>532</ele>
        <time>2017-10-15T11:46:30Z</time>
      </trkpt>
      <trkpt lat="45.1722" lon="5.80474">
        <ele>532</ele>
        <time>2017-10-15T11:46:32Z</time>
      </trkpt>
      <trkpt lat="45.17213" lon="5.80478">
        <ele>531</ele>
        <time>2017-10-15T11:46:34Z</time>
      </trkpt>
      <trkpt lat="45.17205" lon="5.80481">
        <ele>530</ele>
        <time>2017-10-15T11:46:36Z</time>
      </trkpt>
      <trkpt lat="45.17197" lon="5.8048">
        <ele>528</ele>
        <time>2017-10-15T11:46:37Z</time>
      </trkpt>
      <trkpt lat="45.17192" lon="5.8048">
        <ele>527</ele>
        <time>2017-10-15T11:46:38Z</time>
      </trkpt>
      <trkpt lat="45.17188" lon="5.80481">
        <ele>527</ele>
        <time>2017-10-15T11:46:39Z</time>
      </trkpt>
      <trkpt lat="45.17182" lon="5.80478">
        <ele>525</ele>
        <time>2017-10-15T11:46:41Z</time>
      </trkpt>
      <trkpt lat="45.17176" lon="5.80472">
        <ele>523</ele>
        <time>2017-10-15T11:46:44Z</time>
      </trkpt>
      <trkpt lat="45.1717" lon="5.80469">
        <ele>521</ele>
        <time>2017-10-15T11:46:46Z</time>
      </trkpt>
      <trkpt lat="45.17165" lon="5.80474">
        <ele>521</ele>
        <time>2017-10-15T11:46:48Z</time>
      </trkpt>
      <trkpt lat="45.17159" lon="5.80479">
        <ele>520</ele>
        <time>2017-10-15T11:46:50Z</time>
      </trkpt>
      <trkpt lat="45.17152" lon="5.80486">
        <ele>520</ele>
        <time>2017-10-15T11:48:24Z</time>
      </trkpt>
      <trkpt lat="45.17144" lon="5.8049">
        <ele>519</ele>
        <time>2017-10-15T11:48:26Z</time>
      </trkpt>
      <trkpt lat="45.17139" lon="5.80491">
        <ele>518</ele>
        <time>2017-10-15T11:48:27Z</time>
      </trkpt>
      <trkpt lat="45.17134" lon="5.80493">
        <ele>517</ele>
        <time>2017-10-15T11:48:28Z</time>
      </trkpt>
      <trkpt lat="45.17125" lon="5.80496">
        <ele>515</ele>
        <time>2017-10-15T11:48:30Z</time>
      </trkpt>
      <trkpt lat="45.17117" lon="5.80501">
        <ele>514</ele>
        <time>2017-10-15T11:48:32Z</time>
      </trkpt>
      <trkpt lat="45.17115" lon="5.80512">
        <ele>516</ele>
        <time>2017-10-15T11:48:33Z</time>
      </trkpt>
      <trkpt lat="45.17111" lon="5.80518">
        <ele>516</ele>
        <time>2017-10-15T11:48:34Z</time>
      </trkpt>
      <trkpt lat="45.17107" lon="5.80526">
        <ele>516</ele>
        <time>2017-10-15T11:48:35Z</time>
      </trkpt>
      <trkpt lat="45.171" lon="5.80535">
        <ele>516</ele>
        <time>2017-10-15T11:48:37Z</time>
      </trkpt>
      <trkpt lat="45.17096" lon="5.80537">
        <ele>516</ele>
        <time>2017-10-15T11:48:39Z</time>
      </trkpt>
      <trkpt lat="45.17093" lon="5.80543">
        <ele>516</ele>
        <time>2017-10-15T11:48:40Z</time>
      </trkpt>
      <trkpt lat="45.1709" lon="5.80551">
        <ele>518</ele>
        <time>2017-10-15T11:48:41Z</time>
      </trkpt>
      <trkpt lat="45.17092" lon="5.80563">
        <ele>520</ele>
        <time>2017-10-15T11:48:43Z</time>
      </trkpt>
      <trkpt lat="45.17091" lon="5.8058">
        <ele>524</ele>
        <time>2017-10-15T11:48:46Z</time>
      </trkpt>
      <trkpt lat="45.1709" lon="5.80588">
        <ele>525</ele>
        <time>2017-10-15T11:48:47Z</time>
      </trkpt>
      <trkpt lat="45.17083" lon="5.80609">
        <ele>530</ele>
        <time>2017-10-15T11:48:48Z</time>
      </trkpt>
      <trkpt lat="45.17081" lon="5.80617">
        <ele>531</ele>
        <time>2017-10-15T11:48:50Z</time>
      </trkpt>
      <trkpt lat="45.17077" lon="5.80621">
        <ele>532</ele>
        <time>2017-10-15T11:48:51Z</time>
      </trkpt>
      <trkpt lat="45.17068" lon="5.80621">
        <ele>531</ele>
        <time>2017-10-15T11:48:52Z</time>
      </trkpt>
      <trkpt lat="45.17064" lon="5.80612">
        <ele>529</ele>
        <time>2017-10-15T11:48:53Z</time>
      </trkpt>
      <trkpt lat="45.17058" lon="5.80601">
        <ele>526</ele>
        <time>2017-10-15T11:48:54Z</time>
      </trkpt>
      <trkpt lat="45.17048" lon="5.80591">
        <ele>523</ele>
        <time>2017-10-15T11:48:56Z</time>
      </trkpt>
      <trkpt lat="45.1704" lon="5.80587">
        <ele>521</ele>
        <time>2017-10-15T11:48:59Z</time>
      </trkpt>
      <trkpt lat="45.17034" lon="5.80582">
        <ele>520</ele>
        <time>2017-10-15T11:49:01Z</time>
      </trkpt>
      <trkpt lat="45.17027" lon="5.80587">
        <ele>520</ele>
        <time>2017-10-15T11:49:03Z</time>
      </trkpt>
      <trkpt lat="45.17018" lon="5.80597">
        <ele>523</ele>
        <time>2017-10-15T11:49:05Z</time>
      </trkpt>
      <trkpt lat="45.1701" lon="5.80607">
        <ele>525</ele>
        <time>2017-10-15T11:49:07Z</time>
      </trkpt>
      <trkpt lat="45.17005" lon="5.80613">
        <ele>526</ele>
        <time>2017-10-15T11:49:09Z</time>
      </trkpt>
      <trkpt lat="45.17" lon="5.80618">
        <ele>527</ele>
        <time>2017-10-15T11:49:11Z</time>
      </trkpt>
      <trkpt lat="45.16995" lon="5.80623">
        <ele>528</ele>
        <time>2017-10-15T11:49:14Z</time>
      </trkpt>
      <trkpt lat="45.1699" lon="5.80628">
        <ele>530</ele>
        <time>2017-10-15T11:49:17Z</time>
      </trkpt>
      <trkpt lat="45.16984" lon="5.80634">
        <ele>531</ele>
        <time>2017-10-15T11:49:20Z</time>
      </trkpt>
      <trkpt lat="45.1698" lon="5.80638">
        <ele>532</ele>
        <time>2017-10-15T11:49:22Z</time>
      </trkpt>
      <trkpt lat="45.16975" lon="5.80641">
        <ele>532</ele>
        <time>2017-10-15T11:49:24Z</time>
      </trkpt>
      <trkpt lat="45.16971" lon="5.80643">
        <ele>533</ele>
        <time>2017-10-15T11:49:26Z</time>
      </trkpt>
      <trkpt lat="45.16967" lon="5.80646">
        <ele>534</ele>
        <time>2017-10-15T11:49:28Z</time>
      </trkpt>
      <trkpt lat="45.16962" lon="5.80647">
        <ele>534</ele>
        <time>2017-10-15T11:49:30Z</time>
      </trkpt>
      <trkpt lat="45.16956" lon="5.80649">
        <ele>534</ele>
        <time>2017-10-15T11:49:32Z</time>
      </trkpt>
      <trkpt lat="45.1695" lon="5.8065">
        <ele>534</ele>
        <time>2017-10-15T11:49:34Z</time>
      </trkpt>
      <trkpt lat="45.16945" lon="5.80651">
        <ele>534</ele>
        <time>2017-10-15T11:49:36Z</time>
      </trkpt>
      <trkpt lat="45.1694" lon="5.80652">
        <ele>534</ele>
        <time>2017-10-15T11:49:38Z</time>
      </trkpt>
      <trkpt lat="45.16935" lon="5.80653">
        <ele>534</ele>
        <time>2017-10-15T11:49:40Z</time>
      </trkpt>
      <trkpt lat="45.1693" lon="5.80655">
        <ele>534</ele>
        <time>2017-10-15T11:49:42Z</time>
      </trkpt>
      <trkpt lat="45.16925" lon="5.80656">
        <ele>534</ele>
        <time>2017-10-15T11:49:44Z</time>
      </trkpt>
      <trkpt lat="45.1692" lon="5.80656">
        <ele>534</ele>
        <time>2017-10-15T11:49:46Z</time>
      </trkpt>
      <trkpt lat="45.16915" lon="5.80657">
        <ele>534</ele>
        <time>2017-10-15T11:49:48Z</time>
      </trkpt>
      <trkpt lat="45.16911" lon="5.80658">
        <ele>534</ele>
        <time>2017-10-15T11:49:50Z</time>
      </trkpt>
      <trkpt lat="45.169" lon="5.8066">
        <ele>534</ele>
        <time>2017-10-15T11:49:55Z</time>
      </trkpt>
      <trkpt lat="45.16894" lon="5.8066">
        <ele>534</ele>
        <time>2017-10-15T11:49:58Z</time>
      </trkpt>
      <trkpt lat="45.16888" lon="5.8066">
        <ele>533</ele>
        <time>2017-10-15T11:50:01Z</time>
      </trkpt>
      <trkpt lat="45.16883" lon="5.8066">
        <ele>532</ele>
        <time>2017-10-15T11:50:04Z</time>
      </trkpt>
      <trkpt lat="45.16878" lon="5.80661">
        <ele>532</ele>
        <time>2017-10-15T11:50:07Z</time>
      </trkpt>
      <trkpt lat="45.16872" lon="5.80663">
        <ele>532</ele>
        <time>2017-10-15T11:50:10Z</time>
      </trkpt>
      <trkpt lat="45.16868" lon="5.80665">
        <ele>531</ele>
        <time>2017-10-15T11:50:12Z</time>
      </trkpt>
      <trkpt lat="45.16861" lon="5.80666">
        <ele>531</ele>
        <time>2017-10-15T11:50:15Z</time>
      </trkpt>
      <trkpt lat="45.16855" lon="5.80669">
        <ele>531</ele>
        <time>2017-10-15T11:50:18Z</time>
      </trkpt>
      <trkpt lat="45.16851" lon="5.80671">
        <ele>531</ele>
        <time>2017-10-15T11:50:20Z</time>
      </trkpt>
      <trkpt lat="45.16847" lon="5.80675">
        <ele>532</ele>
        <time>2017-10-15T11:50:22Z</time>
      </trkpt>
      <trkpt lat="45.16842" lon="5.8068">
        <ele>533</ele>
        <time>2017-10-15T11:50:25Z</time>
      </trkpt>
      <trkpt lat="45.16837" lon="5.80684">
        <ele>533</ele>
        <time>2017-10-15T11:50:28Z</time>
      </trkpt>
      <trkpt lat="45.16831" lon="5.80689">
        <ele>534</ele>
        <time>2017-10-15T11:50:31Z</time>
      </trkpt>
      <trkpt lat="45.16827" lon="5.80693">
        <ele>535</ele>
        <time>2017-10-15T11:50:33Z</time>
      </trkpt>
      <trkpt lat="45.16822" lon="5.80697">
        <ele>535</ele>
        <time>2017-10-15T11:50:35Z</time>
      </trkpt>
      <trkpt lat="45.16821" lon="5.8069">
        <ele>533</ele>
        <time>2017-10-15T11:52:23Z</time>
      </trkpt>
      <trkpt lat="45.16814" lon="5.80688">
        <ele>530</ele>
        <time>2017-10-15T11:52:25Z</time>
      </trkpt>
      <trkpt lat="45.16807" lon="5.80687">
        <ele>527</ele>
        <time>2017-10-15T11:52:27Z</time>
      </trkpt>
      <trkpt lat="45.168" lon="5.80684">
        <ele>523</ele>
        <time>2017-10-15T11:52:29Z</time>
      </trkpt>
      <trkpt lat="45.16793" lon="5.80679">
        <ele>520</ele>
        <time>2017-10-15T11:52:31Z</time>
      </trkpt>
      <trkpt lat="45.16787" lon="5.80676">
        <ele>517</ele>
        <time>2017-10-15T11:52:33Z</time>
      </trkpt>
      <trkpt lat="45.16783" lon="5.80671">
        <ele>514</ele>
        <time>2017-10-15T11:52:37Z</time>
      </trkpt>
      <trkpt lat="45.16779" lon="5.80666">
        <ele>512</ele>
        <time>2017-10-15T11:52:40Z</time>
      </trkpt>
      <trkpt lat="45.16768" lon="5.80652">
        <ele>505</ele>
        <time>2017-10-15T11:52:44Z</time>
      </trkpt>
      <trkpt lat="45.16764" lon="5.80648">
        <ele>503</ele>
        <time>2017-10-15T11:52:45Z</time>
      </trkpt>
      <trkpt lat="45.16756" lon="5.80644">
        <ele>499</ele>
        <time>2017-10-15T11:52:46Z</time>
      </trkpt>
      <trkpt lat="45.16747" lon="5.80641">
        <ele>493</ele>
        <time>2017-10-15T11:52:48Z</time>
      </trkpt>
      <trkpt lat="45.16738" lon="5.8064">
        <ele>487</ele>
        <time>2017-10-15T11:52:49Z</time>
      </trkpt>
      <trkpt lat="45.16731" lon="5.80637">
        <ele>481</ele>
        <time>2017-10-15T11:52:50Z</time>
      </trkpt>
      <trkpt lat="45.16722" lon="5.80638">
        <ele>476</ele>
        <time>2017-10-15T11:52:51Z</time>
      </trkpt>
      <trkpt lat="45.16717" lon="5.80642">
        <ele>473</ele>
        <time>2017-10-15T11:52:52Z</time>
      </trkpt>
      <trkpt lat="45.16705" lon="5.80645">
        <ele>465</ele>
        <time>2017-10-15T11:52:54Z</time>
      </trkpt>
      <trkpt lat="45.16699" lon="5.80646">
        <ele>461</ele>
        <time>2017-10-15T11:52:55Z</time>
      </trkpt>
      <trkpt lat="45.16694" lon="5.80645">
        <ele>457</ele>
        <time>2017-10-15T11:52:57Z</time>
      </trkpt>
      <trkpt lat="45.16699" lon="5.80639">
        <ele>459</ele>
        <time>2017-10-15T11:53:00Z</time>
      </trkpt>
      <trkpt lat="45.16705" lon="5.80628">
        <ele>463</ele>
        <time>2017-10-15T11:53:02Z</time>
      </trkpt>
      <trkpt lat="45.16708" lon="5.80618">
        <ele>463</ele>
        <time>2017-10-15T11:53:03Z</time>
      </trkpt>
      <trkpt lat="45.16711" lon="5.80609">
        <ele>463</ele>
        <time>2017-10-15T11:53:04Z</time>
      </trkpt>
      <trkpt lat="45.16714" lon="5.806">
        <ele>463</ele>
        <time>2017-10-15T11:53:05Z</time>
      </trkpt>
      <trkpt lat="45.16716" lon="5.80593">
        <ele>463</ele>
        <time>2017-10-15T11:53:06Z</time>
      </trkpt>
      <trkpt lat="45.16719" lon="5.80587">
        <ele>463</ele>
        <time>2017-10-15T11:53:07Z</time>
      </trkpt>
      <trkpt lat="45.16721" lon="5.8058">
        <ele>463</ele>
        <time>2017-10-15T11:53:08Z</time>
      </trkpt>
      <trkpt lat="45.1673" lon="5.80571">
        <ele>467</ele>
        <time>2017-10-15T11:53:10Z</time>
      </trkpt>
      <trkpt lat="45.16734" lon="5.80566">
        <ele>468</ele>
        <time>2017-10-15T11:53:11Z</time>
      </trkpt>
      <trkpt lat="45.16738" lon="5.80561">
        <ele>469</ele>
        <time>2017-10-15T11:53:12Z</time>
      </trkpt>
      <trkpt lat="45.16743" lon="5.80559">
        <ele>472</ele>
        <time>2017-10-15T11:53:13Z</time>
      </trkpt>
      <trkpt lat="45.16747" lon="5.80553">
        <ele>473</ele>
        <time>2017-10-15T11:53:14Z</time>
      </trkpt>
      <trkpt lat="45.16748" lon="5.80544">
        <ele>471</ele>
        <time>2017-10-15T11:53:15Z</time>
      </trkpt>
      <trkpt lat="45.16752" lon="5.80537">
        <ele>470</ele>
        <time>2017-10-15T11:53:16Z</time>
      </trkpt>
      <trkpt lat="45.16756" lon="5.80529">
        <ele>470</ele>
        <time>2017-10-15T11:53:17Z</time>
      </trkpt>
      <trkpt lat="45.16758" lon="5.80521">
        <ele>468</ele>
        <time>2017-10-15T11:53:19Z</time>
      </trkpt>
      <trkpt lat="45.16752" lon="5.80517">
        <ele>465</ele>
        <time>2017-10-15T11:53:20Z</time>
      </trkpt>
      <trkpt lat="45.1675" lon="5.80507">
        <ele>461</ele>
        <time>2017-10-15T11:53:22Z</time>
      </trkpt>
      <trkpt lat="45.16742" lon="5.80504">
        <ele>456</ele>
        <time>2017-10-15T11:53:24Z</time>
      </trkpt>
      <trkpt lat="45.1673" lon="5.80506">
        <ele>450</ele>
        <time>2017-10-15T11:53:26Z</time>
      </trkpt>
      <trkpt lat="45.16719" lon="5.80508">
        <ele>444</ele>
        <time>2017-10-15T11:53:28Z</time>
      </trkpt>
      <trkpt lat="45.16714" lon="5.80512">
        <ele>442</ele>
        <time>2017-10-15T11:53:29Z</time>
      </trkpt>
      <trkpt lat="45.16707" lon="5.80513">
        <ele>438</ele>
        <time>2017-10-15T11:53:30Z</time>
      </trkpt>
      <trkpt lat="45.16699" lon="5.80516">
        <ele>435</ele>
        <time>2017-10-15T11:53:31Z</time>
      </trkpt>
      <trkpt lat="45.16694" lon="5.80517">
        <ele>432</ele>
        <time>2017-10-15T11:53:32Z</time>
      </trkpt>
      <trkpt lat="45.16685" lon="5.80521">
        <ele>428</ele>
        <time>2017-10-15T11:53:34Z</time>
      </trkpt>
      <trkpt lat="45.1668" lon="5.80523">
        <ele>424</ele>
        <time>2017-10-15T11:53:35Z</time>
      </trkpt>
      <trkpt lat="45.16675" lon="5.80524">
        <ele>421</ele>
        <time>2017-10-15T11:53:36Z</time>
      </trkpt>
      <trkpt lat="45.16666" lon="5.80534">
        <ele>416</ele>
        <time>2017-10-15T11:53:39Z</time>
      </trkpt>
      <trkpt lat="45.16662" lon="5.80536">
        <ele>413</ele>
        <time>2017-10-15T11:53:45Z</time>
      </trkpt>
      <trkpt lat="45.16655" lon="5.80536">
        <ele>408</ele>
        <time>2017-10-15T11:53:49Z</time>
      </trkpt>
      <trkpt lat="45.16648" lon="5.80544">
        <ele>405</ele>
        <time>2017-10-15T11:53:51Z</time>
      </trkpt>
      <trkpt lat="45.16641" lon="5.80553">
        <ele>400</ele>
        <time>2017-10-15T11:53:52Z</time>
      </trkpt>
      <trkpt lat="45.16636" lon="5.8056">
        <ele>399</ele>
        <time>2017-10-15T11:53:53Z</time>
      </trkpt>
      <trkpt lat="45.16632" lon="5.80566">
        <ele>396</ele>
        <time>2017-10-15T11:53:54Z</time>
      </trkpt>
      <trkpt lat="45.16627" lon="5.80573">
        <ele>393</ele>
        <time>2017-10-15T11:53:55Z</time>
      </trkpt>
      <trkpt lat="45.16624" lon="5.80577">
        <ele>392</ele>
        <time>2017-10-15T11:53:56Z</time>
      </trkpt>
      <trkpt lat="45.16621" lon="5.80583">
        <ele>390</ele>
        <time>2017-10-15T11:53:57Z</time>
      </trkpt>
      <trkpt lat="45.16615" lon="5.80591">
        <ele>387</ele>
        <time>2017-10-15T11:53:59Z</time>
      </trkpt>
      <trkpt lat="45.16607" lon="5.80598">
        <ele>382</ele>
        <time>2017-10-15T11:54:01Z</time>
      </trkpt>
      <trkpt lat="45.166" lon="5.80605">
        <ele>379</ele>
        <time>2017-10-15T11:54:03Z</time>
      </trkpt>
      <trkpt lat="45.16596" lon="5.80613">
        <ele>377</ele>
        <time>2017-10-15T11:54:04Z</time>
      </trkpt>
      <trkpt lat="45.1659" lon="5.80617">
        <ele>373</ele>
        <time>2017-10-15T11:54:05Z</time>
      </trkpt>
      <trkpt lat="45.16579" lon="5.80631">
        <ele>367</ele>
        <time>2017-10-15T11:54:08Z</time>
      </trkpt>
      <trkpt lat="45.16575" lon="5.80639">
        <ele>364</ele>
        <time>2017-10-15T11:54:10Z</time>
      </trkpt>
      <trkpt lat="45.16569" lon="5.80648">
        <ele>362</ele>
        <time>2017-10-15T11:54:12Z</time>
      </trkpt>
      <trkpt lat="45.16571" lon="5.80659">
        <ele>363</ele>
        <time>2017-10-15T11:54:13Z</time>
      </trkpt>
      <trkpt lat="45.16573" lon="5.80668">
        <ele>365</ele>
        <time>2017-10-15T11:54:14Z</time>
      </trkpt>
      <trkpt lat="45.16568" lon="5.80672">
        <ele>362</ele>
        <time>2017-10-15T11:54:15Z</time>
      </trkpt>
      <trkpt lat="45.16565" lon="5.80683">
        <ele>361</ele>
        <time>2017-10-15T11:54:17Z</time>
      </trkpt>
      <trkpt lat="45.1656" lon="5.80693">
        <ele>358</ele>
        <time>2017-10-15T11:54:19Z</time>
      </trkpt>
      <trkpt lat="45.16555" lon="5.80702">
        <ele>354</ele>
        <time>2017-10-15T11:54:21Z</time>
      </trkpt>
      <trkpt lat="45.16551" lon="5.80709">
        <ele>352</ele>
        <time>2017-10-15T11:54:22Z</time>
      </trkpt>
      <trkpt lat="45.16551" lon="5.80717">
        <ele>352</ele>
        <time>2017-10-15T11:54:23Z</time>
      </trkpt>
      <trkpt lat="45.16547" lon="5.80723">
        <ele>350</ele>
        <time>2017-10-15T11:54:24Z</time>
      </trkpt>
      <trkpt lat="45.16545" lon="5.80754">
        <ele>349</ele>
        <time>2017-10-15T11:54:27Z</time>
      </trkpt>
      <trkpt lat="45.16543" lon="5.80766">
        <ele>349</ele>
        <time>2017-10-15T11:54:29Z</time>
      </trkpt>
      <trkpt lat="45.16542" lon="5.80773">
        <ele>349</ele>
        <time>2017-10-15T11:54:30Z</time>
      </trkpt>
      <trkpt lat="45.16542" lon="5.80787">
        <ele>349</ele>
        <time>2017-10-15T11:54:32Z</time>
      </trkpt>
      <trkpt lat="45.16542" lon="5.80794">
        <ele>349</ele>
        <time>2017-10-15T11:54:33Z</time>
      </trkpt>
      <trkpt lat="45.16534" lon="5.80799">
        <ele>347</ele>
        <time>2017-10-15T11:54:35Z</time>
      </trkpt>
      <trkpt lat="45.16528" lon="5.80805">
        <ele>345</ele>
        <time>2017-10-15T11:54:36Z</time>
      </trkpt>
      <trkpt lat="45.1653" lon="5.80814">
        <ele>346</ele>
        <time>2017-10-15T11:54:37Z</time>
      </trkpt>
      <trkpt lat="45.16529" lon="5.80824">
        <ele>346</ele>
        <time>2017-10-15T11:54:38Z</time>
      </trkpt>
      <trkpt lat="45.16532" lon="5.80832">
        <ele>347</ele>
        <time>2017-10-15T11:54:39Z</time>
      </trkpt>
      <trkpt lat="45.16527" lon="5.80842">
        <ele>346</ele>
        <time>2017-10-15T11:54:41Z</time>
      </trkpt>
      <trkpt lat="45.16523" lon="5.80846">
        <ele>344</ele>
        <time>2017-10-15T11:54:42Z</time>
      </trkpt>
      <trkpt lat="45.1652" lon="5.80852">
        <ele>344</ele>
        <time>2017-10-15T11:54:43Z</time>
      </trkpt>
      <trkpt lat="45.16515" lon="5.80855">
        <ele>342</ele>
        <time>2017-10-15T11:54:44Z</time>
      </trkpt>
      <trkpt lat="45.16513" lon="5.80861">
        <ele>342</ele>
        <time>2017-10-15T11:54:46Z</time>
      </trkpt>
      <trkpt lat="45.16517" lon="5.80867">
        <ele>343</ele>
        <time>2017-10-15T11:54:48Z</time>
      </trkpt>
      <trkpt lat="45.16522" lon="5.80865">
        <ele>345</ele>
        <time>2017-10-15T11:54:49Z</time>
      </trkpt>
      <trkpt lat="45.16522" lon="5.80874">
        <ele>346</ele>
        <time>2017-10-15T11:54:51Z</time>
      </trkpt>
      <trkpt lat="45.16519" lon="5.80881">
        <ele>345</ele>
        <time>2017-10-15T11:54:54Z</time>
      </trkpt>
      <trkpt lat="45.16514" lon="5.80884">
        <ele>344</ele>
        <time>2017-10-15T11:54:57Z</time>
      </trkpt>
      <trkpt lat="45.1651" lon="5.8089">
        <ele>342</ele>
        <time>2017-10-15T11:54:59Z</time>
      </trkpt>
      <trkpt lat="45.16507" lon="5.80906">
        <ele>342</ele>
        <time>2017-10-15T11:55:01Z</time>
      </trkpt>
      <trkpt lat="45.16506" lon="5.80923">
        <ele>343</ele>
        <time>2017-10-15T11:55:03Z</time>
      </trkpt>
      <trkpt lat="45.16504" lon="5.80937">
        <ele>344</ele>
        <time>2017-10-15T11:55:05Z</time>
      </trkpt>
      <trkpt lat="45.16501" lon="5.80949">
        <ele>344</ele>
        <time>2017-10-15T11:55:07Z</time>
      </trkpt>
      <trkpt lat="45.16501" lon="5.80957">
        <ele>344</ele>
        <time>2017-10-15T11:55:08Z</time>
      </trkpt>
      <trkpt lat="45.16498" lon="5.80965">
        <ele>344</ele>
        <time>2017-10-15T11:55:10Z</time>
      </trkpt>
      <trkpt lat="45.16496" lon="5.80972">
        <ele>344</ele>
        <time>2017-10-15T11:55:11Z</time>
      </trkpt>
      <trkpt lat="45.16496" lon="5.80979">
        <ele>344</ele>
        <time>2017-10-15T11:55:12Z</time>
      </trkpt>
      <trkpt lat="45.16496" lon="5.80991">
        <ele>346</ele>
        <time>2017-10-15T11:55:14Z</time>
      </trkpt>
      <trkpt lat="45.16498" lon="5.80997">
        <ele>347</ele>
        <time>2017-10-15T11:55:16Z</time>
      </trkpt>
      <trkpt lat="45.16502" lon="5.81004">
        <ele>350</ele>
        <time>2017-10-15T11:55:18Z</time>
      </trkpt>
      <trkpt lat="45.16503" lon="5.81011">
        <ele>351</ele>
        <time>2017-10-15T11:55:20Z</time>
      </trkpt>
      <trkpt lat="45.16504" lon="5.81019">
        <ele>353</ele>
        <time>2017-10-15T11:55:23Z</time>
      </trkpt>
      <trkpt lat="45.16497" lon="5.81017">
        <ele>349</ele>
        <time>2017-10-15T11:55:26Z</time>
      </trkpt>
      <trkpt lat="45.16492" lon="5.81012">
        <ele>346</ele>
        <time>2017-10-15T11:55:28Z</time>
      </trkpt>
      <trkpt lat="45.16486" lon="5.8101">
        <ele>343</ele>
        <time>2017-10-15T11:55:30Z</time>
      </trkpt>
      <trkpt lat="45.16478" lon="5.81013">
        <ele>340</ele>
        <time>2017-10-15T11:55:32Z</time>
      </trkpt>
      <trkpt lat="45.16474" lon="5.81017">
        <ele>341</ele>
        <time>2017-10-15T11:55:33Z</time>
      </trkpt>
      <trkpt lat="45.1647" lon="5.81022">
        <ele>341</ele>
        <time>2017-10-15T11:55:34Z</time>
      </trkpt>
      <trkpt lat="45.16464" lon="5.8103">
        <ele>341</ele>
        <time>2017-10-15T11:55:36Z</time>
      </trkpt>
      <trkpt lat="45.16459" lon="5.81039">
        <ele>342</ele>
        <time>2017-10-15T11:55:38Z</time>
      </trkpt>
      <trkpt lat="45.16456" lon="5.81047">
        <ele>342</ele>
        <time>2017-10-15T11:55:40Z</time>
      </trkpt>
      <trkpt lat="45.16453" lon="5.81055">
        <ele>342</ele>
        <time>2017-10-15T11:55:42Z</time>
      </trkpt>
      <trkpt lat="45.1645" lon="5.81063">
        <ele>342</ele>
        <time>2017-10-15T11:55:44Z</time>
      </trkpt>
      <trkpt lat="45.16447" lon="5.81071">
        <ele>342</ele>
        <time>2017-10-15T11:55:46Z</time>
      </trkpt>
      <trkpt lat="45.16445" lon="5.81079">
        <ele>342</ele>
        <time>2017-10-15T11:55:48Z</time>
      </trkpt>
      <trkpt lat="45.16441" lon="5.81086">
        <ele>342</ele>
        <time>2017-10-15T11:55:50Z</time>
      </trkpt>
      <trkpt lat="45.16439" lon="5.81093">
        <ele>341</ele>
        <time>2017-10-15T11:55:52Z</time>
      </trkpt>
      <trkpt lat="45.16437" lon="5.81099">
        <ele>341</ele>
        <time>2017-10-15T11:55:54Z</time>
      </trkpt>
      <trkpt lat="45.16435" lon="5.81106">
        <ele>341</ele>
        <time>2017-10-15T11:55:57Z</time>
      </trkpt>
      <trkpt lat="45.16433" lon="5.81114">
        <ele>341</ele>
        <time>2017-10-15T11:55:59Z</time>
      </trkpt>
      <trkpt lat="45.1643" lon="5.81123">
        <ele>341</ele>
        <time>2017-10-15T11:56:01Z</time>
      </trkpt>
      <trkpt lat="45.16429" lon="5.8113">
        <ele>341</ele>
        <time>2017-10-15T11:56:03Z</time>
      </trkpt>
      <trkpt lat="45.16428" lon="5.81139">
        <ele>341</ele>
        <time>2017-10-15T11:56:06Z</time>
      </trkpt>
      <trkpt lat="45.16427" lon="5.81146">
        <ele>341</ele>
        <time>2017-10-15T11:56:09Z</time>
      </trkpt>
      <trkpt lat="45.16424" lon="5.81152">
        <ele>341</ele>
        <time>2017-10-15T11:56:11Z</time>
      </trkpt>
      <trkpt lat="45.16421" lon="5.8116">
        <ele>341</ele>
        <time>2017-10-15T11:56:13Z</time>
      </trkpt>
      <trkpt lat="45.16418" lon="5.81169">
        <ele>340</ele>
        <time>2017-10-15T11:56:15Z</time>
      </trkpt>
      <trkpt lat="45.16414" lon="5.81181">
        <ele>339</ele>
        <time>2017-10-15T11:56:17Z</time>
      </trkpt>
      <trkpt lat="45.16411" lon="5.81187">
        <ele>339</ele>
        <time>2017-10-15T11:56:18Z</time>
      </trkpt>
      <trkpt lat="45.16407" lon="5.81197">
        <ele>340</ele>
        <time>2017-10-15T11:56:20Z</time>
      </trkpt>
      <trkpt lat="45.16403" lon="5.81208">
        <ele>342</ele>
        <time>2017-10-15T11:56:22Z</time>
      </trkpt>
      <trkpt lat="45.16399" lon="5.81216">
        <ele>343</ele>
        <time>2017-10-15T11:56:24Z</time>
      </trkpt>
      <trkpt lat="45.16392" lon="5.81224">
        <ele>344</ele>
        <time>2017-10-15T11:56:26Z</time>
      </trkpt>
      <trkpt lat="45.16386" lon="5.81232">
        <ele>345</ele>
        <time>2017-10-15T11:56:28Z</time>
      </trkpt>
      <trkpt lat="45.16382" lon="5.81238">
        <ele>346</ele>
        <time>2017-10-15T11:56:30Z</time>
      </trkpt>
      <trkpt lat="45.16378" lon="5.81243">
        <ele>346</ele>
        <time>2017-10-15T11:56:40Z</time>
      </trkpt>
      <trkpt lat="45.16379" lon="5.81251">
        <ele>346</ele>
        <time>2017-10-15T11:56:43Z</time>
      </trkpt>
      <trkpt lat="45.16379" lon="5.8126">
        <ele>346</ele>
        <time>2017-10-15T11:56:46Z</time>
      </trkpt>
      <trkpt lat="45.16377" lon="5.81268">
        <ele>346</ele>
        <time>2017-10-15T11:56:49Z</time>
      </trkpt>
      <trkpt lat="45.16375" lon="5.81274">
        <ele>346</ele>
        <time>2017-10-15T11:56:51Z</time>
      </trkpt>
      <trkpt lat="45.16373" lon="5.81282">
        <ele>346</ele>
        <time>2017-10-15T11:56:54Z</time>
      </trkpt>
      <trkpt lat="45.16373" lon="5.8129">
        <ele>346</ele>
        <time>2017-10-15T11:56:57Z</time>
      </trkpt>
      <trkpt lat="45.16377" lon="5.81299">
        <ele>346</ele>
        <time>2017-10-15T11:58:54Z</time>
      </trkpt>
      <trkpt lat="45.1638" lon="5.81304">
        <ele>347</ele>
        <time>2017-10-15T11:58:57Z</time>
      </trkpt>
      <trkpt lat="45.16384" lon="5.81311">
        <ele>347</ele>
        <time>2017-10-15T11:59:00Z</time>
      </trkpt>
      <trkpt lat="45.16388" lon="5.81316">
        <ele>348</ele>
        <time>2017-10-15T11:59:03Z</time>
      </trkpt>
      <trkpt lat="45.16392" lon="5.81321">
        <ele>349</ele>
        <time>2017-10-15T11:59:06Z</time>
      </trkpt>
      <trkpt lat="45.16396" lon="5.81325">
        <ele>350</ele>
        <time>2017-10-15T11:59:09Z</time>
      </trkpt>
      <trkpt lat="45.16401" lon="5.81328">
        <ele>351</ele>
        <time>2017-10-15T11:59:12Z</time>
      </trkpt>
      <trkpt lat="45.16404" lon="5.81332">
        <ele>352</ele>
        <time>2017-10-15T11:59:15Z</time>
      </trkpt>
      <trkpt lat="45.16408" lon="5.81337">
        <ele>354</ele>
        <time>2017-10-15T11:59:18Z</time>
      </trkpt>
      <trkpt lat="45.1641" lon="5.81343">
        <ele>355</ele>
        <time>2017-10-15T11:59:21Z</time>
      </trkpt>
      <trkpt lat="45.16411" lon="5.8135">
        <ele>357</ele>
        <time>2017-10-15T11:59:24Z</time>
      </trkpt>
      <trkpt lat="45.16409" lon="5.81357">
        <ele>358</ele>
        <time>2017-10-15T11:59:28Z</time>
      </trkpt>
      <trkpt lat="45.16404" lon="5.81361">
        <ele>358</ele>
        <time>2017-10-15T11:59:31Z</time>
      </trkpt>
      <trkpt lat="45.16398" lon="5.81361">
        <ele>357</ele>
        <time>2017-10-15T11:59:34Z</time>
      </trkpt>
      <trkpt lat="45.16393" lon="5.81363">
        <ele>357</ele>
        <time>2017-10-15T11:59:37Z</time>
      </trkpt>
      <trkpt lat="45.16388" lon="5.81366">
        <ele>356</ele>
        <time>2017-10-15T11:59:40Z</time>
      </trkpt>
      <trkpt lat="45.16383" lon="5.81365">
        <ele>355</ele>
        <time>2017-10-15T11:59:44Z</time>
      </trkpt>
      <trkpt lat="45.16378" lon="5.81367">
        <ele>354</ele>
        <time>2017-10-15T11:59:49Z</time>
      </trkpt>
      <trkpt lat="45.16373" lon="5.8137">
        <ele>354</ele>
        <time>2017-10-15T11:59:52Z</time>
      </trkpt>
      <trkpt lat="45.16369" lon="5.81377">
        <ele>354</ele>
        <time>2017-10-15T11:59:55Z</time>
      </trkpt>
      <trkpt lat="45.16366" lon="5.81382">
        <ele>354</ele>
        <time>2017-10-15T11:59:58Z</time>
      </trkpt>
      <trkpt lat="45.16362" lon="5.81387">
        <ele>354</ele>
        <time>2017-10-15T12:00:01Z</time>
      </trkpt>
      <trkpt lat="45.16359" lon="5.81393">
        <ele>355</ele>
        <time>2017-10-15T12:00:04Z</time>
      </trkpt>
      <trkpt lat="45.16356" lon="5.81399">
        <ele>355</ele>
        <time>2017-10-15T12:00:07Z</time>
      </trkpt>
      <trkpt lat="45.16353" lon="5.81404">
        <ele>355</ele>
        <time>2017-10-15T12:00:10Z</time>
      </trkpt>
      <trkpt lat="45.1635" lon="5.81409">
        <ele>355</ele>
        <time>2017-10-15T12:00:13Z</time>
      </trkpt>
      <trkpt lat="45.16346" lon="5.81414">
        <ele>355</ele>
        <time>2017-10-15T12:00:16Z</time>
      </trkpt>
      <trkpt lat="45.16343" lon="5.8142">
        <ele>355</ele>
        <time>2017-10-15T12:00:19Z</time>
      </trkpt>
      <trkpt lat="45.16341" lon="5.81426">
        <ele>356</ele>
        <time>2017-10-15T12:00:22Z</time>
      </trkpt>
      <trkpt lat="45.16338" lon="5.81432">
        <ele>357</ele>
        <time>2017-10-15T12:00:25Z</time>
      </trkpt>
      <trkpt lat="45.16335" lon="5.81437">
        <ele>358</ele>
        <time>2017-10-15T12:00:29Z</time>
      </trkpt>
      <trkpt lat="45.16332" lon="5.81444">
        <ele>359</ele>
        <time>2017-10-15T12:00:32Z</time>
      </trkpt>
      <trkpt lat="45.16329" lon="5.81451">
        <ele>359</ele>
        <time>2017-10-15T12:00:35Z</time>
      </trkpt>
      <trkpt lat="45.16326" lon="5.81457">
        <ele>361</ele>
        <time>2017-10-15T12:00:38Z</time>
      </trkpt>
      <trkpt lat="45.16323" lon="5.81463">
        <ele>362</ele>
        <time>2017-10-15T12:00:41Z</time>
      </trkpt>
      <trkpt lat="45.1632" lon="5.81469">
        <ele>363</ele>
        <time>2017-10-15T12:00:44Z</time>
      </trkpt>
      <trkpt lat="45.16317" lon="5.81475">
        <ele>364</ele>
        <time>2017-10-15T12:00:47Z</time>
      </trkpt>
      <trkpt lat="45.16313" lon="5.81479">
        <ele>364</ele>
        <time>2017-10-15T12:00:50Z</time>
      </trkpt>
      <trkpt lat="45.16305" lon="5.81488">
        <ele>364</ele>
        <time>2017-10-15T12:00:57Z</time>
      </trkpt>
      <trkpt lat="45.16301" lon="5.81493">
        <ele>364</ele>
        <time>2017-10-15T12:01:01Z</time>
      </trkpt>
      <trkpt lat="45.16297" lon="5.81498">
        <ele>364</ele>
        <time>2017-10-15T12:01:04Z</time>
      </trkpt>
      <trkpt lat="45.16291" lon="5.8151">
        <ele>365</ele>
        <time>2017-10-15T12:01:11Z</time>
      </trkpt>
      <trkpt lat="45.16289" lon="5.81515">
        <ele>365</ele>
        <time>2017-10-15T12:01:14Z</time>
      </trkpt>
      <trkpt lat="45.16286" lon="5.81521">
        <ele>365</ele>
        <time>2017-10-15T12:01:17Z</time>
      </trkpt>
      <trkpt lat="45.16283" lon="5.81526">
        <ele>365</ele>
        <time>2017-10-15T12:01:20Z</time>
      </trkpt>
      <trkpt lat="45.16281" lon="5.81534">
        <ele>365</ele>
        <time>2017-10-15T12:01:23Z</time>
      </trkpt>
      <trkpt lat="45.16279" lon="5.81542">
        <ele>366</ele>
        <time>2017-10-15T12:01:26Z</time>
      </trkpt>
      <trkpt lat="45.16278" lon="5.81549">
        <ele>366</ele>
        <time>2017-10-15T12:01:29Z</time>
      </trkpt>
      <trkpt lat="45.16278" lon="5.81557">
        <ele>367</ele>
        <time>2017-10-15T12:01:32Z</time>
      </trkpt>
      <trkpt lat="45.16274" lon="5.81563">
        <ele>367</ele>
        <time>2017-10-15T12:01:35Z</time>
      </trkpt>
      <trkpt lat="45.16271" lon="5.81568">
        <ele>367</ele>
        <time>2017-10-15T12:01:38Z</time>
      </trkpt>
      <trkpt lat="45.16268" lon="5.81574">
        <ele>367</ele>
        <time>2017-10-15T12:01:41Z</time>
      </trkpt>
      <trkpt lat="45.16265" lon="5.81581">
        <ele>368</ele>
        <time>2017-10-15T12:01:45Z</time>
      </trkpt>
      <trkpt lat="45.16263" lon="5.81587">
        <ele>368</ele>
        <time>2017-10-15T12:01:48Z</time>
      </trkpt>
      <trkpt lat="45.16262" lon="5.81596">
        <ele>369</ele>
        <time>2017-10-15T12:01:52Z</time>
      </trkpt>
      <trkpt lat="45.16261" lon="5.81603">
        <ele>370</ele>
        <time>2017-10-15T12:01:55Z</time>
      </trkpt>
      <trkpt lat="45.1626" lon="5.8161">
        <ele>370</ele>
        <time>2017-10-15T12:01:58Z</time>
      </trkpt>
      <trkpt lat="45.16258" lon="5.81616">
        <ele>371</ele>
        <time>2017-10-15T12:02:01Z</time>
      </trkpt>
      <trkpt lat="45.16256" lon="5.81622">
        <ele>371</ele>
        <time>2017-10-15T12:02:04Z</time>
      </trkpt>
      <trkpt lat="45.16253" lon="5.81628">
        <ele>371</ele>
        <time>2017-10-15T12:02:07Z</time>
      </trkpt>
      <trkpt lat="45.16252" lon="5.81635">
        <ele>372</ele>
        <time>2017-10-15T12:02:11Z</time>
      </trkpt>
      <trkpt lat="45.1625" lon="5.81643">
        <ele>373</ele>
        <time>2017-10-15T12:02:15Z</time>
      </trkpt>
      <trkpt lat="45.16249" lon="5.8165">
        <ele>373</ele>
        <time>2017-10-15T12:02:18Z</time>
      </trkpt>
      <trkpt lat="45.1625" lon="5.81656">
        <ele>374</ele>
        <time>2017-10-15T12:02:21Z</time>
      </trkpt>
      <trkpt lat="45.16246" lon="5.81669">
        <ele>375</ele>
        <time>2017-10-15T12:02:28Z</time>
      </trkpt>
      <trkpt lat="45.16243" lon="5.81675">
        <ele>375</ele>
        <time>2017-10-15T12:02:32Z</time>
      </trkpt>
      <trkpt lat="45.16242" lon="5.81683">
        <ele>376</ele>
        <time>2017-10-15T12:02:36Z</time>
      </trkpt>
      <trkpt lat="45.1624" lon="5.8169">
        <ele>376</ele>
        <time>2017-10-15T12:02:40Z</time>
      </trkpt>
      <trkpt lat="45.16238" lon="5.81696">
        <ele>376</ele>
        <time>2017-10-15T12:02:43Z</time>
      </trkpt>
      <trkpt lat="45.16235" lon="5.81702">
        <ele>376</ele>
        <time>2017-10-15T12:02:46Z</time>
      </trkpt>
      <trkpt lat="45.16233" lon="5.81709">
        <ele>377</ele>
        <time>2017-10-15T12:02:49Z</time>
      </trkpt>
      <trkpt lat="45.16232" lon="5.81715">
        <ele>377</ele>
        <time>2017-10-15T12:02:52Z</time>
      </trkpt>
      <trkpt lat="45.16232" lon="5.81724">
        <ele>378</ele>
        <time>2017-10-15T12:02:56Z</time>
      </trkpt>
      <trkpt lat="45.16232" lon="5.81731">
        <ele>379</ele>
        <time>2017-10-15T12:03:00Z</time>
      </trkpt>
      <trkpt lat="45.16232" lon="5.81738">
        <ele>380</ele>
        <time>2017-10-15T12:03:03Z</time>
      </trkpt>
      <trkpt lat="45.16233" lon="5.81744">
        <ele>382</ele>
        <time>2017-10-15T12:03:06Z</time>
      </trkpt>
      <trkpt lat="45.16232" lon="5.81752">
        <ele>382</ele>
        <time>2017-10-15T12:03:10Z</time>
      </trkpt>
      <trkpt lat="45.16229" lon="5.8176">
        <ele>383</ele>
        <time>2017-10-15T12:03:14Z</time>
      </trkpt>
      <trkpt lat="45.16225" lon="5.81766">
        <ele>382</ele>
        <time>2017-10-15T12:03:18Z</time>
      </trkpt>
      <trkpt lat="45.16222" lon="5.81773">
        <ele>382</ele>
        <time>2017-10-15T12:03:23Z</time>
      </trkpt>
      <trkpt lat="45.16219" lon="5.81778">
        <ele>382</ele>
        <time>2017-10-15T12:03:48Z</time>
      </trkpt>
      <trkpt lat="45.16216" lon="5.81785">
        <ele>381</ele>
        <time>2017-10-15T12:04:40Z</time>
      </trkpt>
      <trkpt lat="45.16211" lon="5.81798">
        <ele>381</ele>
        <time>2017-10-15T12:04:42Z</time>
      </trkpt>
      <trkpt lat="45.16205" lon="5.81813">
        <ele>381</ele>
        <time>2017-10-15T12:04:43Z</time>
      </trkpt>
      <trkpt lat="45.16202" lon="5.8182">
        <ele>382</ele>
        <time>2017-10-15T12:04:44Z</time>
      </trkpt>
      <trkpt lat="45.162" lon="5.81827">
        <ele>382</ele>
        <time>2017-10-15T12:04:45Z</time>
      </trkpt>
      <trkpt lat="45.16198" lon="5.81834">
        <ele>383</ele>
        <time>2017-10-15T12:04:46Z</time>
      </trkpt>
      <trkpt lat="45.16193" lon="5.81839">
        <ele>383</ele>
        <time>2017-10-15T12:04:47Z</time>
      </trkpt>
      <trkpt lat="45.16188" lon="5.81842">
        <ele>382</ele>
        <time>2017-10-15T12:04:48Z</time>
      </trkpt>
      <trkpt lat="45.16184" lon="5.81844">
        <ele>381</ele>
        <time>2017-10-15T12:04:49Z</time>
      </trkpt>
      <trkpt lat="45.16176" lon="5.81845">
        <ele>380</ele>
        <time>2017-10-15T12:04:50Z</time>
      </trkpt>
      <trkpt lat="45.16171" lon="5.81847">
        <ele>379</ele>
        <time>2017-10-15T12:04:51Z</time>
      </trkpt>
      <trkpt lat="45.16163" lon="5.8185">
        <ele>378</ele>
        <time>2017-10-15T12:04:52Z</time>
      </trkpt>
      <trkpt lat="45.16158" lon="5.81856">
        <ele>378</ele>
        <time>2017-10-15T12:04:53Z</time>
      </trkpt>
      <trkpt lat="45.16153" lon="5.81855">
        <ele>377</ele>
        <time>2017-10-15T12:04:54Z</time>
      </trkpt>
      <trkpt lat="45.16145" lon="5.81857">
        <ele>376</ele>
        <time>2017-10-15T12:04:56Z</time>
      </trkpt>
      <trkpt lat="45.1614" lon="5.81865">
        <ele>376</ele>
        <time>2017-10-15T12:04:57Z</time>
      </trkpt>
      <trkpt lat="45.16137" lon="5.81871">
        <ele>376</ele>
        <time>2017-10-15T12:04:58Z</time>
      </trkpt>
      <trkpt lat="45.16131" lon="5.81882">
        <ele>377</ele>
        <time>2017-10-15T12:05:00Z</time>
      </trkpt>
      <trkpt lat="45.16126" lon="5.8189">
        <ele>378</ele>
        <time>2017-10-15T12:05:02Z</time>
      </trkpt>
      <trkpt lat="45.16122" lon="5.81897">
        <ele>379</ele>
        <time>2017-10-15T12:05:04Z</time>
      </trkpt>
      <trkpt lat="45.16127" lon="5.81905">
        <ele>380</ele>
        <time>2017-10-15T12:05:07Z</time>
      </trkpt>
      <trkpt lat="45.16132" lon="5.81906">
        <ele>381</ele>
        <time>2017-10-15T12:05:10Z</time>
      </trkpt>
      <trkpt lat="45.16136" lon="5.81911">
        <ele>382</ele>
        <time>2017-10-15T12:05:13Z</time>
      </trkpt>
      <trkpt lat="45.16132" lon="5.81916">
        <ele>383</ele>
        <time>2017-10-15T12:05:21Z</time>
      </trkpt>
      <trkpt lat="45.16128" lon="5.81922">
        <ele>383</ele>
        <time>2017-10-15T12:05:39Z</time>
      </trkpt>
      <trkpt lat="45.16119" lon="5.8192">
        <ele>382</ele>
        <time>2017-10-15T12:06:53Z</time>
      </trkpt>
      <trkpt lat="45.16113" lon="5.81916">
        <ele>381</ele>
        <time>2017-10-15T12:06:55Z</time>
      </trkpt>
      <trkpt lat="45.16106" lon="5.81911">
        <ele>380</ele>
        <time>2017-10-15T12:06:57Z</time>
      </trkpt>
      <trkpt lat="45.16102" lon="5.81909">
        <ele>379</ele>
        <time>2017-10-15T12:06:59Z</time>
      </trkpt>
      <trkpt lat="45.16098" lon="5.81904">
        <ele>378</ele>
        <time>2017-10-15T12:07:02Z</time>
      </trkpt>
      <trkpt lat="45.16096" lon="5.81898">
        <ele>377</ele>
        <time>2017-10-15T12:07:05Z</time>
      </trkpt>
      <trkpt lat="45.16092" lon="5.81893">
        <ele>376</ele>
        <time>2017-10-15T12:07:08Z</time>
      </trkpt>
      <trkpt lat="45.16091" lon="5.81899">
        <ele>377</ele>
        <time>2017-10-15T12:07:19Z</time>
      </trkpt>
      <trkpt lat="45.1609" lon="5.81906">
        <ele>378</ele>
        <time>2017-10-15T12:07:23Z</time>
      </trkpt>
      <trkpt lat="45.16087" lon="5.81911">
        <ele>378</ele>
        <time>2017-10-15T12:07:27Z</time>
      </trkpt>
      <trkpt lat="45.16084" lon="5.81916">
        <ele>378</ele>
        <time>2017-10-15T12:07:31Z</time>
      </trkpt>
      <trkpt lat="45.16082" lon="5.81922">
        <ele>379</ele>
        <time>2017-10-15T12:07:34Z</time>
      </trkpt>
      <trkpt lat="45.16081" lon="5.81929">
        <ele>380</ele>
        <time>2017-10-15T12:07:39Z</time>
      </trkpt>
      <trkpt lat="45.16078" lon="5.81934">
        <ele>380</ele>
        <time>2017-10-15T12:07:46Z</time>
      </trkpt>
      <trkpt lat="45.16077" lon="5.81942">
        <ele>381</ele>
        <time>2017-10-15T12:07:50Z</time>
      </trkpt>
      <trkpt lat="45.16075" lon="5.81949">
        <ele>383</ele>
        <time>2017-10-15T12:07:54Z</time>
      </trkpt>
      <trkpt lat="45.16073" lon="5.81957">
        <ele>384</ele>
        <time>2017-10-15T12:08:16Z</time>
      </trkpt>
      <trkpt lat="45.16068" lon="5.81958">
        <ele>383</ele>
        <time>2017-10-15T12:08:22Z</time>
      </trkpt>
      <trkpt lat="45.16063" lon="5.81962">
        <ele>384</ele>
        <time>2017-10-15T12:08:26Z</time>
      </trkpt>
      <trkpt lat="45.1606" lon="5.81967">
        <ele>385</ele>
        <time>2017-10-15T12:08:29Z</time>
      </trkpt>
      <trkpt lat="45.16057" lon="5.81974">
        <ele>387</ele>
        <time>2017-10-15T12:08:33Z</time>
      </trkpt>
      <trkpt lat="45.16053" lon="5.81981">
        <ele>388</ele>
        <time>2017-10-15T12:08:37Z</time>
      </trkpt>
      <trkpt lat="45.16051" lon="5.81988">
        <ele>389</ele>
        <time>2017-10-15T12:08:41Z</time>
      </trkpt>
      <trkpt lat="45.16048" lon="5.81996">
        <ele>391</ele>
        <time>2017-10-15T12:08:45Z</time>
      </trkpt>
      <trkpt lat="45.16046" lon="5.82003">
        <ele>393</ele>
        <time>2017-10-15T12:08:49Z</time>
      </trkpt>
      <trkpt lat="45.16043" lon="5.82009">
        <ele>395</ele>
        <time>2017-10-15T12:08:53Z</time>
      </trkpt>
      <trkpt lat="45.16039" lon="5.82014">
        <ele>397</ele>
        <time>2017-10-15T12:08:57Z</time>
      </trkpt>
      <trkpt lat="45.16034" lon="5.82019">
        <ele>399</ele>
        <time>2017-10-15T12:09:02Z</time>
      </trkpt>
      <trkpt lat="45.16031" lon="5.82025">
        <ele>401</ele>
        <time>2017-10-15T12:09:09Z</time>
      </trkpt>
      <trkpt lat="45.16028" lon="5.82031">
        <ele>403</ele>
        <time>2017-10-15T12:09:13Z</time>
      </trkpt>
      <trkpt lat="45.16024" lon="5.82035">
        <ele>404</ele>
        <time>2017-10-15T12:09:17Z</time>
      </trkpt>
      <trkpt lat="45.16021" lon="5.82047">
        <ele>409</ele>
        <time>2017-10-15T12:09:27Z</time>
      </trkpt>
      <trkpt lat="45.16016" lon="5.82048">
        <ele>409</ele>
        <time>2017-10-15T12:09:33Z</time>
      </trkpt>
      <trkpt lat="45.16011" lon="5.82051">
        <ele>410</ele>
        <time>2017-10-15T12:09:40Z</time>
      </trkpt>
      <trkpt lat="45.16006" lon="5.8205">
        <ele>410</ele>
        <time>2017-10-15T12:09:47Z</time>
      </trkpt>
      <trkpt lat="45.16001" lon="5.82048">
        <ele>410</ele>
        <time>2017-10-15T12:09:53Z</time>
      </trkpt>
      <trkpt lat="45.16002" lon="5.82041">
        <ele>407</ele>
        <time>2017-10-15T12:10:00Z</time>
      </trkpt>
      <trkpt lat="45.15999" lon="5.82036">
        <ele>405</ele>
        <time>2017-10-15T12:10:05Z</time>
      </trkpt>
      <trkpt lat="45.15989" lon="5.82032">
        <ele>402</ele>
        <time>2017-10-15T12:10:13Z</time>
      </trkpt>
      <trkpt lat="45.15984" lon="5.82032">
        <ele>401</ele>
        <time>2017-10-15T12:10:17Z</time>
      </trkpt>
      <trkpt lat="45.15979" lon="5.82029">
        <ele>399</ele>
        <time>2017-10-15T12:10:21Z</time>
      </trkpt>
      <trkpt lat="45.15975" lon="5.82026">
        <ele>397</ele>
        <time>2017-10-15T12:10:25Z</time>
      </trkpt>
      <trkpt lat="45.1597" lon="5.82025">
        <ele>395</ele>
        <time>2017-10-15T12:10:29Z</time>
      </trkpt>
      <trkpt lat="45.15965" lon="5.82024">
        <ele>394</ele>
        <time>2017-10-15T12:10:34Z</time>
      </trkpt>
      <trkpt lat="45.1596" lon="5.82025">
        <ele>393</ele>
        <time>2017-10-15T12:10:39Z</time>
      </trkpt>
      <trkpt lat="45.15955" lon="5.82031">
        <ele>394</ele>
        <time>2017-10-15T12:10:44Z</time>
      </trkpt>
      <trkpt lat="45.15955" lon="5.82038">
        <ele>396</ele>
        <time>2017-10-15T12:10:48Z</time>
      </trkpt>
      <trkpt lat="45.1596" lon="5.82039">
        <ele>397</ele>
        <time>2017-10-15T12:10:54Z</time>
      </trkpt>
      <trkpt lat="45.15965" lon="5.82042">
        <ele>399</ele>
        <time>2017-10-15T12:10:59Z</time>
      </trkpt>
      <trkpt lat="45.15969" lon="5.82045">
        <ele>401</ele>
        <time>2017-10-15T12:11:03Z</time>
      </trkpt>
      <trkpt lat="45.15972" lon="5.82051">
        <ele>404</ele>
        <time>2017-10-15T12:11:08Z</time>
      </trkpt>
      <trkpt lat="45.15968" lon="5.82053">
        <ele>404</ele>
        <time>2017-10-15T12:11:35Z</time>
      </trkpt>
      <trkpt lat="45.15964" lon="5.82058">
        <ele>404</ele>
        <time>2017-10-15T12:11:42Z</time>
      </trkpt>
      <trkpt lat="45.15961" lon="5.82064">
        <ele>405</ele>
        <time>2017-10-15T12:11:47Z</time>
      </trkpt>
      <trkpt lat="45.15958" lon="5.82071">
        <ele>406</ele>
        <time>2017-10-15T12:11:51Z</time>
      </trkpt>
      <trkpt lat="45.15955" lon="5.82076">
        <ele>406</ele>
        <time>2017-10-15T12:11:55Z</time>
      </trkpt>
      <trkpt lat="45.15951" lon="5.8208">
        <ele>406</ele>
        <time>2017-10-15T12:11:59Z</time>
      </trkpt>
      <trkpt lat="45.15947" lon="5.82084">
        <ele>406</ele>
        <time>2017-10-15T12:12:42Z</time>
      </trkpt>
      <trkpt lat="45.15946" lon="5.82091">
        <ele>408</ele>
        <time>2017-10-15T12:12:45Z</time>
      </trkpt>
      <trkpt lat="45.15945" lon="5.82097">
        <ele>409</ele>
        <time>2017-10-15T12:12:48Z</time>
      </trkpt>
      <trkpt lat="45.15943" lon="5.82105">
        <ele>410</ele>
        <time>2017-10-15T12:12:52Z</time>
      </trkpt>
      <trkpt lat="45.15941" lon="5.82112">
        <ele>411</ele>
        <time>2017-10-15T12:12:56Z</time>
      </trkpt>
      <trkpt lat="45.15939" lon="5.82118">
        <ele>412</ele>
        <time>2017-10-15T12:13:04Z</time>
      </trkpt>
      <trkpt lat="45.15936" lon="5.82125">
        <ele>413</ele>
        <time>2017-10-15T12:13:10Z</time>
      </trkpt>
      <trkpt lat="45.15937" lon="5.82132">
        <ele>415</ele>
        <time>2017-10-15T12:13:15Z</time>
      </trkpt>
      <trkpt lat="45.15936" lon="5.82139">
        <ele>416</ele>
        <time>2017-10-15T12:13:31Z</time>
      </trkpt>
      <trkpt lat="45.15934" lon="5.82146">
        <ele>417</ele>
        <time>2017-10-15T12:13:38Z</time>
      </trkpt>
      <trkpt lat="45.15936" lon="5.82152">
        <ele>419</ele>
        <time>2017-10-15T12:13:46Z</time>
      </trkpt>
      <trkpt lat="45.15937" lon="5.82158">
        <ele>420</ele>
        <time>2017-10-15T12:13:53Z</time>
      </trkpt>
      <trkpt lat="45.15942" lon="5.8216">
        <ele>422</ele>
        <time>2017-10-15T12:14:05Z</time>
      </trkpt>
      <trkpt lat="45.15946" lon="5.82164">
        <ele>424</ele>
        <time>2017-10-15T12:14:13Z</time>
      </trkpt>
      <trkpt lat="45.15945" lon="5.82171">
        <ele>425</ele>
        <time>2017-10-15T12:14:23Z</time>
      </trkpt>
      <trkpt lat="45.15943" lon="5.82178">
        <ele>426</ele>
        <time>2017-10-15T12:14:35Z</time>
      </trkpt>
      <trkpt lat="45.15938" lon="5.82181">
        <ele>425</ele>
        <time>2017-10-15T12:14:58Z</time>
      </trkpt>
      <trkpt lat="45.15933" lon="5.82183">
        <ele>424</ele>
        <time>2017-10-15T12:15:00Z</time>
      </trkpt>
      <trkpt lat="45.15928" lon="5.82184">
        <ele>422</ele>
        <time>2017-10-15T12:15:02Z</time>
      </trkpt>
      <trkpt lat="45.1592" lon="5.82189">
        <ele>420</ele>
        <time>2017-10-15T12:15:05Z</time>
      </trkpt>
      <trkpt lat="45.15915" lon="5.8219">
        <ele>418</ele>
        <time>2017-10-15T12:15:07Z</time>
      </trkpt>
      <trkpt lat="45.15908" lon="5.82189">
        <ele>415</ele>
        <time>2017-10-15T12:15:09Z</time>
      </trkpt>
      <trkpt lat="45.15899" lon="5.82188">
        <ele>412</ele>
        <time>2017-10-15T12:15:11Z</time>
      </trkpt>
      <trkpt lat="45.1589" lon="5.82189">
        <ele>408</ele>
        <time>2017-10-15T12:15:13Z</time>
      </trkpt>
      <trkpt lat="45.15878" lon="5.82198">
        <ele>404</ele>
        <time>2017-10-15T12:15:15Z</time>
      </trkpt>
      <trkpt lat="45.15874" lon="5.82206">
        <ele>404</ele>
        <time>2017-10-15T12:15:17Z</time>
      </trkpt>
      <trkpt lat="45.1587" lon="5.82217">
        <ele>403</ele>
        <time>2017-10-15T12:15:19Z</time>
      </trkpt>
      <trkpt lat="45.15869" lon="5.82226">
        <ele>403</ele>
        <time>2017-10-15T12:15:20Z</time>
      </trkpt>
      <trkpt lat="45.15867" lon="5.82246">
        <ele>404</ele>
        <time>2017-10-15T12:15:22Z</time>
      </trkpt>
      <trkpt lat="45.15867" lon="5.82257">
        <ele>405</ele>
        <time>2017-10-15T12:15:23Z</time>
      </trkpt>
      <trkpt lat="45.15863" lon="5.82266">
        <ele>404</ele>
        <time>2017-10-15T12:15:24Z</time>
      </trkpt>
      <trkpt lat="45.1586" lon="5.82274">
        <ele>404</ele>
        <time>2017-10-15T12:15:25Z</time>
      </trkpt>
      <trkpt lat="45.15856" lon="5.82279">
        <ele>403</ele>
        <time>2017-10-15T12:15:26Z</time>
      </trkpt>
      <trkpt lat="45.15852" lon="5.82288">
        <ele>403</ele>
        <time>2017-10-15T12:15:28Z</time>
      </trkpt>
      <trkpt lat="45.15849" lon="5.82297">
        <ele>404</ele>
        <time>2017-10-15T12:15:30Z</time>
      </trkpt>
      <trkpt lat="45.15849" lon="5.82303">
        <ele>404</ele>
        <time>2017-10-15T12:15:32Z</time>
      </trkpt>
      <trkpt lat="45.15853" lon="5.8231">
        <ele>406</ele>
        <time>2017-10-15T12:15:36Z</time>
      </trkpt>
      <trkpt lat="45.15856" lon="5.82316">
        <ele>408</ele>
        <time>2017-10-15T12:15:40Z</time>
      </trkpt>
      <trkpt lat="45.15859" lon="5.82322">
        <ele>410</ele>
        <time>2017-10-15T12:15:43Z</time>
      </trkpt>
      <trkpt lat="45.15859" lon="5.82328">
        <ele>411</ele>
        <time>2017-10-15T12:16:00Z</time>
      </trkpt>
      <trkpt lat="45.15862" lon="5.82339">
        <ele>413</ele>
        <time>2017-10-15T12:16:03Z</time>
      </trkpt>
      <trkpt lat="45.15865" lon="5.82349">
        <ele>416</ele>
        <time>2017-10-15T12:16:05Z</time>
      </trkpt>
      <trkpt lat="45.15866" lon="5.8236">
        <ele>418</ele>
        <time>2017-10-15T12:16:07Z</time>
      </trkpt>
      <trkpt lat="45.15867" lon="5.82371">
        <ele>421</ele>
        <time>2017-10-15T12:16:09Z</time>
      </trkpt>
      <trkpt lat="45.15866" lon="5.82379">
        <ele>422</ele>
        <time>2017-10-15T12:16:11Z</time>
      </trkpt>
      <trkpt lat="45.15862" lon="5.82386">
        <ele>422</ele>
        <time>2017-10-15T12:16:13Z</time>
      </trkpt>
      <trkpt lat="45.15852" lon="5.8239">
        <ele>419</ele>
        <time>2017-10-15T12:16:15Z</time>
      </trkpt>
      <trkpt lat="45.15843" lon="5.82388">
        <ele>416</ele>
        <time>2017-10-15T12:16:16Z</time>
      </trkpt>
      <trkpt lat="45.15837" lon="5.82389">
        <ele>414</ele>
        <time>2017-10-15T12:16:17Z</time>
      </trkpt>
      <trkpt lat="45.15832" lon="5.82392">
        <ele>413</ele>
        <time>2017-10-15T12:16:18Z</time>
      </trkpt>
      <trkpt lat="45.15825" lon="5.82391">
        <ele>410</ele>
        <time>2017-10-15T12:16:19Z</time>
      </trkpt>
      <trkpt lat="45.1582" lon="5.8239">
        <ele>408</ele>
        <time>2017-10-15T12:16:20Z</time>
      </trkpt>
      <trkpt lat="45.15812" lon="5.82391">
        <ele>405</ele>
        <time>2017-10-15T12:16:22Z</time>
      </trkpt>
      <trkpt lat="45.15807" lon="5.82393">
        <ele>404</ele>
        <time>2017-10-15T12:16:23Z</time>
      </trkpt>
      <trkpt lat="45.15802" lon="5.82396">
        <ele>402</ele>
        <time>2017-10-15T12:16:24Z</time>
      </trkpt>
      <trkpt lat="45.15797" lon="5.82398">
        <ele>401</ele>
        <time>2017-10-15T12:16:25Z</time>
      </trkpt>
      <trkpt lat="45.15789" lon="5.82406">
        <ele>400</ele>
        <time>2017-10-15T12:16:27Z</time>
      </trkpt>
      <trkpt lat="45.1578" lon="5.8241">
        <ele>398</ele>
        <time>2017-10-15T12:16:30Z</time>
      </trkpt>
      <trkpt lat="45.15776" lon="5.82415">
        <ele>397</ele>
        <time>2017-10-15T12:16:33Z</time>
      </trkpt>
      <trkpt lat="45.1577" lon="5.82419">
        <ele>396</ele>
        <time>2017-10-15T12:16:35Z</time>
      </trkpt>
      <trkpt lat="45.15765" lon="5.82424">
        <ele>395</ele>
        <time>2017-10-15T12:16:37Z</time>
      </trkpt>
      <trkpt lat="45.15761" lon="5.82427">
        <ele>395</ele>
        <time>2017-10-15T12:16:38Z</time>
      </trkpt>
      <trkpt lat="45.15753" lon="5.82434">
        <ele>393</ele>
        <time>2017-10-15T12:16:39Z</time>
      </trkpt>
      <trkpt lat="45.15749" lon="5.8244">
        <ele>392</ele>
        <time>2017-10-15T12:16:40Z</time>
      </trkpt>
      <trkpt lat="45.15745" lon="5.82446">
        <ele>391</ele>
        <time>2017-10-15T12:16:41Z</time>
      </trkpt>
      <trkpt lat="45.15743" lon="5.82454">
        <ele>391</ele>
        <time>2017-10-15T12:16:42Z</time>
      </trkpt>
      <trkpt lat="45.15741" lon="5.8246">
        <ele>391</ele>
        <time>2017-10-15T12:16:43Z</time>
      </trkpt>
      <trkpt lat="45.15741" lon="5.82469">
        <ele>391</ele>
        <time>2017-10-15T12:16:44Z</time>
      </trkpt>
      <trkpt lat="45.15738" lon="5.82479">
        <ele>391</ele>
        <time>2017-10-15T12:16:45Z</time>
      </trkpt>
      <trkpt lat="45.15731" lon="5.82492">
        <ele>389</ele>
        <time>2017-10-15T12:16:47Z</time>
      </trkpt>
      <trkpt lat="45.15723" lon="5.82501">
        <ele>387</ele>
        <time>2017-10-15T12:16:49Z</time>
      </trkpt>
      <trkpt lat="45.15718" lon="5.82509">
        <ele>387</ele>
        <time>2017-10-15T12:16:50Z</time>
      </trkpt>
      <trkpt lat="45.15717" lon="5.82519">
        <ele>388</ele>
        <time>2017-10-15T12:16:51Z</time>
      </trkpt>
      <trkpt lat="45.15716" lon="5.82528">
        <ele>389</ele>
        <time>2017-10-15T12:16:52Z</time>
      </trkpt>
      <trkpt lat="45.15716" lon="5.82536">
        <ele>389</ele>
        <time>2017-10-15T12:16:53Z</time>
      </trkpt>
      <trkpt lat="45.15713" lon="5.82552">
        <ele>390</ele>
        <time>2017-10-15T12:16:55Z</time>
      </trkpt>
      <trkpt lat="45.15709" lon="5.8256">
        <ele>391</ele>
        <time>2017-10-15T12:16:56Z</time>
      </trkpt>
      <trkpt lat="45.15706" lon="5.82572">
        <ele>391</ele>
        <time>2017-10-15T12:16:58Z</time>
      </trkpt>
      <trkpt lat="45.15704" lon="5.82578">
        <ele>392</ele>
        <time>2017-10-15T12:16:59Z</time>
      </trkpt>
      <trkpt lat="45.15703" lon="5.8259">
        <ele>393</ele>
        <time>2017-10-15T12:17:01Z</time>
      </trkpt>
      <trkpt lat="45.15702" lon="5.82597">
        <ele>394</ele>
        <time>2017-10-15T12:17:03Z</time>
      </trkpt>
      <trkpt lat="45.15698" lon="5.82599">
        <ele>393</ele>
        <time>2017-10-15T12:17:05Z</time>
      </trkpt>
      <trkpt lat="45.15691" lon="5.82601">
        <ele>392</ele>
        <time>2017-10-15T12:17:07Z</time>
      </trkpt>
      <trkpt lat="45.15684" lon="5.82603">
        <ele>391</ele>
        <time>2017-10-15T12:18:40Z</time>
      </trkpt>
      <trkpt lat="45.15679" lon="5.82601">
        <ele>390</ele>
        <time>2017-10-15T12:18:41Z</time>
      </trkpt>
      <trkpt lat="45.15675" lon="5.82596">
        <ele>389</ele>
        <time>2017-10-15T12:18:42Z</time>
      </trkpt>
      <trkpt lat="45.1567" lon="5.82593">
        <ele>387</ele>
        <time>2017-10-15T12:18:43Z</time>
      </trkpt>
      <trkpt lat="45.15664" lon="5.82593">
        <ele>386</ele>
        <time>2017-10-15T12:18:44Z</time>
      </trkpt>
      <trkpt lat="45.15659" lon="5.8259">
        <ele>385</ele>
        <time>2017-10-15T12:18:45Z</time>
      </trkpt>
      <trkpt lat="45.15653" lon="5.82597">
        <ele>385</ele>
        <time>2017-10-15T12:18:46Z</time>
      </trkpt>
      <trkpt lat="45.15647" lon="5.82596">
        <ele>385</ele>
        <time>2017-10-15T12:18:47Z</time>
      </trkpt>
      <trkpt lat="45.15641" lon="5.82595">
        <ele>384</ele>
        <time>2017-10-15T12:18:48Z</time>
      </trkpt>
      <trkpt lat="45.15633" lon="5.82593">
        <ele>384</ele>
        <time>2017-10-15T12:18:49Z</time>
      </trkpt>
      <trkpt lat="45.1563" lon="5.82588">
        <ele>384</ele>
        <time>2017-10-15T12:18:50Z</time>
      </trkpt>
      <trkpt lat="45.15626" lon="5.82581">
        <ele>383</ele>
        <time>2017-10-15T12:18:51Z</time>
      </trkpt>
      <trkpt lat="45.15622" lon="5.82574">
        <ele>382</ele>
        <time>2017-10-15T12:18:52Z</time>
      </trkpt>
      <trkpt lat="45.15617" lon="5.82571">
        <ele>382</ele>
        <time>2017-10-15T12:18:53Z</time>
      </trkpt>
      <trkpt lat="45.15611" lon="5.82563">
        <ele>381</ele>
        <time>2017-10-15T12:18:55Z</time>
      </trkpt>
      <trkpt lat="45.156" lon="5.82565">
        <ele>381</ele>
        <time>2017-10-15T12:18:59Z</time>
      </trkpt>
      <trkpt lat="45.15594" lon="5.82569">
        <ele>381</ele>
        <time>2017-10-15T12:19:02Z</time>
      </trkpt>
      <trkpt lat="45.15589" lon="5.8257">
        <ele>381</ele>
        <time>2017-10-15T12:19:05Z</time>
      </trkpt>
      <trkpt lat="45.15584" lon="5.8257">
        <ele>381</ele>
        <time>2017-10-15T12:19:07Z</time>
      </trkpt>
      <trkpt lat="45.15579" lon="5.8257">
        <ele>381</ele>
        <time>2017-10-15T12:19:09Z</time>
      </trkpt>
      <trkpt lat="45.15573" lon="5.8257">
        <ele>382</ele>
        <time>2017-10-15T12:19:11Z</time>
      </trkpt>
      <trkpt lat="45.15567" lon="5.82571">
        <ele>382</ele>
        <time>2017-10-15T12:19:13Z</time>
      </trkpt>
      <trkpt lat="45.15562" lon="5.82572">
        <ele>382</ele>
        <time>2017-10-15T12:19:15Z</time>
      </trkpt>
      <trkpt lat="45.15556" lon="5.82571">
        <ele>382</ele>
        <time>2017-10-15T12:19:17Z</time>
      </trkpt>
      <trkpt lat="45.15552" lon="5.82566">
        <ele>382</ele>
        <time>2017-10-15T12:19:19Z</time>
      </trkpt>
      <trkpt lat="45.15553" lon="5.82557">
        <ele>381</ele>
        <time>2017-10-15T12:19:21Z</time>
      </trkpt>
      <trkpt lat="45.15554" lon="5.82546">
        <ele>380</ele>
        <time>2017-10-15T12:19:23Z</time>
      </trkpt>
      <trkpt lat="45.15555" lon="5.82534">
        <ele>381</ele>
        <time>2017-10-15T12:19:25Z</time>
      </trkpt>
      <trkpt lat="45.15556" lon="5.82527">
        <ele>381</ele>
        <time>2017-10-15T12:19:26Z</time>
      </trkpt>
      <trkpt lat="45.15557" lon="5.82519">
        <ele>382</ele>
        <time>2017-10-15T12:19:27Z</time>
      </trkpt>
      <trkpt lat="45.15559" lon="5.82504">
        <ele>382</ele>
        <time>2017-10-15T12:19:29Z</time>
      </trkpt>
      <trkpt lat="45.15561" lon="5.82492">
        <ele>383</ele>
        <time>2017-10-15T12:19:31Z</time>
      </trkpt>
      <trkpt lat="45.15559" lon="5.82484">
        <ele>383</ele>
        <time>2017-10-15T12:19:33Z</time>
      </trkpt>
      <trkpt lat="45.15554" lon="5.8248">
        <ele>384</ele>
        <time>2017-10-15T12:19:35Z</time>
      </trkpt>
      <trkpt lat="45.15548" lon="5.82483">
        <ele>384</ele>
        <time>2017-10-15T12:19:38Z</time>
      </trkpt>
      <trkpt lat="45.15543" lon="5.8249">
        <ele>383</ele>
        <time>2017-10-15T12:19:41Z</time>
      </trkpt>
      <trkpt lat="45.15539" lon="5.82495">
        <ele>383</ele>
        <time>2017-10-15T12:19:43Z</time>
      </trkpt>
      <trkpt lat="45.15535" lon="5.825">
        <ele>383</ele>
        <time>2017-10-15T12:19:45Z</time>
      </trkpt>
      <trkpt lat="45.15531" lon="5.82504">
        <ele>383</ele>
        <time>2017-10-15T12:19:47Z</time>
      </trkpt>
      <trkpt lat="45.15526" lon="5.82509">
        <ele>383</ele>
        <time>2017-10-15T12:19:49Z</time>
      </trkpt>
      <trkpt lat="45.15522" lon="5.82514">
        <ele>383</ele>
        <time>2017-10-15T12:19:51Z</time>
      </trkpt>
      <trkpt lat="45.15518" lon="5.8252">
        <ele>382</ele>
        <time>2017-10-15T12:19:53Z</time>
      </trkpt>
      <trkpt lat="45.15514" lon="5.82525">
        <ele>382</ele>
        <time>2017-10-15T12:19:55Z</time>
      </trkpt>
      <trkpt lat="45.15509" lon="5.8253">
        <ele>382</ele>
        <time>2017-10-15T12:19:57Z</time>
      </trkpt>
      <trkpt lat="45.15505" lon="5.82536">
        <ele>381</ele>
        <time>2017-10-15T12:19:59Z</time>
      </trkpt>
      <trkpt lat="45.155" lon="5.82542">
        <ele>381</ele>
        <time>2017-10-15T12:20:01Z</time>
      </trkpt>
      <trkpt lat="45.15495" lon="5.82547">
        <ele>381</ele>
        <time>2017-10-15T12:20:03Z</time>
      </trkpt>
      <trkpt lat="45.1549" lon="5.82553">
        <ele>381</ele>
        <time>2017-10-15T12:20:05Z</time>
      </trkpt>
      <trkpt lat="45.15485" lon="5.82558">
        <ele>381</ele>
        <time>2017-10-15T12:20:07Z</time>
      </trkpt>
      <trkpt lat="45.1548" lon="5.82564">
        <ele>382</ele>
        <time>2017-10-15T12:20:09Z</time>
      </trkpt>
      <trkpt lat="45.15476" lon="5.82569">
        <ele>382</ele>
        <time>2017-10-15T12:20:11Z</time>
      </trkpt>
      <trkpt lat="45.15471" lon="5.82574">
        <ele>383</ele>
        <time>2017-10-15T12:20:13Z</time>
      </trkpt>
      <trkpt lat="45.15465" lon="5.82578">
        <ele>383</ele>
        <time>2017-10-15T12:20:15Z</time>
      </trkpt>
      <trkpt lat="45.1546" lon="5.82582">
        <ele>384</ele>
        <time>2017-10-15T12:20:17Z</time>
      </trkpt>
      <trkpt lat="45.15454" lon="5.82586">
        <ele>384</ele>
        <time>2017-10-15T12:20:19Z</time>
      </trkpt>
      <trkpt lat="45.15448" lon="5.82589">
        <ele>385</ele>
        <time>2017-10-15T12:20:21Z</time>
      </trkpt>
      <trkpt lat="45.15443" lon="5.82593">
        <ele>385</ele>
        <time>2017-10-15T12:20:23Z</time>
      </trkpt>
      <trkpt lat="45.15437" lon="5.82596">
        <ele>385</ele>
        <time>2017-10-15T12:20:25Z</time>
      </trkpt>
      <trkpt lat="45.15432" lon="5.82598">
        <ele>386</ele>
        <time>2017-10-15T12:20:27Z</time>
      </trkpt>
      <trkpt lat="45.15426" lon="5.82601">
        <ele>386</ele>
        <time>2017-10-15T12:20:29Z</time>
      </trkpt>
      <trkpt lat="45.15421" lon="5.82604">
        <ele>387</ele>
        <time>2017-10-15T12:20:31Z</time>
      </trkpt>
      <trkpt lat="45.15416" lon="5.82607">
        <ele>387</ele>
        <time>2017-10-15T12:20:34Z</time>
      </trkpt>
      <trkpt lat="45.15419" lon="5.82601">
        <ele>386</ele>
        <time>2017-10-15T12:21:11Z</time>
      </trkpt>
      <trkpt lat="45.15414" lon="5.82605">
        <ele>387</ele>
        <time>2017-10-15T12:22:06Z</time>
      </trkpt>
      <trkpt lat="45.15409" lon="5.82609">
        <ele>388</ele>
        <time>2017-10-15T12:22:11Z</time>
      </trkpt>
      <trkpt lat="45.15403" lon="5.8261">
        <ele>388</ele>
        <time>2017-10-15T12:22:15Z</time>
      </trkpt>
      <trkpt lat="45.15397" lon="5.82612">
        <ele>388</ele>
        <time>2017-10-15T12:22:18Z</time>
      </trkpt>
      <trkpt lat="45.15392" lon="5.82614">
        <ele>389</ele>
        <time>2017-10-15T12:22:20Z</time>
      </trkpt>
      <trkpt lat="45.15388" lon="5.82617">
        <ele>389</ele>
        <time>2017-10-15T12:22:22Z</time>
      </trkpt>
      <trkpt lat="45.15382" lon="5.82618">
        <ele>389</ele>
        <time>2017-10-15T12:22:26Z</time>
      </trkpt>
      <trkpt lat="45.15375" lon="5.82618">
        <ele>390</ele>
        <time>2017-10-15T12:22:29Z</time>
      </trkpt>
      <trkpt lat="45.15371" lon="5.82619">
        <ele>390</ele>
        <time>2017-10-15T12:22:31Z</time>
      </trkpt>
      <trkpt lat="45.15366" lon="5.82621">
        <ele>391</ele>
        <time>2017-10-15T12:22:33Z</time>
      </trkpt>
      <trkpt lat="45.1536" lon="5.82622">
        <ele>392</ele>
        <time>2017-10-15T12:22:36Z</time>
      </trkpt>
      <trkpt lat="45.15355" lon="5.82622">
        <ele>392</ele>
        <time>2017-10-15T12:22:38Z</time>
      </trkpt>
      <trkpt lat="45.1535" lon="5.82623">
        <ele>393</ele>
        <time>2017-10-15T12:22:40Z</time>
      </trkpt>
      <trkpt lat="45.15345" lon="5.82624">
        <ele>393</ele>
        <time>2017-10-15T12:22:42Z</time>
      </trkpt>
      <trkpt lat="45.1534" lon="5.82625">
        <ele>394</ele>
        <time>2017-10-15T12:22:44Z</time>
      </trkpt>
      <trkpt lat="45.15334" lon="5.82625">
        <ele>394</ele>
        <time>2017-10-15T12:22:47Z</time>
      </trkpt>
      <trkpt lat="45.1533" lon="5.82625">
        <ele>395</ele>
        <time>2017-10-15T12:22:49Z</time>
      </trkpt>
      <trkpt lat="45.15325" lon="5.82625">
        <ele>395</ele>
        <time>2017-10-15T12:22:51Z</time>
      </trkpt>
      <trkpt lat="45.15316" lon="5.82622">
        <ele>395</ele>
        <time>2017-10-15T12:22:56Z</time>
      </trkpt>
      <trkpt lat="45.15311" lon="5.82619">
        <ele>395</ele>
        <time>2017-10-15T12:22:59Z</time>
      </trkpt>
      <trkpt lat="45.15305" lon="5.82615">
        <ele>395</ele>
        <time>2017-10-15T12:23:02Z</time>
      </trkpt>
      <trkpt lat="45.153" lon="5.82613">
        <ele>395</ele>
        <time>2017-10-15T12:23:05Z</time>
      </trkpt>
      <trkpt lat="45.15295" lon="5.82611">
        <ele>395</ele>
        <time>2017-10-15T12:23:08Z</time>
      </trkpt>
      <trkpt lat="45.1529" lon="5.82607">
        <ele>395</ele>
        <time>2017-10-15T12:23:11Z</time>
      </trkpt>
      <trkpt lat="45.15285" lon="5.82603">
        <ele>394</ele>
        <time>2017-10-15T12:23:14Z</time>
      </trkpt>
      <trkpt lat="45.1528" lon="5.826">
        <ele>394</ele>
        <time>2017-10-15T12:23:17Z</time>
      </trkpt>
      <trkpt lat="45.15275" lon="5.82598">
        <ele>394</ele>
        <time>2017-10-15T12:23:20Z</time>
      </trkpt>
      <trkpt lat="45.1527" lon="5.82596">
        <ele>394</ele>
        <time>2017-10-15T12:23:23Z</time>
      </trkpt>
      <trkpt lat="45.15265" lon="5.82594">
        <ele>394</ele>
        <time>2017-10-15T12:23:26Z</time>
      </trkpt>
      <trkpt lat="45.15259" lon="5.82592">
        <ele>395</ele>
        <time>2017-10-15T12:23:29Z</time>
      </trkpt>
      <trkpt lat="45.15255" lon="5.82589">
        <ele>394</ele>
        <time>2017-10-15T12:23:32Z</time>
      </trkpt>
      <trkpt lat="45.1525" lon="5.82587">
        <ele>394</ele>
        <time>2017-10-15T12:23:35Z</time>
      </trkpt>
      <trkpt lat="45.15245" lon="5.82584">
        <ele>394</ele>
        <time>2017-10-15T12:23:38Z</time>
      </trkpt>
      <trkpt lat="45.15241" lon="5.82582">
        <ele>394</ele>
        <time>2017-10-15T12:23:41Z</time>
      </trkpt>
      <trkpt lat="45.15235" lon="5.82581">
        <ele>394</ele>
        <time>2017-10-15T12:23:44Z</time>
      </trkpt>
      <trkpt lat="45.15231" lon="5.82579">
        <ele>393</ele>
        <time>2017-10-15T12:23:47Z</time>
      </trkpt>
      <trkpt lat="45.15226" lon="5.82579">
        <ele>393</ele>
        <time>2017-10-15T12:23:50Z</time>
      </trkpt>
      <trkpt lat="45.15221" lon="5.82578">
        <ele>393</ele>
        <time>2017-10-15T12:23:53Z</time>
      </trkpt>
      <trkpt lat="45.15215" lon="5.82577">
        <ele>393</ele>
        <time>2017-10-15T12:23:58Z</time>
      </trkpt>
      <trkpt lat="45.15209" lon="5.82577">
        <ele>393</ele>
        <time>2017-10-15T12:24:02Z</time>
      </trkpt>
      <trkpt lat="45.15204" lon="5.82578">
        <ele>393</ele>
        <time>2017-10-15T12:24:07Z</time>
      </trkpt>
      <trkpt lat="45.15195" lon="5.82583">
        <ele>393</ele>
        <time>2017-10-15T12:24:12Z</time>
      </trkpt>
      <trkpt lat="45.15187" lon="5.82589">
        <ele>393</ele>
        <time>2017-10-15T12:24:16Z</time>
      </trkpt>
      <trkpt lat="45.15182" lon="5.82592">
        <ele>393</ele>
        <time>2017-10-15T12:24:19Z</time>
      </trkpt>
      <trkpt lat="45.15177" lon="5.82596">
        <ele>394</ele>
        <time>2017-10-15T12:24:23Z</time>
      </trkpt>
      <trkpt lat="45.15171" lon="5.82601">
        <ele>394</ele>
        <time>2017-10-15T12:24:26Z</time>
      </trkpt>
      <trkpt lat="45.15167" lon="5.82607">
        <ele>395</ele>
        <time>2017-10-15T12:24:29Z</time>
      </trkpt>
      <trkpt lat="45.15161" lon="5.82612">
        <ele>395</ele>
        <time>2017-10-15T12:24:32Z</time>
      </trkpt>
      <trkpt lat="45.15155" lon="5.82617">
        <ele>396</ele>
        <time>2017-10-15T12:24:35Z</time>
      </trkpt>
      <trkpt lat="45.15149" lon="5.82622">
        <ele>397</ele>
        <time>2017-10-15T12:24:38Z</time>
      </trkpt>
      <trkpt lat="45.15145" lon="5.82626">
        <ele>398</ele>
        <time>2017-10-15T12:24:40Z</time>
      </trkpt>
      <trkpt lat="45.15142" lon="5.82631">
        <ele>399</ele>
        <time>2017-10-15T12:24:42Z</time>
      </trkpt>
      <trkpt lat="45.15137" lon="5.82637">
        <ele>400</ele>
        <time>2017-10-15T12:24:45Z</time>
      </trkpt>
      <trkpt lat="45.15132" lon="5.82642">
        <ele>401</ele>
        <time>2017-10-15T12:24:48Z</time>
      </trkpt>
      <trkpt lat="45.15128" lon="5.82647">
        <ele>402</ele>
        <time>2017-10-15T12:24:51Z</time>
      </trkpt>
      <trkpt lat="45.15123" lon="5.82649">
        <ele>402</ele>
        <time>2017-10-15T12:24:54Z</time>
      </trkpt>
      <trkpt lat="45.15118" lon="5.82651">
        <ele>403</ele>
        <time>2017-10-15T12:24:57Z</time>
      </trkpt>
      <trkpt lat="45.15112" lon="5.82649">
        <ele>403</ele>
        <time>2017-10-15T12:25:01Z</time>
      </trkpt>
      <trkpt lat="45.15107" lon="5.8265">
        <ele>403</ele>
        <time>2017-10-15T12:25:03Z</time>
      </trkpt>
      <trkpt lat="45.15101" lon="5.8265">
        <ele>403</ele>
        <time>2017-10-15T12:25:05Z</time>
      </trkpt>
      <trkpt lat="45.15094" lon="5.8265">
        <ele>403</ele>
        <time>2017-10-15T12:25:07Z</time>
      </trkpt>
      <trkpt lat="45.15082" lon="5.8265">
        <ele>403</ele>
        <time>2017-10-15T12:25:10Z</time>
      </trkpt>
      <trkpt lat="45.15075" lon="5.82649">
        <ele>402</ele>
        <time>2017-10-15T12:25:12Z</time>
      </trkpt>
      <trkpt lat="45.15068" lon="5.82648">
        <ele>402</ele>
        <time>2017-10-15T12:25:14Z</time>
      </trkpt>
      <trkpt lat="45.15061" lon="5.82645">
        <ele>401</ele>
        <time>2017-10-15T12:25:16Z</time>
      </trkpt>
      <trkpt lat="45.15054" lon="5.82644">
        <ele>401</ele>
        <time>2017-10-15T12:25:18Z</time>
      </trkpt>
      <trkpt lat="45.15047" lon="5.82643">
        <ele>401</ele>
        <time>2017-10-15T12:25:20Z</time>
      </trkpt>
      <trkpt lat="45.15039" lon="5.82645">
        <ele>401</ele>
        <time>2017-10-15T12:25:22Z</time>
      </trkpt>
      <trkpt lat="45.15032" lon="5.82647">
        <ele>402</ele>
        <time>2017-10-15T12:25:24Z</time>
      </trkpt>
      <trkpt lat="45.15027" lon="5.8265">
        <ele>403</ele>
        <time>2017-10-15T12:25:26Z</time>
      </trkpt>
      <trkpt lat="45.15021" lon="5.82654">
        <ele>403</ele>
        <time>2017-10-15T12:25:29Z</time>
      </trkpt>
      <trkpt lat="45.15017" lon="5.8266">
        <ele>404</ele>
        <time>2017-10-15T12:25:31Z</time>
      </trkpt>
      <trkpt lat="45.15014" lon="5.82665">
        <ele>405</ele>
        <time>2017-10-15T12:25:33Z</time>
      </trkpt>
      <trkpt lat="45.1501" lon="5.82673">
        <ele>405</ele>
        <time>2017-10-15T12:25:35Z</time>
      </trkpt>
      <trkpt lat="45.15006" lon="5.82681">
        <ele>406</ele>
        <time>2017-10-15T12:25:37Z</time>
      </trkpt>
      <trkpt lat="45.15" lon="5.82689">
        <ele>406</ele>
        <time>2017-10-15T12:25:39Z</time>
      </trkpt>
      <trkpt lat="45.14995" lon="5.82697">
        <ele>407</ele>
        <time>2017-10-15T12:25:41Z</time>
      </trkpt>
      <trkpt lat="45.14991" lon="5.82705">
        <ele>408</ele>
        <time>2017-10-15T12:25:43Z</time>
      </trkpt>
      <trkpt lat="45.14987" lon="5.82711">
        <ele>408</ele>
        <time>2017-10-15T12:25:45Z</time>
      </trkpt>
      <trkpt lat="45.14983" lon="5.82717">
        <ele>409</ele>
        <time>2017-10-15T12:25:47Z</time>
      </trkpt>
      <trkpt lat="45.14978" lon="5.82721">
        <ele>409</ele>
        <time>2017-10-15T12:25:49Z</time>
      </trkpt>
      <trkpt lat="45.14973" lon="5.82726">
        <ele>409</ele>
        <time>2017-10-15T12:25:51Z</time>
      </trkpt>
      <trkpt lat="45.1497" lon="5.82731">
        <ele>409</ele>
        <time>2017-10-15T12:25:53Z</time>
      </trkpt>
      <trkpt lat="45.14966" lon="5.82738">
        <ele>409</ele>
        <time>2017-10-15T12:25:56Z</time>
      </trkpt>
      <trkpt lat="45.14962" lon="5.82744">
        <ele>409</ele>
        <time>2017-10-15T12:25:59Z</time>
      </trkpt>
      <trkpt lat="45.14959" lon="5.82751">
        <ele>410</ele>
        <time>2017-10-15T12:26:02Z</time>
      </trkpt>
      <trkpt lat="45.14956" lon="5.82758">
        <ele>410</ele>
        <time>2017-10-15T12:26:05Z</time>
      </trkpt>
      <trkpt lat="45.14953" lon="5.82763">
        <ele>412</ele>
        <time>2017-10-15T12:26:07Z</time>
      </trkpt>
      <trkpt lat="45.14949" lon="5.82769">
        <ele>413</ele>
        <time>2017-10-15T12:26:09Z</time>
      </trkpt>
      <trkpt lat="45.14942" lon="5.82777">
        <ele>414</ele>
        <time>2017-10-15T12:26:11Z</time>
      </trkpt>
      <trkpt lat="45.14935" lon="5.82783">
        <ele>415</ele>
        <time>2017-10-15T12:26:13Z</time>
      </trkpt>
      <trkpt lat="45.14927" lon="5.82788">
        <ele>415</ele>
        <time>2017-10-15T12:26:15Z</time>
      </trkpt>
      <trkpt lat="45.14919" lon="5.82794">
        <ele>415</ele>
        <time>2017-10-15T12:26:17Z</time>
      </trkpt>
      <trkpt lat="45.14912" lon="5.828">
        <ele>415</ele>
        <time>2017-10-15T12:26:19Z</time>
      </trkpt>
      <trkpt lat="45.14906" lon="5.82807">
        <ele>415</ele>
        <time>2017-10-15T12:26:21Z</time>
      </trkpt>
      <trkpt lat="45.14901" lon="5.82813">
        <ele>415</ele>
        <time>2017-10-15T12:26:23Z</time>
      </trkpt>
      <trkpt lat="45.14896" lon="5.82819">
        <ele>415</ele>
        <time>2017-10-15T12:26:25Z</time>
      </trkpt>
      <trkpt lat="45.14892" lon="5.82825">
        <ele>416</ele>
        <time>2017-10-15T12:26:27Z</time>
      </trkpt>
      <trkpt lat="45.14888" lon="5.82832">
        <ele>417</ele>
        <time>2017-10-15T12:26:29Z</time>
      </trkpt>
      <trkpt lat="45.14883" lon="5.82837">
        <ele>418</ele>
        <time>2017-10-15T12:26:31Z</time>
      </trkpt>
      <trkpt lat="45.14878" lon="5.82842">
        <ele>419</ele>
        <time>2017-10-15T12:26:33Z</time>
      </trkpt>
      <trkpt lat="45.14873" lon="5.82848">
        <ele>419</ele>
        <time>2017-10-15T12:26:35Z</time>
      </trkpt>
      <trkpt lat="45.14867" lon="5.82853">
        <ele>420</ele>
        <time>2017-10-15T12:26:37Z</time>
      </trkpt>
      <trkpt lat="45.14862" lon="5.82859">
        <ele>420</ele>
        <time>2017-10-15T12:26:39Z</time>
      </trkpt>
      <trkpt lat="45.14858" lon="5.82864">
        <ele>421</ele>
        <time>2017-10-15T12:26:41Z</time>
      </trkpt>
      <trkpt lat="45.14853" lon="5.82871">
        <ele>421</ele>
        <time>2017-10-15T12:26:43Z</time>
      </trkpt>
      <trkpt lat="45.14846" lon="5.82878">
        <ele>422</ele>
        <time>2017-10-15T12:26:46Z</time>
      </trkpt>
      <trkpt lat="45.1484" lon="5.82887">
        <ele>422</ele>
        <time>2017-10-15T12:26:49Z</time>
      </trkpt>
      <trkpt lat="45.14836" lon="5.82892">
        <ele>422</ele>
        <time>2017-10-15T12:26:51Z</time>
      </trkpt>
      <trkpt lat="45.14832" lon="5.82896">
        <ele>422</ele>
        <time>2017-10-15T12:26:53Z</time>
      </trkpt>
      <trkpt lat="45.14828" lon="5.829">
        <ele>423</ele>
        <time>2017-10-15T12:26:55Z</time>
      </trkpt>
      <trkpt lat="45.14823" lon="5.82905">
        <ele>424</ele>
        <time>2017-10-15T12:26:57Z</time>
      </trkpt>
      <trkpt lat="45.14817" lon="5.82909">
        <ele>425</ele>
        <time>2017-10-15T12:26:59Z</time>
      </trkpt>
      <trkpt lat="45.14811" lon="5.82913">
        <ele>425</ele>
        <time>2017-10-15T12:27:01Z</time>
      </trkpt>
      <trkpt lat="45.14805" lon="5.82917">
        <ele>426</ele>
        <time>2017-10-15T12:27:03Z</time>
      </trkpt>
      <trkpt lat="45.14798" lon="5.82919">
        <ele>426</ele>
        <time>2017-10-15T12:27:05Z</time>
      </trkpt>
      <trkpt lat="45.14792" lon="5.82922">
        <ele>426</ele>
        <time>2017-10-15T12:27:07Z</time>
      </trkpt>
      <trkpt lat="45.14787" lon="5.82923">
        <ele>426</ele>
        <time>2017-10-15T12:27:09Z</time>
      </trkpt>
      <trkpt lat="45.14782" lon="5.82924">
        <ele>426</ele>
        <time>2017-10-15T12:27:11Z</time>
      </trkpt>
      <trkpt lat="45.14776" lon="5.82924">
        <ele>425</ele>
        <time>2017-10-15T12:27:13Z</time>
      </trkpt>
      <trkpt lat="45.1477" lon="5.82926">
        <ele>425</ele>
        <time>2017-10-15T12:27:15Z</time>
      </trkpt>
      <trkpt lat="45.14764" lon="5.82927">
        <ele>424</ele>
        <time>2017-10-15T12:27:17Z</time>
      </trkpt>
      <trkpt lat="45.14758" lon="5.82928">
        <ele>424</ele>
        <time>2017-10-15T12:27:19Z</time>
      </trkpt>
      <trkpt lat="45.14751" lon="5.8293">
        <ele>424</ele>
        <time>2017-10-15T12:27:21Z</time>
      </trkpt>
      <trkpt lat="45.14745" lon="5.82934">
        <ele>424</ele>
        <time>2017-10-15T12:27:23Z</time>
      </trkpt>
      <trkpt lat="45.14738" lon="5.82939">
        <ele>425</ele>
        <time>2017-10-15T12:27:25Z</time>
      </trkpt>
      <trkpt lat="45.14732" lon="5.82943">
        <ele>425</ele>
        <time>2017-10-15T12:27:27Z</time>
      </trkpt>
      <trkpt lat="45.14726" lon="5.82947">
        <ele>425</ele>
        <time>2017-10-15T12:27:29Z</time>
      </trkpt>
      <trkpt lat="45.14719" lon="5.8295">
        <ele>425</ele>
        <time>2017-10-15T12:27:31Z</time>
      </trkpt>
      <trkpt lat="45.14713" lon="5.82954">
        <ele>424</ele>
        <time>2017-10-15T12:27:33Z</time>
      </trkpt>
      <trkpt lat="45.14707" lon="5.82958">
        <ele>424</ele>
        <time>2017-10-15T12:27:35Z</time>
      </trkpt>
      <trkpt lat="45.14702" lon="5.82961">
        <ele>424</ele>
        <time>2017-10-15T12:27:37Z</time>
      </trkpt>
      <trkpt lat="45.14697" lon="5.82965">
        <ele>424</ele>
        <time>2017-10-15T12:27:39Z</time>
      </trkpt>
      <trkpt lat="45.14691" lon="5.82968">
        <ele>425</ele>
        <time>2017-10-15T12:27:41Z</time>
      </trkpt>
      <trkpt lat="45.14685" lon="5.8297">
        <ele>425</ele>
        <time>2017-10-15T12:27:43Z</time>
      </trkpt>
      <trkpt lat="45.14679" lon="5.82973">
        <ele>426</ele>
        <time>2017-10-15T12:27:45Z</time>
      </trkpt>
      <trkpt lat="45.14674" lon="5.82975">
        <ele>427</ele>
        <time>2017-10-15T12:27:47Z</time>
      </trkpt>
      <trkpt lat="45.14668" lon="5.82976">
        <ele>427</ele>
        <time>2017-10-15T12:27:49Z</time>
      </trkpt>
      <trkpt lat="45.14662" lon="5.82978">
        <ele>428</ele>
        <time>2017-10-15T12:27:51Z</time>
      </trkpt>
      <trkpt lat="45.14656" lon="5.8298">
        <ele>429</ele>
        <time>2017-10-15T12:27:53Z</time>
      </trkpt>
      <trkpt lat="45.1465" lon="5.82981">
        <ele>429</ele>
        <time>2017-10-15T12:27:55Z</time>
      </trkpt>
      <trkpt lat="45.14641" lon="5.82984">
        <ele>431</ele>
        <time>2017-10-15T12:27:58Z</time>
      </trkpt>
      <trkpt lat="45.14635" lon="5.82986">
        <ele>431</ele>
        <time>2017-10-15T12:28:00Z</time>
      </trkpt>
      <trkpt lat="45.14628" lon="5.82986">
        <ele>432</ele>
        <time>2017-10-15T12:28:02Z</time>
      </trkpt>
      <trkpt lat="45.14619" lon="5.82984">
        <ele>432</ele>
        <time>2017-10-15T12:28:04Z</time>
      </trkpt>
      <trkpt lat="45.14612" lon="5.82981">
        <ele>432</ele>
        <time>2017-10-15T12:28:06Z</time>
      </trkpt>
      <trkpt lat="45.14607" lon="5.82979">
        <ele>432</ele>
        <time>2017-10-15T12:28:08Z</time>
      </trkpt>
      <trkpt lat="45.14602" lon="5.82978">
        <ele>432</ele>
        <time>2017-10-15T12:28:10Z</time>
      </trkpt>
      <trkpt lat="45.14597" lon="5.82976">
        <ele>432</ele>
        <time>2017-10-15T12:28:12Z</time>
      </trkpt>
      <trkpt lat="45.14591" lon="5.82973">
        <ele>432</ele>
        <time>2017-10-15T12:28:14Z</time>
      </trkpt>
      <trkpt lat="45.14585" lon="5.8297">
        <ele>432</ele>
        <time>2017-10-15T12:28:16Z</time>
      </trkpt>
      <trkpt lat="45.1458" lon="5.82967">
        <ele>431</ele>
        <time>2017-10-15T12:28:18Z</time>
      </trkpt>
      <trkpt lat="45.14574" lon="5.82965">
        <ele>431</ele>
        <time>2017-10-15T12:28:20Z</time>
      </trkpt>
      <trkpt lat="45.14569" lon="5.82962">
        <ele>431</ele>
        <time>2017-10-15T12:28:22Z</time>
      </trkpt>
      <trkpt lat="45.14564" lon="5.8296">
        <ele>431</ele>
        <time>2017-10-15T12:28:24Z</time>
      </trkpt>
      <trkpt lat="45.14559" lon="5.82957">
        <ele>431</ele>
        <time>2017-10-15T12:28:26Z</time>
      </trkpt>
      <trkpt lat="45.14554" lon="5.82955">
        <ele>430</ele>
        <time>2017-10-15T12:28:28Z</time>
      </trkpt>
      <trkpt lat="45.14549" lon="5.82953">
        <ele>430</ele>
        <time>2017-10-15T12:28:30Z</time>
      </trkpt>
      <trkpt lat="45.14545" lon="5.82949">
        <ele>429</ele>
        <time>2017-10-15T12:28:32Z</time>
      </trkpt>
      <trkpt lat="45.14539" lon="5.82945">
        <ele>429</ele>
        <time>2017-10-15T12:28:35Z</time>
      </trkpt>
      <trkpt lat="45.14535" lon="5.82943">
        <ele>428</ele>
        <time>2017-10-15T12:28:37Z</time>
      </trkpt>
      <trkpt lat="45.1453" lon="5.82942">
        <ele>428</ele>
        <time>2017-10-15T12:28:39Z</time>
      </trkpt>
      <trkpt lat="45.14526" lon="5.82941">
        <ele>428</ele>
        <time>2017-10-15T12:28:41Z</time>
      </trkpt>
      <trkpt lat="45.14519" lon="5.8294">
        <ele>428</ele>
        <time>2017-10-15T12:28:44Z</time>
      </trkpt>
      <trkpt lat="45.14512" lon="5.82939">
        <ele>427</ele>
        <time>2017-10-15T12:28:47Z</time>
      </trkpt>
      <trkpt lat="45.14507" lon="5.82938">
        <ele>427</ele>
        <time>2017-10-15T12:28:50Z</time>
      </trkpt>
      <trkpt lat="45.145" lon="5.8294">
        <ele>427</ele>
        <time>2017-10-15T12:28:53Z</time>
      </trkpt>
      <trkpt lat="45.14491" lon="5.82944">
        <ele>428</ele>
        <time>2017-10-15T12:28:57Z</time>
      </trkpt>
      <trkpt lat="45.14486" lon="5.82947">
        <ele>427</ele>
        <time>2017-10-15T12:28:59Z</time>
      </trkpt>
      <trkpt lat="45.1448" lon="5.8295">
        <ele>427</ele>
        <time>2017-10-15T12:29:01Z</time>
      </trkpt>
      <trkpt lat="45.14474" lon="5.82953">
        <ele>427</ele>
        <time>2017-10-15T12:29:03Z</time>
      </trkpt>
      <trkpt lat="45.14468" lon="5.82955">
        <ele>426</ele>
        <time>2017-10-15T12:29:05Z</time>
      </trkpt>
      <trkpt lat="45.14462" lon="5.82958">
        <ele>426</ele>
        <time>2017-10-15T12:29:07Z</time>
      </trkpt>
      <trkpt lat="45.14457" lon="5.82961">
        <ele>425</ele>
        <time>2017-10-15T12:29:09Z</time>
      </trkpt>
      <trkpt lat="45.14451" lon="5.82963">
        <ele>425</ele>
        <time>2017-10-15T12:29:11Z</time>
      </trkpt>
      <trkpt lat="45.14444" lon="5.82966">
        <ele>425</ele>
        <time>2017-10-15T12:29:13Z</time>
      </trkpt>
      <trkpt lat="45.14439" lon="5.8297">
        <ele>424</ele>
        <time>2017-10-15T12:29:15Z</time>
      </trkpt>
      <trkpt lat="45.14433" lon="5.82974">
        <ele>424</ele>
        <time>2017-10-15T12:29:17Z</time>
      </trkpt>
      <trkpt lat="45.14426" lon="5.82978">
        <ele>423</ele>
        <time>2017-10-15T12:29:19Z</time>
      </trkpt>
      <trkpt lat="45.14419" lon="5.8298">
        <ele>423</ele>
        <time>2017-10-15T12:29:21Z</time>
      </trkpt>
      <trkpt lat="45.14412" lon="5.82982">
        <ele>423</ele>
        <time>2017-10-15T12:29:23Z</time>
      </trkpt>
      <trkpt lat="45.14404" lon="5.82985">
        <ele>423</ele>
        <time>2017-10-15T12:29:25Z</time>
      </trkpt>
      <trkpt lat="45.14395" lon="5.82987">
        <ele>423</ele>
        <time>2017-10-15T12:29:27Z</time>
      </trkpt>
      <trkpt lat="45.14386" lon="5.82987">
        <ele>422</ele>
        <time>2017-10-15T12:29:29Z</time>
      </trkpt>
      <trkpt lat="45.14378" lon="5.82988">
        <ele>422</ele>
        <time>2017-10-15T12:29:31Z</time>
      </trkpt>
      <trkpt lat="45.14371" lon="5.82986">
        <ele>422</ele>
        <time>2017-10-15T12:29:32Z</time>
      </trkpt>
      <trkpt lat="45.14366" lon="5.82985">
        <ele>422</ele>
        <time>2017-10-15T12:29:33Z</time>
      </trkpt>
      <trkpt lat="45.14358" lon="5.82984">
        <ele>422</ele>
        <time>2017-10-15T12:29:35Z</time>
      </trkpt>
      <trkpt lat="45.14351" lon="5.82986">
        <ele>422</ele>
        <time>2017-10-15T12:29:37Z</time>
      </trkpt>
      <trkpt lat="45.14346" lon="5.82986">
        <ele>422</ele>
        <time>2017-10-15T12:29:38Z</time>
      </trkpt>
      <trkpt lat="45.14339" lon="5.82983">
        <ele>422</ele>
        <time>2017-10-15T12:29:41Z</time>
      </trkpt>
      <trkpt lat="45.14334" lon="5.82981">
        <ele>422</ele>
        <time>2017-10-15T12:29:43Z</time>
      </trkpt>
      <trkpt lat="45.14328" lon="5.82978">
        <ele>422</ele>
        <time>2017-10-15T12:29:45Z</time>
      </trkpt>
      <trkpt lat="45.14321" lon="5.82975">
        <ele>422</ele>
        <time>2017-10-15T12:29:47Z</time>
      </trkpt>
      <trkpt lat="45.14314" lon="5.82972">
        <ele>422</ele>
        <time>2017-10-15T12:29:49Z</time>
      </trkpt>
      <trkpt lat="45.14303" lon="5.82968">
        <ele>422</ele>
        <time>2017-10-15T12:29:52Z</time>
      </trkpt>
      <trkpt lat="45.14296" lon="5.82965">
        <ele>422</ele>
        <time>2017-10-15T12:29:54Z</time>
      </trkpt>
      <trkpt lat="45.14288" lon="5.82963">
        <ele>422</ele>
        <time>2017-10-15T12:29:56Z</time>
      </trkpt>
      <trkpt lat="45.14281" lon="5.8296">
        <ele>422</ele>
        <time>2017-10-15T12:29:58Z</time>
      </trkpt>
      <trkpt lat="45.14275" lon="5.82957">
        <ele>422</ele>
        <time>2017-10-15T12:30:00Z</time>
      </trkpt>
      <trkpt lat="45.14268" lon="5.82955">
        <ele>422</ele>
        <time>2017-10-15T12:30:02Z</time>
      </trkpt>
      <trkpt lat="45.14262" lon="5.82952">
        <ele>422</ele>
        <time>2017-10-15T12:30:04Z</time>
      </trkpt>
      <trkpt lat="45.14254" lon="5.82948">
        <ele>422</ele>
        <time>2017-10-15T12:30:06Z</time>
      </trkpt>
      <trkpt lat="45.14246" lon="5.82944">
        <ele>422</ele>
        <time>2017-10-15T12:30:08Z</time>
      </trkpt>
      <trkpt lat="45.14239" lon="5.82941">
        <ele>422</ele>
        <time>2017-10-15T12:30:10Z</time>
      </trkpt>
      <trkpt lat="45.14231" lon="5.82939">
        <ele>422</ele>
        <time>2017-10-15T12:30:12Z</time>
      </trkpt>
      <trkpt lat="45.14224" lon="5.82937">
        <ele>422</ele>
        <time>2017-10-15T12:30:14Z</time>
      </trkpt>
      <trkpt lat="45.14217" lon="5.82935">
        <ele>422</ele>
        <time>2017-10-15T12:30:16Z</time>
      </trkpt>
      <trkpt lat="45.14212" lon="5.82934">
        <ele>422</ele>
        <time>2017-10-15T12:30:18Z</time>
      </trkpt>
      <trkpt lat="45.14205" lon="5.82932">
        <ele>422</ele>
        <time>2017-10-15T12:30:20Z</time>
      </trkpt>
      <trkpt lat="45.14198" lon="5.82929">
        <ele>422</ele>
        <time>2017-10-15T12:30:22Z</time>
      </trkpt>
      <trkpt lat="45.14193" lon="5.82924">
        <ele>422</ele>
        <time>2017-10-15T12:30:24Z</time>
      </trkpt>
      <trkpt lat="45.14189" lon="5.8292">
        <ele>422</ele>
        <time>2017-10-15T12:30:26Z</time>
      </trkpt>
      <trkpt lat="45.14183" lon="5.82917">
        <ele>422</ele>
        <time>2017-10-15T12:30:29Z</time>
      </trkpt>
      <trkpt lat="45.14175" lon="5.82916">
        <ele>421</ele>
        <time>2017-10-15T12:30:31Z</time>
      </trkpt>
      <trkpt lat="45.14171" lon="5.82915">
        <ele>421</ele>
        <time>2017-10-15T12:30:32Z</time>
      </trkpt>
      <trkpt lat="45.14162" lon="5.82912">
        <ele>421</ele>
        <time>2017-10-15T12:30:34Z</time>
      </trkpt>
      <trkpt lat="45.14155" lon="5.82908">
        <ele>421</ele>
        <time>2017-10-15T12:30:36Z</time>
      </trkpt>
      <trkpt lat="45.14147" lon="5.82905">
        <ele>420</ele>
        <time>2017-10-15T12:30:38Z</time>
      </trkpt>
      <trkpt lat="45.1414" lon="5.82901">
        <ele>420</ele>
        <time>2017-10-15T12:30:40Z</time>
      </trkpt>
      <trkpt lat="45.14132" lon="5.82897">
        <ele>420</ele>
        <time>2017-10-15T12:30:42Z</time>
      </trkpt>
      <trkpt lat="45.14125" lon="5.82893">
        <ele>420</ele>
        <time>2017-10-15T12:30:44Z</time>
      </trkpt>
      <trkpt lat="45.14116" lon="5.82889">
        <ele>420</ele>
        <time>2017-10-15T12:30:46Z</time>
      </trkpt>
      <trkpt lat="45.14104" lon="5.82885">
        <ele>420</ele>
        <time>2017-10-15T12:30:49Z</time>
      </trkpt>
      <trkpt lat="45.14095" lon="5.82882">
        <ele>420</ele>
        <time>2017-10-15T12:30:51Z</time>
      </trkpt>
      <trkpt lat="45.14087" lon="5.82879">
        <ele>420</ele>
        <time>2017-10-15T12:30:53Z</time>
      </trkpt>
      <trkpt lat="45.14074" lon="5.82876">
        <ele>420</ele>
        <time>2017-10-15T12:30:56Z</time>
      </trkpt>
      <trkpt lat="45.14066" lon="5.82872">
        <ele>420</ele>
        <time>2017-10-15T12:30:58Z</time>
      </trkpt>
      <trkpt lat="45.14059" lon="5.82869">
        <ele>420</ele>
        <time>2017-10-15T12:31:00Z</time>
      </trkpt>
      <trkpt lat="45.1405" lon="5.82868">
        <ele>420</ele>
        <time>2017-10-15T12:31:02Z</time>
      </trkpt>
      <trkpt lat="45.14042" lon="5.82869">
        <ele>420</ele>
        <time>2017-10-15T12:31:04Z</time>
      </trkpt>
      <trkpt lat="45.14034" lon="5.82871">
        <ele>420</ele>
        <time>2017-10-15T12:31:06Z</time>
      </trkpt>
      <trkpt lat="45.14027" lon="5.8287">
        <ele>420</ele>
        <time>2017-10-15T12:31:07Z</time>
      </trkpt>
      <trkpt lat="45.14021" lon="5.82866">
        <ele>420</ele>
        <time>2017-10-15T12:31:09Z</time>
      </trkpt>
      <trkpt lat="45.14017" lon="5.82861">
        <ele>420</ele>
        <time>2017-10-15T12:31:11Z</time>
      </trkpt>
      <trkpt lat="45.14014" lon="5.82853">
        <ele>420</ele>
        <time>2017-10-15T12:31:13Z</time>
      </trkpt>
      <trkpt lat="45.1401" lon="5.82845">
        <ele>420</ele>
        <time>2017-10-15T12:31:15Z</time>
      </trkpt>
      <trkpt lat="45.14005" lon="5.82838">
        <ele>420</ele>
        <time>2017-10-15T12:31:17Z</time>
      </trkpt>
      <trkpt lat="45.14" lon="5.82832">
        <ele>421</ele>
        <time>2017-10-15T12:31:19Z</time>
      </trkpt>
      <trkpt lat="45.13991" lon="5.82824">
        <ele>422</ele>
        <time>2017-10-15T12:31:22Z</time>
      </trkpt>
      <trkpt lat="45.13985" lon="5.82818">
        <ele>422</ele>
        <time>2017-10-15T12:31:24Z</time>
      </trkpt>
      <trkpt lat="45.13981" lon="5.82813">
        <ele>423</ele>
        <time>2017-10-15T12:31:26Z</time>
      </trkpt>
      <trkpt lat="45.13976" lon="5.82808">
        <ele>423</ele>
        <time>2017-10-15T12:31:28Z</time>
      </trkpt>
      <trkpt lat="45.1397" lon="5.82803">
        <ele>423</ele>
        <time>2017-10-15T12:31:30Z</time>
      </trkpt>
      <trkpt lat="45.13965" lon="5.82799">
        <ele>424</ele>
        <time>2017-10-15T12:31:32Z</time>
      </trkpt>
      <trkpt lat="45.13958" lon="5.82794">
        <ele>424</ele>
        <time>2017-10-15T12:31:34Z</time>
      </trkpt>
      <trkpt lat="45.13953" lon="5.8279">
        <ele>424</ele>
        <time>2017-10-15T12:31:36Z</time>
      </trkpt>
      <trkpt lat="45.13949" lon="5.82787">
        <ele>424</ele>
        <time>2017-10-15T12:31:38Z</time>
      </trkpt>
      <trkpt lat="45.13944" lon="5.82784">
        <ele>424</ele>
        <time>2017-10-15T12:31:41Z</time>
      </trkpt>
      <trkpt lat="45.13939" lon="5.8278">
        <ele>424</ele>
        <time>2017-10-15T12:31:43Z</time>
      </trkpt>
      <trkpt lat="45.13935" lon="5.82773">
        <ele>423</ele>
        <time>2017-10-15T12:31:45Z</time>
      </trkpt>
      <trkpt lat="45.13932" lon="5.82767">
        <ele>422</ele>
        <time>2017-10-15T12:31:47Z</time>
      </trkpt>
      <trkpt lat="45.13929" lon="5.8276">
        <ele>422</ele>
        <time>2017-10-15T12:31:49Z</time>
      </trkpt>
      <trkpt lat="45.13928" lon="5.82753">
        <ele>421</ele>
        <time>2017-10-15T12:31:51Z</time>
      </trkpt>
      <trkpt lat="45.13928" lon="5.82745">
        <ele>421</ele>
        <time>2017-10-15T12:31:54Z</time>
      </trkpt>
      <trkpt lat="45.1393" lon="5.82739">
        <ele>421</ele>
        <time>2017-10-15T12:32:13Z</time>
      </trkpt>
      <trkpt lat="45.13931" lon="5.82746">
        <ele>421</ele>
        <time>2017-10-15T12:32:23Z</time>
      </trkpt>
      <trkpt lat="45.13936" lon="5.82744">
        <ele>420</ele>
        <time>2017-10-15T12:32:32Z</time>
      </trkpt>
      <trkpt lat="45.13936" lon="5.82754">
        <ele>421</ele>
        <time>2017-10-15T12:33:32Z</time>
      </trkpt>
      <trkpt lat="45.13934" lon="5.8276">
        <ele>421</ele>
        <time>2017-10-15T12:33:35Z</time>
      </trkpt>
      <trkpt lat="45.13932" lon="5.82767">
        <ele>422</ele>
        <time>2017-10-15T12:33:38Z</time>
      </trkpt>
      <trkpt lat="45.13936" lon="5.82774">
        <ele>423</ele>
        <time>2017-10-15T12:33:41Z</time>
      </trkpt>
      <trkpt lat="45.1394" lon="5.8278">
        <ele>424</ele>
        <time>2017-10-15T12:33:44Z</time>
      </trkpt>
      <trkpt lat="45.13945" lon="5.82785">
        <ele>424</ele>
        <time>2017-10-15T12:33:47Z</time>
      </trkpt>
      <trkpt lat="45.13952" lon="5.82785">
        <ele>423</ele>
        <time>2017-10-15T12:33:49Z</time>
      </trkpt>
      <trkpt lat="45.1396" lon="5.8278">
        <ele>422</ele>
        <time>2017-10-15T12:33:51Z</time>
      </trkpt>
      <trkpt lat="45.13966" lon="5.82771">
        <ele>421</ele>
        <time>2017-10-15T12:33:53Z</time>
      </trkpt>
      <trkpt lat="45.13964" lon="5.82757">
        <ele>420</ele>
        <time>2017-10-15T12:33:54Z</time>
      </trkpt>
      <trkpt lat="45.13964" lon="5.82739">
        <ele>420</ele>
        <time>2017-10-15T12:33:57Z</time>
      </trkpt>
      <trkpt lat="45.13967" lon="5.8273">
        <ele>420</ele>
        <time>2017-10-15T12:33:59Z</time>
      </trkpt>
      <trkpt lat="45.13971" lon="5.82726">
        <ele>420</ele>
        <time>2017-10-15T12:34:01Z</time>
      </trkpt>
      <trkpt lat="45.13976" lon="5.82718">
        <ele>420</ele>
        <time>2017-10-15T12:34:03Z</time>
      </trkpt>
      <trkpt lat="45.1398" lon="5.82712">
        <ele>420</ele>
        <time>2017-10-15T12:34:05Z</time>
      </trkpt>
      <trkpt lat="45.13983" lon="5.82706">
        <ele>420</ele>
        <time>2017-10-15T12:34:07Z</time>
      </trkpt>
      <trkpt lat="45.13987" lon="5.82698">
        <ele>420</ele>
        <time>2017-10-15T12:34:10Z</time>
      </trkpt>
      <trkpt lat="45.1399" lon="5.82693">
        <ele>420</ele>
        <time>2017-10-15T12:34:12Z</time>
      </trkpt>
      <trkpt lat="45.13995" lon="5.82686">
        <ele>420</ele>
        <time>2017-10-15T12:34:15Z</time>
      </trkpt>
      <trkpt lat="45.13999" lon="5.8268">
        <ele>420</ele>
        <time>2017-10-15T12:34:18Z</time>
      </trkpt>
      <trkpt lat="45.14003" lon="5.82674">
        <ele>420</ele>
        <time>2017-10-15T12:34:21Z</time>
      </trkpt>
      <trkpt lat="45.14007" lon="5.82667">
        <ele>420</ele>
        <time>2017-10-15T12:34:24Z</time>
      </trkpt>
      <trkpt lat="45.14012" lon="5.82663">
        <ele>420</ele>
        <time>2017-10-15T12:34:27Z</time>
      </trkpt>
      <trkpt lat="45.14017" lon="5.8266">
        <ele>420</ele>
        <time>2017-10-15T12:34:30Z</time>
      </trkpt>
      <trkpt lat="45.14022" lon="5.82659">
        <ele>420</ele>
        <time>2017-10-15T12:34:33Z</time>
      </trkpt>
      <trkpt lat="45.14028" lon="5.82657">
        <ele>421</ele>
        <time>2017-10-15T12:34:36Z</time>
      </trkpt>
      <trkpt lat="45.14033" lon="5.82658">
        <ele>421</ele>
        <time>2017-10-15T12:34:38Z</time>
      </trkpt>
      <trkpt lat="45.14037" lon="5.82659">
        <ele>421</ele>
        <time>2017-10-15T12:34:41Z</time>
      </trkpt>
      <trkpt lat="45.14042" lon="5.82659">
        <ele>421</ele>
        <time>2017-10-15T12:34:44Z</time>
      </trkpt>
      <trkpt lat="45.14049" lon="5.82661">
        <ele>421</ele>
        <time>2017-10-15T12:34:48Z</time>
      </trkpt>
      <trkpt lat="45.14053" lon="5.82663">
        <ele>421</ele>
        <time>2017-10-15T12:34:51Z</time>
      </trkpt>
      <trkpt lat="45.14062" lon="5.82672">
        <ele>421</ele>
        <time>2017-10-15T12:34:58Z</time>
      </trkpt>
      <trkpt lat="45.14066" lon="5.82678">
        <ele>421</ele>
        <time>2017-10-15T12:35:02Z</time>
      </trkpt>
      <trkpt lat="45.14069" lon="5.82683">
        <ele>421</ele>
        <time>2017-10-15T12:35:05Z</time>
      </trkpt>
      <trkpt lat="45.14072" lon="5.82688">
        <ele>420</ele>
        <time>2017-10-15T12:35:08Z</time>
      </trkpt>
      <trkpt lat="45.14076" lon="5.82693">
        <ele>420</ele>
        <time>2017-10-15T12:35:11Z</time>
      </trkpt>
      <trkpt lat="45.14079" lon="5.82699">
        <ele>421</ele>
        <time>2017-10-15T12:35:14Z</time>
      </trkpt>
      <trkpt lat="45.14082" lon="5.82704">
        <ele>422</ele>
        <time>2017-10-15T12:35:17Z</time>
      </trkpt>
      <trkpt lat="45.14085" lon="5.82709">
        <ele>422</ele>
        <time>2017-10-15T12:35:20Z</time>
      </trkpt>
      <trkpt lat="45.14088" lon="5.82716">
        <ele>423</ele>
        <time>2017-10-15T12:35:24Z</time>
      </trkpt>
      <trkpt lat="45.1409" lon="5.82724">
        <ele>423</ele>
        <time>2017-10-15T12:35:29Z</time>
      </trkpt>
      <trkpt lat="45.14093" lon="5.82731">
        <ele>423</ele>
        <time>2017-10-15T12:35:33Z</time>
      </trkpt>
      <trkpt lat="45.14095" lon="5.82739">
        <ele>423</ele>
        <time>2017-10-15T12:35:37Z</time>
      </trkpt>
      <trkpt lat="45.14096" lon="5.82745">
        <ele>423</ele>
        <time>2017-10-15T12:35:40Z</time>
      </trkpt>
      <trkpt lat="45.14098" lon="5.82752">
        <ele>423</ele>
        <time>2017-10-15T12:35:44Z</time>
      </trkpt>
      <trkpt lat="45.141" lon="5.82758">
        <ele>423</ele>
        <time>2017-10-15T12:35:47Z</time>
      </trkpt>
      <trkpt lat="45.14103" lon="5.82764">
        <ele>423</ele>
        <time>2017-10-15T12:35:51Z</time>
      </trkpt>
      <trkpt lat="45.14107" lon="5.82771">
        <ele>423</ele>
        <time>2017-10-15T12:35:55Z</time>
      </trkpt>
      <trkpt lat="45.1411" lon="5.82776">
        <ele>424</ele>
        <time>2017-10-15T12:35:58Z</time>
      </trkpt>
      <trkpt lat="45.14114" lon="5.8278">
        <ele>424</ele>
        <time>2017-10-15T12:36:02Z</time>
      </trkpt>
      <trkpt lat="45.14118" lon="5.82784">
        <ele>424</ele>
        <time>2017-10-15T12:36:06Z</time>
      </trkpt>
      <trkpt lat="45.14122" lon="5.82788">
        <ele>424</ele>
        <time>2017-10-15T12:36:09Z</time>
      </trkpt>
      <trkpt lat="45.14126" lon="5.82791">
        <ele>425</ele>
        <time>2017-10-15T12:36:11Z</time>
      </trkpt>
      <trkpt lat="45.14131" lon="5.82792">
        <ele>425</ele>
        <time>2017-10-15T12:36:13Z</time>
      </trkpt>
      <trkpt lat="45.14135" lon="5.82789">
        <ele>426</ele>
        <time>2017-10-15T12:36:17Z</time>
      </trkpt>
      <trkpt lat="45.14136" lon="5.82782">
        <ele>426</ele>
        <time>2017-10-15T12:36:20Z</time>
      </trkpt>
      <trkpt lat="45.14135" lon="5.82774">
        <ele>427</ele>
        <time>2017-10-15T12:36:23Z</time>
      </trkpt>
      <trkpt lat="45.14133" lon="5.82767">
        <ele>427</ele>
        <time>2017-10-15T12:36:26Z</time>
      </trkpt>
      <trkpt lat="45.14131" lon="5.82761">
        <ele>427</ele>
        <time>2017-10-15T12:36:29Z</time>
      </trkpt>
      <trkpt lat="45.14127" lon="5.82757">
        <ele>427</ele>
        <time>2017-10-15T12:36:32Z</time>
      </trkpt>
      <trkpt lat="45.14123" lon="5.82752">
        <ele>427</ele>
        <time>2017-10-15T12:36:35Z</time>
      </trkpt>
      <trkpt lat="45.14119" lon="5.82747">
        <ele>427</ele>
        <time>2017-10-15T12:36:38Z</time>
      </trkpt>
      <trkpt lat="45.14114" lon="5.82742">
        <ele>426</ele>
        <time>2017-10-15T12:36:41Z</time>
      </trkpt>
      <trkpt lat="45.14111" lon="5.82735">
        <ele>426</ele>
        <time>2017-10-15T12:36:44Z</time>
      </trkpt>
      <trkpt lat="45.14112" lon="5.82726">
        <ele>427</ele>
        <time>2017-10-15T12:36:47Z</time>
      </trkpt>
      <trkpt lat="45.14116" lon="5.8272">
        <ele>428</ele>
        <time>2017-10-15T12:36:50Z</time>
      </trkpt>
      <trkpt lat="45.1412" lon="5.82717">
        <ele>429</ele>
        <time>2017-10-15T12:36:53Z</time>
      </trkpt>
      <trkpt lat="45.14125" lon="5.82717">
        <ele>430</ele>
        <time>2017-10-15T12:36:56Z</time>
      </trkpt>
      <trkpt lat="45.1413" lon="5.8272">
        <ele>431</ele>
        <time>2017-10-15T12:36:59Z</time>
      </trkpt>
      <trkpt lat="45.14134" lon="5.82726">
        <ele>431</ele>
        <time>2017-10-15T12:37:02Z</time>
      </trkpt>
      <trkpt lat="45.14138" lon="5.8273">
        <ele>432</ele>
        <time>2017-10-15T12:37:06Z</time>
      </trkpt>
      <trkpt lat="45.14143" lon="5.82733">
        <ele>432</ele>
        <time>2017-10-15T12:37:10Z</time>
      </trkpt>
      <trkpt lat="45.14148" lon="5.82737">
        <ele>433</ele>
        <time>2017-10-15T12:37:15Z</time>
      </trkpt>
      <trkpt lat="45.14152" lon="5.82742">
        <ele>433</ele>
        <time>2017-10-15T12:37:19Z</time>
      </trkpt>
      <trkpt lat="45.14156" lon="5.82746">
        <ele>434</ele>
        <time>2017-10-15T12:37:24Z</time>
      </trkpt>
      <trkpt lat="45.1416" lon="5.82749">
        <ele>434</ele>
        <time>2017-10-15T12:37:29Z</time>
      </trkpt>
      <trkpt lat="45.14166" lon="5.82752">
        <ele>435</ele>
        <time>2017-10-15T12:37:35Z</time>
      </trkpt>
      <trkpt lat="45.14171" lon="5.82755">
        <ele>436</ele>
        <time>2017-10-15T12:37:39Z</time>
      </trkpt>
      <trkpt lat="45.14175" lon="5.82758">
        <ele>436</ele>
        <time>2017-10-15T12:37:43Z</time>
      </trkpt>
      <trkpt lat="45.1418" lon="5.82763">
        <ele>437</ele>
        <time>2017-10-15T12:37:47Z</time>
      </trkpt>
      <trkpt lat="45.14184" lon="5.82766">
        <ele>437</ele>
        <time>2017-10-15T12:37:50Z</time>
      </trkpt>
      <trkpt lat="45.14188" lon="5.8277">
        <ele>438</ele>
        <time>2017-10-15T12:37:54Z</time>
      </trkpt>
      <trkpt lat="45.14193" lon="5.82775">
        <ele>438</ele>
        <time>2017-10-15T12:37:58Z</time>
      </trkpt>
      <trkpt lat="45.14197" lon="5.82777">
        <ele>438</ele>
        <time>2017-10-15T12:38:01Z</time>
      </trkpt>
      <trkpt lat="45.14202" lon="5.82778">
        <ele>439</ele>
        <time>2017-10-15T12:38:04Z</time>
      </trkpt>
      <trkpt lat="45.14207" lon="5.82781">
        <ele>440</ele>
        <time>2017-10-15T12:38:08Z</time>
      </trkpt>
      <trkpt lat="45.14212" lon="5.82785">
        <ele>440</ele>
        <time>2017-10-15T12:38:12Z</time>
      </trkpt>
      <trkpt lat="45.14217" lon="5.82788">
        <ele>441</ele>
        <time>2017-10-15T12:38:16Z</time>
      </trkpt>
      <trkpt lat="45.14222" lon="5.8279">
        <ele>441</ele>
        <time>2017-10-15T12:38:20Z</time>
      </trkpt>
      <trkpt lat="45.14227" lon="5.82793">
        <ele>442</ele>
        <time>2017-10-15T12:38:24Z</time>
      </trkpt>
      <trkpt lat="45.14232" lon="5.82794">
        <ele>442</ele>
        <time>2017-10-15T12:38:28Z</time>
      </trkpt>
      <trkpt lat="45.14238" lon="5.82797">
        <ele>443</ele>
        <time>2017-10-15T12:38:33Z</time>
      </trkpt>
      <trkpt lat="45.14245" lon="5.82804">
        <ele>443</ele>
        <time>2017-10-15T12:38:40Z</time>
      </trkpt>
      <trkpt lat="45.1425" lon="5.82805">
        <ele>444</ele>
        <time>2017-10-15T12:38:45Z</time>
      </trkpt>
      <trkpt lat="45.14256" lon="5.82806">
        <ele>444</ele>
        <time>2017-10-15T12:38:50Z</time>
      </trkpt>
      <trkpt lat="45.14261" lon="5.82807">
        <ele>445</ele>
        <time>2017-10-15T12:38:54Z</time>
      </trkpt>
      <trkpt lat="45.14267" lon="5.82808">
        <ele>446</ele>
        <time>2017-10-15T12:38:58Z</time>
      </trkpt>
      <trkpt lat="45.14272" lon="5.82809">
        <ele>447</ele>
        <time>2017-10-15T12:39:02Z</time>
      </trkpt>
      <trkpt lat="45.14277" lon="5.82808">
        <ele>448</ele>
        <time>2017-10-15T12:39:06Z</time>
      </trkpt>
      <trkpt lat="45.14282" lon="5.8281">
        <ele>448</ele>
        <time>2017-10-15T12:39:10Z</time>
      </trkpt>
      <trkpt lat="45.14286" lon="5.82811">
        <ele>448</ele>
        <time>2017-10-15T12:39:14Z</time>
      </trkpt>
      <trkpt lat="45.14292" lon="5.82809">
        <ele>449</ele>
        <time>2017-10-15T12:39:18Z</time>
      </trkpt>
      <trkpt lat="45.14297" lon="5.82809">
        <ele>450</ele>
        <time>2017-10-15T12:39:22Z</time>
      </trkpt>
      <trkpt lat="45.14303" lon="5.8281">
        <ele>450</ele>
        <time>2017-10-15T12:39:26Z</time>
      </trkpt>
      <trkpt lat="45.14308" lon="5.82808">
        <ele>451</ele>
        <time>2017-10-15T12:39:30Z</time>
      </trkpt>
      <trkpt lat="45.14314" lon="5.82807">
        <ele>452</ele>
        <time>2017-10-15T12:39:34Z</time>
      </trkpt>
      <trkpt lat="45.14319" lon="5.82804">
        <ele>453</ele>
        <time>2017-10-15T12:39:38Z</time>
      </trkpt>
      <trkpt lat="45.14325" lon="5.82801">
        <ele>454</ele>
        <time>2017-10-15T12:39:42Z</time>
      </trkpt>
      <trkpt lat="45.1433" lon="5.82801">
        <ele>455</ele>
        <time>2017-10-15T12:39:46Z</time>
      </trkpt>
      <trkpt lat="45.14335" lon="5.82799">
        <ele>456</ele>
        <time>2017-10-15T12:39:49Z</time>
      </trkpt>
      <trkpt lat="45.14339" lon="5.82795">
        <ele>458</ele>
        <time>2017-10-15T12:39:52Z</time>
      </trkpt>
      <trkpt lat="45.14343" lon="5.8279">
        <ele>460</ele>
        <time>2017-10-15T12:39:55Z</time>
      </trkpt>
      <trkpt lat="45.14348" lon="5.82785">
        <ele>462</ele>
        <time>2017-10-15T12:39:59Z</time>
      </trkpt>
      <trkpt lat="45.14352" lon="5.82781">
        <ele>464</ele>
        <time>2017-10-15T12:40:03Z</time>
      </trkpt>
      <trkpt lat="45.1436" lon="5.82776">
        <ele>466</ele>
        <time>2017-10-15T12:40:11Z</time>
      </trkpt>
      <trkpt lat="45.14364" lon="5.82773">
        <ele>467</ele>
        <time>2017-10-15T12:40:15Z</time>
      </trkpt>
      <trkpt lat="45.14369" lon="5.8277">
        <ele>468</ele>
        <time>2017-10-15T12:40:19Z</time>
      </trkpt>
      <trkpt lat="45.14374" lon="5.82766">
        <ele>469</ele>
        <time>2017-10-15T12:40:23Z</time>
      </trkpt>
      <trkpt lat="45.14381" lon="5.82763">
        <ele>470</ele>
        <time>2017-10-15T12:40:27Z</time>
      </trkpt>
      <trkpt lat="45.14387" lon="5.82759">
        <ele>472</ele>
        <time>2017-10-15T12:40:30Z</time>
      </trkpt>
      <trkpt lat="45.14391" lon="5.82757">
        <ele>473</ele>
        <time>2017-10-15T12:40:33Z</time>
      </trkpt>
      <trkpt lat="45.14396" lon="5.82756">
        <ele>473</ele>
        <time>2017-10-15T12:40:37Z</time>
      </trkpt>
      <trkpt lat="45.14401" lon="5.82755">
        <ele>474</ele>
        <time>2017-10-15T12:40:41Z</time>
      </trkpt>
      <trkpt lat="45.14407" lon="5.82751">
        <ele>475</ele>
        <time>2017-10-15T12:40:45Z</time>
      </trkpt>
      <trkpt lat="45.14412" lon="5.82749">
        <ele>476</ele>
        <time>2017-10-15T12:40:49Z</time>
      </trkpt>
      <trkpt lat="45.14417" lon="5.82747">
        <ele>476</ele>
        <time>2017-10-15T12:40:53Z</time>
      </trkpt>
      <trkpt lat="45.14423" lon="5.82746">
        <ele>476</ele>
        <time>2017-10-15T12:40:57Z</time>
      </trkpt>
      <trkpt lat="45.14428" lon="5.82744">
        <ele>476</ele>
        <time>2017-10-15T12:41:01Z</time>
      </trkpt>
      <trkpt lat="45.14433" lon="5.82742">
        <ele>476</ele>
        <time>2017-10-15T12:41:05Z</time>
      </trkpt>
      <trkpt lat="45.14436" lon="5.82738">
        <ele>477</ele>
        <time>2017-10-15T12:41:08Z</time>
      </trkpt>
      <trkpt lat="45.14441" lon="5.82735">
        <ele>478</ele>
        <time>2017-10-15T12:41:11Z</time>
      </trkpt>
      <trkpt lat="45.14446" lon="5.82731">
        <ele>478</ele>
        <time>2017-10-15T12:41:15Z</time>
      </trkpt>
      <trkpt lat="45.14449" lon="5.82726">
        <ele>480</ele>
        <time>2017-10-15T12:41:18Z</time>
      </trkpt>
      <trkpt lat="45.14454" lon="5.82721">
        <ele>481</ele>
        <time>2017-10-15T12:41:22Z</time>
      </trkpt>
      <trkpt lat="45.14459" lon="5.82717">
        <ele>482</ele>
        <time>2017-10-15T12:41:26Z</time>
      </trkpt>
      <trkpt lat="45.14463" lon="5.82714">
        <ele>482</ele>
        <time>2017-10-15T12:41:29Z</time>
      </trkpt>
      <trkpt lat="45.14467" lon="5.82708">
        <ele>484</ele>
        <time>2017-10-15T12:41:33Z</time>
      </trkpt>
      <trkpt lat="45.14472" lon="5.82703">
        <ele>485</ele>
        <time>2017-10-15T12:41:37Z</time>
      </trkpt>
      <trkpt lat="45.14476" lon="5.827">
        <ele>485</ele>
        <time>2017-10-15T12:41:40Z</time>
      </trkpt>
      <trkpt lat="45.14479" lon="5.82694">
        <ele>487</ele>
        <time>2017-10-15T12:41:44Z</time>
      </trkpt>
      <trkpt lat="45.14482" lon="5.82687">
        <ele>489</ele>
        <time>2017-10-15T12:41:48Z</time>
      </trkpt>
      <trkpt lat="45.14486" lon="5.8268">
        <ele>491</ele>
        <time>2017-10-15T12:41:52Z</time>
      </trkpt>
      <trkpt lat="45.14489" lon="5.82675">
        <ele>491</ele>
        <time>2017-10-15T12:41:55Z</time>
      </trkpt>
      <trkpt lat="45.14493" lon="5.82668">
        <ele>493</ele>
        <time>2017-10-15T12:41:59Z</time>
      </trkpt>
      <trkpt lat="45.14496" lon="5.82662">
        <ele>494</ele>
        <time>2017-10-15T12:42:02Z</time>
      </trkpt>
      <trkpt lat="45.145" lon="5.82657">
        <ele>495</ele>
        <time>2017-10-15T12:42:06Z</time>
      </trkpt>
      <trkpt lat="45.14504" lon="5.82652">
        <ele>496</ele>
        <time>2017-10-15T12:42:10Z</time>
      </trkpt>
      <trkpt lat="45.14509" lon="5.8265">
        <ele>496</ele>
        <time>2017-10-15T12:42:14Z</time>
      </trkpt>
      <trkpt lat="45.14514" lon="5.82649">
        <ele>495</ele>
        <time>2017-10-15T12:42:18Z</time>
      </trkpt>
      <trkpt lat="45.14519" lon="5.82646">
        <ele>496</ele>
        <time>2017-10-15T12:42:22Z</time>
      </trkpt>
      <trkpt lat="45.14524" lon="5.82642">
        <ele>496</ele>
        <time>2017-10-15T12:42:26Z</time>
      </trkpt>
      <trkpt lat="45.14528" lon="5.82638">
        <ele>497</ele>
        <time>2017-10-15T12:42:29Z</time>
      </trkpt>
      <trkpt lat="45.14533" lon="5.82635">
        <ele>497</ele>
        <time>2017-10-15T12:42:32Z</time>
      </trkpt>
      <trkpt lat="45.14541" lon="5.82627">
        <ele>499</ele>
        <time>2017-10-15T12:42:39Z</time>
      </trkpt>
      <trkpt lat="45.14544" lon="5.82623">
        <ele>499</ele>
        <time>2017-10-15T12:42:42Z</time>
      </trkpt>
      <trkpt lat="45.14549" lon="5.82618">
        <ele>500</ele>
        <time>2017-10-15T12:42:46Z</time>
      </trkpt>
      <trkpt lat="45.14552" lon="5.82612">
        <ele>502</ele>
        <time>2017-10-15T12:42:50Z</time>
      </trkpt>
      <trkpt lat="45.14555" lon="5.82605">
        <ele>503</ele>
        <time>2017-10-15T12:42:54Z</time>
      </trkpt>
      <trkpt lat="45.14559" lon="5.82598">
        <ele>505</ele>
        <time>2017-10-15T12:42:58Z</time>
      </trkpt>
      <trkpt lat="45.14563" lon="5.82592">
        <ele>506</ele>
        <time>2017-10-15T12:43:02Z</time>
      </trkpt>
      <trkpt lat="45.14566" lon="5.82585">
        <ele>507</ele>
        <time>2017-10-15T12:43:06Z</time>
      </trkpt>
      <trkpt lat="45.1457" lon="5.82579">
        <ele>509</ele>
        <time>2017-10-15T12:43:10Z</time>
      </trkpt>
      <trkpt lat="45.14573" lon="5.82572">
        <ele>510</ele>
        <time>2017-10-15T12:43:14Z</time>
      </trkpt>
      <trkpt lat="45.14575" lon="5.82565">
        <ele>512</ele>
        <time>2017-10-15T12:43:18Z</time>
      </trkpt>
      <trkpt lat="45.14578" lon="5.8256">
        <ele>513</ele>
        <time>2017-10-15T12:43:21Z</time>
      </trkpt>
      <trkpt lat="45.14581" lon="5.82555">
        <ele>514</ele>
        <time>2017-10-15T12:43:24Z</time>
      </trkpt>
      <trkpt lat="45.14584" lon="5.82548">
        <ele>515</ele>
        <time>2017-10-15T12:43:28Z</time>
      </trkpt>
      <trkpt lat="45.14586" lon="5.8254">
        <ele>516</ele>
        <time>2017-10-15T12:43:32Z</time>
      </trkpt>
      <trkpt lat="45.14587" lon="5.82534">
        <ele>517</ele>
        <time>2017-10-15T12:43:35Z</time>
      </trkpt>
      <trkpt lat="45.14588" lon="5.82527">
        <ele>519</ele>
        <time>2017-10-15T12:43:38Z</time>
      </trkpt>
      <trkpt lat="45.1459" lon="5.8252">
        <ele>520</ele>
        <time>2017-10-15T12:43:41Z</time>
      </trkpt>
      <trkpt lat="45.14592" lon="5.82511">
        <ele>521</ele>
        <time>2017-10-15T12:43:44Z</time>
      </trkpt>
      <trkpt lat="45.14594" lon="5.82505">
        <ele>522</ele>
        <time>2017-10-15T12:43:46Z</time>
      </trkpt>
      <trkpt lat="45.14597" lon="5.82497">
        <ele>523</ele>
        <time>2017-10-15T12:43:49Z</time>
      </trkpt>
      <trkpt lat="45.146" lon="5.82489">
        <ele>524</ele>
        <time>2017-10-15T12:43:52Z</time>
      </trkpt>
      <trkpt lat="45.14603" lon="5.82482">
        <ele>525</ele>
        <time>2017-10-15T12:43:55Z</time>
      </trkpt>
      <trkpt lat="45.14605" lon="5.82475">
        <ele>525</ele>
        <time>2017-10-15T12:43:58Z</time>
      </trkpt>
      <trkpt lat="45.14608" lon="5.82467">
        <ele>525</ele>
        <time>2017-10-15T12:44:01Z</time>
      </trkpt>
      <trkpt lat="45.1461" lon="5.82459">
        <ele>526</ele>
        <time>2017-10-15T12:44:04Z</time>
      </trkpt>
      <trkpt lat="45.1461" lon="5.8245">
        <ele>526</ele>
        <time>2017-10-15T12:44:07Z</time>
      </trkpt>
      <trkpt lat="45.14609" lon="5.82443">
        <ele>527</ele>
        <time>2017-10-15T12:44:09Z</time>
      </trkpt>
      <trkpt lat="45.14607" lon="5.82429">
        <ele>528</ele>
        <time>2017-10-15T12:44:13Z</time>
      </trkpt>
      <trkpt lat="45.14606" lon="5.82422">
        <ele>529</ele>
        <time>2017-10-15T12:44:15Z</time>
      </trkpt>
      <trkpt lat="45.14604" lon="5.82416">
        <ele>529</ele>
        <time>2017-10-15T12:44:17Z</time>
      </trkpt>
      <trkpt lat="45.14602" lon="5.8241">
        <ele>530</ele>
        <time>2017-10-15T12:44:19Z</time>
      </trkpt>
      <trkpt lat="45.146" lon="5.82404">
        <ele>530</ele>
        <time>2017-10-15T12:44:21Z</time>
      </trkpt>
      <trkpt lat="45.14597" lon="5.82399">
        <ele>531</ele>
        <time>2017-10-15T12:44:23Z</time>
      </trkpt>
      <trkpt lat="45.14594" lon="5.82394">
        <ele>531</ele>
        <time>2017-10-15T12:44:25Z</time>
      </trkpt>
      <trkpt lat="45.14591" lon="5.82388">
        <ele>532</ele>
        <time>2017-10-15T12:44:27Z</time>
      </trkpt>
      <trkpt lat="45.14587" lon="5.82383">
        <ele>532</ele>
        <time>2017-10-15T12:44:29Z</time>
      </trkpt>
      <trkpt lat="45.14584" lon="5.82377">
        <ele>533</ele>
        <time>2017-10-15T12:44:31Z</time>
      </trkpt>
      <trkpt lat="45.14581" lon="5.82371">
        <ele>533</ele>
        <time>2017-10-15T12:44:33Z</time>
      </trkpt>
      <trkpt lat="45.14578" lon="5.82366">
        <ele>533</ele>
        <time>2017-10-15T12:44:35Z</time>
      </trkpt>
      <trkpt lat="45.14577" lon="5.82359">
        <ele>534</ele>
        <time>2017-10-15T12:44:37Z</time>
      </trkpt>
      <trkpt lat="45.1458" lon="5.82346">
        <ele>533</ele>
        <time>2017-10-15T12:44:41Z</time>
      </trkpt>
      <trkpt lat="45.14584" lon="5.82337">
        <ele>533</ele>
        <time>2017-10-15T12:44:43Z</time>
      </trkpt>
      <trkpt lat="45.14589" lon="5.82331">
        <ele>532</ele>
        <time>2017-10-15T12:44:45Z</time>
      </trkpt>
      <trkpt lat="45.14595" lon="5.82327">
        <ele>532</ele>
        <time>2017-10-15T12:44:47Z</time>
      </trkpt>
      <trkpt lat="45.14601" lon="5.82323">
        <ele>531</ele>
        <time>2017-10-15T12:44:49Z</time>
      </trkpt>
      <trkpt lat="45.14608" lon="5.82319">
        <ele>530</ele>
        <time>2017-10-15T12:44:52Z</time>
      </trkpt>
      <trkpt lat="45.14611" lon="5.82316">
        <ele>530</ele>
        <time>2017-10-15T12:44:54Z</time>
      </trkpt>
      <trkpt lat="45.14615" lon="5.82312">
        <ele>530</ele>
        <time>2017-10-15T12:44:56Z</time>
      </trkpt>
      <trkpt lat="45.14619" lon="5.82304">
        <ele>530</ele>
        <time>2017-10-15T12:44:59Z</time>
      </trkpt>
      <trkpt lat="45.14622" lon="5.82298">
        <ele>530</ele>
        <time>2017-10-15T12:45:01Z</time>
      </trkpt>
      <trkpt lat="45.14624" lon="5.82291">
        <ele>530</ele>
        <time>2017-10-15T12:45:03Z</time>
      </trkpt>
      <trkpt lat="45.14627" lon="5.82283">
        <ele>530</ele>
        <time>2017-10-15T12:45:05Z</time>
      </trkpt>
      <trkpt lat="45.14631" lon="5.82276">
        <ele>529</ele>
        <time>2017-10-15T12:45:07Z</time>
      </trkpt>
      <trkpt lat="45.14632" lon="5.82269">
        <ele>530</ele>
        <time>2017-10-15T12:45:09Z</time>
      </trkpt>
      <trkpt lat="45.14633" lon="5.82263">
        <ele>530</ele>
        <time>2017-10-15T12:45:11Z</time>
      </trkpt>
      <trkpt lat="45.14633" lon="5.82256">
        <ele>531</ele>
        <time>2017-10-15T12:45:13Z</time>
      </trkpt>
      <trkpt lat="45.14634" lon="5.82247">
        <ele>531</ele>
        <time>2017-10-15T12:45:16Z</time>
      </trkpt>
      <trkpt lat="45.14635" lon="5.8224">
        <ele>532</ele>
        <time>2017-10-15T12:45:18Z</time>
      </trkpt>
      <trkpt lat="45.14637" lon="5.82232">
        <ele>532</ele>
        <time>2017-10-15T12:45:21Z</time>
      </trkpt>
      <trkpt lat="45.14639" lon="5.82225">
        <ele>533</ele>
        <time>2017-10-15T12:45:23Z</time>
      </trkpt>
      <trkpt lat="45.14639" lon="5.82218">
        <ele>533</ele>
        <time>2017-10-15T12:45:25Z</time>
      </trkpt>
      <trkpt lat="45.1464" lon="5.82212">
        <ele>533</ele>
        <time>2017-10-15T12:45:27Z</time>
      </trkpt>
      <trkpt lat="45.14642" lon="5.82206">
        <ele>534</ele>
        <time>2017-10-15T12:45:29Z</time>
      </trkpt>
      <trkpt lat="45.14643" lon="5.82199">
        <ele>534</ele>
        <time>2017-10-15T12:45:31Z</time>
      </trkpt>
      <trkpt lat="45.14644" lon="5.82193">
        <ele>535</ele>
        <time>2017-10-15T12:45:33Z</time>
      </trkpt>
      <trkpt lat="45.14647" lon="5.8218">
        <ele>536</ele>
        <time>2017-10-15T12:45:37Z</time>
      </trkpt>
      <trkpt lat="45.14648" lon="5.82174">
        <ele>536</ele>
        <time>2017-10-15T12:45:39Z</time>
      </trkpt>
      <trkpt lat="45.14649" lon="5.82167">
        <ele>537</ele>
        <time>2017-10-15T12:45:41Z</time>
      </trkpt>
      <trkpt lat="45.1465" lon="5.82161">
        <ele>538</ele>
        <time>2017-10-15T12:45:43Z</time>
      </trkpt>
      <trkpt lat="45.14653" lon="5.82152">
        <ele>538</ele>
        <time>2017-10-15T12:45:46Z</time>
      </trkpt>
      <trkpt lat="45.14655" lon="5.82144">
        <ele>539</ele>
        <time>2017-10-15T12:45:49Z</time>
      </trkpt>
      <trkpt lat="45.14658" lon="5.82135">
        <ele>539</ele>
        <time>2017-10-15T12:45:52Z</time>
      </trkpt>
      <trkpt lat="45.1466" lon="5.82127">
        <ele>540</ele>
        <time>2017-10-15T12:45:55Z</time>
      </trkpt>
      <trkpt lat="45.14661" lon="5.82118">
        <ele>541</ele>
        <time>2017-10-15T12:45:58Z</time>
      </trkpt>
      <trkpt lat="45.14664" lon="5.8211">
        <ele>542</ele>
        <time>2017-10-15T12:46:01Z</time>
      </trkpt>
      <trkpt lat="45.14666" lon="5.82101">
        <ele>543</ele>
        <time>2017-10-15T12:46:04Z</time>
      </trkpt>
      <trkpt lat="45.14667" lon="5.82093">
        <ele>544</ele>
        <time>2017-10-15T12:46:07Z</time>
      </trkpt>
      <trkpt lat="45.14669" lon="5.82085">
        <ele>545</ele>
        <time>2017-10-15T12:46:10Z</time>
      </trkpt>
      <trkpt lat="45.14671" lon="5.82077">
        <ele>545</ele>
        <time>2017-10-15T12:46:13Z</time>
      </trkpt>
      <trkpt lat="45.14674" lon="5.82069">
        <ele>546</ele>
        <time>2017-10-15T12:46:16Z</time>
      </trkpt>
      <trkpt lat="45.14677" lon="5.82058">
        <ele>547</ele>
        <time>2017-10-15T12:46:20Z</time>
      </trkpt>
      <trkpt lat="45.1468" lon="5.8205">
        <ele>548</ele>
        <time>2017-10-15T12:46:23Z</time>
      </trkpt>
      <trkpt lat="45.14684" lon="5.82043">
        <ele>548</ele>
        <time>2017-10-15T12:46:26Z</time>
      </trkpt>
      <trkpt lat="45.14687" lon="5.82036">
        <ele>549</ele>
        <time>2017-10-15T12:46:29Z</time>
      </trkpt>
      <trkpt lat="45.1469" lon="5.82029">
        <ele>549</ele>
        <time>2017-10-15T12:46:32Z</time>
      </trkpt>
      <trkpt lat="45.14693" lon="5.82022">
        <ele>550</ele>
        <time>2017-10-15T12:46:35Z</time>
      </trkpt>
      <trkpt lat="45.14695" lon="5.82015">
        <ele>550</ele>
        <time>2017-10-15T12:46:38Z</time>
      </trkpt>
      <trkpt lat="45.14698" lon="5.8201">
        <ele>551</ele>
        <time>2017-10-15T12:46:41Z</time>
      </trkpt>
      <trkpt lat="45.14702" lon="5.82005">
        <ele>551</ele>
        <time>2017-10-15T12:46:44Z</time>
      </trkpt>
      <trkpt lat="45.14706" lon="5.82">
        <ele>551</ele>
        <time>2017-10-15T12:46:47Z</time>
      </trkpt>
      <trkpt lat="45.14711" lon="5.81995">
        <ele>551</ele>
        <time>2017-10-15T12:46:50Z</time>
      </trkpt>
      <trkpt lat="45.14715" lon="5.8199">
        <ele>551</ele>
        <time>2017-10-15T12:46:53Z</time>
      </trkpt>
      <trkpt lat="45.1472" lon="5.81986">
        <ele>551</ele>
        <time>2017-10-15T12:46:56Z</time>
      </trkpt>
      <trkpt lat="45.14724" lon="5.81981">
        <ele>551</ele>
        <time>2017-10-15T12:46:59Z</time>
      </trkpt>
      <trkpt lat="45.14729" lon="5.81978">
        <ele>550</ele>
        <time>2017-10-15T12:47:02Z</time>
      </trkpt>
      <trkpt lat="45.14734" lon="5.81974">
        <ele>550</ele>
        <time>2017-10-15T12:47:05Z</time>
      </trkpt>
      <trkpt lat="45.14739" lon="5.81971">
        <ele>550</ele>
        <time>2017-10-15T12:47:08Z</time>
      </trkpt>
      <trkpt lat="45.14744" lon="5.81968">
        <ele>549</ele>
        <time>2017-10-15T12:47:11Z</time>
      </trkpt>
      <trkpt lat="45.14749" lon="5.81964">
        <ele>549</ele>
        <time>2017-10-15T12:47:14Z</time>
      </trkpt>
      <trkpt lat="45.14755" lon="5.81961">
        <ele>548</ele>
        <time>2017-10-15T12:47:17Z</time>
      </trkpt>
      <trkpt lat="45.14761" lon="5.81958">
        <ele>548</ele>
        <time>2017-10-15T12:47:21Z</time>
      </trkpt>
      <trkpt lat="45.14766" lon="5.81956">
        <ele>547</ele>
        <time>2017-10-15T12:47:24Z</time>
      </trkpt>
      <trkpt lat="45.14772" lon="5.81956">
        <ele>547</ele>
        <time>2017-10-15T12:47:27Z</time>
      </trkpt>
      <trkpt lat="45.14776" lon="5.81954">
        <ele>547</ele>
        <time>2017-10-15T12:47:30Z</time>
      </trkpt>
      <trkpt lat="45.1478" lon="5.81949">
        <ele>547</ele>
        <time>2017-10-15T12:47:33Z</time>
      </trkpt>
      <trkpt lat="45.14781" lon="5.81941">
        <ele>548</ele>
        <time>2017-10-15T12:47:36Z</time>
      </trkpt>
      <trkpt lat="45.1478" lon="5.81933">
        <ele>549</ele>
        <time>2017-10-15T12:47:39Z</time>
      </trkpt>
      <trkpt lat="45.14776" lon="5.81929">
        <ele>550</ele>
        <time>2017-10-15T12:47:42Z</time>
      </trkpt>
      <trkpt lat="45.1477" lon="5.81929">
        <ele>550</ele>
        <time>2017-10-15T12:47:45Z</time>
      </trkpt>
      <trkpt lat="45.14765" lon="5.81928">
        <ele>551</ele>
        <time>2017-10-15T12:47:48Z</time>
      </trkpt>
      <trkpt lat="45.1476" lon="5.81925">
        <ele>552</ele>
        <time>2017-10-15T12:47:51Z</time>
      </trkpt>
      <trkpt lat="45.14754" lon="5.81925">
        <ele>553</ele>
        <time>2017-10-15T12:47:54Z</time>
      </trkpt>
      <trkpt lat="45.14748" lon="5.81923">
        <ele>554</ele>
        <time>2017-10-15T12:47:57Z</time>
      </trkpt>
      <trkpt lat="45.14743" lon="5.81921">
        <ele>555</ele>
        <time>2017-10-15T12:48:00Z</time>
      </trkpt>
      <trkpt lat="45.14736" lon="5.81917">
        <ele>556</ele>
        <time>2017-10-15T12:48:04Z</time>
      </trkpt>
      <trkpt lat="45.1473" lon="5.8191">
        <ele>558</ele>
        <time>2017-10-15T12:48:08Z</time>
      </trkpt>
      <trkpt lat="45.14725" lon="5.81906">
        <ele>559</ele>
        <time>2017-10-15T12:48:11Z</time>
      </trkpt>
      <trkpt lat="45.1472" lon="5.81901">
        <ele>561</ele>
        <time>2017-10-15T12:48:14Z</time>
      </trkpt>
      <trkpt lat="45.14717" lon="5.81896">
        <ele>562</ele>
        <time>2017-10-15T12:48:17Z</time>
      </trkpt>
      <trkpt lat="45.14714" lon="5.8189">
        <ele>563</ele>
        <time>2017-10-15T12:48:20Z</time>
      </trkpt>
      <trkpt lat="45.14713" lon="5.81883">
        <ele>564</ele>
        <time>2017-10-15T12:48:23Z</time>
      </trkpt>
      <trkpt lat="45.14714" lon="5.81876">
        <ele>564</ele>
        <time>2017-10-15T12:48:26Z</time>
      </trkpt>
      <trkpt lat="45.14718" lon="5.81869">
        <ele>565</ele>
        <time>2017-10-15T12:48:29Z</time>
      </trkpt>
      <trkpt lat="45.14721" lon="5.81862">
        <ele>565</ele>
        <time>2017-10-15T12:48:32Z</time>
      </trkpt>
      <trkpt lat="45.14726" lon="5.81856">
        <ele>565</ele>
        <time>2017-10-15T12:48:35Z</time>
      </trkpt>
      <trkpt lat="45.14729" lon="5.81849">
        <ele>565</ele>
        <time>2017-10-15T12:48:38Z</time>
      </trkpt>
      <trkpt lat="45.14738" lon="5.81838">
        <ele>566</ele>
        <time>2017-10-15T12:48:43Z</time>
      </trkpt>
      <trkpt lat="45.14742" lon="5.81832">
        <ele>566</ele>
        <time>2017-10-15T12:48:45Z</time>
      </trkpt>
      <trkpt lat="45.14745" lon="5.81826">
        <ele>566</ele>
        <time>2017-10-15T12:48:47Z</time>
      </trkpt>
      <trkpt lat="45.14748" lon="5.8182">
        <ele>567</ele>
        <time>2017-10-15T12:48:49Z</time>
      </trkpt>
      <trkpt lat="45.14753" lon="5.81813">
        <ele>567</ele>
        <time>2017-10-15T12:48:51Z</time>
      </trkpt>
      <trkpt lat="45.14756" lon="5.81806">
        <ele>567</ele>
        <time>2017-10-15T12:48:53Z</time>
      </trkpt>
      <trkpt lat="45.1476" lon="5.81799">
        <ele>567</ele>
        <time>2017-10-15T12:48:55Z</time>
      </trkpt>
      <trkpt lat="45.14764" lon="5.81793">
        <ele>568</ele>
        <time>2017-10-15T12:48:57Z</time>
      </trkpt>
      <trkpt lat="45.14768" lon="5.81786">
        <ele>568</ele>
        <time>2017-10-15T12:48:59Z</time>
      </trkpt>
      <trkpt lat="45.14772" lon="5.81781">
        <ele>569</ele>
        <time>2017-10-15T12:49:01Z</time>
      </trkpt>
      <trkpt lat="45.14777" lon="5.81775">
        <ele>569</ele>
        <time>2017-10-15T12:49:03Z</time>
      </trkpt>
      <trkpt lat="45.14781" lon="5.8177">
        <ele>569</ele>
        <time>2017-10-15T12:49:05Z</time>
      </trkpt>
      <trkpt lat="45.14786" lon="5.81766">
        <ele>569</ele>
        <time>2017-10-15T12:49:07Z</time>
      </trkpt>
      <trkpt lat="45.14791" lon="5.81762">
        <ele>569</ele>
        <time>2017-10-15T12:49:09Z</time>
      </trkpt>
      <trkpt lat="45.14795" lon="5.81759">
        <ele>569</ele>
        <time>2017-10-15T12:49:11Z</time>
      </trkpt>
      <trkpt lat="45.14801" lon="5.81756">
        <ele>569</ele>
        <time>2017-10-15T12:49:13Z</time>
      </trkpt>
      <trkpt lat="45.14806" lon="5.81754">
        <ele>569</ele>
        <time>2017-10-15T12:49:15Z</time>
      </trkpt>
      <trkpt lat="45.14811" lon="5.81753">
        <ele>568</ele>
        <time>2017-10-15T12:49:17Z</time>
      </trkpt>
      <trkpt lat="45.14816" lon="5.81752">
        <ele>568</ele>
        <time>2017-10-15T12:49:19Z</time>
      </trkpt>
      <trkpt lat="45.14821" lon="5.81752">
        <ele>567</ele>
        <time>2017-10-15T12:49:21Z</time>
      </trkpt>
      <trkpt lat="45.14826" lon="5.81752">
        <ele>566</ele>
        <time>2017-10-15T12:49:23Z</time>
      </trkpt>
      <trkpt lat="45.14832" lon="5.81752">
        <ele>566</ele>
        <time>2017-10-15T12:49:25Z</time>
      </trkpt>
      <trkpt lat="45.14838" lon="5.81753">
        <ele>566</ele>
        <time>2017-10-15T12:49:27Z</time>
      </trkpt>
      <trkpt lat="45.14843" lon="5.81755">
        <ele>565</ele>
        <time>2017-10-15T12:49:29Z</time>
      </trkpt>
      <trkpt lat="45.14849" lon="5.81756">
        <ele>565</ele>
        <time>2017-10-15T12:49:31Z</time>
      </trkpt>
      <trkpt lat="45.14856" lon="5.81757">
        <ele>565</ele>
        <time>2017-10-15T12:49:33Z</time>
      </trkpt>
      <trkpt lat="45.14861" lon="5.81759">
        <ele>564</ele>
        <time>2017-10-15T12:49:35Z</time>
      </trkpt>
      <trkpt lat="45.14867" lon="5.81761">
        <ele>564</ele>
        <time>2017-10-15T12:49:37Z</time>
      </trkpt>
      <trkpt lat="45.14872" lon="5.81764">
        <ele>564</ele>
        <time>2017-10-15T12:49:39Z</time>
      </trkpt>
      <trkpt lat="45.14878" lon="5.81767">
        <ele>563</ele>
        <time>2017-10-15T12:49:42Z</time>
      </trkpt>
      <trkpt lat="45.14883" lon="5.8177">
        <ele>563</ele>
        <time>2017-10-15T12:49:45Z</time>
      </trkpt>
      <trkpt lat="45.14888" lon="5.81772">
        <ele>563</ele>
        <time>2017-10-15T12:49:48Z</time>
      </trkpt>
      <trkpt lat="45.14898" lon="5.81775">
        <ele>562</ele>
        <time>2017-10-15T12:49:52Z</time>
      </trkpt>
      <trkpt lat="45.14902" lon="5.81777">
        <ele>562</ele>
        <time>2017-10-15T12:49:54Z</time>
      </trkpt>
      <trkpt lat="45.14907" lon="5.81778">
        <ele>562</ele>
        <time>2017-10-15T12:49:56Z</time>
      </trkpt>
      <trkpt lat="45.14911" lon="5.81779">
        <ele>562</ele>
        <time>2017-10-15T12:49:58Z</time>
      </trkpt>
      <trkpt lat="45.14916" lon="5.81779">
        <ele>562</ele>
        <time>2017-10-15T12:50:00Z</time>
      </trkpt>
      <trkpt lat="45.1492" lon="5.81778">
        <ele>562</ele>
        <time>2017-10-15T12:50:02Z</time>
      </trkpt>
      <trkpt lat="45.14925" lon="5.81778">
        <ele>563</ele>
        <time>2017-10-15T12:50:04Z</time>
      </trkpt>
      <trkpt lat="45.14934" lon="5.81775">
        <ele>563</ele>
        <time>2017-10-15T12:50:08Z</time>
      </trkpt>
      <trkpt lat="45.14939" lon="5.81774">
        <ele>564</ele>
        <time>2017-10-15T12:50:10Z</time>
      </trkpt>
      <trkpt lat="45.14945" lon="5.81772">
        <ele>564</ele>
        <time>2017-10-15T12:50:13Z</time>
      </trkpt>
      <trkpt lat="45.14952" lon="5.8177">
        <ele>565</ele>
        <time>2017-10-15T12:50:16Z</time>
      </trkpt>
      <trkpt lat="45.14956" lon="5.81769">
        <ele>565</ele>
        <time>2017-10-15T12:50:18Z</time>
      </trkpt>
      <trkpt lat="45.14961" lon="5.81767">
        <ele>565</ele>
        <time>2017-10-15T12:50:20Z</time>
      </trkpt>
      <trkpt lat="45.14965" lon="5.81765">
        <ele>566</ele>
        <time>2017-10-15T12:50:22Z</time>
      </trkpt>
      <trkpt lat="45.1497" lon="5.81763">
        <ele>566</ele>
        <time>2017-10-15T12:50:24Z</time>
      </trkpt>
      <trkpt lat="45.14975" lon="5.81762">
        <ele>566</ele>
        <time>2017-10-15T12:50:26Z</time>
      </trkpt>
      <trkpt lat="45.14983" lon="5.81758">
        <ele>567</ele>
        <time>2017-10-15T12:50:30Z</time>
      </trkpt>
      <trkpt lat="45.14988" lon="5.81756">
        <ele>567</ele>
        <time>2017-10-15T12:50:32Z</time>
      </trkpt>
      <trkpt lat="45.14992" lon="5.81753">
        <ele>567</ele>
        <time>2017-10-15T12:50:34Z</time>
      </trkpt>
      <trkpt lat="45.14996" lon="5.8175">
        <ele>568</ele>
        <time>2017-10-15T12:50:36Z</time>
      </trkpt>
      <trkpt lat="45.14999" lon="5.81745">
        <ele>568</ele>
        <time>2017-10-15T12:50:38Z</time>
      </trkpt>
      <trkpt lat="45.15002" lon="5.81739">
        <ele>569</ele>
        <time>2017-10-15T12:50:40Z</time>
      </trkpt>
      <trkpt lat="45.15004" lon="5.81733">
        <ele>570</ele>
        <time>2017-10-15T12:50:42Z</time>
      </trkpt>
      <trkpt lat="45.15006" lon="5.81726">
        <ele>571</ele>
        <time>2017-10-15T12:50:44Z</time>
      </trkpt>
      <trkpt lat="45.15008" lon="5.81719">
        <ele>572</ele>
        <time>2017-10-15T12:50:46Z</time>
      </trkpt>
      <trkpt lat="45.1501" lon="5.81712">
        <ele>573</ele>
        <time>2017-10-15T12:50:48Z</time>
      </trkpt>
      <trkpt lat="45.15011" lon="5.81705">
        <ele>573</ele>
        <time>2017-10-15T12:50:50Z</time>
      </trkpt>
      <trkpt lat="45.15012" lon="5.81697">
        <ele>574</ele>
        <time>2017-10-15T12:50:52Z</time>
      </trkpt>
      <trkpt lat="45.15012" lon="5.8169">
        <ele>575</ele>
        <time>2017-10-15T12:50:54Z</time>
      </trkpt>
      <trkpt lat="45.15014" lon="5.81683">
        <ele>576</ele>
        <time>2017-10-15T12:50:56Z</time>
      </trkpt>
      <trkpt lat="45.15019" lon="5.8168">
        <ele>576</ele>
        <time>2017-10-15T12:50:58Z</time>
      </trkpt>
      <trkpt lat="45.15025" lon="5.81681">
        <ele>576</ele>
        <time>2017-10-15T12:51:01Z</time>
      </trkpt>
      <trkpt lat="45.15028" lon="5.81676">
        <ele>576</ele>
        <time>2017-10-15T12:51:04Z</time>
      </trkpt>
      <trkpt lat="45.1503" lon="5.81669">
        <ele>577</ele>
        <time>2017-10-15T12:51:06Z</time>
      </trkpt>
      <trkpt lat="45.15033" lon="5.81663">
        <ele>577</ele>
        <time>2017-10-15T12:51:08Z</time>
      </trkpt>
      <trkpt lat="45.15035" lon="5.81652">
        <ele>578</ele>
        <time>2017-10-15T12:54:12Z</time>
      </trkpt>
      <trkpt lat="45.15038" lon="5.81646">
        <ele>578</ele>
        <time>2017-10-15T12:54:14Z</time>
      </trkpt>
      <trkpt lat="45.15041" lon="5.81641">
        <ele>578</ele>
        <time>2017-10-15T12:54:16Z</time>
      </trkpt>
      <trkpt lat="45.15046" lon="5.8163">
        <ele>578</ele>
        <time>2017-10-15T12:54:18Z</time>
      </trkpt>
      <trkpt lat="45.15049" lon="5.81614">
        <ele>578</ele>
        <time>2017-10-15T12:54:20Z</time>
      </trkpt>
      <trkpt lat="45.15052" lon="5.81606">
        <ele>579</ele>
        <time>2017-10-15T12:54:21Z</time>
      </trkpt>
      <trkpt lat="45.1505" lon="5.81587">
        <ele>580</ele>
        <time>2017-10-15T12:54:23Z</time>
      </trkpt>
      <trkpt lat="45.15053" lon="5.81579">
        <ele>580</ele>
        <time>2017-10-15T12:54:25Z</time>
      </trkpt>
      <trkpt lat="45.15056" lon="5.81574">
        <ele>580</ele>
        <time>2017-10-15T12:54:26Z</time>
      </trkpt>
      <trkpt lat="45.15062" lon="5.81571">
        <ele>580</ele>
        <time>2017-10-15T12:54:28Z</time>
      </trkpt>
      <trkpt lat="45.15068" lon="5.81572">
        <ele>579</ele>
        <time>2017-10-15T12:54:30Z</time>
      </trkpt>
      <trkpt lat="45.15073" lon="5.81573">
        <ele>579</ele>
        <time>2017-10-15T12:54:32Z</time>
      </trkpt>
      <trkpt lat="45.15078" lon="5.81572">
        <ele>579</ele>
        <time>2017-10-15T12:54:35Z</time>
      </trkpt>
      <trkpt lat="45.15083" lon="5.81572">
        <ele>578</ele>
        <time>2017-10-15T12:54:39Z</time>
      </trkpt>
      <trkpt lat="45.15089" lon="5.81575">
        <ele>578</ele>
        <time>2017-10-15T12:54:43Z</time>
      </trkpt>
      <trkpt lat="45.15098" lon="5.8158">
        <ele>577</ele>
        <time>2017-10-15T12:54:50Z</time>
      </trkpt>
      <trkpt lat="45.15102" lon="5.81586">
        <ele>576</ele>
        <time>2017-10-15T12:54:54Z</time>
      </trkpt>
      <trkpt lat="45.15107" lon="5.8159">
        <ele>575</ele>
        <time>2017-10-15T12:54:58Z</time>
      </trkpt>
      <trkpt lat="45.15112" lon="5.81593">
        <ele>575</ele>
        <time>2017-10-15T12:55:01Z</time>
      </trkpt>
      <trkpt lat="45.15116" lon="5.81597">
        <ele>574</ele>
        <time>2017-10-15T12:55:04Z</time>
      </trkpt>
      <trkpt lat="45.15122" lon="5.816">
        <ele>574</ele>
        <time>2017-10-15T12:55:07Z</time>
      </trkpt>
      <trkpt lat="45.15131" lon="5.81604">
        <ele>573</ele>
        <time>2017-10-15T12:55:14Z</time>
      </trkpt>
      <trkpt lat="45.15136" lon="5.81605">
        <ele>572</ele>
        <time>2017-10-15T12:55:18Z</time>
      </trkpt>
      <trkpt lat="45.15141" lon="5.81606">
        <ele>572</ele>
        <time>2017-10-15T12:55:22Z</time>
      </trkpt>
      <trkpt lat="45.15146" lon="5.81605">
        <ele>572</ele>
        <time>2017-10-15T12:55:25Z</time>
      </trkpt>
      <trkpt lat="45.15152" lon="5.81605">
        <ele>571</ele>
        <time>2017-10-15T12:55:28Z</time>
      </trkpt>
      <trkpt lat="45.15157" lon="5.81604">
        <ele>571</ele>
        <time>2017-10-15T12:55:31Z</time>
      </trkpt>
      <trkpt lat="45.15163" lon="5.81604">
        <ele>571</ele>
        <time>2017-10-15T12:55:34Z</time>
      </trkpt>
      <trkpt lat="45.15168" lon="5.81605">
        <ele>571</ele>
        <time>2017-10-15T12:55:37Z</time>
      </trkpt>
      <trkpt lat="45.15174" lon="5.81605">
        <ele>570</ele>
        <time>2017-10-15T12:55:40Z</time>
      </trkpt>
      <trkpt lat="45.1518" lon="5.81606">
        <ele>570</ele>
        <time>2017-10-15T12:55:43Z</time>
      </trkpt>
      <trkpt lat="45.15186" lon="5.81605">
        <ele>571</ele>
        <time>2017-10-15T12:55:46Z</time>
      </trkpt>
      <trkpt lat="45.15191" lon="5.81604">
        <ele>571</ele>
        <time>2017-10-15T12:55:49Z</time>
      </trkpt>
      <trkpt lat="45.15197" lon="5.81605">
        <ele>572</ele>
        <time>2017-10-15T12:55:56Z</time>
      </trkpt>
      <trkpt lat="45.15202" lon="5.81605">
        <ele>572</ele>
        <time>2017-10-15T12:55:58Z</time>
      </trkpt>
      <trkpt lat="45.15207" lon="5.81604">
        <ele>572</ele>
        <time>2017-10-15T12:56:00Z</time>
      </trkpt>
      <trkpt lat="45.15211" lon="5.81602">
        <ele>573</ele>
        <time>2017-10-15T12:56:02Z</time>
      </trkpt>
      <trkpt lat="45.15217" lon="5.81599">
        <ele>574</ele>
        <time>2017-10-15T12:56:05Z</time>
      </trkpt>
      <trkpt lat="45.15224" lon="5.81597">
        <ele>575</ele>
        <time>2017-10-15T12:56:08Z</time>
      </trkpt>
      <trkpt lat="45.1523" lon="5.81594">
        <ele>576</ele>
        <time>2017-10-15T12:56:11Z</time>
      </trkpt>
      <trkpt lat="45.15235" lon="5.81589">
        <ele>577</ele>
        <time>2017-10-15T12:56:14Z</time>
      </trkpt>
      <trkpt lat="45.1524" lon="5.81586">
        <ele>578</ele>
        <time>2017-10-15T12:56:17Z</time>
      </trkpt>
      <trkpt lat="45.15245" lon="5.81583">
        <ele>579</ele>
        <time>2017-10-15T12:56:20Z</time>
      </trkpt>
      <trkpt lat="45.1525" lon="5.8158">
        <ele>579</ele>
        <time>2017-10-15T12:56:23Z</time>
      </trkpt>
      <trkpt lat="45.15255" lon="5.81576">
        <ele>580</ele>
        <time>2017-10-15T12:56:26Z</time>
      </trkpt>
      <trkpt lat="45.15259" lon="5.81572">
        <ele>581</ele>
        <time>2017-10-15T12:56:29Z</time>
      </trkpt>
      <trkpt lat="45.15263" lon="5.81569">
        <ele>582</ele>
        <time>2017-10-15T12:56:32Z</time>
      </trkpt>
      <trkpt lat="45.15268" lon="5.81564">
        <ele>584</ele>
        <time>2017-10-15T12:56:37Z</time>
      </trkpt>
      <trkpt lat="45.15271" lon="5.81558">
        <ele>585</ele>
        <time>2017-10-15T12:56:40Z</time>
      </trkpt>
      <trkpt lat="45.15275" lon="5.81553">
        <ele>586</ele>
        <time>2017-10-15T12:56:43Z</time>
      </trkpt>
      <trkpt lat="45.15279" lon="5.81548">
        <ele>587</ele>
        <time>2017-10-15T12:56:46Z</time>
      </trkpt>
      <trkpt lat="45.15283" lon="5.81545">
        <ele>588</ele>
        <time>2017-10-15T12:56:49Z</time>
      </trkpt>
      <trkpt lat="45.15288" lon="5.81545">
        <ele>589</ele>
        <time>2017-10-15T12:56:53Z</time>
      </trkpt>
      <trkpt lat="45.15293" lon="5.81544">
        <ele>589</ele>
        <time>2017-10-15T12:56:56Z</time>
      </trkpt>
      <trkpt lat="45.15297" lon="5.81542">
        <ele>590</ele>
        <time>2017-10-15T12:57:00Z</time>
      </trkpt>
      <trkpt lat="45.15303" lon="5.81541">
        <ele>590</ele>
        <time>2017-10-15T12:57:05Z</time>
      </trkpt>
      <trkpt lat="45.15308" lon="5.8154">
        <ele>591</ele>
        <time>2017-10-15T12:57:09Z</time>
      </trkpt>
      <trkpt lat="45.15317" lon="5.81536">
        <ele>592</ele>
        <time>2017-10-15T12:57:15Z</time>
      </trkpt>
      <trkpt lat="45.15322" lon="5.81534">
        <ele>592</ele>
        <time>2017-10-15T12:57:18Z</time>
      </trkpt>
      <trkpt lat="45.15328" lon="5.81531">
        <ele>593</ele>
        <time>2017-10-15T12:57:22Z</time>
      </trkpt>
      <trkpt lat="45.15331" lon="5.81527">
        <ele>593</ele>
        <time>2017-10-15T12:57:25Z</time>
      </trkpt>
      <trkpt lat="45.15335" lon="5.81523">
        <ele>594</ele>
        <time>2017-10-15T12:57:28Z</time>
      </trkpt>
      <trkpt lat="45.15339" lon="5.81519">
        <ele>595</ele>
        <time>2017-10-15T12:57:31Z</time>
      </trkpt>
      <trkpt lat="45.15347" lon="5.81511">
        <ele>597</ele>
        <time>2017-10-15T12:57:35Z</time>
      </trkpt>
      <trkpt lat="45.1535" lon="5.81507">
        <ele>598</ele>
        <time>2017-10-15T12:57:37Z</time>
      </trkpt>
      <trkpt lat="45.15354" lon="5.81504">
        <ele>599</ele>
        <time>2017-10-15T12:57:39Z</time>
      </trkpt>
      <trkpt lat="45.15361" lon="5.81502">
        <ele>599</ele>
        <time>2017-10-15T12:57:41Z</time>
      </trkpt>
      <trkpt lat="45.15368" lon="5.81498">
        <ele>600</ele>
        <time>2017-10-15T12:57:43Z</time>
      </trkpt>
      <trkpt lat="45.15374" lon="5.81493">
        <ele>602</ele>
        <time>2017-10-15T12:57:45Z</time>
      </trkpt>
      <trkpt lat="45.15379" lon="5.81491">
        <ele>602</ele>
        <time>2017-10-15T12:57:47Z</time>
      </trkpt>
      <trkpt lat="45.15384" lon="5.81487">
        <ele>603</ele>
        <time>2017-10-15T12:57:50Z</time>
      </trkpt>
      <trkpt lat="45.15388" lon="5.81482">
        <ele>604</ele>
        <time>2017-10-15T12:57:53Z</time>
      </trkpt>
      <trkpt lat="45.15392" lon="5.81478">
        <ele>604</ele>
        <time>2017-10-15T12:57:56Z</time>
      </trkpt>
      <trkpt lat="45.15398" lon="5.81478">
        <ele>603</ele>
        <time>2017-10-15T12:58:00Z</time>
      </trkpt>
      <trkpt lat="45.15402" lon="5.81477">
        <ele>603</ele>
        <time>2017-10-15T12:58:04Z</time>
      </trkpt>
      <trkpt lat="45.15407" lon="5.81478">
        <ele>602</ele>
        <time>2017-10-15T12:58:08Z</time>
      </trkpt>
      <trkpt lat="45.15412" lon="5.81478">
        <ele>602</ele>
        <time>2017-10-15T12:58:12Z</time>
      </trkpt>
      <trkpt lat="45.15417" lon="5.81477">
        <ele>601</ele>
        <time>2017-10-15T12:58:16Z</time>
      </trkpt>
      <trkpt lat="45.15422" lon="5.81475">
        <ele>601</ele>
        <time>2017-10-15T12:58:20Z</time>
      </trkpt>
      <trkpt lat="45.15426" lon="5.81471">
        <ele>602</ele>
        <time>2017-10-15T12:58:24Z</time>
      </trkpt>
      <trkpt lat="45.15431" lon="5.81468">
        <ele>602</ele>
        <time>2017-10-15T12:58:29Z</time>
      </trkpt>
      <trkpt lat="45.15435" lon="5.81464">
        <ele>603</ele>
        <time>2017-10-15T12:58:33Z</time>
      </trkpt>
      <trkpt lat="45.15439" lon="5.81459">
        <ele>604</ele>
        <time>2017-10-15T12:58:37Z</time>
      </trkpt>
      <trkpt lat="45.15443" lon="5.81456">
        <ele>605</ele>
        <time>2017-10-15T12:58:41Z</time>
      </trkpt>
      <trkpt lat="45.15447" lon="5.8145">
        <ele>606</ele>
        <time>2017-10-15T12:58:45Z</time>
      </trkpt>
      <trkpt lat="45.15451" lon="5.81446">
        <ele>607</ele>
        <time>2017-10-15T12:58:49Z</time>
      </trkpt>
      <trkpt lat="45.15455" lon="5.81442">
        <ele>608</ele>
        <time>2017-10-15T12:58:53Z</time>
      </trkpt>
      <trkpt lat="45.15458" lon="5.81438">
        <ele>609</ele>
        <time>2017-10-15T12:58:57Z</time>
      </trkpt>
      <trkpt lat="45.15463" lon="5.81433">
        <ele>611</ele>
        <time>2017-10-15T12:59:02Z</time>
      </trkpt>
      <trkpt lat="45.15468" lon="5.8143">
        <ele>611</ele>
        <time>2017-10-15T12:59:10Z</time>
      </trkpt>
      <trkpt lat="45.1547" lon="5.81424">
        <ele>613</ele>
        <time>2017-10-15T13:02:37Z</time>
      </trkpt>
      <trkpt lat="45.15476" lon="5.81423">
        <ele>613</ele>
        <time>2017-10-15T13:04:08Z</time>
      </trkpt>
      <trkpt lat="45.1548" lon="5.81423">
        <ele>613</ele>
        <time>2017-10-15T13:04:13Z</time>
      </trkpt>
      <trkpt lat="45.15485" lon="5.81422">
        <ele>613</ele>
        <time>2017-10-15T13:04:18Z</time>
      </trkpt>
      <trkpt lat="45.15493" lon="5.8142">
        <ele>613</ele>
        <time>2017-10-15T13:04:22Z</time>
      </trkpt>
      <trkpt lat="45.15499" lon="5.81418">
        <ele>613</ele>
        <time>2017-10-15T13:04:25Z</time>
      </trkpt>
      <trkpt lat="45.15505" lon="5.81415">
        <ele>614</ele>
        <time>2017-10-15T13:04:28Z</time>
      </trkpt>
      <trkpt lat="45.15511" lon="5.81413">
        <ele>614</ele>
        <time>2017-10-15T13:04:31Z</time>
      </trkpt>
      <trkpt lat="45.15517" lon="5.81412">
        <ele>614</ele>
        <time>2017-10-15T13:04:34Z</time>
      </trkpt>
      <trkpt lat="45.15522" lon="5.81411">
        <ele>614</ele>
        <time>2017-10-15T13:04:38Z</time>
      </trkpt>
      <trkpt lat="45.15527" lon="5.81411">
        <ele>614</ele>
        <time>2017-10-15T13:04:40Z</time>
      </trkpt>
      <trkpt lat="45.15533" lon="5.81409">
        <ele>615</ele>
        <time>2017-10-15T13:04:43Z</time>
      </trkpt>
      <trkpt lat="45.15537" lon="5.81408">
        <ele>615</ele>
        <time>2017-10-15T13:04:45Z</time>
      </trkpt>
      <trkpt lat="45.15544" lon="5.81407">
        <ele>615</ele>
        <time>2017-10-15T13:04:48Z</time>
      </trkpt>
      <trkpt lat="45.1555" lon="5.81408">
        <ele>615</ele>
        <time>2017-10-15T13:04:51Z</time>
      </trkpt>
      <trkpt lat="45.15562" lon="5.81412">
        <ele>613</ele>
        <time>2017-10-15T13:04:56Z</time>
      </trkpt>
      <trkpt lat="45.15567" lon="5.81414">
        <ele>612</ele>
        <time>2017-10-15T13:04:58Z</time>
      </trkpt>
      <trkpt lat="45.15572" lon="5.81416">
        <ele>611</ele>
        <time>2017-10-15T13:05:00Z</time>
      </trkpt>
      <trkpt lat="45.15578" lon="5.81418">
        <ele>610</ele>
        <time>2017-10-15T13:05:02Z</time>
      </trkpt>
      <trkpt lat="45.15585" lon="5.8142">
        <ele>609</ele>
        <time>2017-10-15T13:05:04Z</time>
      </trkpt>
      <trkpt lat="45.15591" lon="5.81419">
        <ele>609</ele>
        <time>2017-10-15T13:05:06Z</time>
      </trkpt>
      <trkpt lat="45.15597" lon="5.81418">
        <ele>609</ele>
        <time>2017-10-15T13:05:08Z</time>
      </trkpt>
      <trkpt lat="45.15603" lon="5.81418">
        <ele>609</ele>
        <time>2017-10-15T13:05:11Z</time>
      </trkpt>
      <trkpt lat="45.1561" lon="5.81414">
        <ele>611</ele>
        <time>2017-10-15T13:05:14Z</time>
      </trkpt>
      <trkpt lat="45.15615" lon="5.81411">
        <ele>611</ele>
        <time>2017-10-15T13:05:16Z</time>
      </trkpt>
      <trkpt lat="45.1562" lon="5.81407">
        <ele>613</ele>
        <time>2017-10-15T13:05:18Z</time>
      </trkpt>
      <trkpt lat="45.15624" lon="5.81403">
        <ele>614</ele>
        <time>2017-10-15T13:05:20Z</time>
      </trkpt>
      <trkpt lat="45.15629" lon="5.81398">
        <ele>616</ele>
        <time>2017-10-15T13:05:22Z</time>
      </trkpt>
      <trkpt lat="45.15634" lon="5.81393">
        <ele>618</ele>
        <time>2017-10-15T13:05:24Z</time>
      </trkpt>
      <trkpt lat="45.15638" lon="5.81389">
        <ele>619</ele>
        <time>2017-10-15T13:05:26Z</time>
      </trkpt>
      <trkpt lat="45.15642" lon="5.81385">
        <ele>620</ele>
        <time>2017-10-15T13:05:28Z</time>
      </trkpt>
      <trkpt lat="45.15647" lon="5.81382">
        <ele>621</ele>
        <time>2017-10-15T13:05:30Z</time>
      </trkpt>
      <trkpt lat="45.15651" lon="5.81379">
        <ele>622</ele>
        <time>2017-10-15T13:05:32Z</time>
      </trkpt>
      <trkpt lat="45.15655" lon="5.81374">
        <ele>623</ele>
        <time>2017-10-15T13:05:34Z</time>
      </trkpt>
      <trkpt lat="45.15665" lon="5.81361">
        <ele>624</ele>
        <time>2017-10-15T13:05:36Z</time>
      </trkpt>
      <trkpt lat="45.15667" lon="5.81355">
        <ele>626</ele>
        <time>2017-10-15T13:05:37Z</time>
      </trkpt>
      <trkpt lat="45.1567" lon="5.81349">
        <ele>626</ele>
        <time>2017-10-15T13:05:38Z</time>
      </trkpt>
      <trkpt lat="45.15673" lon="5.81342">
        <ele>627</ele>
        <time>2017-10-15T13:05:39Z</time>
      </trkpt>
      <trkpt lat="45.15675" lon="5.81333">
        <ele>629</ele>
        <time>2017-10-15T13:05:40Z</time>
      </trkpt>
      <trkpt lat="45.15679" lon="5.81325">
        <ele>630</ele>
        <time>2017-10-15T13:05:41Z</time>
      </trkpt>
      <trkpt lat="45.15681" lon="5.81319">
        <ele>631</ele>
        <time>2017-10-15T13:05:42Z</time>
      </trkpt>
      <trkpt lat="45.15685" lon="5.8131">
        <ele>632</ele>
        <time>2017-10-15T13:05:44Z</time>
      </trkpt>
      <trkpt lat="45.15687" lon="5.81298">
        <ele>634</ele>
        <time>2017-10-15T13:05:46Z</time>
      </trkpt>
      <trkpt lat="45.1569" lon="5.81289">
        <ele>635</ele>
        <time>2017-10-15T13:05:48Z</time>
      </trkpt>
      <trkpt lat="45.15695" lon="5.81281">
        <ele>636</ele>
        <time>2017-10-15T13:05:50Z</time>
      </trkpt>
      <trkpt lat="45.15702" lon="5.81277">
        <ele>634</ele>
        <time>2017-10-15T13:05:52Z</time>
      </trkpt>
      <trkpt lat="45.15709" lon="5.81269">
        <ele>633</ele>
        <time>2017-10-15T13:05:55Z</time>
      </trkpt>
      <trkpt lat="45.15716" lon="5.81261">
        <ele>633</ele>
        <time>2017-10-15T13:05:58Z</time>
      </trkpt>
      <trkpt lat="45.15722" lon="5.81256">
        <ele>632</ele>
        <time>2017-10-15T13:06:00Z</time>
      </trkpt>
      <trkpt lat="45.15727" lon="5.81252">
        <ele>631</ele>
        <time>2017-10-15T13:06:02Z</time>
      </trkpt>
      <trkpt lat="45.15732" lon="5.81245">
        <ele>630</ele>
        <time>2017-10-15T13:06:04Z</time>
      </trkpt>
      <trkpt lat="45.15737" lon="5.81239">
        <ele>629</ele>
        <time>2017-10-15T13:06:06Z</time>
      </trkpt>
      <trkpt lat="45.15742" lon="5.81232">
        <ele>629</ele>
        <time>2017-10-15T13:06:08Z</time>
      </trkpt>
      <trkpt lat="45.15746" lon="5.81226">
        <ele>628</ele>
        <time>2017-10-15T13:06:10Z</time>
      </trkpt>
      <trkpt lat="45.15752" lon="5.81217">
        <ele>628</ele>
        <time>2017-10-15T13:06:13Z</time>
      </trkpt>
      <trkpt lat="45.15756" lon="5.81209">
        <ele>628</ele>
        <time>2017-10-15T13:06:15Z</time>
      </trkpt>
      <trkpt lat="45.1576" lon="5.812">
        <ele>628</ele>
        <time>2017-10-15T13:06:17Z</time>
      </trkpt>
      <trkpt lat="45.15764" lon="5.81187">
        <ele>629</ele>
        <time>2017-10-15T13:06:20Z</time>
      </trkpt>
      <trkpt lat="45.15767" lon="5.81178">
        <ele>630</ele>
        <time>2017-10-15T13:06:22Z</time>
      </trkpt>
      <trkpt lat="45.15768" lon="5.81169">
        <ele>630</ele>
        <time>2017-10-15T13:06:24Z</time>
      </trkpt>
      <trkpt lat="45.15771" lon="5.81159">
        <ele>630</ele>
        <time>2017-10-15T13:06:26Z</time>
      </trkpt>
      <trkpt lat="45.15772" lon="5.81148">
        <ele>631</ele>
        <time>2017-10-15T13:06:28Z</time>
      </trkpt>
      <trkpt lat="45.15771" lon="5.81136">
        <ele>632</ele>
        <time>2017-10-15T13:06:30Z</time>
      </trkpt>
      <trkpt lat="45.1577" lon="5.81129">
        <ele>633</ele>
        <time>2017-10-15T13:06:31Z</time>
      </trkpt>
      <trkpt lat="45.1577" lon="5.81116">
        <ele>634</ele>
        <time>2017-10-15T13:06:33Z</time>
      </trkpt>
      <trkpt lat="45.1577" lon="5.81103">
        <ele>636</ele>
        <time>2017-10-15T13:06:35Z</time>
      </trkpt>
      <trkpt lat="45.1577" lon="5.81097">
        <ele>636</ele>
        <time>2017-10-15T13:06:36Z</time>
      </trkpt>
      <trkpt lat="45.15769" lon="5.81089">
        <ele>637</ele>
        <time>2017-10-15T13:06:37Z</time>
      </trkpt>
      <trkpt lat="45.15765" lon="5.81074">
        <ele>641</ele>
        <time>2017-10-15T13:06:38Z</time>
      </trkpt>
      <trkpt lat="45.15764" lon="5.81059">
        <ele>642</ele>
        <time>2017-10-15T13:06:40Z</time>
      </trkpt>
      <trkpt lat="45.15762" lon="5.81044">
        <ele>645</ele>
        <time>2017-10-15T13:06:42Z</time>
      </trkpt>
      <trkpt lat="45.15763" lon="5.81035">
        <ele>645</ele>
        <time>2017-10-15T13:06:43Z</time>
      </trkpt>
      <trkpt lat="45.15762" lon="5.81026">
        <ele>646</ele>
        <time>2017-10-15T13:06:44Z</time>
      </trkpt>
      <trkpt lat="45.15761" lon="5.81016">
        <ele>647</ele>
        <time>2017-10-15T13:06:45Z</time>
      </trkpt>
      <trkpt lat="45.15761" lon="5.81007">
        <ele>648</ele>
        <time>2017-10-15T13:06:46Z</time>
      </trkpt>
      <trkpt lat="45.15762" lon="5.80995">
        <ele>648</ele>
        <time>2017-10-15T13:06:47Z</time>
      </trkpt>
      <trkpt lat="45.15762" lon="5.80985">
        <ele>649</ele>
        <time>2017-10-15T13:06:48Z</time>
      </trkpt>
      <trkpt lat="45.15762" lon="5.80977">
        <ele>649</ele>
        <time>2017-10-15T13:06:49Z</time>
      </trkpt>
      <trkpt lat="45.15765" lon="5.8097">
        <ele>648</ele>
        <time>2017-10-15T13:06:51Z</time>
      </trkpt>
      <trkpt lat="45.15767" lon="5.80963">
        <ele>647</ele>
        <time>2017-10-15T13:06:53Z</time>
      </trkpt>
      <trkpt lat="45.15764" lon="5.80955">
        <ele>649</ele>
        <time>2017-10-15T13:06:55Z</time>
      </trkpt>
      <trkpt lat="45.15764" lon="5.80948">
        <ele>650</ele>
        <time>2017-10-15T13:06:57Z</time>
      </trkpt>
      <trkpt lat="45.15763" lon="5.80941">
        <ele>651</ele>
        <time>2017-10-15T13:06:59Z</time>
      </trkpt>
      <trkpt lat="45.15762" lon="5.80932">
        <ele>652</ele>
        <time>2017-10-15T13:07:02Z</time>
      </trkpt>
      <trkpt lat="45.15762" lon="5.80925">
        <ele>653</ele>
        <time>2017-10-15T13:07:04Z</time>
      </trkpt>
      <trkpt lat="45.15762" lon="5.80916">
        <ele>653</ele>
        <time>2017-10-15T13:07:06Z</time>
      </trkpt>
      <trkpt lat="45.1576" lon="5.80905">
        <ele>655</ele>
        <time>2017-10-15T13:07:08Z</time>
      </trkpt>
      <trkpt lat="45.15759" lon="5.80892">
        <ele>657</ele>
        <time>2017-10-15T13:07:10Z</time>
      </trkpt>
      <trkpt lat="45.15758" lon="5.80885">
        <ele>659</ele>
        <time>2017-10-15T13:07:11Z</time>
      </trkpt>
      <trkpt lat="45.15757" lon="5.80878">
        <ele>660</ele>
        <time>2017-10-15T13:07:12Z</time>
      </trkpt>
      <trkpt lat="45.15757" lon="5.80872">
        <ele>661</ele>
        <time>2017-10-15T13:07:13Z</time>
      </trkpt>
      <trkpt lat="45.15756" lon="5.80861">
        <ele>663</ele>
        <time>2017-10-15T13:07:15Z</time>
      </trkpt>
      <trkpt lat="45.15758" lon="5.80852">
        <ele>662</ele>
        <time>2017-10-15T13:07:17Z</time>
      </trkpt>
      <trkpt lat="45.15759" lon="5.80846">
        <ele>662</ele>
        <time>2017-10-15T13:07:19Z</time>
      </trkpt>
      <trkpt lat="45.1576" lon="5.80838">
        <ele>662</ele>
        <time>2017-10-15T13:07:22Z</time>
      </trkpt>
      <trkpt lat="45.15763" lon="5.80831">
        <ele>661</ele>
        <time>2017-10-15T13:07:25Z</time>
      </trkpt>
      <trkpt lat="45.15764" lon="5.80824">
        <ele>661</ele>
        <time>2017-10-15T13:07:27Z</time>
      </trkpt>
      <trkpt lat="45.15764" lon="5.80817">
        <ele>662</ele>
        <time>2017-10-15T13:07:29Z</time>
      </trkpt>
      <trkpt lat="45.15766" lon="5.8081">
        <ele>661</ele>
        <time>2017-10-15T13:07:32Z</time>
      </trkpt>
      <trkpt lat="45.15769" lon="5.80803">
        <ele>660</ele>
        <time>2017-10-15T13:07:35Z</time>
      </trkpt>
      <trkpt lat="45.15771" lon="5.80796">
        <ele>659</ele>
        <time>2017-10-15T13:07:38Z</time>
      </trkpt>
      <trkpt lat="45.15775" lon="5.80791">
        <ele>657</ele>
        <time>2017-10-15T13:07:43Z</time>
      </trkpt>
      <trkpt lat="45.1578" lon="5.80787">
        <ele>655</ele>
        <time>2017-10-15T13:07:47Z</time>
      </trkpt>
      <trkpt lat="45.15783" lon="5.80781">
        <ele>653</ele>
        <time>2017-10-15T13:07:50Z</time>
      </trkpt>
      <trkpt lat="45.15786" lon="5.80776">
        <ele>652</ele>
        <time>2017-10-15T13:07:53Z</time>
      </trkpt>
      <trkpt lat="45.15789" lon="5.80768">
        <ele>651</ele>
        <time>2017-10-15T13:07:55Z</time>
      </trkpt>
      <trkpt lat="45.15793" lon="5.80758">
        <ele>649</ele>
        <time>2017-10-15T13:07:57Z</time>
      </trkpt>
      <trkpt lat="45.15793" lon="5.80749">
        <ele>649</ele>
        <time>2017-10-15T13:07:58Z</time>
      </trkpt>
      <trkpt lat="45.1579" lon="5.80736">
        <ele>651</ele>
        <time>2017-10-15T13:07:59Z</time>
      </trkpt>
      <trkpt lat="45.15791" lon="5.80727">
        <ele>650</ele>
        <time>2017-10-15T13:08:00Z</time>
      </trkpt>
      <trkpt lat="45.15786" lon="5.80712">
        <ele>654</ele>
        <time>2017-10-15T13:08:02Z</time>
      </trkpt>
      <trkpt lat="45.1578" lon="5.80696">
        <ele>658</ele>
        <time>2017-10-15T13:08:04Z</time>
      </trkpt>
      <trkpt lat="45.15776" lon="5.80685">
        <ele>660</ele>
        <time>2017-10-15T13:08:06Z</time>
      </trkpt>
      <trkpt lat="45.15774" lon="5.80679">
        <ele>662</ele>
        <time>2017-10-15T13:08:08Z</time>
      </trkpt>
      <trkpt lat="45.15773" lon="5.80673">
        <ele>662</ele>
        <time>2017-10-15T13:08:11Z</time>
      </trkpt>
      <trkpt lat="45.15771" lon="5.80667">
        <ele>664</ele>
        <time>2017-10-15T13:08:14Z</time>
      </trkpt>
      <trkpt lat="45.15769" lon="5.8066">
        <ele>665</ele>
        <time>2017-10-15T13:08:17Z</time>
      </trkpt>
      <trkpt lat="45.15766" lon="5.80652">
        <ele>667</ele>
        <time>2017-10-15T13:08:20Z</time>
      </trkpt>
      <trkpt lat="45.15767" lon="5.80645">
        <ele>667</ele>
        <time>2017-10-15T13:08:23Z</time>
      </trkpt>
      <trkpt lat="45.15772" lon="5.80643">
        <ele>664</ele>
        <time>2017-10-15T13:08:32Z</time>
      </trkpt>
      <trkpt lat="45.15777" lon="5.8064">
        <ele>661</ele>
        <time>2017-10-15T13:08:36Z</time>
      </trkpt>
      <trkpt lat="45.15782" lon="5.80638">
        <ele>658</ele>
        <time>2017-10-15T13:08:39Z</time>
      </trkpt>
      <trkpt lat="45.15786" lon="5.80636">
        <ele>655</ele>
        <time>2017-10-15T13:08:42Z</time>
      </trkpt>
      <trkpt lat="45.15791" lon="5.80636">
        <ele>652</ele>
        <time>2017-10-15T13:08:45Z</time>
      </trkpt>
      <trkpt lat="45.15796" lon="5.80633">
        <ele>650</ele>
        <time>2017-10-15T13:08:49Z</time>
      </trkpt>
      <trkpt lat="45.15801" lon="5.80626">
        <ele>648</ele>
        <time>2017-10-15T13:08:52Z</time>
      </trkpt>
      <trkpt lat="45.15804" lon="5.80619">
        <ele>647</ele>
        <time>2017-10-15T13:08:53Z</time>
      </trkpt>
      <trkpt lat="45.1581" lon="5.806">
        <ele>647</ele>
        <time>2017-10-15T13:08:55Z</time>
      </trkpt>
      <trkpt lat="45.15814" lon="5.80596">
        <ele>646</ele>
        <time>2017-10-15T13:08:56Z</time>
      </trkpt>
      <trkpt lat="45.15818" lon="5.80591">
        <ele>645</ele>
        <time>2017-10-15T13:08:58Z</time>
      </trkpt>
      <trkpt lat="45.15824" lon="5.80588">
        <ele>643</ele>
        <time>2017-10-15T13:09:01Z</time>
      </trkpt>
      <trkpt lat="45.15828" lon="5.80585">
        <ele>642</ele>
        <time>2017-10-15T13:09:04Z</time>
      </trkpt>
      <trkpt lat="45.15833" lon="5.80581">
        <ele>640</ele>
        <time>2017-10-15T13:09:08Z</time>
      </trkpt>
      <trkpt lat="45.15838" lon="5.80578">
        <ele>638</ele>
        <time>2017-10-15T13:09:12Z</time>
      </trkpt>
      <trkpt lat="45.15842" lon="5.80574">
        <ele>637</ele>
        <time>2017-10-15T13:09:16Z</time>
      </trkpt>
      <trkpt lat="45.15846" lon="5.80569">
        <ele>636</ele>
        <time>2017-10-15T13:09:20Z</time>
      </trkpt>
      <trkpt lat="45.1585" lon="5.80563">
        <ele>636</ele>
        <time>2017-10-15T13:09:24Z</time>
      </trkpt>
      <trkpt lat="45.15854" lon="5.80557">
        <ele>635</ele>
        <time>2017-10-15T13:09:26Z</time>
      </trkpt>
      <trkpt lat="45.15859" lon="5.8055">
        <ele>636</ele>
        <time>2017-10-15T13:09:28Z</time>
      </trkpt>
      <trkpt lat="45.15862" lon="5.80544">
        <ele>636</ele>
        <time>2017-10-15T13:09:29Z</time>
      </trkpt>
      <trkpt lat="45.15867" lon="5.80532">
        <ele>638</ele>
        <time>2017-10-15T13:09:30Z</time>
      </trkpt>
      <trkpt lat="45.15871" lon="5.80522">
        <ele>639</ele>
        <time>2017-10-15T13:09:32Z</time>
      </trkpt>
      <trkpt lat="45.15876" lon="5.80523">
        <ele>637</ele>
        <time>2017-10-15T13:09:34Z</time>
      </trkpt>
      <trkpt lat="45.15879" lon="5.80516">
        <ele>638</ele>
        <time>2017-10-15T13:09:37Z</time>
      </trkpt>
      <trkpt lat="45.15884" lon="5.80511">
        <ele>638</ele>
        <time>2017-10-15T13:09:40Z</time>
      </trkpt>
      <trkpt lat="45.15888" lon="5.80509">
        <ele>637</ele>
        <time>2017-10-15T13:09:43Z</time>
      </trkpt>
      <trkpt lat="45.15892" lon="5.80503">
        <ele>637</ele>
        <time>2017-10-15T13:09:47Z</time>
      </trkpt>
      <trkpt lat="45.15901" lon="5.80497">
        <ele>635</ele>
        <time>2017-10-15T13:09:55Z</time>
      </trkpt>
      <trkpt lat="45.15905" lon="5.80492">
        <ele>635</ele>
        <time>2017-10-15T13:09:58Z</time>
      </trkpt>
      <trkpt lat="45.15909" lon="5.8049">
        <ele>634</ele>
        <time>2017-10-15T13:10:01Z</time>
      </trkpt>
      <trkpt lat="45.15915" lon="5.80487">
        <ele>633</ele>
        <time>2017-10-15T13:10:05Z</time>
      </trkpt>
      <trkpt lat="45.15918" lon="5.80482">
        <ele>633</ele>
        <time>2017-10-15T13:10:08Z</time>
      </trkpt>
      <trkpt lat="45.15921" lon="5.80477">
        <ele>634</ele>
        <time>2017-10-15T13:10:11Z</time>
      </trkpt>
      <trkpt lat="45.15925" lon="5.8047">
        <ele>635</ele>
        <time>2017-10-15T13:10:15Z</time>
      </trkpt>
      <trkpt lat="45.15929" lon="5.80465">
        <ele>635</ele>
        <time>2017-10-15T13:10:19Z</time>
      </trkpt>
      <trkpt lat="45.15933" lon="5.80459">
        <ele>636</ele>
        <time>2017-10-15T13:10:23Z</time>
      </trkpt>
      <trkpt lat="45.15933" lon="5.8045">
        <ele>639</ele>
        <time>2017-10-15T13:11:34Z</time>
      </trkpt>
      <trkpt lat="45.15936" lon="5.80441">
        <ele>640</ele>
        <time>2017-10-15T13:12:02Z</time>
      </trkpt>
      <trkpt lat="45.1594" lon="5.80434">
        <ele>641</ele>
        <time>2017-10-15T13:12:05Z</time>
      </trkpt>
      <trkpt lat="45.15944" lon="5.80433">
        <ele>639</ele>
        <time>2017-10-15T13:12:07Z</time>
      </trkpt>
      <trkpt lat="45.15953" lon="5.8043">
        <ele>636</ele>
        <time>2017-10-15T13:12:09Z</time>
      </trkpt>
      <trkpt lat="45.15957" lon="5.80429">
        <ele>634</ele>
        <time>2017-10-15T13:12:10Z</time>
      </trkpt>
      <trkpt lat="45.15966" lon="5.80426">
        <ele>631</ele>
        <time>2017-10-15T13:12:11Z</time>
      </trkpt>
      <trkpt lat="45.1598" lon="5.80422">
        <ele>626</ele>
        <time>2017-10-15T13:12:13Z</time>
      </trkpt>
      <trkpt lat="45.15986" lon="5.8042">
        <ele>624</ele>
        <time>2017-10-15T13:12:14Z</time>
      </trkpt>
      <trkpt lat="45.15993" lon="5.8042">
        <ele>620</ele>
        <time>2017-10-15T13:12:15Z</time>
      </trkpt>
      <trkpt lat="45.15999" lon="5.80415">
        <ele>620</ele>
        <time>2017-10-15T13:12:16Z</time>
      </trkpt>
      <trkpt lat="45.16005" lon="5.8041">
        <ele>620</ele>
        <time>2017-10-15T13:12:17Z</time>
      </trkpt>
      <trkpt lat="45.16014" lon="5.80407">
        <ele>617</ele>
        <time>2017-10-15T13:12:18Z</time>
      </trkpt>
      <trkpt lat="45.1602" lon="5.80406">
        <ele>615</ele>
        <time>2017-10-15T13:12:19Z</time>
      </trkpt>
      <trkpt lat="45.16028" lon="5.80403">
        <ele>613</ele>
        <time>2017-10-15T13:12:20Z</time>
      </trkpt>
      <trkpt lat="45.16036" lon="5.80404">
        <ele>608</ele>
        <time>2017-10-15T13:12:21Z</time>
      </trkpt>
      <trkpt lat="45.16047" lon="5.804">
        <ele>605</ele>
        <time>2017-10-15T13:12:23Z</time>
      </trkpt>
      <trkpt lat="45.16051" lon="5.80395">
        <ele>606</ele>
        <time>2017-10-15T13:12:24Z</time>
      </trkpt>
      <trkpt lat="45.16056" lon="5.8039">
        <ele>607</ele>
        <time>2017-10-15T13:12:25Z</time>
      </trkpt>
      <trkpt lat="45.1606" lon="5.80384">
        <ele>608</ele>
        <time>2017-10-15T13:12:26Z</time>
      </trkpt>
      <trkpt lat="45.16066" lon="5.80379">
        <ele>609</ele>
        <time>2017-10-15T13:12:27Z</time>
      </trkpt>
      <trkpt lat="45.16072" lon="5.8037">
        <ele>611</ele>
        <time>2017-10-15T13:12:28Z</time>
      </trkpt>
      <trkpt lat="45.16077" lon="5.80359">
        <ele>615</ele>
        <time>2017-10-15T13:12:29Z</time>
      </trkpt>
      <trkpt lat="45.16084" lon="5.80351">
        <ele>616</ele>
        <time>2017-10-15T13:12:30Z</time>
      </trkpt>
      <trkpt lat="45.1609" lon="5.80338">
        <ele>619</ele>
        <time>2017-10-15T13:12:31Z</time>
      </trkpt>
      <trkpt lat="45.16104" lon="5.80317">
        <ele>621</ele>
        <time>2017-10-15T13:12:33Z</time>
      </trkpt>
      <trkpt lat="45.16113" lon="5.80298">
        <ele>624</ele>
        <time>2017-10-15T13:12:35Z</time>
      </trkpt>
      <trkpt lat="45.16114" lon="5.80286">
        <ele>629</ele>
        <time>2017-10-15T13:12:36Z</time>
      </trkpt>
      <trkpt lat="45.16121" lon="5.80266">
        <ele>631</ele>
        <time>2017-10-15T13:12:38Z</time>
      </trkpt>
      <trkpt lat="45.16121" lon="5.80258">
        <ele>634</ele>
        <time>2017-10-15T13:12:39Z</time>
      </trkpt>
      <trkpt lat="45.16127" lon="5.80253">
        <ele>632</ele>
        <time>2017-10-15T13:12:40Z</time>
      </trkpt>
      <trkpt lat="45.16132" lon="5.80248">
        <ele>631</ele>
        <time>2017-10-15T13:12:41Z</time>
      </trkpt>
      <trkpt lat="45.16142" lon="5.80221">
        <ele>633</ele>
        <time>2017-10-15T13:12:42Z</time>
      </trkpt>
      <trkpt lat="45.16158" lon="5.80213">
        <ele>626</ele>
        <time>2017-10-15T13:12:43Z</time>
      </trkpt>
      <trkpt lat="45.16165" lon="5.80208">
        <ele>622</ele>
        <time>2017-10-15T13:12:44Z</time>
      </trkpt>
      <trkpt lat="45.16177" lon="5.80202">
        <ele>616</ele>
        <time>2017-10-15T13:12:45Z</time>
      </trkpt>
      <trkpt lat="45.16184" lon="5.80197">
        <ele>613</ele>
        <time>2017-10-15T13:12:46Z</time>
      </trkpt>
      <trkpt lat="45.16191" lon="5.80189">
        <ele>609</ele>
        <time>2017-10-15T13:12:48Z</time>
      </trkpt>
      <trkpt lat="45.16186" lon="5.80183">
        <ele>613</ele>
        <time>2017-10-15T13:12:55Z</time>
      </trkpt>
      <trkpt lat="45.16186" lon="5.80174">
        <ele>615</ele>
        <time>2017-10-15T13:12:58Z</time>
      </trkpt>
      <trkpt lat="45.16191" lon="5.80168">
        <ele>613</ele>
        <time>2017-10-15T13:13:00Z</time>
      </trkpt>
      <trkpt lat="45.16198" lon="5.80161">
        <ele>609</ele>
        <time>2017-10-15T13:13:02Z</time>
      </trkpt>
      <trkpt lat="45.16203" lon="5.80154">
        <ele>607</ele>
        <time>2017-10-15T13:13:03Z</time>
      </trkpt>
      <trkpt lat="45.16213" lon="5.80137">
        <ele>603</ele>
        <time>2017-10-15T13:13:04Z</time>
      </trkpt>
      <trkpt lat="45.16216" lon="5.80126">
        <ele>602</ele>
        <time>2017-10-15T13:13:05Z</time>
      </trkpt>
      <trkpt lat="45.16219" lon="5.8011">
        <ele>602</ele>
        <time>2017-10-15T13:13:07Z</time>
      </trkpt>
      <trkpt lat="45.16224" lon="5.80104">
        <ele>599</ele>
        <time>2017-10-15T13:13:08Z</time>
      </trkpt>
      <trkpt lat="45.16225" lon="5.80097">
        <ele>599</ele>
        <time>2017-10-15T13:13:09Z</time>
      </trkpt>
      <trkpt lat="45.16227" lon="5.80086">
        <ele>599</ele>
        <time>2017-10-15T13:13:10Z</time>
      </trkpt>
      <trkpt lat="45.16229" lon="5.80075">
        <ele>598</ele>
        <time>2017-10-15T13:13:11Z</time>
      </trkpt>
      <trkpt lat="45.16231" lon="5.80064">
        <ele>595</ele>
        <time>2017-10-15T13:13:12Z</time>
      </trkpt>
      <trkpt lat="45.16243" lon="5.80052">
        <ele>587</ele>
        <time>2017-10-15T13:13:14Z</time>
      </trkpt>
      <trkpt lat="45.16247" lon="5.80041">
        <ele>584</ele>
        <time>2017-10-15T13:13:15Z</time>
      </trkpt>
      <trkpt lat="45.16253" lon="5.80036">
        <ele>581</ele>
        <time>2017-10-15T13:13:16Z</time>
      </trkpt>
      <trkpt lat="45.16254" lon="5.80028">
        <ele>579</ele>
        <time>2017-10-15T13:13:17Z</time>
      </trkpt>
      <trkpt lat="45.16256" lon="5.80019">
        <ele>578</ele>
        <time>2017-10-15T13:13:18Z</time>
      </trkpt>
      <trkpt lat="45.1626" lon="5.80009">
        <ele>575</ele>
        <time>2017-10-15T13:13:19Z</time>
      </trkpt>
      <trkpt lat="45.16263" lon="5.80001">
        <ele>572</ele>
        <time>2017-10-15T13:13:20Z</time>
      </trkpt>
      <trkpt lat="45.16264" lon="5.79993">
        <ele>570</ele>
        <time>2017-10-15T13:13:21Z</time>
      </trkpt>
      <trkpt lat="45.16265" lon="5.79985">
        <ele>568</ele>
        <time>2017-10-15T13:13:22Z</time>
      </trkpt>
      <trkpt lat="45.16265" lon="5.79977">
        <ele>566</ele>
        <time>2017-10-15T13:13:23Z</time>
      </trkpt>
      <trkpt lat="45.16264" lon="5.79968">
        <ele>564</ele>
        <time>2017-10-15T13:13:25Z</time>
      </trkpt>
      <trkpt lat="45.16258" lon="5.7996">
        <ele>564</ele>
        <time>2017-10-15T13:13:26Z</time>
      </trkpt>
      <trkpt lat="45.16253" lon="5.79949">
        <ele>563</ele>
        <time>2017-10-15T13:13:28Z</time>
      </trkpt>
      <trkpt lat="45.1625" lon="5.79941">
        <ele>562</ele>
        <time>2017-10-15T13:13:29Z</time>
      </trkpt>
      <trkpt lat="45.16247" lon="5.79933">
        <ele>559</ele>
        <time>2017-10-15T13:13:31Z</time>
      </trkpt>
      <trkpt lat="45.1624" lon="5.79925">
        <ele>558</ele>
        <time>2017-10-15T13:13:33Z</time>
      </trkpt>
      <trkpt lat="45.16235" lon="5.79919">
        <ele>557</ele>
        <time>2017-10-15T13:13:35Z</time>
      </trkpt>
      <trkpt lat="45.1623" lon="5.79908">
        <ele>553</ele>
        <time>2017-10-15T13:13:37Z</time>
      </trkpt>
      <trkpt lat="45.16226" lon="5.799">
        <ele>551</ele>
        <time>2017-10-15T13:13:38Z</time>
      </trkpt>
      <trkpt lat="45.16224" lon="5.79892">
        <ele>548</ele>
        <time>2017-10-15T13:13:41Z</time>
      </trkpt>
      <trkpt lat="45.16221" lon="5.79885">
        <ele>546</ele>
        <time>2017-10-15T13:13:43Z</time>
      </trkpt>
      <trkpt lat="45.1622" lon="5.79877">
        <ele>543</ele>
        <time>2017-10-15T13:13:45Z</time>
      </trkpt>
      <trkpt lat="45.16218" lon="5.79869">
        <ele>540</ele>
        <time>2017-10-15T13:13:47Z</time>
      </trkpt>
      <trkpt lat="45.16212" lon="5.7986">
        <ele>540</ele>
        <time>2017-10-15T13:13:49Z</time>
      </trkpt>
      <trkpt lat="45.16205" lon="5.79854">
        <ele>541</ele>
        <time>2017-10-15T13:13:51Z</time>
      </trkpt>
      <trkpt lat="45.162" lon="5.79851">
        <ele>541</ele>
        <time>2017-10-15T13:13:52Z</time>
      </trkpt>
      <trkpt lat="45.16195" lon="5.79847">
        <ele>542</ele>
        <time>2017-10-15T13:13:53Z</time>
      </trkpt>
      <trkpt lat="45.1619" lon="5.79843">
        <ele>543</ele>
        <time>2017-10-15T13:13:54Z</time>
      </trkpt>
      <trkpt lat="45.16185" lon="5.79839">
        <ele>545</ele>
        <time>2017-10-15T13:13:55Z</time>
      </trkpt>
      <trkpt lat="45.16179" lon="5.79835">
        <ele>546</ele>
        <time>2017-10-15T13:13:56Z</time>
      </trkpt>
      <trkpt lat="45.1617" lon="5.79833">
        <ele>550</ele>
        <time>2017-10-15T13:13:57Z</time>
      </trkpt>
      <trkpt lat="45.16164" lon="5.79833">
        <ele>552</ele>
        <time>2017-10-15T13:13:58Z</time>
      </trkpt>
      <trkpt lat="45.16155" lon="5.79835">
        <ele>556</ele>
        <time>2017-10-15T13:14:00Z</time>
      </trkpt>
      <trkpt lat="45.16151" lon="5.79833">
        <ele>558</ele>
        <time>2017-10-15T13:14:01Z</time>
      </trkpt>
      <trkpt lat="45.16145" lon="5.79829">
        <ele>560</ele>
        <time>2017-10-15T13:14:03Z</time>
      </trkpt>
      <trkpt lat="45.16145" lon="5.79822">
        <ele>559</ele>
        <time>2017-10-15T13:14:05Z</time>
      </trkpt>
      <trkpt lat="45.16142" lon="5.79815">
        <ele>560</ele>
        <time>2017-10-15T13:14:07Z</time>
      </trkpt>
      <trkpt lat="45.16154" lon="5.79808">
        <ele>553</ele>
        <time>2017-10-15T13:14:08Z</time>
      </trkpt>
      <trkpt lat="45.16158" lon="5.79805">
        <ele>551</ele>
        <time>2017-10-15T13:14:09Z</time>
      </trkpt>
      <trkpt lat="45.16165" lon="5.7979">
        <ele>550</ele>
        <time>2017-10-15T13:14:11Z</time>
      </trkpt>
      <trkpt lat="45.1617" lon="5.79778">
        <ele>549</ele>
        <time>2017-10-15T13:14:13Z</time>
      </trkpt>
      <trkpt lat="45.16172" lon="5.79771">
        <ele>549</ele>
        <time>2017-10-15T13:14:14Z</time>
      </trkpt>
      <trkpt lat="45.16179" lon="5.7976">
        <ele>547</ele>
        <time>2017-10-15T13:14:16Z</time>
      </trkpt>
      <trkpt lat="45.16188" lon="5.79753">
        <ele>542</ele>
        <time>2017-10-15T13:14:18Z</time>
      </trkpt>
      <trkpt lat="45.16197" lon="5.7975">
        <ele>538</ele>
        <time>2017-10-15T13:14:20Z</time>
      </trkpt>
      <trkpt lat="45.16201" lon="5.79745">
        <ele>536</ele>
        <time>2017-10-15T13:14:22Z</time>
      </trkpt>
      <trkpt lat="45.16207" lon="5.79739">
        <ele>533</ele>
        <time>2017-10-15T13:14:25Z</time>
      </trkpt>
      <trkpt lat="45.1621" lon="5.79731">
        <ele>533</ele>
        <time>2017-10-15T13:14:27Z</time>
      </trkpt>
      <trkpt lat="45.16213" lon="5.79726">
        <ele>533</ele>
        <time>2017-10-15T13:14:29Z</time>
      </trkpt>
      <trkpt lat="45.16216" lon="5.79719">
        <ele>534</ele>
        <time>2017-10-15T13:14:31Z</time>
      </trkpt>
      <trkpt lat="45.1622" lon="5.7971">
        <ele>535</ele>
        <time>2017-10-15T13:14:33Z</time>
      </trkpt>
      <trkpt lat="45.16223" lon="5.797">
        <ele>536</ele>
        <time>2017-10-15T13:14:35Z</time>
      </trkpt>
      <trkpt lat="45.16225" lon="5.7969">
        <ele>539</ele>
        <time>2017-10-15T13:14:37Z</time>
      </trkpt>
      <trkpt lat="45.16225" lon="5.79682">
        <ele>542</ele>
        <time>2017-10-15T13:14:39Z</time>
      </trkpt>
      <trkpt lat="45.16226" lon="5.79674">
        <ele>544</ele>
        <time>2017-10-15T13:14:41Z</time>
      </trkpt>
      <trkpt lat="45.16228" lon="5.79668">
        <ele>545</ele>
        <time>2017-10-15T13:14:43Z</time>
      </trkpt>
      <trkpt lat="45.1623" lon="5.79661">
        <ele>545</ele>
        <time>2017-10-15T13:14:45Z</time>
      </trkpt>
      <trkpt lat="45.16232" lon="5.79655">
        <ele>546</ele>
        <time>2017-10-15T13:14:47Z</time>
      </trkpt>
      <trkpt lat="45.16234" lon="5.79646">
        <ele>547</ele>
        <time>2017-10-15T13:14:49Z</time>
      </trkpt>
      <trkpt lat="45.16237" lon="5.79638">
        <ele>547</ele>
        <time>2017-10-15T13:14:51Z</time>
      </trkpt>
      <trkpt lat="45.16241" lon="5.79631">
        <ele>546</ele>
        <time>2017-10-15T13:14:53Z</time>
      </trkpt>
      <trkpt lat="45.16246" lon="5.79623">
        <ele>545</ele>
        <time>2017-10-15T13:14:55Z</time>
      </trkpt>
      <trkpt lat="45.16249" lon="5.79615">
        <ele>545</ele>
        <time>2017-10-15T13:14:57Z</time>
      </trkpt>
      <trkpt lat="45.1625" lon="5.79607">
        <ele>546</ele>
        <time>2017-10-15T13:14:59Z</time>
      </trkpt>
      <trkpt lat="45.16253" lon="5.79592">
        <ele>546</ele>
        <time>2017-10-15T13:15:03Z</time>
      </trkpt>
      <trkpt lat="45.16254" lon="5.79586">
        <ele>546</ele>
        <time>2017-10-15T13:15:05Z</time>
      </trkpt>
      <trkpt lat="45.16256" lon="5.79576">
        <ele>545</ele>
        <time>2017-10-15T13:15:08Z</time>
      </trkpt>
      <trkpt lat="45.16256" lon="5.79568">
        <ele>546</ele>
        <time>2017-10-15T13:15:10Z</time>
      </trkpt>
      <trkpt lat="45.16255" lon="5.79557">
        <ele>547</ele>
        <time>2017-10-15T13:15:12Z</time>
      </trkpt>
      <trkpt lat="45.1625" lon="5.79554">
        <ele>551</ele>
        <time>2017-10-15T13:15:17Z</time>
      </trkpt>
      <trkpt lat="45.16254" lon="5.79553">
        <ele>548</ele>
        <time>2017-10-15T13:16:10Z</time>
      </trkpt>
      <trkpt lat="45.16253" lon="5.79544">
        <ele>549</ele>
        <time>2017-10-15T13:16:50Z</time>
      </trkpt>
      <trkpt lat="45.16252" lon="5.79536">
        <ele>550</ele>
        <time>2017-10-15T13:16:51Z</time>
      </trkpt>
      <trkpt lat="45.16251" lon="5.79524">
        <ele>551</ele>
        <time>2017-10-15T13:16:53Z</time>
      </trkpt>
      <trkpt lat="45.16249" lon="5.79512">
        <ele>552</ele>
        <time>2017-10-15T13:16:55Z</time>
      </trkpt>
      <trkpt lat="45.16246" lon="5.79502">
        <ele>554</ele>
        <time>2017-10-15T13:16:57Z</time>
      </trkpt>
      <trkpt lat="45.16244" lon="5.79494">
        <ele>555</ele>
        <time>2017-10-15T13:16:59Z</time>
      </trkpt>
      <trkpt lat="45.16241" lon="5.79487">
        <ele>556</ele>
        <time>2017-10-15T13:17:01Z</time>
      </trkpt>
      <trkpt lat="45.16238" lon="5.79481">
        <ele>558</ele>
        <time>2017-10-15T13:17:03Z</time>
      </trkpt>
      <trkpt lat="45.16234" lon="5.79476">
        <ele>560</ele>
        <time>2017-10-15T13:17:05Z</time>
      </trkpt>
      <trkpt lat="45.16229" lon="5.79471">
        <ele>563</ele>
        <time>2017-10-15T13:17:08Z</time>
      </trkpt>
      <trkpt lat="45.16229" lon="5.79462">
        <ele>563</ele>
        <time>2017-10-15T13:17:11Z</time>
      </trkpt>
      <trkpt lat="45.16232" lon="5.79457">
        <ele>561</ele>
        <time>2017-10-15T13:17:13Z</time>
      </trkpt>
      <trkpt lat="45.16239" lon="5.79456">
        <ele>557</ele>
        <time>2017-10-15T13:17:15Z</time>
      </trkpt>
      <trkpt lat="45.16243" lon="5.79456">
        <ele>555</ele>
        <time>2017-10-15T13:17:16Z</time>
      </trkpt>
      <trkpt lat="45.16248" lon="5.79455">
        <ele>552</ele>
        <time>2017-10-15T13:17:17Z</time>
      </trkpt>
      <trkpt lat="45.16255" lon="5.79455">
        <ele>548</ele>
        <time>2017-10-15T13:17:19Z</time>
      </trkpt>
      <trkpt lat="45.16261" lon="5.79457">
        <ele>545</ele>
        <time>2017-10-15T13:17:21Z</time>
      </trkpt>
      <trkpt lat="45.16268" lon="5.79458">
        <ele>541</ele>
        <time>2017-10-15T13:17:23Z</time>
      </trkpt>
      <trkpt lat="45.16277" lon="5.79453">
        <ele>536</ele>
        <time>2017-10-15T13:17:25Z</time>
      </trkpt>
      <trkpt lat="45.1628" lon="5.79442">
        <ele>536</ele>
        <time>2017-10-15T13:17:26Z</time>
      </trkpt>
      <trkpt lat="45.16282" lon="5.79436">
        <ele>536</ele>
        <time>2017-10-15T13:17:27Z</time>
      </trkpt>
      <trkpt lat="45.16286" lon="5.79431">
        <ele>534</ele>
        <time>2017-10-15T13:17:28Z</time>
      </trkpt>
      <trkpt lat="45.16292" lon="5.79421">
        <ele>533</ele>
        <time>2017-10-15T13:17:30Z</time>
      </trkpt>
      <trkpt lat="45.16298" lon="5.79412">
        <ele>531</ele>
        <time>2017-10-15T13:17:32Z</time>
      </trkpt>
      <trkpt lat="45.16304" lon="5.79405">
        <ele>530</ele>
        <time>2017-10-15T13:17:34Z</time>
      </trkpt>
      <trkpt lat="45.16311" lon="5.79405">
        <ele>527</ele>
        <time>2017-10-15T13:17:35Z</time>
      </trkpt>
      <trkpt lat="45.16321" lon="5.79405">
        <ele>523</ele>
        <time>2017-10-15T13:17:37Z</time>
      </trkpt>
      <trkpt lat="45.16328" lon="5.79406">
        <ele>521</ele>
        <time>2017-10-15T13:17:38Z</time>
      </trkpt>
      <trkpt lat="45.16334" lon="5.79407">
        <ele>518</ele>
        <time>2017-10-15T13:17:39Z</time>
      </trkpt>
      <trkpt lat="45.16346" lon="5.79407">
        <ele>515</ele>
        <time>2017-10-15T13:17:41Z</time>
      </trkpt>
      <trkpt lat="45.16355" lon="5.79408">
        <ele>513</ele>
        <time>2017-10-15T13:17:43Z</time>
      </trkpt>
      <trkpt lat="45.16363" lon="5.79412">
        <ele>511</ele>
        <time>2017-10-15T13:17:45Z</time>
      </trkpt>
      <trkpt lat="45.16371" lon="5.79415">
        <ele>510</ele>
        <time>2017-10-15T13:17:47Z</time>
      </trkpt>
      <trkpt lat="45.16382" lon="5.79415">
        <ele>508</ele>
        <time>2017-10-15T13:17:49Z</time>
      </trkpt>
      <trkpt lat="45.16389" lon="5.79416">
        <ele>507</ele>
        <time>2017-10-15T13:17:51Z</time>
      </trkpt>
      <trkpt lat="45.16394" lon="5.79417">
        <ele>506</ele>
        <time>2017-10-15T13:17:52Z</time>
      </trkpt>
      <trkpt lat="45.16399" lon="5.79419">
        <ele>504</ele>
        <time>2017-10-15T13:17:54Z</time>
      </trkpt>
      <trkpt lat="45.16405" lon="5.79419">
        <ele>504</ele>
        <time>2017-10-15T13:17:56Z</time>
      </trkpt>
      <trkpt lat="45.16413" lon="5.79419">
        <ele>503</ele>
        <time>2017-10-15T13:17:58Z</time>
      </trkpt>
      <trkpt lat="45.16418" lon="5.79418">
        <ele>503</ele>
        <time>2017-10-15T13:17:59Z</time>
      </trkpt>
      <trkpt lat="45.16422" lon="5.79418">
        <ele>503</ele>
        <time>2017-10-15T13:18:00Z</time>
      </trkpt>
      <trkpt lat="45.16428" lon="5.79419">
        <ele>503</ele>
        <time>2017-10-15T13:18:01Z</time>
      </trkpt>
      <trkpt lat="45.16438" lon="5.79422">
        <ele>502</ele>
        <time>2017-10-15T13:18:02Z</time>
      </trkpt>
      <trkpt lat="45.16445" lon="5.79424">
        <ele>501</ele>
        <time>2017-10-15T13:18:03Z</time>
      </trkpt>
      <trkpt lat="45.1645" lon="5.79424">
        <ele>501</ele>
        <time>2017-10-15T13:18:04Z</time>
      </trkpt>
      <trkpt lat="45.16457" lon="5.79425">
        <ele>500</ele>
        <time>2017-10-15T13:18:05Z</time>
      </trkpt>
      <trkpt lat="45.16464" lon="5.79427">
        <ele>500</ele>
        <time>2017-10-15T13:18:06Z</time>
      </trkpt>
      <trkpt lat="45.16482" lon="5.7943">
        <ele>498</ele>
        <time>2017-10-15T13:18:09Z</time>
      </trkpt>
      <trkpt lat="45.16492" lon="5.79428">
        <ele>498</ele>
        <time>2017-10-15T13:18:11Z</time>
      </trkpt>
      <trkpt lat="45.16498" lon="5.79429">
        <ele>497</ele>
        <time>2017-10-15T13:18:12Z</time>
      </trkpt>
      <trkpt lat="45.16504" lon="5.79427">
        <ele>497</ele>
        <time>2017-10-15T13:18:13Z</time>
      </trkpt>
      <trkpt lat="45.1651" lon="5.79426">
        <ele>497</ele>
        <time>2017-10-15T13:18:14Z</time>
      </trkpt>
      <trkpt lat="45.16515" lon="5.79422">
        <ele>498</ele>
        <time>2017-10-15T13:18:15Z</time>
      </trkpt>
      <trkpt lat="45.16522" lon="5.79419">
        <ele>498</ele>
        <time>2017-10-15T13:18:16Z</time>
      </trkpt>
      <trkpt lat="45.16527" lon="5.79417">
        <ele>499</ele>
        <time>2017-10-15T13:18:17Z</time>
      </trkpt>
      <trkpt lat="45.16532" lon="5.79412">
        <ele>500</ele>
        <time>2017-10-15T13:18:18Z</time>
      </trkpt>
      <trkpt lat="45.16538" lon="5.79409">
        <ele>500</ele>
        <time>2017-10-15T13:18:19Z</time>
      </trkpt>
      <trkpt lat="45.16545" lon="5.79402">
        <ele>502</ele>
        <time>2017-10-15T13:18:20Z</time>
      </trkpt>
      <trkpt lat="45.1655" lon="5.79396">
        <ele>504</ele>
        <time>2017-10-15T13:18:21Z</time>
      </trkpt>
      <trkpt lat="45.16556" lon="5.7938">
        <ele>505</ele>
        <time>2017-10-15T13:18:23Z</time>
      </trkpt>
      <trkpt lat="45.16553" lon="5.79369">
        <ele>508</ele>
        <time>2017-10-15T13:18:24Z</time>
      </trkpt>
      <trkpt lat="45.16554" lon="5.79361">
        <ele>509</ele>
        <time>2017-10-15T13:18:25Z</time>
      </trkpt>
      <trkpt lat="45.16552" lon="5.7935">
        <ele>511</ele>
        <time>2017-10-15T13:18:26Z</time>
      </trkpt>
      <trkpt lat="45.16549" lon="5.79342">
        <ele>514</ele>
        <time>2017-10-15T13:18:27Z</time>
      </trkpt>
      <trkpt lat="45.16546" lon="5.79332">
        <ele>516</ele>
        <time>2017-10-15T13:18:28Z</time>
      </trkpt>
      <trkpt lat="45.16544" lon="5.79324">
        <ele>518</ele>
        <time>2017-10-15T13:18:29Z</time>
      </trkpt>
      <trkpt lat="45.16537" lon="5.79307">
        <ele>518</ele>
        <time>2017-10-15T13:18:31Z</time>
      </trkpt>
      <trkpt lat="45.16534" lon="5.793">
        <ele>518</ele>
        <time>2017-10-15T13:18:32Z</time>
      </trkpt>
      <trkpt lat="45.1653" lon="5.79291">
        <ele>517</ele>
        <time>2017-10-15T13:18:33Z</time>
      </trkpt>
      <trkpt lat="45.16528" lon="5.79278">
        <ele>516</ele>
        <time>2017-10-15T13:18:35Z</time>
      </trkpt>
      <trkpt lat="45.16524" lon="5.7927">
        <ele>517</ele>
        <time>2017-10-15T13:18:36Z</time>
      </trkpt>
      <trkpt lat="45.16518" lon="5.79262">
        <ele>518</ele>
        <time>2017-10-15T13:18:37Z</time>
      </trkpt>
      <trkpt lat="45.16512" lon="5.79252">
        <ele>518</ele>
        <time>2017-10-15T13:18:39Z</time>
      </trkpt>
      <trkpt lat="45.16507" lon="5.79244">
        <ele>518</ele>
        <time>2017-10-15T13:18:40Z</time>
      </trkpt>
      <trkpt lat="45.16502" lon="5.79238">
        <ele>518</ele>
        <time>2017-10-15T13:18:41Z</time>
      </trkpt>
      <trkpt lat="45.16493" lon="5.79231">
        <ele>520</ele>
        <time>2017-10-15T13:18:42Z</time>
      </trkpt>
      <trkpt lat="45.16488" lon="5.79226">
        <ele>520</ele>
        <time>2017-10-15T13:18:43Z</time>
      </trkpt>
      <trkpt lat="45.16483" lon="5.7922">
        <ele>520</ele>
        <time>2017-10-15T13:18:44Z</time>
      </trkpt>
      <trkpt lat="45.16478" lon="5.79214">
        <ele>521</ele>
        <time>2017-10-15T13:18:45Z</time>
      </trkpt>
      <trkpt lat="45.16472" lon="5.79207">
        <ele>522</ele>
        <time>2017-10-15T13:18:46Z</time>
      </trkpt>
      <trkpt lat="45.16465" lon="5.79197">
        <ele>523</ele>
        <time>2017-10-15T13:18:47Z</time>
      </trkpt>
      <trkpt lat="45.16462" lon="5.79189">
        <ele>523</ele>
        <time>2017-10-15T13:18:48Z</time>
      </trkpt>
      <trkpt lat="45.1646" lon="5.7918">
        <ele>523</ele>
        <time>2017-10-15T13:18:49Z</time>
      </trkpt>
      <trkpt lat="45.16457" lon="5.7917">
        <ele>524</ele>
        <time>2017-10-15T13:18:50Z</time>
      </trkpt>
      <trkpt lat="45.16458" lon="5.79163">
        <ele>523</ele>
        <time>2017-10-15T13:18:51Z</time>
      </trkpt>
      <trkpt lat="45.16459" lon="5.79154">
        <ele>522</ele>
        <time>2017-10-15T13:18:52Z</time>
      </trkpt>
      <trkpt lat="45.16463" lon="5.79144">
        <ele>520</ele>
        <time>2017-10-15T13:18:53Z</time>
      </trkpt>
      <trkpt lat="45.16472" lon="5.7913">
        <ele>514</ele>
        <time>2017-10-15T13:18:55Z</time>
      </trkpt>
      <trkpt lat="45.16472" lon="5.79117">
        <ele>513</ele>
        <time>2017-10-15T13:18:56Z</time>
      </trkpt>
      <trkpt lat="45.16476" lon="5.79108">
        <ele>511</ele>
        <time>2017-10-15T13:18:57Z</time>
      </trkpt>
      <trkpt lat="45.16481" lon="5.79101">
        <ele>508</ele>
        <time>2017-10-15T13:18:58Z</time>
      </trkpt>
      <trkpt lat="45.16485" lon="5.79092">
        <ele>506</ele>
        <time>2017-10-15T13:18:59Z</time>
      </trkpt>
      <trkpt lat="45.16488" lon="5.79075">
        <ele>505</ele>
        <time>2017-10-15T13:19:00Z</time>
      </trkpt>
      <trkpt lat="45.16482" lon="5.79064">
        <ele>508</ele>
        <time>2017-10-15T13:19:01Z</time>
      </trkpt>
      <trkpt lat="45.16483" lon="5.79054">
        <ele>507</ele>
        <time>2017-10-15T13:19:02Z</time>
      </trkpt>
      <trkpt lat="45.16485" lon="5.79045">
        <ele>507</ele>
        <time>2017-10-15T13:19:03Z</time>
      </trkpt>
      <trkpt lat="45.16489" lon="5.79032">
        <ele>505</ele>
        <time>2017-10-15T13:19:04Z</time>
      </trkpt>
      <trkpt lat="45.16489" lon="5.79021">
        <ele>506</ele>
        <time>2017-10-15T13:19:05Z</time>
      </trkpt>
      <trkpt lat="45.16493" lon="5.79014">
        <ele>505</ele>
        <time>2017-10-15T13:19:06Z</time>
      </trkpt>
      <trkpt lat="45.16494" lon="5.79005">
        <ele>505</ele>
        <time>2017-10-15T13:19:07Z</time>
      </trkpt>
      <trkpt lat="45.16504" lon="5.78996">
        <ele>500</ele>
        <time>2017-10-15T13:19:08Z</time>
      </trkpt>
      <trkpt lat="45.16512" lon="5.78987">
        <ele>496</ele>
        <time>2017-10-15T13:19:09Z</time>
      </trkpt>
      <trkpt lat="45.16517" lon="5.78975">
        <ele>495</ele>
        <time>2017-10-15T13:19:10Z</time>
      </trkpt>
      <trkpt lat="45.16525" lon="5.78963">
        <ele>492</ele>
        <time>2017-10-15T13:19:11Z</time>
      </trkpt>
      <trkpt lat="45.16534" lon="5.78954">
        <ele>489</ele>
        <time>2017-10-15T13:19:12Z</time>
      </trkpt>
      <trkpt lat="45.16549" lon="5.78941">
        <ele>483</ele>
        <time>2017-10-15T13:19:14Z</time>
      </trkpt>
      <trkpt lat="45.16554" lon="5.78931">
        <ele>483</ele>
        <time>2017-10-15T13:19:15Z</time>
      </trkpt>
      <trkpt lat="45.16563" lon="5.78914">
        <ele>483</ele>
        <time>2017-10-15T13:19:17Z</time>
      </trkpt>
      <trkpt lat="45.16573" lon="5.78896">
        <ele>482</ele>
        <time>2017-10-15T13:19:19Z</time>
      </trkpt>
      <trkpt lat="45.16579" lon="5.78887">
        <ele>481</ele>
        <time>2017-10-15T13:19:20Z</time>
      </trkpt>
      <trkpt lat="45.16583" lon="5.7888">
        <ele>482</ele>
        <time>2017-10-15T13:19:21Z</time>
      </trkpt>
      <trkpt lat="45.16594" lon="5.78865">
        <ele>480</ele>
        <time>2017-10-15T13:19:23Z</time>
      </trkpt>
      <trkpt lat="45.16599" lon="5.78858">
        <ele>479</ele>
        <time>2017-10-15T13:19:24Z</time>
      </trkpt>
      <trkpt lat="45.16605" lon="5.7885">
        <ele>478</ele>
        <time>2017-10-15T13:19:25Z</time>
      </trkpt>
      <trkpt lat="45.16611" lon="5.78844">
        <ele>477</ele>
        <time>2017-10-15T13:19:26Z</time>
      </trkpt>
      <trkpt lat="45.16618" lon="5.78837">
        <ele>476</ele>
        <time>2017-10-15T13:19:27Z</time>
      </trkpt>
      <trkpt lat="45.16623" lon="5.78829">
        <ele>477</ele>
        <time>2017-10-15T13:19:28Z</time>
      </trkpt>
      <trkpt lat="45.16633" lon="5.78825">
        <ele>475</ele>
        <time>2017-10-15T13:19:29Z</time>
      </trkpt>
      <trkpt lat="45.16638" lon="5.78817">
        <ele>475</ele>
        <time>2017-10-15T13:19:30Z</time>
      </trkpt>
      <trkpt lat="45.16645" lon="5.7881">
        <ele>474</ele>
        <time>2017-10-15T13:19:31Z</time>
      </trkpt>
      <trkpt lat="45.16653" lon="5.78801">
        <ele>473</ele>
        <time>2017-10-15T13:19:32Z</time>
      </trkpt>
      <trkpt lat="45.1666" lon="5.78794">
        <ele>473</ele>
        <time>2017-10-15T13:19:33Z</time>
      </trkpt>
      <trkpt lat="45.16666" lon="5.78787">
        <ele>472</ele>
        <time>2017-10-15T13:19:34Z</time>
      </trkpt>
      <trkpt lat="45.16678" lon="5.78773">
        <ele>471</ele>
        <time>2017-10-15T13:19:36Z</time>
      </trkpt>
      <trkpt lat="45.16685" lon="5.78766">
        <ele>470</ele>
        <time>2017-10-15T13:19:37Z</time>
      </trkpt>
      <trkpt lat="45.16691" lon="5.7876">
        <ele>470</ele>
        <time>2017-10-15T13:19:38Z</time>
      </trkpt>
      <trkpt lat="45.16708" lon="5.78741">
        <ele>470</ele>
        <time>2017-10-15T13:19:41Z</time>
      </trkpt>
      <trkpt lat="45.16719" lon="5.7873">
        <ele>469</ele>
        <time>2017-10-15T13:19:43Z</time>
      </trkpt>
      <trkpt lat="45.16735" lon="5.78711">
        <ele>469</ele>
        <time>2017-10-15T13:19:46Z</time>
      </trkpt>
      <trkpt lat="45.16739" lon="5.78705">
        <ele>468</ele>
        <time>2017-10-15T13:19:47Z</time>
      </trkpt>
      <trkpt lat="45.16743" lon="5.78699">
        <ele>469</ele>
        <time>2017-10-15T13:19:48Z</time>
      </trkpt>
      <trkpt lat="45.16748" lon="5.78694">
        <ele>468</ele>
        <time>2017-10-15T13:19:49Z</time>
      </trkpt>
      <trkpt lat="45.16752" lon="5.7869">
        <ele>468</ele>
        <time>2017-10-15T13:19:50Z</time>
      </trkpt>
      <trkpt lat="45.16757" lon="5.78685">
        <ele>468</ele>
        <time>2017-10-15T13:19:51Z</time>
      </trkpt>
      <trkpt lat="45.16763" lon="5.7868">
        <ele>468</ele>
        <time>2017-10-15T13:19:52Z</time>
      </trkpt>
      <trkpt lat="45.16769" lon="5.78674">
        <ele>468</ele>
        <time>2017-10-15T13:19:53Z</time>
      </trkpt>
      <trkpt lat="45.16773" lon="5.7867">
        <ele>468</ele>
        <time>2017-10-15T13:19:54Z</time>
      </trkpt>
      <trkpt lat="45.16777" lon="5.78665">
        <ele>468</ele>
        <time>2017-10-15T13:19:55Z</time>
      </trkpt>
      <trkpt lat="45.16781" lon="5.78661">
        <ele>468</ele>
        <time>2017-10-15T13:19:56Z</time>
      </trkpt>
      <trkpt lat="45.16785" lon="5.78657">
        <ele>468</ele>
        <time>2017-10-15T13:19:57Z</time>
      </trkpt>
      <trkpt lat="45.16794" lon="5.7865">
        <ele>467</ele>
        <time>2017-10-15T13:19:59Z</time>
      </trkpt>
      <trkpt lat="45.16802" lon="5.78641">
        <ele>467</ele>
        <time>2017-10-15T13:20:01Z</time>
      </trkpt>
      <trkpt lat="45.16806" lon="5.78637">
        <ele>467</ele>
        <time>2017-10-15T13:20:02Z</time>
      </trkpt>
      <trkpt lat="45.16813" lon="5.78631">
        <ele>467</ele>
        <time>2017-10-15T13:20:04Z</time>
      </trkpt>
      <trkpt lat="45.16821" lon="5.78627">
        <ele>466</ele>
        <time>2017-10-15T13:20:06Z</time>
      </trkpt>
      <trkpt lat="45.16827" lon="5.78624">
        <ele>465</ele>
        <time>2017-10-15T13:20:07Z</time>
      </trkpt>
      <trkpt lat="45.16834" lon="5.78623">
        <ele>463</ele>
        <time>2017-10-15T13:20:08Z</time>
      </trkpt>
      <trkpt lat="45.16842" lon="5.78622">
        <ele>461</ele>
        <time>2017-10-15T13:20:09Z</time>
      </trkpt>
      <trkpt lat="45.16848" lon="5.78621">
        <ele>460</ele>
        <time>2017-10-15T13:20:10Z</time>
      </trkpt>
      <trkpt lat="45.16855" lon="5.7862">
        <ele>458</ele>
        <time>2017-10-15T13:20:11Z</time>
      </trkpt>
      <trkpt lat="45.16864" lon="5.78618">
        <ele>456</ele>
        <time>2017-10-15T13:20:12Z</time>
      </trkpt>
      <trkpt lat="45.16873" lon="5.78617">
        <ele>453</ele>
        <time>2017-10-15T13:20:13Z</time>
      </trkpt>
      <trkpt lat="45.16882" lon="5.78614">
        <ele>452</ele>
        <time>2017-10-15T13:20:14Z</time>
      </trkpt>
      <trkpt lat="45.16891" lon="5.78613">
        <ele>449</ele>
        <time>2017-10-15T13:20:15Z</time>
      </trkpt>
      <trkpt lat="45.16899" lon="5.78611">
        <ele>448</ele>
        <time>2017-10-15T13:20:16Z</time>
      </trkpt>
      <trkpt lat="45.16907" lon="5.78611">
        <ele>446</ele>
        <time>2017-10-15T13:20:17Z</time>
      </trkpt>
      <trkpt lat="45.16914" lon="5.7861">
        <ele>444</ele>
        <time>2017-10-15T13:20:18Z</time>
      </trkpt>
      <trkpt lat="45.16921" lon="5.78609">
        <ele>442</ele>
        <time>2017-10-15T13:20:19Z</time>
      </trkpt>
      <trkpt lat="45.16928" lon="5.78608">
        <ele>441</ele>
        <time>2017-10-15T13:20:20Z</time>
      </trkpt>
      <trkpt lat="45.16935" lon="5.78607">
        <ele>439</ele>
        <time>2017-10-15T13:20:21Z</time>
      </trkpt>
      <trkpt lat="45.16942" lon="5.78605">
        <ele>438</ele>
        <time>2017-10-15T13:20:22Z</time>
      </trkpt>
      <trkpt lat="45.16956" lon="5.786">
        <ele>436</ele>
        <time>2017-10-15T13:20:24Z</time>
      </trkpt>
      <trkpt lat="45.16963" lon="5.78596">
        <ele>436</ele>
        <time>2017-10-15T13:20:25Z</time>
      </trkpt>
      <trkpt lat="45.16971" lon="5.78591">
        <ele>435</ele>
        <time>2017-10-15T13:20:26Z</time>
      </trkpt>
      <trkpt lat="45.16979" lon="5.78587">
        <ele>435</ele>
        <time>2017-10-15T13:20:27Z</time>
      </trkpt>
      <trkpt lat="45.16984" lon="5.78582">
        <ele>435</ele>
        <time>2017-10-15T13:20:28Z</time>
      </trkpt>
      <trkpt lat="45.1699" lon="5.78578">
        <ele>435</ele>
        <time>2017-10-15T13:20:29Z</time>
      </trkpt>
      <trkpt lat="45.16995" lon="5.78574">
        <ele>435</ele>
        <time>2017-10-15T13:20:30Z</time>
      </trkpt>
      <trkpt lat="45.16999" lon="5.7857">
        <ele>436</ele>
        <time>2017-10-15T13:20:31Z</time>
      </trkpt>
      <trkpt lat="45.17003" lon="5.78565">
        <ele>436</ele>
        <time>2017-10-15T13:20:32Z</time>
      </trkpt>
      <trkpt lat="45.17007" lon="5.78562">
        <ele>436</ele>
        <time>2017-10-15T13:20:34Z</time>
      </trkpt>
      <trkpt lat="45.17009" lon="5.78556">
        <ele>437</ele>
        <time>2017-10-15T13:20:37Z</time>
      </trkpt>
      <trkpt lat="45.17012" lon="5.7855">
        <ele>438</ele>
        <time>2017-10-15T13:20:42Z</time>
      </trkpt>
      <trkpt lat="45.17016" lon="5.78545">
        <ele>439</ele>
        <time>2017-10-15T13:20:45Z</time>
      </trkpt>
      <trkpt lat="45.17019" lon="5.7854">
        <ele>439</ele>
        <time>2017-10-15T13:20:47Z</time>
      </trkpt>
      <trkpt lat="45.17023" lon="5.78533">
        <ele>440</ele>
        <time>2017-10-15T13:20:49Z</time>
      </trkpt>
      <trkpt lat="45.17028" lon="5.78525">
        <ele>441</ele>
        <time>2017-10-15T13:20:51Z</time>
      </trkpt>
      <trkpt lat="45.17033" lon="5.78515">
        <ele>443</ele>
        <time>2017-10-15T13:20:53Z</time>
      </trkpt>
      <trkpt lat="45.17038" lon="5.78507">
        <ele>444</ele>
        <time>2017-10-15T13:20:55Z</time>
      </trkpt>
      <trkpt lat="45.17041" lon="5.78501">
        <ele>445</ele>
        <time>2017-10-15T13:20:56Z</time>
      </trkpt>
      <trkpt lat="45.17047" lon="5.78494">
        <ele>445</ele>
        <time>2017-10-15T13:20:58Z</time>
      </trkpt>
      <trkpt lat="45.17051" lon="5.78489">
        <ele>445</ele>
        <time>2017-10-15T13:21:00Z</time>
      </trkpt>
      <trkpt lat="45.17056" lon="5.78491">
        <ele>443</ele>
        <time>2017-10-15T13:21:36Z</time>
      </trkpt>
      <trkpt lat="45.17061" lon="5.785">
        <ele>440</ele>
        <time>2017-10-15T13:21:43Z</time>
      </trkpt>
      <trkpt lat="45.17065" lon="5.78505">
        <ele>438</ele>
        <time>2017-10-15T13:21:44Z</time>
      </trkpt>
      <trkpt lat="45.17068" lon="5.78511">
        <ele>436</ele>
        <time>2017-10-15T13:21:45Z</time>
      </trkpt>
      <trkpt lat="45.17071" lon="5.78516">
        <ele>434</ele>
        <time>2017-10-15T13:21:46Z</time>
      </trkpt>
      <trkpt lat="45.17074" lon="5.78525">
        <ele>431</ele>
        <time>2017-10-15T13:21:48Z</time>
      </trkpt>
      <trkpt lat="45.17072" lon="5.78536">
        <ele>428</ele>
        <time>2017-10-15T13:21:50Z</time>
      </trkpt>
      <trkpt lat="45.17073" lon="5.78547">
        <ele>425</ele>
        <time>2017-10-15T13:21:52Z</time>
      </trkpt>
      <trkpt lat="45.17084" lon="5.78556">
        <ele>420</ele>
        <time>2017-10-15T13:21:54Z</time>
      </trkpt>
      <trkpt lat="45.1709" lon="5.7856">
        <ele>418</ele>
        <time>2017-10-15T13:21:55Z</time>
      </trkpt>
      <trkpt lat="45.17098" lon="5.78564">
        <ele>415</ele>
        <time>2017-10-15T13:21:56Z</time>
      </trkpt>
      <trkpt lat="45.17104" lon="5.78572">
        <ele>412</ele>
        <time>2017-10-15T13:21:57Z</time>
      </trkpt>
      <trkpt lat="45.17115" lon="5.78581">
        <ele>407</ele>
        <time>2017-10-15T13:21:59Z</time>
      </trkpt>
      <trkpt lat="45.17122" lon="5.78586">
        <ele>404</ele>
        <time>2017-10-15T13:22:00Z</time>
      </trkpt>
      <trkpt lat="45.17129" lon="5.7859">
        <ele>401</ele>
        <time>2017-10-15T13:22:01Z</time>
      </trkpt>
      <trkpt lat="45.17137" lon="5.78595">
        <ele>398</ele>
        <time>2017-10-15T13:22:02Z</time>
      </trkpt>
      <trkpt lat="45.17143" lon="5.78596">
        <ele>396</ele>
        <time>2017-10-15T13:22:03Z</time>
      </trkpt>
      <trkpt lat="45.17149" lon="5.78599">
        <ele>394</ele>
        <time>2017-10-15T13:22:04Z</time>
      </trkpt>
      <trkpt lat="45.17154" lon="5.78601">
        <ele>393</ele>
        <time>2017-10-15T13:22:05Z</time>
      </trkpt>
      <trkpt lat="45.17148" lon="5.78605">
        <ele>393</ele>
        <time>2017-10-15T13:22:10Z</time>
      </trkpt>
      <trkpt lat="45.17142" lon="5.78606">
        <ele>393</ele>
        <time>2017-10-15T13:22:12Z</time>
      </trkpt>
      <trkpt lat="45.17137" lon="5.78616">
        <ele>391</ele>
        <time>2017-10-15T13:22:14Z</time>
      </trkpt>
      <trkpt lat="45.17136" lon="5.78626">
        <ele>388</ele>
        <time>2017-10-15T13:22:16Z</time>
      </trkpt>
      <trkpt lat="45.17137" lon="5.78634">
        <ele>385</ele>
        <time>2017-10-15T13:22:18Z</time>
      </trkpt>
      <trkpt lat="45.17138" lon="5.78641">
        <ele>382</ele>
        <time>2017-10-15T13:22:20Z</time>
      </trkpt>
      <trkpt lat="45.1714" lon="5.78648">
        <ele>379</ele>
        <time>2017-10-15T13:22:25Z</time>
      </trkpt>
      <trkpt lat="45.17145" lon="5.78648">
        <ele>378</ele>
        <time>2017-10-15T13:22:29Z</time>
      </trkpt>
      <trkpt lat="45.17151" lon="5.78648">
        <ele>377</ele>
        <time>2017-10-15T13:22:34Z</time>
      </trkpt>
      <trkpt lat="45.17155" lon="5.78652">
        <ele>375</ele>
        <time>2017-10-15T13:22:38Z</time>
      </trkpt>
      <trkpt lat="45.17153" lon="5.78658">
        <ele>373</ele>
        <time>2017-10-15T13:22:41Z</time>
      </trkpt>
      <trkpt lat="45.17151" lon="5.78667">
        <ele>370</ele>
        <time>2017-10-15T13:22:43Z</time>
      </trkpt>
      <trkpt lat="45.1715" lon="5.78677">
        <ele>366</ele>
        <time>2017-10-15T13:22:45Z</time>
      </trkpt>
      <trkpt lat="45.17149" lon="5.78687">
        <ele>363</ele>
        <time>2017-10-15T13:22:47Z</time>
      </trkpt>
      <trkpt lat="45.17147" lon="5.78695">
        <ele>360</ele>
        <time>2017-10-15T13:22:49Z</time>
      </trkpt>
      <trkpt lat="45.17143" lon="5.787">
        <ele>358</ele>
        <time>2017-10-15T13:22:53Z</time>
      </trkpt>
      <trkpt lat="45.17148" lon="5.78706">
        <ele>355</ele>
        <time>2017-10-15T13:22:58Z</time>
      </trkpt>
      <trkpt lat="45.17146" lon="5.78713">
        <ele>353</ele>
        <time>2017-10-15T13:23:02Z</time>
      </trkpt>
      <trkpt lat="45.17146" lon="5.78719">
        <ele>351</ele>
        <time>2017-10-15T13:23:07Z</time>
      </trkpt>
      <trkpt lat="45.17153" lon="5.78725">
        <ele>347</ele>
        <time>2017-10-15T13:23:10Z</time>
      </trkpt>
      <trkpt lat="45.17161" lon="5.78726">
        <ele>346</ele>
        <time>2017-10-15T13:23:12Z</time>
      </trkpt>
      <trkpt lat="45.17169" lon="5.78722">
        <ele>346</ele>
        <time>2017-10-15T13:23:14Z</time>
      </trkpt>
      <trkpt lat="45.17178" lon="5.78717">
        <ele>347</ele>
        <time>2017-10-15T13:23:16Z</time>
      </trkpt>
      <trkpt lat="45.17186" lon="5.78713">
        <ele>347</ele>
        <time>2017-10-15T13:23:18Z</time>
      </trkpt>
      <trkpt lat="45.1719" lon="5.78719">
        <ele>344</ele>
        <time>2017-10-15T13:23:22Z</time>
      </trkpt>
      <trkpt lat="45.1719" lon="5.78726">
        <ele>341</ele>
        <time>2017-10-15T13:23:24Z</time>
      </trkpt>
      <trkpt lat="45.17188" lon="5.78739">
        <ele>337</ele>
        <time>2017-10-15T13:23:26Z</time>
      </trkpt>
      <trkpt lat="45.17181" lon="5.78758">
        <ele>330</ele>
        <time>2017-10-15T13:23:28Z</time>
      </trkpt>
      <trkpt lat="45.17178" lon="5.78764">
        <ele>328</ele>
        <time>2017-10-15T13:23:29Z</time>
      </trkpt>
      <trkpt lat="45.17173" lon="5.78774">
        <ele>325</ele>
        <time>2017-10-15T13:23:31Z</time>
      </trkpt>
      <trkpt lat="45.17175" lon="5.78784">
        <ele>322</ele>
        <time>2017-10-15T13:23:36Z</time>
      </trkpt>
      <trkpt lat="45.1718" lon="5.78787">
        <ele>320</ele>
        <time>2017-10-15T13:23:38Z</time>
      </trkpt>
      <trkpt lat="45.17186" lon="5.78788">
        <ele>319</ele>
        <time>2017-10-15T13:23:40Z</time>
      </trkpt>
      <trkpt lat="45.17191" lon="5.78791">
        <ele>317</ele>
        <time>2017-10-15T13:23:42Z</time>
      </trkpt>
      <trkpt lat="45.17196" lon="5.78791">
        <ele>316</ele>
        <time>2017-10-15T13:23:45Z</time>
      </trkpt>
      <trkpt lat="45.17199" lon="5.78799">
        <ele>313</ele>
        <time>2017-10-15T13:23:49Z</time>
      </trkpt>
      <trkpt lat="45.17209" lon="5.78802">
        <ele>311</ele>
        <time>2017-10-15T13:23:52Z</time>
      </trkpt>
      <trkpt lat="45.17216" lon="5.78804">
        <ele>309</ele>
        <time>2017-10-15T13:23:54Z</time>
      </trkpt>
      <trkpt lat="45.1723" lon="5.78804">
        <ele>307</ele>
        <time>2017-10-15T13:23:56Z</time>
      </trkpt>
      <trkpt lat="45.17238" lon="5.78808">
        <ele>304</ele>
        <time>2017-10-15T13:23:58Z</time>
      </trkpt>
      <trkpt lat="45.17248" lon="5.7881">
        <ele>302</ele>
        <time>2017-10-15T13:24:00Z</time>
      </trkpt>
      <trkpt lat="45.17253" lon="5.78812">
        <ele>300</ele>
        <time>2017-10-15T13:24:01Z</time>
      </trkpt>
      <trkpt lat="45.17258" lon="5.78813">
        <ele>299</ele>
        <time>2017-10-15T13:24:03Z</time>
      </trkpt>
      <trkpt lat="45.17262" lon="5.78816">
        <ele>297</ele>
        <time>2017-10-15T13:24:04Z</time>
      </trkpt>
      <trkpt lat="45.17267" lon="5.78815">
        <ele>297</ele>
        <time>2017-10-15T13:24:05Z</time>
      </trkpt>
      <trkpt lat="45.1728" lon="5.78823">
        <ele>292</ele>
        <time>2017-10-15T13:24:09Z</time>
      </trkpt>
      <trkpt lat="45.17285" lon="5.78825">
        <ele>290</ele>
        <time>2017-10-15T13:24:10Z</time>
      </trkpt>
      <trkpt lat="45.17292" lon="5.78829">
        <ele>287</ele>
        <time>2017-10-15T13:24:11Z</time>
      </trkpt>
      <trkpt lat="45.17295" lon="5.78835">
        <ele>285</ele>
        <time>2017-10-15T13:24:21Z</time>
      </trkpt>
      <trkpt lat="45.17299" lon="5.78839">
        <ele>282</ele>
        <time>2017-10-15T13:24:25Z</time>
      </trkpt>
      <trkpt lat="45.17303" lon="5.78843">
        <ele>280</ele>
        <time>2017-10-15T13:24:28Z</time>
      </trkpt>
      <trkpt lat="45.17307" lon="5.78847">
        <ele>279</ele>
        <time>2017-10-15T13:24:36Z</time>
      </trkpt>
      <trkpt lat="45.1731" lon="5.78853">
        <ele>276</ele>
        <time>2017-10-15T13:24:39Z</time>
      </trkpt>
      <trkpt lat="45.17305" lon="5.78858">
        <ele>276</ele>
        <time>2017-10-15T13:24:43Z</time>
      </trkpt>
      <trkpt lat="45.17307" lon="5.78864">
        <ele>274</ele>
        <time>2017-10-15T13:24:49Z</time>
      </trkpt>
      <trkpt lat="45.17315" lon="5.78869">
        <ele>271</ele>
        <time>2017-10-15T13:24:51Z</time>
      </trkpt>
      <trkpt lat="45.17324" lon="5.78872">
        <ele>270</ele>
        <time>2017-10-15T13:24:53Z</time>
      </trkpt>
      <trkpt lat="45.17329" lon="5.78873">
        <ele>269</ele>
        <time>2017-10-15T13:24:55Z</time>
      </trkpt>
      <trkpt lat="45.17327" lon="5.7888">
        <ele>267</ele>
        <time>2017-10-15T13:24:59Z</time>
      </trkpt>
      <trkpt lat="45.17323" lon="5.78883">
        <ele>267</ele>
        <time>2017-10-15T13:25:00Z</time>
      </trkpt>
      <trkpt lat="45.17315" lon="5.78885">
        <ele>267</ele>
        <time>2017-10-15T13:25:02Z</time>
      </trkpt>
      <trkpt lat="45.17307" lon="5.78889">
        <ele>267</ele>
        <time>2017-10-15T13:25:04Z</time>
      </trkpt>
      <trkpt lat="45.17303" lon="5.78893">
        <ele>266</ele>
        <time>2017-10-15T13:25:06Z</time>
      </trkpt>
      <trkpt lat="45.17306" lon="5.78901">
        <ele>263</ele>
        <time>2017-10-15T13:25:08Z</time>
      </trkpt>
      <trkpt lat="45.17315" lon="5.78905">
        <ele>261</ele>
        <time>2017-10-15T13:25:10Z</time>
      </trkpt>
      <trkpt lat="45.17324" lon="5.78903">
        <ele>261</ele>
        <time>2017-10-15T13:25:11Z</time>
      </trkpt>
      <trkpt lat="45.17331" lon="5.78908">
        <ele>260</ele>
        <time>2017-10-15T13:25:13Z</time>
      </trkpt>
      <trkpt lat="45.17333" lon="5.78914">
        <ele>259</ele>
        <time>2017-10-15T13:25:14Z</time>
      </trkpt>
      <trkpt lat="45.17336" lon="5.78921">
        <ele>258</ele>
        <time>2017-10-15T13:25:15Z</time>
      </trkpt>
      <trkpt lat="45.17336" lon="5.78936">
        <ele>258</ele>
        <time>2017-10-15T13:25:17Z</time>
      </trkpt>
      <trkpt lat="45.17336" lon="5.78944">
        <ele>257</ele>
        <time>2017-10-15T13:25:18Z</time>
      </trkpt>
      <trkpt lat="45.17334" lon="5.78962">
        <ele>257</ele>
        <time>2017-10-15T13:25:20Z</time>
      </trkpt>
      <trkpt lat="45.17333" lon="5.78977">
        <ele>256</ele>
        <time>2017-10-15T13:25:22Z</time>
      </trkpt>
      <trkpt lat="45.17331" lon="5.78984">
        <ele>258</ele>
        <time>2017-10-15T13:25:26Z</time>
      </trkpt>
      <trkpt lat="45.17331" lon="5.78991">
        <ele>260</ele>
        <time>2017-10-15T13:25:28Z</time>
      </trkpt>
      <trkpt lat="45.17334" lon="5.78996">
        <ele>262</ele>
        <time>2017-10-15T13:25:30Z</time>
      </trkpt>
      <trkpt lat="45.17339" lon="5.78997">
        <ele>262</ele>
        <time>2017-10-15T13:25:32Z</time>
      </trkpt>
      <trkpt lat="45.17348" lon="5.78996">
        <ele>262</ele>
        <time>2017-10-15T13:28:30Z</time>
      </trkpt>
      <trkpt lat="45.17355" lon="5.78997">
        <ele>262</ele>
        <time>2017-10-15T13:28:33Z</time>
      </trkpt>
      <trkpt lat="45.17361" lon="5.78998">
        <ele>262</ele>
        <time>2017-10-15T13:28:35Z</time>
      </trkpt>
      <trkpt lat="45.17367" lon="5.78997">
        <ele>262</ele>
        <time>2017-10-15T13:28:37Z</time>
      </trkpt>
      <trkpt lat="45.17374" lon="5.78995">
        <ele>260</ele>
        <time>2017-10-15T13:28:39Z</time>
      </trkpt>
      <trkpt lat="45.17381" lon="5.78997">
        <ele>261</ele>
        <time>2017-10-15T13:28:41Z</time>
      </trkpt>
      <trkpt lat="45.17389" lon="5.78997">
        <ele>260</ele>
        <time>2017-10-15T13:28:43Z</time>
      </trkpt>
      <trkpt lat="45.17397" lon="5.78997">
        <ele>260</ele>
        <time>2017-10-15T13:28:45Z</time>
      </trkpt>
      <trkpt lat="45.17402" lon="5.78998">
        <ele>260</ele>
        <time>2017-10-15T13:28:46Z</time>
      </trkpt>
      <trkpt lat="45.1741" lon="5.78999">
        <ele>259</ele>
        <time>2017-10-15T13:28:48Z</time>
      </trkpt>
      <trkpt lat="45.17417" lon="5.79001">
        <ele>260</ele>
        <time>2017-10-15T13:28:50Z</time>
      </trkpt>
      <trkpt lat="45.17424" lon="5.79">
        <ele>259</ele>
        <time>2017-10-15T13:28:52Z</time>
      </trkpt>
      <trkpt lat="45.17431" lon="5.78999">
        <ele>258</ele>
        <time>2017-10-15T13:28:54Z</time>
      </trkpt>
      <trkpt lat="45.17436" lon="5.79">
        <ele>258</ele>
        <time>2017-10-15T13:28:55Z</time>
      </trkpt>
      <trkpt lat="45.17447" lon="5.79001">
        <ele>257</ele>
        <time>2017-10-15T13:28:57Z</time>
      </trkpt>
      <trkpt lat="45.17458" lon="5.79003">
        <ele>257</ele>
        <time>2017-10-15T13:28:59Z</time>
      </trkpt>
      <trkpt lat="45.17469" lon="5.79005">
        <ele>256</ele>
        <time>2017-10-15T13:29:01Z</time>
      </trkpt>
      <trkpt lat="45.17475" lon="5.79006">
        <ele>256</ele>
        <time>2017-10-15T13:29:02Z</time>
      </trkpt>
      <trkpt lat="45.17481" lon="5.79006">
        <ele>255</ele>
        <time>2017-10-15T13:29:03Z</time>
      </trkpt>
      <trkpt lat="45.17489" lon="5.79006">
        <ele>254</ele>
        <time>2017-10-15T13:29:04Z</time>
      </trkpt>
      <trkpt lat="45.17495" lon="5.79006">
        <ele>253</ele>
        <time>2017-10-15T13:29:05Z</time>
      </trkpt>
      <trkpt lat="45.17502" lon="5.79005">
        <ele>252</ele>
        <time>2017-10-15T13:29:06Z</time>
      </trkpt>
      <trkpt lat="45.17508" lon="5.79004">
        <ele>251</ele>
        <time>2017-10-15T13:29:07Z</time>
      </trkpt>
      <trkpt lat="45.17516" lon="5.79002">
        <ele>250</ele>
        <time>2017-10-15T13:29:08Z</time>
      </trkpt>
      <trkpt lat="45.17522" lon="5.78999">
        <ele>249</ele>
        <time>2017-10-15T13:29:09Z</time>
      </trkpt>
      <trkpt lat="45.17528" lon="5.78995">
        <ele>247</ele>
        <time>2017-10-15T13:29:10Z</time>
      </trkpt>
      <trkpt lat="45.17535" lon="5.78992">
        <ele>246</ele>
        <time>2017-10-15T13:29:11Z</time>
      </trkpt>
      <trkpt lat="45.17542" lon="5.78988">
        <ele>245</ele>
        <time>2017-10-15T13:29:12Z</time>
      </trkpt>
      <trkpt lat="45.17548" lon="5.78982">
        <ele>243</ele>
        <time>2017-10-15T13:29:13Z</time>
      </trkpt>
      <trkpt lat="45.17555" lon="5.78978">
        <ele>243</ele>
        <time>2017-10-15T13:29:14Z</time>
      </trkpt>
      <trkpt lat="45.1757" lon="5.78971">
        <ele>243</ele>
        <time>2017-10-15T13:29:16Z</time>
      </trkpt>
      <trkpt lat="45.17584" lon="5.78965">
        <ele>244</ele>
        <time>2017-10-15T13:29:18Z</time>
      </trkpt>
      <trkpt lat="45.17591" lon="5.78961">
        <ele>244</ele>
        <time>2017-10-15T13:29:19Z</time>
      </trkpt>
      <trkpt lat="45.17606" lon="5.78957">
        <ele>244</ele>
        <time>2017-10-15T13:29:21Z</time>
      </trkpt>
      <trkpt lat="45.17614" lon="5.78957">
        <ele>244</ele>
        <time>2017-10-15T13:29:22Z</time>
      </trkpt>
      <trkpt lat="45.1763" lon="5.7896">
        <ele>243</ele>
        <time>2017-10-15T13:29:24Z</time>
      </trkpt>
      <trkpt lat="45.17638" lon="5.78962">
        <ele>243</ele>
        <time>2017-10-15T13:29:25Z</time>
      </trkpt>
      <trkpt lat="45.17654" lon="5.78969">
        <ele>242</ele>
        <time>2017-10-15T13:29:27Z</time>
      </trkpt>
      <trkpt lat="45.17661" lon="5.78971">
        <ele>242</ele>
        <time>2017-10-15T13:29:28Z</time>
      </trkpt>
      <trkpt lat="45.17668" lon="5.78975">
        <ele>242</ele>
        <time>2017-10-15T13:29:29Z</time>
      </trkpt>
      <trkpt lat="45.17682" lon="5.78983">
        <ele>242</ele>
        <time>2017-10-15T13:29:31Z</time>
      </trkpt>
      <trkpt lat="45.1769" lon="5.78986">
        <ele>243</ele>
        <time>2017-10-15T13:29:32Z</time>
      </trkpt>
      <trkpt lat="45.17697" lon="5.78988">
        <ele>243</ele>
        <time>2017-10-15T13:29:33Z</time>
      </trkpt>
      <trkpt lat="45.17704" lon="5.78991">
        <ele>243</ele>
        <time>2017-10-15T13:29:34Z</time>
      </trkpt>
      <trkpt lat="45.17712" lon="5.78993">
        <ele>244</ele>
        <time>2017-10-15T13:29:35Z</time>
      </trkpt>
      <trkpt lat="45.1772" lon="5.78995">
        <ele>244</ele>
        <time>2017-10-15T13:29:36Z</time>
      </trkpt>
      <trkpt lat="45.17727" lon="5.78996">
        <ele>244</ele>
        <time>2017-10-15T13:29:37Z</time>
      </trkpt>
      <trkpt lat="45.17734" lon="5.78997">
        <ele>244</ele>
        <time>2017-10-15T13:29:38Z</time>
      </trkpt>
      <trkpt lat="45.17741" lon="5.78998">
        <ele>244</ele>
        <time>2017-10-15T13:29:39Z</time>
      </trkpt>
      <trkpt lat="45.17755" lon="5.78999">
        <ele>244</ele>
        <time>2017-10-15T13:29:41Z</time>
      </trkpt>
      <trkpt lat="45.17762" lon="5.79001">
        <ele>245</ele>
        <time>2017-10-15T13:29:42Z</time>
      </trkpt>
      <trkpt lat="45.17769" lon="5.79002">
        <ele>245</ele>
        <time>2017-10-15T13:29:43Z</time>
      </trkpt>
      <trkpt lat="45.17775" lon="5.79002">
        <ele>245</ele>
        <time>2017-10-15T13:29:44Z</time>
      </trkpt>
      <trkpt lat="45.17782" lon="5.79003">
        <ele>245</ele>
        <time>2017-10-15T13:29:45Z</time>
      </trkpt>
      <trkpt lat="45.17788" lon="5.79005">
        <ele>245</ele>
        <time>2017-10-15T13:29:46Z</time>
      </trkpt>
      <trkpt lat="45.17794" lon="5.79007">
        <ele>245</ele>
        <time>2017-10-15T13:29:47Z</time>
      </trkpt>
      <trkpt lat="45.17801" lon="5.79009">
        <ele>246</ele>
        <time>2017-10-15T13:29:48Z</time>
      </trkpt>
      <trkpt lat="45.17813" lon="5.79012">
        <ele>246</ele>
        <time>2017-10-15T13:29:50Z</time>
      </trkpt>
      <trkpt lat="45.17819" lon="5.79013">
        <ele>246</ele>
        <time>2017-10-15T13:29:51Z</time>
      </trkpt>
      <trkpt lat="45.17828" lon="5.79014">
        <ele>246</ele>
        <time>2017-10-15T13:29:53Z</time>
      </trkpt>
      <trkpt lat="45.17838" lon="5.79016">
        <ele>246</ele>
        <time>2017-10-15T13:29:55Z</time>
      </trkpt>
      <trkpt lat="45.17846" lon="5.79017">
        <ele>246</ele>
        <time>2017-10-15T13:29:57Z</time>
      </trkpt>
      <trkpt lat="45.17851" lon="5.79017">
        <ele>245</ele>
        <time>2017-10-15T13:29:58Z</time>
      </trkpt>
      <trkpt lat="45.17857" lon="5.79017">
        <ele>245</ele>
        <time>2017-10-15T13:29:59Z</time>
      </trkpt>
      <trkpt lat="45.17867" lon="5.79019">
        <ele>245</ele>
        <time>2017-10-15T13:30:01Z</time>
      </trkpt>
      <trkpt lat="45.17872" lon="5.79018">
        <ele>244</ele>
        <time>2017-10-15T13:30:02Z</time>
      </trkpt>
      <trkpt lat="45.17877" lon="5.79018">
        <ele>244</ele>
        <time>2017-10-15T13:30:03Z</time>
      </trkpt>
      <trkpt lat="45.17883" lon="5.79018">
        <ele>243</ele>
        <time>2017-10-15T13:30:04Z</time>
      </trkpt>
      <trkpt lat="45.17893" lon="5.79017">
        <ele>243</ele>
        <time>2017-10-15T13:30:06Z</time>
      </trkpt>
      <trkpt lat="45.17903" lon="5.79014">
        <ele>242</ele>
        <time>2017-10-15T13:30:08Z</time>
      </trkpt>
      <trkpt lat="45.17908" lon="5.79013">
        <ele>241</ele>
        <time>2017-10-15T13:30:09Z</time>
      </trkpt>
      <trkpt lat="45.17913" lon="5.79012">
        <ele>241</ele>
        <time>2017-10-15T13:30:10Z</time>
      </trkpt>
      <trkpt lat="45.17918" lon="5.79009">
        <ele>240</ele>
        <time>2017-10-15T13:30:11Z</time>
      </trkpt>
      <trkpt lat="45.17926" lon="5.79014">
        <ele>240</ele>
        <time>2017-10-15T13:30:13Z</time>
      </trkpt>
      <trkpt lat="45.17934" lon="5.79029">
        <ele>240</ele>
        <time>2017-10-15T13:30:16Z</time>
      </trkpt>
      <trkpt lat="45.1794" lon="5.79037">
        <ele>240</ele>
        <time>2017-10-15T13:30:18Z</time>
      </trkpt>
      <trkpt lat="45.17944" lon="5.79042">
        <ele>240</ele>
        <time>2017-10-15T13:30:19Z</time>
      </trkpt>
      <trkpt lat="45.17951" lon="5.79049">
        <ele>240</ele>
        <time>2017-10-15T13:30:21Z</time>
      </trkpt>
      <trkpt lat="45.17959" lon="5.79054">
        <ele>239</ele>
        <time>2017-10-15T13:30:23Z</time>
      </trkpt>
      <trkpt lat="45.17963" lon="5.79057">
        <ele>239</ele>
        <time>2017-10-15T13:30:24Z</time>
      </trkpt>
      <trkpt lat="45.17971" lon="5.7906">
        <ele>239</ele>
        <time>2017-10-15T13:30:26Z</time>
      </trkpt>
      <trkpt lat="45.17978" lon="5.79063">
        <ele>238</ele>
        <time>2017-10-15T13:30:28Z</time>
      </trkpt>
      <trkpt lat="45.17986" lon="5.79061">
        <ele>237</ele>
        <time>2017-10-15T13:30:30Z</time>
      </trkpt>
      <trkpt lat="45.17991" lon="5.79061">
        <ele>236</ele>
        <time>2017-10-15T13:30:33Z</time>
      </trkpt>
      <trkpt lat="45.17997" lon="5.79063">
        <ele>236</ele>
        <time>2017-10-15T13:30:36Z</time>
      </trkpt>
      <trkpt lat="45.18003" lon="5.79066">
        <ele>236</ele>
        <time>2017-10-15T13:30:38Z</time>
      </trkpt>
      <trkpt lat="45.18009" lon="5.79068">
        <ele>236</ele>
        <time>2017-10-15T13:30:40Z</time>
      </trkpt>
      <trkpt lat="45.18015" lon="5.79066">
        <ele>235</ele>
        <time>2017-10-15T13:30:42Z</time>
      </trkpt>
      <trkpt lat="45.18018" lon="5.79058">
        <ele>235</ele>
        <time>2017-10-15T13:30:44Z</time>
      </trkpt>
      <trkpt lat="45.1802" lon="5.79048">
        <ele>234</ele>
        <time>2017-10-15T13:30:46Z</time>
      </trkpt>
      <trkpt lat="45.18021" lon="5.79038">
        <ele>234</ele>
        <time>2017-10-15T13:30:48Z</time>
      </trkpt>
      <trkpt lat="45.1802" lon="5.79028">
        <ele>234</ele>
        <time>2017-10-15T13:30:50Z</time>
      </trkpt>
      <trkpt lat="45.1802" lon="5.79019">
        <ele>234</ele>
        <time>2017-10-15T13:30:52Z</time>
      </trkpt>
      <trkpt lat="45.18024" lon="5.79021">
        <ele>233</ele>
        <time>2017-10-15T13:31:01Z</time>
      </trkpt>
      <trkpt lat="45.18029" lon="5.79021">
        <ele>233</ele>
        <time>2017-10-15T13:31:03Z</time>
      </trkpt>
      <trkpt lat="45.18035" lon="5.79023">
        <ele>233</ele>
        <time>2017-10-15T13:31:06Z</time>
      </trkpt>
      <trkpt lat="45.18037" lon="5.79017">
        <ele>233</ele>
        <time>2017-10-15T13:31:09Z</time>
      </trkpt>
      <trkpt lat="45.18037" lon="5.7901">
        <ele>233</ele>
        <time>2017-10-15T13:31:11Z</time>
      </trkpt>
      <trkpt lat="45.18038" lon="5.79001">
        <ele>233</ele>
        <time>2017-10-15T13:31:13Z</time>
      </trkpt>
      <trkpt lat="45.18038" lon="5.78992">
        <ele>232</ele>
        <time>2017-10-15T13:31:15Z</time>
      </trkpt>
      <trkpt lat="45.1804" lon="5.78982">
        <ele>232</ele>
        <time>2017-10-15T13:31:17Z</time>
      </trkpt>
      <trkpt lat="45.18044" lon="5.78973">
        <ele>232</ele>
        <time>2017-10-15T13:31:19Z</time>
      </trkpt>
      <trkpt lat="45.18052" lon="5.78965">
        <ele>232</ele>
        <time>2017-10-15T13:31:21Z</time>
      </trkpt>
      <trkpt lat="45.18058" lon="5.78961">
        <ele>232</ele>
        <time>2017-10-15T13:31:22Z</time>
      </trkpt>
      <trkpt lat="45.18063" lon="5.78958">
        <ele>231</ele>
        <time>2017-10-15T13:31:23Z</time>
      </trkpt>
      <trkpt lat="45.18068" lon="5.78954">
        <ele>231</ele>
        <time>2017-10-15T13:31:24Z</time>
      </trkpt>
      <trkpt lat="45.18072" lon="5.78951">
        <ele>231</ele>
        <time>2017-10-15T13:31:25Z</time>
      </trkpt>
      <trkpt lat="45.18081" lon="5.78946">
        <ele>231</ele>
        <time>2017-10-15T13:31:27Z</time>
      </trkpt>
      <trkpt lat="45.18084" lon="5.78943">
        <ele>231</ele>
        <time>2017-10-15T13:31:28Z</time>
      </trkpt>
      <trkpt lat="45.18089" lon="5.78939">
        <ele>230</ele>
        <time>2017-10-15T13:31:29Z</time>
      </trkpt>
      <trkpt lat="45.18093" lon="5.78936">
        <ele>230</ele>
        <time>2017-10-15T13:31:30Z</time>
      </trkpt>
      <trkpt lat="45.18097" lon="5.78933">
        <ele>230</ele>
        <time>2017-10-15T13:31:31Z</time>
      </trkpt>
      <trkpt lat="45.18102" lon="5.78929">
        <ele>230</ele>
        <time>2017-10-15T13:31:32Z</time>
      </trkpt>
      <trkpt lat="45.1811" lon="5.78925">
        <ele>230</ele>
        <time>2017-10-15T13:31:34Z</time>
      </trkpt>
      <trkpt lat="45.18119" lon="5.78923">
        <ele>230</ele>
        <time>2017-10-15T13:31:36Z</time>
      </trkpt>
      <trkpt lat="45.18128" lon="5.78921">
        <ele>229</ele>
        <time>2017-10-15T13:31:38Z</time>
      </trkpt>
      <trkpt lat="45.18133" lon="5.7892">
        <ele>229</ele>
        <time>2017-10-15T13:31:39Z</time>
      </trkpt>
      <trkpt lat="45.18138" lon="5.78919">
        <ele>229</ele>
        <time>2017-10-15T13:31:40Z</time>
      </trkpt>
      <trkpt lat="45.18147" lon="5.78916">
        <ele>229</ele>
        <time>2017-10-15T13:31:42Z</time>
      </trkpt>
      <trkpt lat="45.18152" lon="5.78914">
        <ele>228</ele>
        <time>2017-10-15T13:31:44Z</time>
      </trkpt>
      <trkpt lat="45.18156" lon="5.78916">
        <ele>228</ele>
        <time>2017-10-15T13:31:47Z</time>
      </trkpt>
      <trkpt lat="45.18161" lon="5.78913">
        <ele>228</ele>
        <time>2017-10-15T13:31:49Z</time>
      </trkpt>
      <trkpt lat="45.18166" lon="5.78911">
        <ele>228</ele>
        <time>2017-10-15T13:31:51Z</time>
      </trkpt>
      <trkpt lat="45.18173" lon="5.78909">
        <ele>228</ele>
        <time>2017-10-15T13:31:53Z</time>
      </trkpt>
      <trkpt lat="45.1818" lon="5.78907">
        <ele>227</ele>
        <time>2017-10-15T13:31:55Z</time>
      </trkpt>
      <trkpt lat="45.18189" lon="5.78905">
        <ele>227</ele>
        <time>2017-10-15T13:31:57Z</time>
      </trkpt>
      <trkpt lat="45.18198" lon="5.78904">
        <ele>226</ele>
        <time>2017-10-15T13:31:59Z</time>
      </trkpt>
      <trkpt lat="45.18203" lon="5.78903">
        <ele>226</ele>
        <time>2017-10-15T13:32:00Z</time>
      </trkpt>
      <trkpt lat="45.18208" lon="5.78902">
        <ele>226</ele>
        <time>2017-10-15T13:32:01Z</time>
      </trkpt>
      <trkpt lat="45.18213" lon="5.78901">
        <ele>226</ele>
        <time>2017-10-15T13:32:02Z</time>
      </trkpt>
      <trkpt lat="45.18219" lon="5.789">
        <ele>225</ele>
        <time>2017-10-15T13:32:03Z</time>
      </trkpt>
      <trkpt lat="45.18224" lon="5.789">
        <ele>225</ele>
        <time>2017-10-15T13:32:04Z</time>
      </trkpt>
      <trkpt lat="45.18229" lon="5.78899">
        <ele>225</ele>
        <time>2017-10-15T13:32:05Z</time>
      </trkpt>
      <trkpt lat="45.18239" lon="5.78899">
        <ele>225</ele>
        <time>2017-10-15T13:32:07Z</time>
      </trkpt>
      <trkpt lat="45.18245" lon="5.78899">
        <ele>224</ele>
        <time>2017-10-15T13:32:08Z</time>
      </trkpt>
      <trkpt lat="45.1825" lon="5.78899">
        <ele>224</ele>
        <time>2017-10-15T13:32:09Z</time>
      </trkpt>
      <trkpt lat="45.18255" lon="5.78901">
        <ele>224</ele>
        <time>2017-10-15T13:32:10Z</time>
      </trkpt>
      <trkpt lat="45.18267" lon="5.78903">
        <ele>223</ele>
        <time>2017-10-15T13:32:12Z</time>
      </trkpt>
      <trkpt lat="45.18277" lon="5.78904">
        <ele>223</ele>
        <time>2017-10-15T13:32:14Z</time>
      </trkpt>
      <trkpt lat="45.18286" lon="5.78903">
        <ele>223</ele>
        <time>2017-10-15T13:32:16Z</time>
      </trkpt>
      <trkpt lat="45.18293" lon="5.789">
        <ele>223</ele>
        <time>2017-10-15T13:32:18Z</time>
      </trkpt>
      <trkpt lat="45.183" lon="5.78896">
        <ele>222</ele>
        <time>2017-10-15T13:32:20Z</time>
      </trkpt>
      <trkpt lat="45.18309" lon="5.78896">
        <ele>222</ele>
        <time>2017-10-15T13:32:22Z</time>
      </trkpt>
      <trkpt lat="45.18318" lon="5.78894">
        <ele>222</ele>
        <time>2017-10-15T13:32:24Z</time>
      </trkpt>
      <trkpt lat="45.18322" lon="5.78892">
        <ele>222</ele>
        <time>2017-10-15T13:32:25Z</time>
      </trkpt>
      <trkpt lat="45.18327" lon="5.78892">
        <ele>221</ele>
        <time>2017-10-15T13:32:26Z</time>
      </trkpt>
      <trkpt lat="45.18333" lon="5.78893">
        <ele>221</ele>
        <time>2017-10-15T13:32:27Z</time>
      </trkpt>
      <trkpt lat="45.18341" lon="5.78892">
        <ele>221</ele>
        <time>2017-10-15T13:32:29Z</time>
      </trkpt>
      <trkpt lat="45.1835" lon="5.78897">
        <ele>221</ele>
        <time>2017-10-15T13:32:31Z</time>
      </trkpt>
      <trkpt lat="45.18356" lon="5.78897">
        <ele>221</ele>
        <time>2017-10-15T13:32:33Z</time>
      </trkpt>
      <trkpt lat="45.18366" lon="5.78897">
        <ele>220</ele>
        <time>2017-10-15T13:32:35Z</time>
      </trkpt>
      <trkpt lat="45.18377" lon="5.789">
        <ele>220</ele>
        <time>2017-10-15T13:32:38Z</time>
      </trkpt>
      <trkpt lat="45.18385" lon="5.78899">
        <ele>220</ele>
        <time>2017-10-15T13:32:40Z</time>
      </trkpt>
      <trkpt lat="45.18393" lon="5.789">
        <ele>220</ele>
        <time>2017-10-15T13:32:42Z</time>
      </trkpt>
      <trkpt lat="45.18402" lon="5.78899">
        <ele>219</ele>
        <time>2017-10-15T13:32:44Z</time>
      </trkpt>
      <trkpt lat="45.18411" lon="5.78898">
        <ele>219</ele>
        <time>2017-10-15T13:32:46Z</time>
      </trkpt>
      <trkpt lat="45.1842" lon="5.78897">
        <ele>219</ele>
        <time>2017-10-15T13:32:48Z</time>
      </trkpt>
      <trkpt lat="45.18425" lon="5.78897">
        <ele>219</ele>
        <time>2017-10-15T13:32:49Z</time>
      </trkpt>
      <trkpt lat="45.18434" lon="5.78898">
        <ele>219</ele>
        <time>2017-10-15T13:32:51Z</time>
      </trkpt>
      <trkpt lat="45.18441" lon="5.78897">
        <ele>219</ele>
        <time>2017-10-15T13:32:53Z</time>
      </trkpt>
      <trkpt lat="45.18449" lon="5.78897">
        <ele>219</ele>
        <time>2017-10-15T13:32:55Z</time>
      </trkpt>
      <trkpt lat="45.18459" lon="5.78897">
        <ele>218</ele>
        <time>2017-10-15T13:32:57Z</time>
      </trkpt>
      <trkpt lat="45.18463" lon="5.78897">
        <ele>218</ele>
        <time>2017-10-15T13:32:58Z</time>
      </trkpt>
      <trkpt lat="45.18468" lon="5.78897">
        <ele>218</ele>
        <time>2017-10-15T13:32:59Z</time>
      </trkpt>
      <trkpt lat="45.18473" lon="5.78896">
        <ele>218</ele>
        <time>2017-10-15T13:33:00Z</time>
      </trkpt>
      <trkpt lat="45.18477" lon="5.78895">
        <ele>218</ele>
        <time>2017-10-15T13:33:01Z</time>
      </trkpt>
      <trkpt lat="45.18482" lon="5.78895">
        <ele>218</ele>
        <time>2017-10-15T13:33:02Z</time>
      </trkpt>
      <trkpt lat="45.18487" lon="5.78895">
        <ele>218</ele>
        <time>2017-10-15T13:33:03Z</time>
      </trkpt>
      <trkpt lat="45.18492" lon="5.78894">
        <ele>218</ele>
        <time>2017-10-15T13:33:04Z</time>
      </trkpt>
      <trkpt lat="45.18497" lon="5.78894">
        <ele>218</ele>
        <time>2017-10-15T13:33:05Z</time>
      </trkpt>
      <trkpt lat="45.18502" lon="5.78893">
        <ele>218</ele>
        <time>2017-10-15T13:33:06Z</time>
      </trkpt>
      <trkpt lat="45.18506" lon="5.78893">
        <ele>218</ele>
        <time>2017-10-15T13:33:07Z</time>
      </trkpt>
      <trkpt lat="45.18516" lon="5.78893">
        <ele>218</ele>
        <time>2017-10-15T13:33:09Z</time>
      </trkpt>
      <trkpt lat="45.18522" lon="5.78894">
        <ele>218</ele>
        <time>2017-10-15T13:33:10Z</time>
      </trkpt>
      <trkpt lat="45.18527" lon="5.78895">
        <ele>217</ele>
        <time>2017-10-15T13:33:11Z</time>
      </trkpt>
      <trkpt lat="45.18534" lon="5.78904">
        <ele>217</ele>
        <time>2017-10-15T13:33:13Z</time>
      </trkpt>
      <trkpt lat="45.1854" lon="5.78919">
        <ele>217</ele>
        <time>2017-10-15T13:33:15Z</time>
      </trkpt>
      <trkpt lat="45.18543" lon="5.78927">
        <ele>217</ele>
        <time>2017-10-15T13:33:16Z</time>
      </trkpt>
      <trkpt lat="45.18546" lon="5.78935">
        <ele>217</ele>
        <time>2017-10-15T13:33:17Z</time>
      </trkpt>
      <trkpt lat="45.18551" lon="5.78944">
        <ele>217</ele>
        <time>2017-10-15T13:33:18Z</time>
      </trkpt>
      <trkpt lat="45.18557" lon="5.78959">
        <ele>217</ele>
        <time>2017-10-15T13:33:20Z</time>
      </trkpt>
      <trkpt lat="45.1856" lon="5.78967">
        <ele>217</ele>
        <time>2017-10-15T13:33:21Z</time>
      </trkpt>
      <trkpt lat="45.18562" lon="5.78974">
        <ele>217</ele>
        <time>2017-10-15T13:33:22Z</time>
      </trkpt>
      <trkpt lat="45.18564" lon="5.78982">
        <ele>217</ele>
        <time>2017-10-15T13:33:23Z</time>
      </trkpt>
      <trkpt lat="45.18567" lon="5.78988">
        <ele>217</ele>
        <time>2017-10-15T13:33:24Z</time>
      </trkpt>
      <trkpt lat="45.18571" lon="5.78997">
        <ele>217</ele>
        <time>2017-10-15T13:33:26Z</time>
      </trkpt>
      <trkpt lat="45.18576" lon="5.79001">
        <ele>216</ele>
        <time>2017-10-15T13:33:28Z</time>
      </trkpt>
      <trkpt lat="45.18584" lon="5.78999">
        <ele>216</ele>
        <time>2017-10-15T13:33:30Z</time>
      </trkpt>
      <trkpt lat="45.18589" lon="5.78998">
        <ele>216</ele>
        <time>2017-10-15T13:33:31Z</time>
      </trkpt>
      <trkpt lat="45.18594" lon="5.78996">
        <ele>216</ele>
        <time>2017-10-15T13:33:32Z</time>
      </trkpt>
      <trkpt lat="45.18598" lon="5.78994">
        <ele>216</ele>
        <time>2017-10-15T13:33:33Z</time>
      </trkpt>
      <trkpt lat="45.18606" lon="5.78989">
        <ele>216</ele>
        <time>2017-10-15T13:33:35Z</time>
      </trkpt>
      <trkpt lat="45.18614" lon="5.78984">
        <ele>215</ele>
        <time>2017-10-15T13:33:37Z</time>
      </trkpt>
      <trkpt lat="45.18622" lon="5.78979">
        <ele>215</ele>
        <time>2017-10-15T13:33:39Z</time>
      </trkpt>
      <trkpt lat="45.1863" lon="5.78976">
        <ele>215</ele>
        <time>2017-10-15T13:33:41Z</time>
      </trkpt>
      <trkpt lat="45.18642" lon="5.78972">
        <ele>215</ele>
        <time>2017-10-15T13:33:44Z</time>
      </trkpt>
      <trkpt lat="45.18651" lon="5.78971">
        <ele>215</ele>
        <time>2017-10-15T13:33:46Z</time>
      </trkpt>
      <trkpt lat="45.1866" lon="5.78968">
        <ele>215</ele>
        <time>2017-10-15T13:33:48Z</time>
      </trkpt>
      <trkpt lat="45.18665" lon="5.78966">
        <ele>215</ele>
        <time>2017-10-15T13:33:49Z</time>
      </trkpt>
      <trkpt lat="45.1867" lon="5.78964">
        <ele>215</ele>
        <time>2017-10-15T13:33:50Z</time>
      </trkpt>
      <trkpt lat="45.18675" lon="5.78962">
        <ele>215</ele>
        <time>2017-10-15T13:33:51Z</time>
      </trkpt>
      <trkpt lat="45.18685" lon="5.78961">
        <ele>214</ele>
        <time>2017-10-15T13:33:53Z</time>
      </trkpt>
      <trkpt lat="45.1869" lon="5.7896">
        <ele>214</ele>
        <time>2017-10-15T13:33:54Z</time>
      </trkpt>
      <trkpt lat="45.187" lon="5.78956">
        <ele>214</ele>
        <time>2017-10-15T13:33:56Z</time>
      </trkpt>
      <trkpt lat="45.18706" lon="5.78954">
        <ele>214</ele>
        <time>2017-10-15T13:33:57Z</time>
      </trkpt>
      <trkpt lat="45.18712" lon="5.78952">
        <ele>213</ele>
        <time>2017-10-15T13:33:58Z</time>
      </trkpt>
      <trkpt lat="45.18718" lon="5.78951">
        <ele>213</ele>
        <time>2017-10-15T13:33:59Z</time>
      </trkpt>
      <trkpt lat="45.18722" lon="5.78951">
        <ele>213</ele>
        <time>2017-10-15T13:34:00Z</time>
      </trkpt>
      <trkpt lat="45.18732" lon="5.78947">
        <ele>213</ele>
        <time>2017-10-15T13:34:02Z</time>
      </trkpt>
      <trkpt lat="45.18736" lon="5.78943">
        <ele>213</ele>
        <time>2017-10-15T13:34:03Z</time>
      </trkpt>
      <trkpt lat="45.18744" lon="5.78934">
        <ele>213</ele>
        <time>2017-10-15T13:34:05Z</time>
      </trkpt>
      <trkpt lat="45.18752" lon="5.78926">
        <ele>212</ele>
        <time>2017-10-15T13:34:07Z</time>
      </trkpt>
      <trkpt lat="45.18761" lon="5.7892">
        <ele>212</ele>
        <time>2017-10-15T13:34:09Z</time>
      </trkpt>
      <trkpt lat="45.18765" lon="5.78917">
        <ele>212</ele>
        <time>2017-10-15T13:34:10Z</time>
      </trkpt>
      <trkpt lat="45.18774" lon="5.78913">
        <ele>212</ele>
        <time>2017-10-15T13:34:12Z</time>
      </trkpt>
      <trkpt lat="45.18785" lon="5.78913">
        <ele>212</ele>
        <time>2017-10-15T13:34:14Z</time>
      </trkpt>
      <trkpt lat="45.1879" lon="5.78913">
        <ele>212</ele>
        <time>2017-10-15T13:34:15Z</time>
      </trkpt>
      <trkpt lat="45.18802" lon="5.78912">
        <ele>212</ele>
        <time>2017-10-15T13:34:17Z</time>
      </trkpt>
      <trkpt lat="45.18807" lon="5.78911">
        <ele>212</ele>
        <time>2017-10-15T13:34:18Z</time>
      </trkpt>
      <trkpt lat="45.18812" lon="5.78911">
        <ele>212</ele>
        <time>2017-10-15T13:34:19Z</time>
      </trkpt>
      <trkpt lat="45.18817" lon="5.78908">
        <ele>211</ele>
        <time>2017-10-15T13:34:20Z</time>
      </trkpt>
      <trkpt lat="45.18823" lon="5.78907">
        <ele>211</ele>
        <time>2017-10-15T13:34:21Z</time>
      </trkpt>
      <trkpt lat="45.18827" lon="5.78904">
        <ele>211</ele>
        <time>2017-10-15T13:34:22Z</time>
      </trkpt>
      <trkpt lat="45.18832" lon="5.78903">
        <ele>211</ele>
        <time>2017-10-15T13:34:23Z</time>
      </trkpt>
      <trkpt lat="45.18838" lon="5.789">
        <ele>211</ele>
        <time>2017-10-15T13:34:24Z</time>
      </trkpt>
      <trkpt lat="45.18842" lon="5.78896">
        <ele>211</ele>
        <time>2017-10-15T13:34:25Z</time>
      </trkpt>
      <trkpt lat="45.18846" lon="5.78891">
        <ele>211</ele>
        <time>2017-10-15T13:34:26Z</time>
      </trkpt>
      <trkpt lat="45.1885" lon="5.78886">
        <ele>211</ele>
        <time>2017-10-15T13:34:27Z</time>
      </trkpt>
      <trkpt lat="45.18855" lon="5.78882">
        <ele>211</ele>
        <time>2017-10-15T13:34:29Z</time>
      </trkpt>
      <trkpt lat="45.18861" lon="5.78877">
        <ele>211</ele>
        <time>2017-10-15T13:34:31Z</time>
      </trkpt>
      <trkpt lat="45.18865" lon="5.78873">
        <ele>211</ele>
        <time>2017-10-15T13:34:32Z</time>
      </trkpt>
      <trkpt lat="45.18869" lon="5.7887">
        <ele>211</ele>
        <time>2017-10-15T13:34:33Z</time>
      </trkpt>
      <trkpt lat="45.18874" lon="5.78868">
        <ele>211</ele>
        <time>2017-10-15T13:34:34Z</time>
      </trkpt>
      <trkpt lat="45.18878" lon="5.78865">
        <ele>211</ele>
        <time>2017-10-15T13:34:35Z</time>
      </trkpt>
      <trkpt lat="45.18885" lon="5.7886">
        <ele>210</ele>
        <time>2017-10-15T13:34:37Z</time>
      </trkpt>
      <trkpt lat="45.1889" lon="5.78853">
        <ele>210</ele>
        <time>2017-10-15T13:34:39Z</time>
      </trkpt>
      <trkpt lat="45.18895" lon="5.78849">
        <ele>210</ele>
        <time>2017-10-15T13:34:41Z</time>
      </trkpt>
      <trkpt lat="45.189" lon="5.78849">
        <ele>210</ele>
        <time>2017-10-15T13:34:43Z</time>
      </trkpt>
      <trkpt lat="45.18906" lon="5.78846">
        <ele>210</ele>
        <time>2017-10-15T13:34:45Z</time>
      </trkpt>
      <trkpt lat="45.18912" lon="5.7884">
        <ele>211</ele>
        <time>2017-10-15T13:34:47Z</time>
      </trkpt>
      <trkpt lat="45.18915" lon="5.7883">
        <ele>211</ele>
        <time>2017-10-15T13:34:49Z</time>
      </trkpt>
      <trkpt lat="45.18916" lon="5.78823">
        <ele>211</ele>
        <time>2017-10-15T13:34:50Z</time>
      </trkpt>
      <trkpt lat="45.18918" lon="5.78817">
        <ele>211</ele>
        <time>2017-10-15T13:34:51Z</time>
      </trkpt>
      <trkpt lat="45.18921" lon="5.78803">
        <ele>211</ele>
        <time>2017-10-15T13:34:53Z</time>
      </trkpt>
      <trkpt lat="45.18922" lon="5.78796">
        <ele>211</ele>
        <time>2017-10-15T13:34:54Z</time>
      </trkpt>
      <trkpt lat="45.18924" lon="5.78789">
        <ele>211</ele>
        <time>2017-10-15T13:34:55Z</time>
      </trkpt>
      <trkpt lat="45.18926" lon="5.78783">
        <ele>211</ele>
        <time>2017-10-15T13:34:56Z</time>
      </trkpt>
      <trkpt lat="45.18927" lon="5.78776">
        <ele>211</ele>
        <time>2017-10-15T13:34:57Z</time>
      </trkpt>
      <trkpt lat="45.18928" lon="5.78769">
        <ele>211</ele>
        <time>2017-10-15T13:34:58Z</time>
      </trkpt>
      <trkpt lat="45.1893" lon="5.78763">
        <ele>211</ele>
        <time>2017-10-15T13:34:59Z</time>
      </trkpt>
      <trkpt lat="45.18934" lon="5.78745">
        <ele>211</ele>
        <time>2017-10-15T13:35:02Z</time>
      </trkpt>
      <trkpt lat="45.18935" lon="5.78733">
        <ele>211</ele>
        <time>2017-10-15T13:35:04Z</time>
      </trkpt>
      <trkpt lat="45.18938" lon="5.78723">
        <ele>211</ele>
        <time>2017-10-15T13:35:06Z</time>
      </trkpt>
      <trkpt lat="45.18941" lon="5.78711">
        <ele>211</ele>
        <time>2017-10-15T13:35:08Z</time>
      </trkpt>
      <trkpt lat="45.18942" lon="5.787">
        <ele>211</ele>
        <time>2017-10-15T13:35:10Z</time>
      </trkpt>
      <trkpt lat="45.18945" lon="5.78688">
        <ele>211</ele>
        <time>2017-10-15T13:35:12Z</time>
      </trkpt>
      <trkpt lat="45.18948" lon="5.78675">
        <ele>211</ele>
        <time>2017-10-15T13:35:14Z</time>
      </trkpt>
      <trkpt lat="45.1895" lon="5.78662">
        <ele>211</ele>
        <time>2017-10-15T13:35:16Z</time>
      </trkpt>
      <trkpt lat="45.18951" lon="5.78655">
        <ele>211</ele>
        <time>2017-10-15T13:35:17Z</time>
      </trkpt>
      <trkpt lat="45.18954" lon="5.78642">
        <ele>210</ele>
        <time>2017-10-15T13:35:19Z</time>
      </trkpt>
      <trkpt lat="45.18955" lon="5.78635">
        <ele>210</ele>
        <time>2017-10-15T13:35:20Z</time>
      </trkpt>
      <trkpt lat="45.18958" lon="5.78621">
        <ele>210</ele>
        <time>2017-10-15T13:35:22Z</time>
      </trkpt>
      <trkpt lat="45.1896" lon="5.78614">
        <ele>210</ele>
        <time>2017-10-15T13:35:23Z</time>
      </trkpt>
      <trkpt lat="45.18961" lon="5.78607">
        <ele>210</ele>
        <time>2017-10-15T13:35:24Z</time>
      </trkpt>
      <trkpt lat="45.18963" lon="5.786">
        <ele>210</ele>
        <time>2017-10-15T13:35:25Z</time>
      </trkpt>
      <trkpt lat="45.18966" lon="5.78586">
        <ele>210</ele>
        <time>2017-10-15T13:35:27Z</time>
      </trkpt>
      <trkpt lat="45.18967" lon="5.78578">
        <ele>210</ele>
        <time>2017-10-15T13:35:28Z</time>
      </trkpt>
      <trkpt lat="45.18968" lon="5.7857">
        <ele>210</ele>
        <time>2017-10-15T13:35:29Z</time>
      </trkpt>
      <trkpt lat="45.18972" lon="5.78555">
        <ele>210</ele>
        <time>2017-10-15T13:35:31Z</time>
      </trkpt>
      <trkpt lat="45.18973" lon="5.78547">
        <ele>210</ele>
        <time>2017-10-15T13:35:32Z</time>
      </trkpt>
      <trkpt lat="45.18975" lon="5.78539">
        <ele>210</ele>
        <time>2017-10-15T13:35:33Z</time>
      </trkpt>
      <trkpt lat="45.18977" lon="5.78532">
        <ele>210</ele>
        <time>2017-10-15T13:35:34Z</time>
      </trkpt>
      <trkpt lat="45.1898" lon="5.78516">
        <ele>210</ele>
        <time>2017-10-15T13:35:36Z</time>
      </trkpt>
      <trkpt lat="45.18981" lon="5.78509">
        <ele>210</ele>
        <time>2017-10-15T13:35:37Z</time>
      </trkpt>
      <trkpt lat="45.18983" lon="5.78502">
        <ele>210</ele>
        <time>2017-10-15T13:35:38Z</time>
      </trkpt>
      <trkpt lat="45.18984" lon="5.78493">
        <ele>210</ele>
        <time>2017-10-15T13:35:39Z</time>
      </trkpt>
      <trkpt lat="45.18986" lon="5.78485">
        <ele>210</ele>
        <time>2017-10-15T13:35:40Z</time>
      </trkpt>
      <trkpt lat="45.18988" lon="5.78477">
        <ele>210</ele>
        <time>2017-10-15T13:35:41Z</time>
      </trkpt>
      <trkpt lat="45.1899" lon="5.78469">
        <ele>210</ele>
        <time>2017-10-15T13:35:42Z</time>
      </trkpt>
      <trkpt lat="45.18992" lon="5.78462">
        <ele>210</ele>
        <time>2017-10-15T13:35:43Z</time>
      </trkpt>
      <trkpt lat="45.18993" lon="5.78455">
        <ele>210</ele>
        <time>2017-10-15T13:35:44Z</time>
      </trkpt>
      <trkpt lat="45.18995" lon="5.78447">
        <ele>210</ele>
        <time>2017-10-15T13:35:45Z</time>
      </trkpt>
      <trkpt lat="45.18997" lon="5.78439">
        <ele>210</ele>
        <time>2017-10-15T13:35:46Z</time>
      </trkpt>
      <trkpt lat="45.19" lon="5.78431">
        <ele>210</ele>
        <time>2017-10-15T13:35:47Z</time>
      </trkpt>
      <trkpt lat="45.19001" lon="5.78423">
        <ele>210</ele>
        <time>2017-10-15T13:35:48Z</time>
      </trkpt>
      <trkpt lat="45.19003" lon="5.78415">
        <ele>210</ele>
        <time>2017-10-15T13:35:49Z</time>
      </trkpt>
      <trkpt lat="45.19007" lon="5.78399">
        <ele>210</ele>
        <time>2017-10-15T13:35:51Z</time>
      </trkpt>
      <trkpt lat="45.19009" lon="5.78391">
        <ele>210</ele>
        <time>2017-10-15T13:35:52Z</time>
      </trkpt>
      <trkpt lat="45.19012" lon="5.78384">
        <ele>210</ele>
        <time>2017-10-15T13:35:53Z</time>
      </trkpt>
      <trkpt lat="45.19015" lon="5.78377">
        <ele>210</ele>
        <time>2017-10-15T13:35:54Z</time>
      </trkpt>
      <trkpt lat="45.19018" lon="5.78369">
        <ele>210</ele>
        <time>2017-10-15T13:35:55Z</time>
      </trkpt>
      <trkpt lat="45.19029" lon="5.78338">
        <ele>210</ele>
        <time>2017-10-15T13:35:59Z</time>
      </trkpt>
      <trkpt lat="45.19032" lon="5.78331">
        <ele>210</ele>
        <time>2017-10-15T13:36:00Z</time>
      </trkpt>
      <trkpt lat="45.19035" lon="5.78323">
        <ele>210</ele>
        <time>2017-10-15T13:36:01Z</time>
      </trkpt>
      <trkpt lat="45.19037" lon="5.78316">
        <ele>210</ele>
        <time>2017-10-15T13:36:02Z</time>
      </trkpt>
      <trkpt lat="45.1904" lon="5.78309">
        <ele>210</ele>
        <time>2017-10-15T13:36:03Z</time>
      </trkpt>
      <trkpt lat="45.19043" lon="5.78302">
        <ele>210</ele>
        <time>2017-10-15T13:36:04Z</time>
      </trkpt>
      <trkpt lat="45.19046" lon="5.78295">
        <ele>210</ele>
        <time>2017-10-15T13:36:05Z</time>
      </trkpt>
      <trkpt lat="45.19049" lon="5.78289">
        <ele>210</ele>
        <time>2017-10-15T13:36:06Z</time>
      </trkpt>
      <trkpt lat="45.19054" lon="5.7828">
        <ele>210</ele>
        <time>2017-10-15T13:36:08Z</time>
      </trkpt>
      <trkpt lat="45.19059" lon="5.78271">
        <ele>210</ele>
        <time>2017-10-15T13:36:10Z</time>
      </trkpt>
      <trkpt lat="45.19061" lon="5.78265">
        <ele>210</ele>
        <time>2017-10-15T13:36:11Z</time>
      </trkpt>
      <trkpt lat="45.19063" lon="5.78259">
        <ele>210</ele>
        <time>2017-10-15T13:36:12Z</time>
      </trkpt>
      <trkpt lat="45.19069" lon="5.78246">
        <ele>210</ele>
        <time>2017-10-15T13:36:14Z</time>
      </trkpt>
      <trkpt lat="45.19072" lon="5.7824">
        <ele>210</ele>
        <time>2017-10-15T13:36:15Z</time>
      </trkpt>
      <trkpt lat="45.19078" lon="5.78225">
        <ele>210</ele>
        <time>2017-10-15T13:36:17Z</time>
      </trkpt>
      <trkpt lat="45.19083" lon="5.78217">
        <ele>210</ele>
        <time>2017-10-15T13:36:18Z</time>
      </trkpt>
      <trkpt lat="45.19087" lon="5.7821">
        <ele>210</ele>
        <time>2017-10-15T13:36:19Z</time>
      </trkpt>
      <trkpt lat="45.19094" lon="5.78194">
        <ele>209</ele>
        <time>2017-10-15T13:36:21Z</time>
      </trkpt>
      <trkpt lat="45.19098" lon="5.78187">
        <ele>209</ele>
        <time>2017-10-15T13:36:22Z</time>
      </trkpt>
      <trkpt lat="45.19101" lon="5.7818">
        <ele>209</ele>
        <time>2017-10-15T13:36:23Z</time>
      </trkpt>
      <trkpt lat="45.19107" lon="5.7817">
        <ele>209</ele>
        <time>2017-10-15T13:36:25Z</time>
      </trkpt>
      <trkpt lat="45.1911" lon="5.78165">
        <ele>209</ele>
        <time>2017-10-15T13:36:26Z</time>
      </trkpt>
      <trkpt lat="45.19113" lon="5.78158">
        <ele>209</ele>
        <time>2017-10-15T13:36:27Z</time>
      </trkpt>
      <trkpt lat="45.19115" lon="5.78151">
        <ele>209</ele>
        <time>2017-10-15T13:36:28Z</time>
      </trkpt>
      <trkpt lat="45.19118" lon="5.78144">
        <ele>209</ele>
        <time>2017-10-15T13:36:29Z</time>
      </trkpt>
      <trkpt lat="45.1912" lon="5.78138">
        <ele>209</ele>
        <time>2017-10-15T13:36:30Z</time>
      </trkpt>
      <trkpt lat="45.19123" lon="5.78131">
        <ele>209</ele>
        <time>2017-10-15T13:36:31Z</time>
      </trkpt>
      <trkpt lat="45.19126" lon="5.78125">
        <ele>209</ele>
        <time>2017-10-15T13:36:32Z</time>
      </trkpt>
      <trkpt lat="45.19129" lon="5.78118">
        <ele>209</ele>
        <time>2017-10-15T13:36:33Z</time>
      </trkpt>
      <trkpt lat="45.19135" lon="5.78105">
        <ele>209</ele>
        <time>2017-10-15T13:36:35Z</time>
      </trkpt>
      <trkpt lat="45.19138" lon="5.78098">
        <ele>209</ele>
        <time>2017-10-15T13:36:36Z</time>
      </trkpt>
      <trkpt lat="45.1915" lon="5.7808">
        <ele>210</ele>
        <time>2017-10-15T13:36:39Z</time>
      </trkpt>
      <trkpt lat="45.19157" lon="5.7807">
        <ele>210</ele>
        <time>2017-10-15T13:36:41Z</time>
      </trkpt>
      <trkpt lat="45.19165" lon="5.7806">
        <ele>209</ele>
        <time>2017-10-15T13:36:43Z</time>
      </trkpt>
      <trkpt lat="45.1917" lon="5.78054">
        <ele>209</ele>
        <time>2017-10-15T13:36:44Z</time>
      </trkpt>
      <trkpt lat="45.19178" lon="5.78044">
        <ele>209</ele>
        <time>2017-10-15T13:36:46Z</time>
      </trkpt>
      <trkpt lat="45.19182" lon="5.78038">
        <ele>209</ele>
        <time>2017-10-15T13:36:47Z</time>
      </trkpt>
      <trkpt lat="45.1919" lon="5.78027">
        <ele>209</ele>
        <time>2017-10-15T13:36:49Z</time>
      </trkpt>
      <trkpt lat="45.19194" lon="5.78022">
        <ele>209</ele>
        <time>2017-10-15T13:36:50Z</time>
      </trkpt>
      <trkpt lat="45.19198" lon="5.78018">
        <ele>210</ele>
        <time>2017-10-15T13:36:51Z</time>
      </trkpt>
      <trkpt lat="45.19202" lon="5.78014">
        <ele>210</ele>
        <time>2017-10-15T13:36:52Z</time>
      </trkpt>
      <trkpt lat="45.19207" lon="5.78008">
        <ele>210</ele>
        <time>2017-10-15T13:36:53Z</time>
      </trkpt>
      <trkpt lat="45.19216" lon="5.77999">
        <ele>210</ele>
        <time>2017-10-15T13:36:55Z</time>
      </trkpt>
      <trkpt lat="45.19222" lon="5.77995">
        <ele>210</ele>
        <time>2017-10-15T13:36:56Z</time>
      </trkpt>
      <trkpt lat="45.19232" lon="5.77987">
        <ele>210</ele>
        <time>2017-10-15T13:36:58Z</time>
      </trkpt>
      <trkpt lat="45.19237" lon="5.77984">
        <ele>210</ele>
        <time>2017-10-15T13:36:59Z</time>
      </trkpt>
      <trkpt lat="45.19242" lon="5.77982">
        <ele>210</ele>
        <time>2017-10-15T13:37:00Z</time>
      </trkpt>
      <trkpt lat="45.19247" lon="5.77981">
        <ele>210</ele>
        <time>2017-10-15T13:37:01Z</time>
      </trkpt>
      <trkpt lat="45.19253" lon="5.7798">
        <ele>210</ele>
        <time>2017-10-15T13:37:02Z</time>
      </trkpt>
      <trkpt lat="45.19263" lon="5.77977">
        <ele>210</ele>
        <time>2017-10-15T13:37:04Z</time>
      </trkpt>
      <trkpt lat="45.19275" lon="5.77973">
        <ele>210</ele>
        <time>2017-10-15T13:37:06Z</time>
      </trkpt>
      <trkpt lat="45.1928" lon="5.77972">
        <ele>210</ele>
        <time>2017-10-15T13:37:07Z</time>
      </trkpt>
      <trkpt lat="45.19286" lon="5.77972">
        <ele>210</ele>
        <time>2017-10-15T13:37:08Z</time>
      </trkpt>
      <trkpt lat="45.19292" lon="5.77973">
        <ele>210</ele>
        <time>2017-10-15T13:37:09Z</time>
      </trkpt>
      <trkpt lat="45.19297" lon="5.77972">
        <ele>210</ele>
        <time>2017-10-15T13:37:10Z</time>
      </trkpt>
      <trkpt lat="45.19303" lon="5.77972">
        <ele>210</ele>
        <time>2017-10-15T13:37:11Z</time>
      </trkpt>
      <trkpt lat="45.19313" lon="5.77971">
        <ele>210</ele>
        <time>2017-10-15T13:37:13Z</time>
      </trkpt>
      <trkpt lat="45.19319" lon="5.7797">
        <ele>210</ele>
        <time>2017-10-15T13:37:14Z</time>
      </trkpt>
      <trkpt lat="45.19325" lon="5.7797">
        <ele>210</ele>
        <time>2017-10-15T13:37:15Z</time>
      </trkpt>
      <trkpt lat="45.1933" lon="5.77968">
        <ele>210</ele>
        <time>2017-10-15T13:37:16Z</time>
      </trkpt>
      <trkpt lat="45.19336" lon="5.77968">
        <ele>210</ele>
        <time>2017-10-15T13:37:17Z</time>
      </trkpt>
      <trkpt lat="45.19342" lon="5.77968">
        <ele>210</ele>
        <time>2017-10-15T13:37:18Z</time>
      </trkpt>
      <trkpt lat="45.19347" lon="5.77968">
        <ele>210</ele>
        <time>2017-10-15T13:37:19Z</time>
      </trkpt>
      <trkpt lat="45.19352" lon="5.77967">
        <ele>210</ele>
        <time>2017-10-15T13:37:20Z</time>
      </trkpt>
      <trkpt lat="45.19358" lon="5.77967">
        <ele>210</ele>
        <time>2017-10-15T13:37:21Z</time>
      </trkpt>
      <trkpt lat="45.19369" lon="5.77965">
        <ele>210</ele>
        <time>2017-10-15T13:37:23Z</time>
      </trkpt>
      <trkpt lat="45.19373" lon="5.77963">
        <ele>210</ele>
        <time>2017-10-15T13:37:24Z</time>
      </trkpt>
      <trkpt lat="45.19379" lon="5.77962">
        <ele>210</ele>
        <time>2017-10-15T13:37:25Z</time>
      </trkpt>
      <trkpt lat="45.19385" lon="5.77962">
        <ele>210</ele>
        <time>2017-10-15T13:37:26Z</time>
      </trkpt>
      <trkpt lat="45.19391" lon="5.7796">
        <ele>210</ele>
        <time>2017-10-15T13:37:27Z</time>
      </trkpt>
      <trkpt lat="45.19397" lon="5.77959">
        <ele>210</ele>
        <time>2017-10-15T13:37:28Z</time>
      </trkpt>
      <trkpt lat="45.19402" lon="5.77958">
        <ele>210</ele>
        <time>2017-10-15T13:37:29Z</time>
      </trkpt>
      <trkpt lat="45.19408" lon="5.77957">
        <ele>210</ele>
        <time>2017-10-15T13:37:30Z</time>
      </trkpt>
      <trkpt lat="45.19413" lon="5.77957">
        <ele>210</ele>
        <time>2017-10-15T13:37:31Z</time>
      </trkpt>
      <trkpt lat="45.19419" lon="5.77957">
        <ele>210</ele>
        <time>2017-10-15T13:37:32Z</time>
      </trkpt>
      <trkpt lat="45.19424" lon="5.77957">
        <ele>210</ele>
        <time>2017-10-15T13:37:33Z</time>
      </trkpt>
      <trkpt lat="45.19429" lon="5.77956">
        <ele>210</ele>
        <time>2017-10-15T13:37:34Z</time>
      </trkpt>
      <trkpt lat="45.19435" lon="5.77957">
        <ele>209</ele>
        <time>2017-10-15T13:37:35Z</time>
      </trkpt>
      <trkpt lat="45.19441" lon="5.77956">
        <ele>209</ele>
        <time>2017-10-15T13:37:36Z</time>
      </trkpt>
      <trkpt lat="45.19446" lon="5.77956">
        <ele>209</ele>
        <time>2017-10-15T13:37:37Z</time>
      </trkpt>
      <trkpt lat="45.19452" lon="5.77955">
        <ele>209</ele>
        <time>2017-10-15T13:37:38Z</time>
      </trkpt>
      <trkpt lat="45.19458" lon="5.77954">
        <ele>209</ele>
        <time>2017-10-15T13:37:39Z</time>
      </trkpt>
      <trkpt lat="45.19463" lon="5.77953">
        <ele>209</ele>
        <time>2017-10-15T13:37:40Z</time>
      </trkpt>
      <trkpt lat="45.19469" lon="5.7795">
        <ele>209</ele>
        <time>2017-10-15T13:37:41Z</time>
      </trkpt>
      <trkpt lat="45.19474" lon="5.7795">
        <ele>209</ele>
        <time>2017-10-15T13:37:42Z</time>
      </trkpt>
      <trkpt lat="45.19479" lon="5.77948">
        <ele>210</ele>
        <time>2017-10-15T13:37:43Z</time>
      </trkpt>
      <trkpt lat="45.19485" lon="5.77947">
        <ele>210</ele>
        <time>2017-10-15T13:37:44Z</time>
      </trkpt>
      <trkpt lat="45.1949" lon="5.77946">
        <ele>210</ele>
        <time>2017-10-15T13:37:45Z</time>
      </trkpt>
      <trkpt lat="45.19495" lon="5.77944">
        <ele>210</ele>
        <time>2017-10-15T13:37:46Z</time>
      </trkpt>
      <trkpt lat="45.195" lon="5.77943">
        <ele>210</ele>
        <time>2017-10-15T13:37:47Z</time>
      </trkpt>
      <trkpt lat="45.19506" lon="5.77942">
        <ele>210</ele>
        <time>2017-10-15T13:37:48Z</time>
      </trkpt>
      <trkpt lat="45.19511" lon="5.77941">
        <ele>210</ele>
        <time>2017-10-15T13:37:49Z</time>
      </trkpt>
      <trkpt lat="45.19517" lon="5.7794">
        <ele>210</ele>
        <time>2017-10-15T13:37:50Z</time>
      </trkpt>
      <trkpt lat="45.19522" lon="5.77938">
        <ele>210</ele>
        <time>2017-10-15T13:37:51Z</time>
      </trkpt>
      <trkpt lat="45.19532" lon="5.77932">
        <ele>210</ele>
        <time>2017-10-15T13:37:53Z</time>
      </trkpt>
      <trkpt lat="45.19542" lon="5.77928">
        <ele>210</ele>
        <time>2017-10-15T13:37:55Z</time>
      </trkpt>
      <trkpt lat="45.19552" lon="5.77924">
        <ele>210</ele>
        <time>2017-10-15T13:37:57Z</time>
      </trkpt>
      <trkpt lat="45.19568" lon="5.77918">
        <ele>210</ele>
        <time>2017-10-15T13:38:00Z</time>
      </trkpt>
      <trkpt lat="45.1958" lon="5.77914">
        <ele>209</ele>
        <time>2017-10-15T13:38:02Z</time>
      </trkpt>
      <trkpt lat="45.19586" lon="5.77911">
        <ele>209</ele>
        <time>2017-10-15T13:38:03Z</time>
      </trkpt>
      <trkpt lat="45.19597" lon="5.77905">
        <ele>209</ele>
        <time>2017-10-15T13:38:05Z</time>
      </trkpt>
      <trkpt lat="45.19602" lon="5.77902">
        <ele>209</ele>
        <time>2017-10-15T13:38:06Z</time>
      </trkpt>
      <trkpt lat="45.19607" lon="5.77899">
        <ele>209</ele>
        <time>2017-10-15T13:38:07Z</time>
      </trkpt>
      <trkpt lat="45.19612" lon="5.77896">
        <ele>209</ele>
        <time>2017-10-15T13:38:08Z</time>
      </trkpt>
      <trkpt lat="45.19618" lon="5.77894">
        <ele>209</ele>
        <time>2017-10-15T13:38:09Z</time>
      </trkpt>
      <trkpt lat="45.19623" lon="5.77893">
        <ele>209</ele>
        <time>2017-10-15T13:38:10Z</time>
      </trkpt>
      <trkpt lat="45.19635" lon="5.7789">
        <ele>209</ele>
        <time>2017-10-15T13:38:12Z</time>
      </trkpt>
      <trkpt lat="45.19645" lon="5.77885">
        <ele>209</ele>
        <time>2017-10-15T13:38:14Z</time>
      </trkpt>
      <trkpt lat="45.19651" lon="5.77884">
        <ele>209</ele>
        <time>2017-10-15T13:38:15Z</time>
      </trkpt>
      <trkpt lat="45.19663" lon="5.7788">
        <ele>209</ele>
        <time>2017-10-15T13:38:17Z</time>
      </trkpt>
      <trkpt lat="45.19674" lon="5.77877">
        <ele>209</ele>
        <time>2017-10-15T13:38:19Z</time>
      </trkpt>
      <trkpt lat="45.19679" lon="5.77875">
        <ele>209</ele>
        <time>2017-10-15T13:38:20Z</time>
      </trkpt>
      <trkpt lat="45.19685" lon="5.77873">
        <ele>209</ele>
        <time>2017-10-15T13:38:21Z</time>
      </trkpt>
      <trkpt lat="45.1969" lon="5.77871">
        <ele>209</ele>
        <time>2017-10-15T13:38:22Z</time>
      </trkpt>
      <trkpt lat="45.19696" lon="5.7787">
        <ele>209</ele>
        <time>2017-10-15T13:38:23Z</time>
      </trkpt>
      <trkpt lat="45.19701" lon="5.77868">
        <ele>209</ele>
        <time>2017-10-15T13:38:24Z</time>
      </trkpt>
      <trkpt lat="45.19706" lon="5.77867">
        <ele>209</ele>
        <time>2017-10-15T13:38:25Z</time>
      </trkpt>
      <trkpt lat="45.19711" lon="5.77865">
        <ele>209</ele>
        <time>2017-10-15T13:38:26Z</time>
      </trkpt>
      <trkpt lat="45.19717" lon="5.77863">
        <ele>209</ele>
        <time>2017-10-15T13:38:27Z</time>
      </trkpt>
      <trkpt lat="45.19729" lon="5.77861">
        <ele>209</ele>
        <time>2017-10-15T13:38:29Z</time>
      </trkpt>
      <trkpt lat="45.19741" lon="5.77857">
        <ele>209</ele>
        <time>2017-10-15T13:38:31Z</time>
      </trkpt>
      <trkpt lat="45.19752" lon="5.77852">
        <ele>209</ele>
        <time>2017-10-15T13:38:33Z</time>
      </trkpt>
      <trkpt lat="45.19762" lon="5.77848">
        <ele>209</ele>
        <time>2017-10-15T13:38:35Z</time>
      </trkpt>
      <trkpt lat="45.19774" lon="5.77844">
        <ele>209</ele>
        <time>2017-10-15T13:38:37Z</time>
      </trkpt>
      <trkpt lat="45.1978" lon="5.77841">
        <ele>209</ele>
        <time>2017-10-15T13:38:38Z</time>
      </trkpt>
      <trkpt lat="45.19785" lon="5.77839">
        <ele>209</ele>
        <time>2017-10-15T13:38:39Z</time>
      </trkpt>
      <trkpt lat="45.19791" lon="5.77837">
        <ele>209</ele>
        <time>2017-10-15T13:38:40Z</time>
      </trkpt>
      <trkpt lat="45.19796" lon="5.77837">
        <ele>209</ele>
        <time>2017-10-15T13:38:41Z</time>
      </trkpt>
      <trkpt lat="45.19803" lon="5.77835">
        <ele>209</ele>
        <time>2017-10-15T13:38:42Z</time>
      </trkpt>
      <trkpt lat="45.19809" lon="5.77833">
        <ele>209</ele>
        <time>2017-10-15T13:38:43Z</time>
      </trkpt>
      <trkpt lat="45.19815" lon="5.77831">
        <ele>209</ele>
        <time>2017-10-15T13:38:44Z</time>
      </trkpt>
      <trkpt lat="45.19821" lon="5.7783">
        <ele>209</ele>
        <time>2017-10-15T13:38:45Z</time>
      </trkpt>
      <trkpt lat="45.19827" lon="5.77828">
        <ele>209</ele>
        <time>2017-10-15T13:38:46Z</time>
      </trkpt>
      <trkpt lat="45.19832" lon="5.77826">
        <ele>209</ele>
        <time>2017-10-15T13:38:47Z</time>
      </trkpt>
      <trkpt lat="45.19838" lon="5.77823">
        <ele>209</ele>
        <time>2017-10-15T13:38:48Z</time>
      </trkpt>
      <trkpt lat="45.19849" lon="5.77818">
        <ele>209</ele>
        <time>2017-10-15T13:38:50Z</time>
      </trkpt>
      <trkpt lat="45.19855" lon="5.77814">
        <ele>209</ele>
        <time>2017-10-15T13:38:51Z</time>
      </trkpt>
      <trkpt lat="45.1986" lon="5.77812">
        <ele>209</ele>
        <time>2017-10-15T13:38:52Z</time>
      </trkpt>
      <trkpt lat="45.19865" lon="5.77808">
        <ele>209</ele>
        <time>2017-10-15T13:38:53Z</time>
      </trkpt>
      <trkpt lat="45.1987" lon="5.77805">
        <ele>209</ele>
        <time>2017-10-15T13:38:54Z</time>
      </trkpt>
      <trkpt lat="45.19875" lon="5.77802">
        <ele>209</ele>
        <time>2017-10-15T13:38:55Z</time>
      </trkpt>
      <trkpt lat="45.19891" lon="5.77791">
        <ele>209</ele>
        <time>2017-10-15T13:38:58Z</time>
      </trkpt>
      <trkpt lat="45.19896" lon="5.77786">
        <ele>209</ele>
        <time>2017-10-15T13:38:59Z</time>
      </trkpt>
      <trkpt lat="45.19901" lon="5.77782">
        <ele>209</ele>
        <time>2017-10-15T13:39:00Z</time>
      </trkpt>
      <trkpt lat="45.19907" lon="5.77778">
        <ele>209</ele>
        <time>2017-10-15T13:39:01Z</time>
      </trkpt>
      <trkpt lat="45.19913" lon="5.77775">
        <ele>209</ele>
        <time>2017-10-15T13:39:02Z</time>
      </trkpt>
      <trkpt lat="45.19918" lon="5.77772">
        <ele>209</ele>
        <time>2017-10-15T13:39:03Z</time>
      </trkpt>
      <trkpt lat="45.19923" lon="5.77768">
        <ele>209</ele>
        <time>2017-10-15T13:39:04Z</time>
      </trkpt>
      <trkpt lat="45.19933" lon="5.77759">
        <ele>209</ele>
        <time>2017-10-15T13:39:06Z</time>
      </trkpt>
      <trkpt lat="45.19944" lon="5.7775">
        <ele>209</ele>
        <time>2017-10-15T13:39:08Z</time>
      </trkpt>
      <trkpt lat="45.19948" lon="5.77745">
        <ele>209</ele>
        <time>2017-10-15T13:39:09Z</time>
      </trkpt>
      <trkpt lat="45.19957" lon="5.77735">
        <ele>209</ele>
        <time>2017-10-15T13:39:11Z</time>
      </trkpt>
      <trkpt lat="45.19961" lon="5.7773">
        <ele>209</ele>
        <time>2017-10-15T13:39:12Z</time>
      </trkpt>
      <trkpt lat="45.1997" lon="5.77718">
        <ele>209</ele>
        <time>2017-10-15T13:39:14Z</time>
      </trkpt>
      <trkpt lat="45.19975" lon="5.77713">
        <ele>209</ele>
        <time>2017-10-15T13:39:15Z</time>
      </trkpt>
      <trkpt lat="45.19979" lon="5.77708">
        <ele>209</ele>
        <time>2017-10-15T13:39:16Z</time>
      </trkpt>
      <trkpt lat="45.19987" lon="5.77695">
        <ele>209</ele>
        <time>2017-10-15T13:39:18Z</time>
      </trkpt>
      <trkpt lat="45.19991" lon="5.7769">
        <ele>209</ele>
        <time>2017-10-15T13:39:19Z</time>
      </trkpt>
      <trkpt lat="45.19999" lon="5.77677">
        <ele>209</ele>
        <time>2017-10-15T13:39:21Z</time>
      </trkpt>
      <trkpt lat="45.20003" lon="5.7767">
        <ele>209</ele>
        <time>2017-10-15T13:39:22Z</time>
      </trkpt>
      <trkpt lat="45.20007" lon="5.77663">
        <ele>209</ele>
        <time>2017-10-15T13:39:23Z</time>
      </trkpt>
      <trkpt lat="45.2001" lon="5.77658">
        <ele>209</ele>
        <time>2017-10-15T13:39:24Z</time>
      </trkpt>
      <trkpt lat="45.20014" lon="5.77651">
        <ele>209</ele>
        <time>2017-10-15T13:39:25Z</time>
      </trkpt>
      <trkpt lat="45.20017" lon="5.77644">
        <ele>209</ele>
        <time>2017-10-15T13:39:26Z</time>
      </trkpt>
      <trkpt lat="45.2002" lon="5.77637">
        <ele>209</ele>
        <time>2017-10-15T13:39:27Z</time>
      </trkpt>
      <trkpt lat="45.20023" lon="5.7763">
        <ele>209</ele>
        <time>2017-10-15T13:39:28Z</time>
      </trkpt>
      <trkpt lat="45.20026" lon="5.77624">
        <ele>209</ele>
        <time>2017-10-15T13:39:29Z</time>
      </trkpt>
      <trkpt lat="45.20029" lon="5.77616">
        <ele>209</ele>
        <time>2017-10-15T13:39:30Z</time>
      </trkpt>
      <trkpt lat="45.20034" lon="5.77602">
        <ele>209</ele>
        <time>2017-10-15T13:39:32Z</time>
      </trkpt>
      <trkpt lat="45.20036" lon="5.77595">
        <ele>209</ele>
        <time>2017-10-15T13:39:33Z</time>
      </trkpt>
      <trkpt lat="45.20038" lon="5.77586">
        <ele>209</ele>
        <time>2017-10-15T13:39:34Z</time>
      </trkpt>
      <trkpt lat="45.20039" lon="5.77578">
        <ele>209</ele>
        <time>2017-10-15T13:39:35Z</time>
      </trkpt>
      <trkpt lat="45.20042" lon="5.7757">
        <ele>209</ele>
        <time>2017-10-15T13:39:36Z</time>
      </trkpt>
      <trkpt lat="45.20045" lon="5.77555">
        <ele>209</ele>
        <time>2017-10-15T13:39:38Z</time>
      </trkpt>
      <trkpt lat="45.20048" lon="5.77538">
        <ele>209</ele>
        <time>2017-10-15T13:39:40Z</time>
      </trkpt>
      <trkpt lat="45.2005" lon="5.7753">
        <ele>209</ele>
        <time>2017-10-15T13:39:41Z</time>
      </trkpt>
      <trkpt lat="45.20051" lon="5.77521">
        <ele>209</ele>
        <time>2017-10-15T13:39:42Z</time>
      </trkpt>
      <trkpt lat="45.20052" lon="5.77512">
        <ele>209</ele>
        <time>2017-10-15T13:39:43Z</time>
      </trkpt>
      <trkpt lat="45.20053" lon="5.77504">
        <ele>209</ele>
        <time>2017-10-15T13:39:44Z</time>
      </trkpt>
      <trkpt lat="45.20054" lon="5.77495">
        <ele>209</ele>
        <time>2017-10-15T13:39:45Z</time>
      </trkpt>
      <trkpt lat="45.20055" lon="5.77478">
        <ele>209</ele>
        <time>2017-10-15T13:39:47Z</time>
      </trkpt>
      <trkpt lat="45.20054" lon="5.7747">
        <ele>209</ele>
        <time>2017-10-15T13:39:48Z</time>
      </trkpt>
      <trkpt lat="45.20054" lon="5.77454">
        <ele>208</ele>
        <time>2017-10-15T13:39:50Z</time>
      </trkpt>
      <trkpt lat="45.20054" lon="5.77446">
        <ele>208</ele>
        <time>2017-10-15T13:39:51Z</time>
      </trkpt>
      <trkpt lat="45.20053" lon="5.77437">
        <ele>208</ele>
        <time>2017-10-15T13:39:52Z</time>
      </trkpt>
      <trkpt lat="45.20052" lon="5.77429">
        <ele>208</ele>
        <time>2017-10-15T13:39:53Z</time>
      </trkpt>
      <trkpt lat="45.20051" lon="5.7742">
        <ele>208</ele>
        <time>2017-10-15T13:39:54Z</time>
      </trkpt>
      <trkpt lat="45.2005" lon="5.77405">
        <ele>209</ele>
        <time>2017-10-15T13:39:56Z</time>
      </trkpt>
      <trkpt lat="45.20047" lon="5.77389">
        <ele>208</ele>
        <time>2017-10-15T13:39:58Z</time>
      </trkpt>
      <trkpt lat="45.20045" lon="5.77374">
        <ele>208</ele>
        <time>2017-10-15T13:40:00Z</time>
      </trkpt>
      <trkpt lat="45.20043" lon="5.77367">
        <ele>208</ele>
        <time>2017-10-15T13:40:01Z</time>
      </trkpt>
      <trkpt lat="45.2004" lon="5.7735">
        <ele>208</ele>
        <time>2017-10-15T13:40:03Z</time>
      </trkpt>
      <trkpt lat="45.20038" lon="5.77342">
        <ele>208</ele>
        <time>2017-10-15T13:40:04Z</time>
      </trkpt>
      <trkpt lat="45.20036" lon="5.77334">
        <ele>208</ele>
        <time>2017-10-15T13:40:05Z</time>
      </trkpt>
      <trkpt lat="45.20033" lon="5.77326">
        <ele>208</ele>
        <time>2017-10-15T13:40:06Z</time>
      </trkpt>
      <trkpt lat="45.20031" lon="5.77319">
        <ele>208</ele>
        <time>2017-10-15T13:40:07Z</time>
      </trkpt>
      <trkpt lat="45.20028" lon="5.77311">
        <ele>208</ele>
        <time>2017-10-15T13:40:08Z</time>
      </trkpt>
      <trkpt lat="45.20023" lon="5.77297">
        <ele>208</ele>
        <time>2017-10-15T13:40:10Z</time>
      </trkpt>
      <trkpt lat="45.20018" lon="5.77281">
        <ele>208</ele>
        <time>2017-10-15T13:40:12Z</time>
      </trkpt>
      <trkpt lat="45.20013" lon="5.77265">
        <ele>208</ele>
        <time>2017-10-15T13:40:14Z</time>
      </trkpt>
      <trkpt lat="45.2001" lon="5.77258">
        <ele>208</ele>
        <time>2017-10-15T13:40:15Z</time>
      </trkpt>
      <trkpt lat="45.20007" lon="5.7725">
        <ele>208</ele>
        <time>2017-10-15T13:40:16Z</time>
      </trkpt>
      <trkpt lat="45.20002" lon="5.77234">
        <ele>208</ele>
        <time>2017-10-15T13:40:18Z</time>
      </trkpt>
      <trkpt lat="45.19996" lon="5.77219">
        <ele>208</ele>
        <time>2017-10-15T13:40:20Z</time>
      </trkpt>
      <trkpt lat="45.19992" lon="5.77213">
        <ele>208</ele>
        <time>2017-10-15T13:40:21Z</time>
      </trkpt>
      <trkpt lat="45.19988" lon="5.77206">
        <ele>208</ele>
        <time>2017-10-15T13:40:22Z</time>
      </trkpt>
      <trkpt lat="45.19984" lon="5.77199">
        <ele>208</ele>
        <time>2017-10-15T13:40:23Z</time>
      </trkpt>
      <trkpt lat="45.19978" lon="5.77185">
        <ele>208</ele>
        <time>2017-10-15T13:40:25Z</time>
      </trkpt>
      <trkpt lat="45.19973" lon="5.77179">
        <ele>208</ele>
        <time>2017-10-15T13:40:26Z</time>
      </trkpt>
      <trkpt lat="45.19969" lon="5.77171">
        <ele>208</ele>
        <time>2017-10-15T13:40:27Z</time>
      </trkpt>
      <trkpt lat="45.19965" lon="5.77166">
        <ele>208</ele>
        <time>2017-10-15T13:40:28Z</time>
      </trkpt>
      <trkpt lat="45.19959" lon="5.77161">
        <ele>208</ele>
        <time>2017-10-15T13:40:29Z</time>
      </trkpt>
      <trkpt lat="45.19954" lon="5.77155">
        <ele>208</ele>
        <time>2017-10-15T13:40:30Z</time>
      </trkpt>
      <trkpt lat="45.19949" lon="5.77149">
        <ele>208</ele>
        <time>2017-10-15T13:40:31Z</time>
      </trkpt>
      <trkpt lat="45.19945" lon="5.77144">
        <ele>208</ele>
        <time>2017-10-15T13:40:32Z</time>
      </trkpt>
      <trkpt lat="45.1994" lon="5.77139">
        <ele>208</ele>
        <time>2017-10-15T13:40:33Z</time>
      </trkpt>
      <trkpt lat="45.19935" lon="5.77134">
        <ele>208</ele>
        <time>2017-10-15T13:40:34Z</time>
      </trkpt>
      <trkpt lat="45.19929" lon="5.77129">
        <ele>208</ele>
        <time>2017-10-15T13:40:35Z</time>
      </trkpt>
      <trkpt lat="45.19923" lon="5.77124">
        <ele>208</ele>
        <time>2017-10-15T13:40:36Z</time>
      </trkpt>
      <trkpt lat="45.19918" lon="5.77119">
        <ele>208</ele>
        <time>2017-10-15T13:40:37Z</time>
      </trkpt>
      <trkpt lat="45.19912" lon="5.77115">
        <ele>208</ele>
        <time>2017-10-15T13:40:38Z</time>
      </trkpt>
      <trkpt lat="45.19896" lon="5.77102">
        <ele>208</ele>
        <time>2017-10-15T13:40:41Z</time>
      </trkpt>
      <trkpt lat="45.19891" lon="5.77099">
        <ele>208</ele>
        <time>2017-10-15T13:40:42Z</time>
      </trkpt>
      <trkpt lat="45.19881" lon="5.77091">
        <ele>208</ele>
        <time>2017-10-15T13:40:44Z</time>
      </trkpt>
      <trkpt lat="45.19876" lon="5.77088">
        <ele>208</ele>
        <time>2017-10-15T13:40:45Z</time>
      </trkpt>
      <trkpt lat="45.19872" lon="5.77084">
        <ele>208</ele>
        <time>2017-10-15T13:40:46Z</time>
      </trkpt>
      <trkpt lat="45.19867" lon="5.77081">
        <ele>209</ele>
        <time>2017-10-15T13:40:47Z</time>
      </trkpt>
      <trkpt lat="45.19862" lon="5.77077">
        <ele>209</ele>
        <time>2017-10-15T13:40:48Z</time>
      </trkpt>
      <trkpt lat="45.19857" lon="5.77073">
        <ele>209</ele>
        <time>2017-10-15T13:40:49Z</time>
      </trkpt>
      <trkpt lat="45.19853" lon="5.7707">
        <ele>209</ele>
        <time>2017-10-15T13:40:50Z</time>
      </trkpt>
      <trkpt lat="45.19848" lon="5.77066">
        <ele>209</ele>
        <time>2017-10-15T13:40:51Z</time>
      </trkpt>
      <trkpt lat="45.19842" lon="5.77059">
        <ele>209</ele>
        <time>2017-10-15T13:40:53Z</time>
      </trkpt>
      <trkpt lat="45.19835" lon="5.77054">
        <ele>209</ele>
        <time>2017-10-15T13:40:55Z</time>
      </trkpt>
      <trkpt lat="45.1983" lon="5.77048">
        <ele>209</ele>
        <time>2017-10-15T13:40:57Z</time>
      </trkpt>
      <trkpt lat="45.19827" lon="5.77042">
        <ele>209</ele>
        <time>2017-10-15T13:40:59Z</time>
      </trkpt>
      <trkpt lat="45.19828" lon="5.77034">
        <ele>209</ele>
        <time>2017-10-15T13:41:01Z</time>
      </trkpt>
      <trkpt lat="45.19833" lon="5.77026">
        <ele>209</ele>
        <time>2017-10-15T13:41:03Z</time>
      </trkpt>
      <trkpt lat="45.19837" lon="5.77019">
        <ele>209</ele>
        <time>2017-10-15T13:41:05Z</time>
      </trkpt>
      <trkpt lat="45.19843" lon="5.77014">
        <ele>209</ele>
        <time>2017-10-15T13:41:07Z</time>
      </trkpt>
      <trkpt lat="45.19848" lon="5.77007">
        <ele>208</ele>
        <time>2017-10-15T13:41:09Z</time>
      </trkpt>
      <trkpt lat="45.19854" lon="5.76997">
        <ele>208</ele>
        <time>2017-10-15T13:41:11Z</time>
      </trkpt>
      <trkpt lat="45.19858" lon="5.76987">
        <ele>208</ele>
        <time>2017-10-15T13:41:13Z</time>
      </trkpt>
      <trkpt lat="45.19863" lon="5.76978">
        <ele>208</ele>
        <time>2017-10-15T13:41:15Z</time>
      </trkpt>
      <trkpt lat="45.19869" lon="5.76968">
        <ele>208</ele>
        <time>2017-10-15T13:41:17Z</time>
      </trkpt>
      <trkpt lat="45.19874" lon="5.76959">
        <ele>208</ele>
        <time>2017-10-15T13:41:19Z</time>
      </trkpt>
      <trkpt lat="45.19879" lon="5.7695">
        <ele>208</ele>
        <time>2017-10-15T13:41:21Z</time>
      </trkpt>
      <trkpt lat="45.19885" lon="5.7694">
        <ele>208</ele>
        <time>2017-10-15T13:41:23Z</time>
      </trkpt>
      <trkpt lat="45.19887" lon="5.76935">
        <ele>208</ele>
        <time>2017-10-15T13:41:24Z</time>
      </trkpt>
      <trkpt lat="45.19895" lon="5.76924">
        <ele>208</ele>
        <time>2017-10-15T13:41:26Z</time>
      </trkpt>
      <trkpt lat="45.19902" lon="5.76921">
        <ele>208</ele>
        <time>2017-10-15T13:41:28Z</time>
      </trkpt>
      <trkpt lat="45.19908" lon="5.76925">
        <ele>208</ele>
        <time>2017-10-15T13:41:30Z</time>
      </trkpt>
      <trkpt lat="45.19912" lon="5.76935">
        <ele>208</ele>
        <time>2017-10-15T13:41:32Z</time>
      </trkpt>
      <trkpt lat="45.19919" lon="5.76955">
        <ele>208</ele>
        <time>2017-10-15T13:41:36Z</time>
      </trkpt>
      <trkpt lat="45.19923" lon="5.76966">
        <ele>208</ele>
        <time>2017-10-15T13:41:38Z</time>
      </trkpt>
      <trkpt lat="45.19926" lon="5.76972">
        <ele>208</ele>
        <time>2017-10-15T13:41:39Z</time>
      </trkpt>
      <trkpt lat="45.19928" lon="5.76978">
        <ele>208</ele>
        <time>2017-10-15T13:41:40Z</time>
      </trkpt>
      <trkpt lat="45.19935" lon="5.76988">
        <ele>208</ele>
        <time>2017-10-15T13:41:42Z</time>
      </trkpt>
      <trkpt lat="45.19943" lon="5.76996">
        <ele>208</ele>
        <time>2017-10-15T13:41:44Z</time>
      </trkpt>
      <trkpt lat="45.19946" lon="5.76999">
        <ele>208</ele>
        <time>2017-10-15T13:41:45Z</time>
      </trkpt>
      <trkpt lat="45.19951" lon="5.77003">
        <ele>208</ele>
        <time>2017-10-15T13:41:46Z</time>
      </trkpt>
      <trkpt lat="45.19955" lon="5.77007">
        <ele>208</ele>
        <time>2017-10-15T13:41:47Z</time>
      </trkpt>
      <trkpt lat="45.1996" lon="5.77011">
        <ele>208</ele>
        <time>2017-10-15T13:41:48Z</time>
      </trkpt>
      <trkpt lat="45.19965" lon="5.77016">
        <ele>208</ele>
        <time>2017-10-15T13:41:49Z</time>
      </trkpt>
      <trkpt lat="45.1997" lon="5.7702">
        <ele>208</ele>
        <time>2017-10-15T13:41:50Z</time>
      </trkpt>
      <trkpt lat="45.19974" lon="5.77023">
        <ele>208</ele>
        <time>2017-10-15T13:41:51Z</time>
      </trkpt>
      <trkpt lat="45.19978" lon="5.77027">
        <ele>208</ele>
        <time>2017-10-15T13:41:52Z</time>
      </trkpt>
      <trkpt lat="45.19982" lon="5.77031">
        <ele>208</ele>
        <time>2017-10-15T13:41:53Z</time>
      </trkpt>
      <trkpt lat="45.1999" lon="5.77038">
        <ele>208</ele>
        <time>2017-10-15T13:41:55Z</time>
      </trkpt>
      <trkpt lat="45.19995" lon="5.7704">
        <ele>208</ele>
        <time>2017-10-15T13:41:56Z</time>
      </trkpt>
      <trkpt lat="45.20002" lon="5.77046">
        <ele>208</ele>
        <time>2017-10-15T13:41:58Z</time>
      </trkpt>
      <trkpt lat="45.20009" lon="5.77052">
        <ele>208</ele>
        <time>2017-10-15T13:42:00Z</time>
      </trkpt>
      <trkpt lat="45.20015" lon="5.77058">
        <ele>208</ele>
        <time>2017-10-15T13:42:02Z</time>
      </trkpt>
      <trkpt lat="45.20021" lon="5.77063">
        <ele>209</ele>
        <time>2017-10-15T13:42:04Z</time>
      </trkpt>
      <trkpt lat="45.20027" lon="5.77069">
        <ele>209</ele>
        <time>2017-10-15T13:42:06Z</time>
      </trkpt>
      <trkpt lat="45.20032" lon="5.77074">
        <ele>209</ele>
        <time>2017-10-15T13:42:08Z</time>
      </trkpt>
      <trkpt lat="45.20038" lon="5.7708">
        <ele>209</ele>
        <time>2017-10-15T13:42:10Z</time>
      </trkpt>
      <trkpt lat="45.20044" lon="5.77087">
        <ele>209</ele>
        <time>2017-10-15T13:42:12Z</time>
      </trkpt>
      <trkpt lat="45.2005" lon="5.77093">
        <ele>209</ele>
        <time>2017-10-15T13:42:14Z</time>
      </trkpt>
      <trkpt lat="45.20059" lon="5.77095">
        <ele>209</ele>
        <time>2017-10-15T13:42:16Z</time>
      </trkpt>
      <trkpt lat="45.20074" lon="5.77094">
        <ele>209</ele>
        <time>2017-10-15T13:42:19Z</time>
      </trkpt>
      <trkpt lat="45.20084" lon="5.77091">
        <ele>209</ele>
        <time>2017-10-15T13:42:21Z</time>
      </trkpt>
      <trkpt lat="45.20092" lon="5.77089">
        <ele>210</ele>
        <time>2017-10-15T13:42:23Z</time>
      </trkpt>
      <trkpt lat="45.20096" lon="5.77088">
        <ele>210</ele>
        <time>2017-10-15T13:42:24Z</time>
      </trkpt>
      <trkpt lat="45.20102" lon="5.77086">
        <ele>210</ele>
        <time>2017-10-15T13:42:25Z</time>
      </trkpt>
      <trkpt lat="45.20107" lon="5.77086">
        <ele>210</ele>
        <time>2017-10-15T13:42:26Z</time>
      </trkpt>
      <trkpt lat="45.20112" lon="5.77084">
        <ele>210</ele>
        <time>2017-10-15T13:42:27Z</time>
      </trkpt>
      <trkpt lat="45.20116" lon="5.77082">
        <ele>210</ele>
        <time>2017-10-15T13:42:28Z</time>
      </trkpt>
      <trkpt lat="45.20121" lon="5.77079">
        <ele>210</ele>
        <time>2017-10-15T13:42:29Z</time>
      </trkpt>
      <trkpt lat="45.2013" lon="5.77079">
        <ele>210</ele>
        <time>2017-10-15T13:42:31Z</time>
      </trkpt>
      <trkpt lat="45.20135" lon="5.77078">
        <ele>210</ele>
        <time>2017-10-15T13:42:32Z</time>
      </trkpt>
      <trkpt lat="45.20144" lon="5.77076">
        <ele>210</ele>
        <time>2017-10-15T13:42:34Z</time>
      </trkpt>
      <trkpt lat="45.20152" lon="5.77073">
        <ele>210</ele>
        <time>2017-10-15T13:42:36Z</time>
      </trkpt>
      <trkpt lat="45.20159" lon="5.77072">
        <ele>210</ele>
        <time>2017-10-15T13:42:38Z</time>
      </trkpt>
      <trkpt lat="45.20167" lon="5.7707">
        <ele>210</ele>
        <time>2017-10-15T13:42:40Z</time>
      </trkpt>
      <trkpt lat="45.20175" lon="5.77067">
        <ele>210</ele>
        <time>2017-10-15T13:42:42Z</time>
      </trkpt>
      <trkpt lat="45.20182" lon="5.77066">
        <ele>210</ele>
        <time>2017-10-15T13:42:44Z</time>
      </trkpt>
      <trkpt lat="45.2019" lon="5.77065">
        <ele>211</ele>
        <time>2017-10-15T13:42:46Z</time>
      </trkpt>
      <trkpt lat="45.20198" lon="5.77062">
        <ele>211</ele>
        <time>2017-10-15T13:42:48Z</time>
      </trkpt>
      <trkpt lat="45.20206" lon="5.7706">
        <ele>211</ele>
        <time>2017-10-15T13:42:50Z</time>
      </trkpt>
      <trkpt lat="45.20213" lon="5.77057">
        <ele>211</ele>
        <time>2017-10-15T13:42:52Z</time>
      </trkpt>
      <trkpt lat="45.20221" lon="5.77055">
        <ele>211</ele>
        <time>2017-10-15T13:42:54Z</time>
      </trkpt>
      <trkpt lat="45.20229" lon="5.77053">
        <ele>211</ele>
        <time>2017-10-15T13:42:56Z</time>
      </trkpt>
      <trkpt lat="45.20237" lon="5.7705">
        <ele>211</ele>
        <time>2017-10-15T13:42:58Z</time>
      </trkpt>
      <trkpt lat="45.20245" lon="5.77047">
        <ele>211</ele>
        <time>2017-10-15T13:43:00Z</time>
      </trkpt>
      <trkpt lat="45.20253" lon="5.77045">
        <ele>211</ele>
        <time>2017-10-15T13:43:02Z</time>
      </trkpt>
      <trkpt lat="45.20262" lon="5.77042">
        <ele>212</ele>
        <time>2017-10-15T13:43:04Z</time>
      </trkpt>
      <trkpt lat="45.2027" lon="5.7704">
        <ele>212</ele>
        <time>2017-10-15T13:43:06Z</time>
      </trkpt>
      <trkpt lat="45.20275" lon="5.77039">
        <ele>212</ele>
        <time>2017-10-15T13:43:07Z</time>
      </trkpt>
      <trkpt lat="45.20279" lon="5.77037">
        <ele>212</ele>
        <time>2017-10-15T13:43:08Z</time>
      </trkpt>
      <trkpt lat="45.20284" lon="5.77036">
        <ele>212</ele>
        <time>2017-10-15T13:43:09Z</time>
      </trkpt>
      <trkpt lat="45.20289" lon="5.77035">
        <ele>212</ele>
        <time>2017-10-15T13:43:10Z</time>
      </trkpt>
      <trkpt lat="45.20294" lon="5.77033">
        <ele>212</ele>
        <time>2017-10-15T13:43:11Z</time>
      </trkpt>
      <trkpt lat="45.20303" lon="5.77031">
        <ele>212</ele>
        <time>2017-10-15T13:43:13Z</time>
      </trkpt>
      <trkpt lat="45.20308" lon="5.77029">
        <ele>212</ele>
        <time>2017-10-15T13:43:14Z</time>
      </trkpt>
      <trkpt lat="45.20319" lon="5.77023">
        <ele>212</ele>
        <time>2017-10-15T13:43:16Z</time>
      </trkpt>
      <trkpt lat="45.20324" lon="5.77019">
        <ele>212</ele>
        <time>2017-10-15T13:43:17Z</time>
      </trkpt>
      <trkpt lat="45.20329" lon="5.77015">
        <ele>213</ele>
        <time>2017-10-15T13:43:18Z</time>
      </trkpt>
      <trkpt lat="45.20334" lon="5.7701">
        <ele>213</ele>
        <time>2017-10-15T13:43:19Z</time>
      </trkpt>
      <trkpt lat="45.20338" lon="5.77003">
        <ele>213</ele>
        <time>2017-10-15T13:43:20Z</time>
      </trkpt>
      <trkpt lat="45.20344" lon="5.76989">
        <ele>213</ele>
        <time>2017-10-15T13:43:22Z</time>
      </trkpt>
      <trkpt lat="45.20345" lon="5.76979">
        <ele>213</ele>
        <time>2017-10-15T13:43:23Z</time>
      </trkpt>
      <trkpt lat="45.20346" lon="5.7697">
        <ele>213</ele>
        <time>2017-10-15T13:43:24Z</time>
      </trkpt>
      <trkpt lat="45.20347" lon="5.76958">
        <ele>213</ele>
        <time>2017-10-15T13:43:25Z</time>
      </trkpt>
      <trkpt lat="45.20345" lon="5.76949">
        <ele>213</ele>
        <time>2017-10-15T13:43:26Z</time>
      </trkpt>
      <trkpt lat="45.20342" lon="5.76941">
        <ele>213</ele>
        <time>2017-10-15T13:43:27Z</time>
      </trkpt>
      <trkpt lat="45.20339" lon="5.76936">
        <ele>213</ele>
        <time>2017-10-15T13:43:28Z</time>
      </trkpt>
      <trkpt lat="45.20338" lon="5.76927">
        <ele>213</ele>
        <time>2017-10-15T13:43:30Z</time>
      </trkpt>
      <trkpt lat="45.20343" lon="5.76921">
        <ele>213</ele>
        <time>2017-10-15T13:43:33Z</time>
      </trkpt>
      <trkpt lat="45.2035" lon="5.76914">
        <ele>213</ele>
        <time>2017-10-15T13:43:35Z</time>
      </trkpt>
      <trkpt lat="45.20355" lon="5.76913">
        <ele>213</ele>
        <time>2017-10-15T13:43:36Z</time>
      </trkpt>
      <trkpt lat="45.20362" lon="5.76911">
        <ele>213</ele>
        <time>2017-10-15T13:43:38Z</time>
      </trkpt>
      <trkpt lat="45.20369" lon="5.76912">
        <ele>213</ele>
        <time>2017-10-15T13:43:40Z</time>
      </trkpt>
      <trkpt lat="45.20376" lon="5.7691">
        <ele>213</ele>
        <time>2017-10-15T13:43:42Z</time>
      </trkpt>
      <trkpt lat="45.20384" lon="5.76907">
        <ele>213</ele>
        <time>2017-10-15T13:43:44Z</time>
      </trkpt>
      <trkpt lat="45.20392" lon="5.76905">
        <ele>213</ele>
        <time>2017-10-15T13:43:46Z</time>
      </trkpt>
      <trkpt lat="45.204" lon="5.76902">
        <ele>214</ele>
        <time>2017-10-15T13:43:48Z</time>
      </trkpt>
      <trkpt lat="45.20408" lon="5.76903">
        <ele>214</ele>
        <time>2017-10-15T13:43:50Z</time>
      </trkpt>
      <trkpt lat="45.20409" lon="5.76914">
        <ele>214</ele>
        <time>2017-10-15T13:43:52Z</time>
      </trkpt>
      <trkpt lat="45.20408" lon="5.76927">
        <ele>214</ele>
        <time>2017-10-15T13:43:54Z</time>
      </trkpt>
      <trkpt lat="45.20406" lon="5.76943">
        <ele>214</ele>
        <time>2017-10-15T13:43:56Z</time>
      </trkpt>
      <trkpt lat="45.20406" lon="5.7695">
        <ele>214</ele>
        <time>2017-10-15T13:43:57Z</time>
      </trkpt>
      <trkpt lat="45.20407" lon="5.76957">
        <ele>214</ele>
        <time>2017-10-15T13:43:58Z</time>
      </trkpt>
      <trkpt lat="45.20409" lon="5.7697">
        <ele>214</ele>
        <time>2017-10-15T13:44:00Z</time>
      </trkpt>
      <trkpt lat="45.20411" lon="5.76976">
        <ele>214</ele>
        <time>2017-10-15T13:44:01Z</time>
      </trkpt>
      <trkpt lat="45.20412" lon="5.76983">
        <ele>214</ele>
        <time>2017-10-15T13:44:02Z</time>
      </trkpt>
      <trkpt lat="45.20412" lon="5.7699">
        <ele>214</ele>
        <time>2017-10-15T13:44:03Z</time>
      </trkpt>
      <trkpt lat="45.20414" lon="5.76997">
        <ele>214</ele>
        <time>2017-10-15T13:44:04Z</time>
      </trkpt>
      <trkpt lat="45.20414" lon="5.77003">
        <ele>214</ele>
        <time>2017-10-15T13:44:05Z</time>
      </trkpt>
      <trkpt lat="45.20414" lon="5.7701">
        <ele>214</ele>
        <time>2017-10-15T13:44:06Z</time>
      </trkpt>
      <trkpt lat="45.20417" lon="5.77018">
        <ele>214</ele>
        <time>2017-10-15T13:44:08Z</time>
      </trkpt>
      <trkpt lat="45.20423" lon="5.77019">
        <ele>214</ele>
        <time>2017-10-15T13:44:12Z</time>
      </trkpt>
      <trkpt lat="45.20423" lon="5.77026">
        <ele>214</ele>
        <time>2017-10-15T13:44:15Z</time>
      </trkpt>
      <trkpt lat="45.20422" lon="5.77035">
        <ele>214</ele>
        <time>2017-10-15T13:44:18Z</time>
      </trkpt>
      <trkpt lat="45.20422" lon="5.77043">
        <ele>214</ele>
        <time>2017-10-15T13:44:20Z</time>
      </trkpt>
      <trkpt lat="45.20423" lon="5.77052">
        <ele>214</ele>
        <time>2017-10-15T13:44:22Z</time>
      </trkpt>
      <trkpt lat="45.20424" lon="5.7706">
        <ele>214</ele>
        <time>2017-10-15T13:44:24Z</time>
      </trkpt>
      <trkpt lat="45.20424" lon="5.77068">
        <ele>214</ele>
        <time>2017-10-15T13:44:26Z</time>
      </trkpt>
      <trkpt lat="45.20424" lon="5.77075">
        <ele>214</ele>
        <time>2017-10-15T13:44:28Z</time>
      </trkpt>
      <trkpt lat="45.20425" lon="5.77083">
        <ele>214</ele>
        <time>2017-10-15T13:44:30Z</time>
      </trkpt>
      <trkpt lat="45.20425" lon="5.77092">
        <ele>214</ele>
        <time>2017-10-15T13:44:32Z</time>
      </trkpt>
      <trkpt lat="45.20427" lon="5.77101">
        <ele>214</ele>
        <time>2017-10-15T13:44:34Z</time>
      </trkpt>
      <trkpt lat="45.20427" lon="5.77111">
        <ele>214</ele>
        <time>2017-10-15T13:44:36Z</time>
      </trkpt>
      <trkpt lat="45.20427" lon="5.77122">
        <ele>214</ele>
        <time>2017-10-15T13:44:38Z</time>
      </trkpt>
      <trkpt lat="45.20427" lon="5.77132">
        <ele>214</ele>
        <time>2017-10-15T13:44:40Z</time>
      </trkpt>
      <trkpt lat="45.20427" lon="5.77142">
        <ele>214</ele>
        <time>2017-10-15T13:44:42Z</time>
      </trkpt>
      <trkpt lat="45.20432" lon="5.77147">
        <ele>214</ele>
        <time>2017-10-15T13:44:44Z</time>
      </trkpt>
      <trkpt lat="45.20438" lon="5.77152">
        <ele>214</ele>
        <time>2017-10-15T13:44:46Z</time>
      </trkpt>
      <trkpt lat="45.20444" lon="5.77158">
        <ele>214</ele>
        <time>2017-10-15T13:44:48Z</time>
      </trkpt>
      <trkpt lat="45.20449" lon="5.77164">
        <ele>214</ele>
        <time>2017-10-15T13:44:50Z</time>
      </trkpt>
      <trkpt lat="45.20452" lon="5.77173">
        <ele>214</ele>
        <time>2017-10-15T13:44:52Z</time>
      </trkpt>
      <trkpt lat="45.20454" lon="5.77183">
        <ele>214</ele>
        <time>2017-10-15T13:44:54Z</time>
      </trkpt>
      <trkpt lat="45.20456" lon="5.77192">
        <ele>213</ele>
        <time>2017-10-15T13:44:56Z</time>
      </trkpt>
      <trkpt lat="45.20458" lon="5.77202">
        <ele>213</ele>
        <time>2017-10-15T13:44:58Z</time>
      </trkpt>
      <trkpt lat="45.2046" lon="5.77212">
        <ele>213</ele>
        <time>2017-10-15T13:45:00Z</time>
      </trkpt>
      <trkpt lat="45.20462" lon="5.77223">
        <ele>213</ele>
        <time>2017-10-15T13:45:02Z</time>
      </trkpt>
      <trkpt lat="45.20466" lon="5.77233">
        <ele>213</ele>
        <time>2017-10-15T13:45:04Z</time>
      </trkpt>
      <trkpt lat="45.20472" lon="5.77242">
        <ele>213</ele>
        <time>2017-10-15T13:45:06Z</time>
      </trkpt>
      <trkpt lat="45.2048" lon="5.77247">
        <ele>213</ele>
        <time>2017-10-15T13:45:08Z</time>
      </trkpt>
      <trkpt lat="45.20487" lon="5.77251">
        <ele>213</ele>
        <time>2017-10-15T13:45:10Z</time>
      </trkpt>
      <trkpt lat="45.20495" lon="5.77254">
        <ele>213</ele>
        <time>2017-10-15T13:45:12Z</time>
      </trkpt>
      <trkpt lat="45.20503" lon="5.77258">
        <ele>213</ele>
        <time>2017-10-15T13:45:14Z</time>
      </trkpt>
      <trkpt lat="45.20511" lon="5.77263">
        <ele>213</ele>
        <time>2017-10-15T13:45:16Z</time>
      </trkpt>
      <trkpt lat="45.20518" lon="5.77267">
        <ele>213</ele>
        <time>2017-10-15T13:45:18Z</time>
      </trkpt>
      <trkpt lat="45.20526" lon="5.7727">
        <ele>213</ele>
        <time>2017-10-15T13:45:20Z</time>
      </trkpt>
      <trkpt lat="45.20532" lon="5.77272">
        <ele>214</ele>
        <time>2017-10-15T13:45:22Z</time>
      </trkpt>
      <trkpt lat="45.20539" lon="5.77274">
        <ele>214</ele>
        <time>2017-10-15T13:45:24Z</time>
      </trkpt>
      <trkpt lat="45.20547" lon="5.77277">
        <ele>214</ele>
        <time>2017-10-15T13:45:26Z</time>
      </trkpt>
      <trkpt lat="45.20556" lon="5.7728">
        <ele>214</ele>
        <time>2017-10-15T13:45:28Z</time>
      </trkpt>
      <trkpt lat="45.20562" lon="5.77281">
        <ele>214</ele>
        <time>2017-10-15T13:45:29Z</time>
      </trkpt>
      <trkpt lat="45.20567" lon="5.77281">
        <ele>214</ele>
        <time>2017-10-15T13:45:30Z</time>
      </trkpt>
      <trkpt lat="45.20577" lon="5.77279">
        <ele>214</ele>
        <time>2017-10-15T13:45:32Z</time>
      </trkpt>
      <trkpt lat="45.20582" lon="5.7728">
        <ele>214</ele>
        <time>2017-10-15T13:45:33Z</time>
      </trkpt>
      <trkpt lat="45.20587" lon="5.77282">
        <ele>214</ele>
        <time>2017-10-15T13:45:34Z</time>
      </trkpt>
      <trkpt lat="45.20591" lon="5.77283">
        <ele>214</ele>
        <time>2017-10-15T13:45:35Z</time>
      </trkpt>
      <trkpt lat="45.20597" lon="5.7728">
        <ele>214</ele>
        <time>2017-10-15T13:45:36Z</time>
      </trkpt>
      <trkpt lat="45.20603" lon="5.77277">
        <ele>215</ele>
        <time>2017-10-15T13:45:38Z</time>
      </trkpt>
      <trkpt lat="45.20609" lon="5.77277">
        <ele>215</ele>
        <time>2017-10-15T13:45:40Z</time>
      </trkpt>
      <trkpt lat="45.20615" lon="5.7728">
        <ele>215</ele>
        <time>2017-10-15T13:45:42Z</time>
      </trkpt>
      <trkpt lat="45.20622" lon="5.77285">
        <ele>215</ele>
        <time>2017-10-15T13:45:44Z</time>
      </trkpt>
      <trkpt lat="45.2063" lon="5.77288">
        <ele>215</ele>
        <time>2017-10-15T13:45:46Z</time>
      </trkpt>
      <trkpt lat="45.20638" lon="5.77298">
        <ele>215</ele>
        <time>2017-10-15T13:45:49Z</time>
      </trkpt>
      <trkpt lat="45.20642" lon="5.77307">
        <ele>215</ele>
        <time>2017-10-15T13:45:51Z</time>
      </trkpt>
      <trkpt lat="45.20646" lon="5.77315">
        <ele>215</ele>
        <time>2017-10-15T13:45:53Z</time>
      </trkpt>
      <trkpt lat="45.20651" lon="5.77321">
        <ele>215</ele>
        <time>2017-10-15T13:45:55Z</time>
      </trkpt>
      <trkpt lat="45.20652" lon="5.77327">
        <ele>215</ele>
        <time>2017-10-15T13:45:59Z</time>
      </trkpt>
      <trkpt lat="45.20654" lon="5.77334">
        <ele>215</ele>
        <time>2017-10-15T13:46:01Z</time>
      </trkpt>
      <trkpt lat="45.20659" lon="5.77344">
        <ele>215</ele>
        <time>2017-10-15T13:46:03Z</time>
      </trkpt>
      <trkpt lat="45.20662" lon="5.77355">
        <ele>215</ele>
        <time>2017-10-15T13:46:05Z</time>
      </trkpt>
      <trkpt lat="45.20666" lon="5.77366">
        <ele>215</ele>
        <time>2017-10-15T13:46:07Z</time>
      </trkpt>
      <trkpt lat="45.20672" lon="5.77372">
        <ele>216</ele>
        <time>2017-10-15T13:46:09Z</time>
      </trkpt>
      <trkpt lat="45.20677" lon="5.77378">
        <ele>216</ele>
        <time>2017-10-15T13:46:11Z</time>
      </trkpt>
      <trkpt lat="45.20682" lon="5.77383">
        <ele>216</ele>
        <time>2017-10-15T13:46:13Z</time>
      </trkpt>
      <trkpt lat="45.20687" lon="5.77387">
        <ele>216</ele>
        <time>2017-10-15T13:46:15Z</time>
      </trkpt>
      <trkpt lat="45.20691" lon="5.77392">
        <ele>216</ele>
        <time>2017-10-15T13:46:17Z</time>
      </trkpt>
      <trkpt lat="45.20696" lon="5.77393">
        <ele>216</ele>
        <time>2017-10-15T13:46:19Z</time>
      </trkpt>
      <trkpt lat="45.20701" lon="5.77393">
        <ele>216</ele>
        <time>2017-10-15T13:46:21Z</time>
      </trkpt>
      <trkpt lat="45.20706" lon="5.77395">
        <ele>216</ele>
        <time>2017-10-15T13:46:23Z</time>
      </trkpt>
      <trkpt lat="45.2071" lon="5.77398">
        <ele>216</ele>
        <time>2017-10-15T13:46:25Z</time>
      </trkpt>
      <trkpt lat="45.20716" lon="5.774">
        <ele>216</ele>
        <time>2017-10-15T13:46:27Z</time>
      </trkpt>
      <trkpt lat="45.20723" lon="5.774">
        <ele>216</ele>
        <time>2017-10-15T13:46:29Z</time>
      </trkpt>
      <trkpt lat="45.20731" lon="5.77401">
        <ele>216</ele>
        <time>2017-10-15T13:46:31Z</time>
      </trkpt>
      <trkpt lat="45.20738" lon="5.77403">
        <ele>217</ele>
        <time>2017-10-15T13:46:33Z</time>
      </trkpt>
      <trkpt lat="45.20746" lon="5.77404">
        <ele>217</ele>
        <time>2017-10-15T13:46:35Z</time>
      </trkpt>
      <trkpt lat="45.20754" lon="5.77403">
        <ele>217</ele>
        <time>2017-10-15T13:46:37Z</time>
      </trkpt>
      <trkpt lat="45.20763" lon="5.77402">
        <ele>217</ele>
        <time>2017-10-15T13:46:39Z</time>
      </trkpt>
      <trkpt lat="45.20771" lon="5.77403">
        <ele>217</ele>
        <time>2017-10-15T13:46:41Z</time>
      </trkpt>
      <trkpt lat="45.20779" lon="5.77404">
        <ele>217</ele>
        <time>2017-10-15T13:46:43Z</time>
      </trkpt>
      <trkpt lat="45.20786" lon="5.77404">
        <ele>217</ele>
        <time>2017-10-15T13:46:45Z</time>
      </trkpt>
      <trkpt lat="45.20794" lon="5.77406">
        <ele>217</ele>
        <time>2017-10-15T13:46:47Z</time>
      </trkpt>
      <trkpt lat="45.20802" lon="5.77408">
        <ele>217</ele>
        <time>2017-10-15T13:46:49Z</time>
      </trkpt>
      <trkpt lat="45.20809" lon="5.77412">
        <ele>218</ele>
        <time>2017-10-15T13:46:51Z</time>
      </trkpt>
      <trkpt lat="45.20816" lon="5.77416">
        <ele>218</ele>
        <time>2017-10-15T13:46:53Z</time>
      </trkpt>
      <trkpt lat="45.20823" lon="5.7742">
        <ele>218</ele>
        <time>2017-10-15T13:46:55Z</time>
      </trkpt>
      <trkpt lat="45.2083" lon="5.77425">
        <ele>218</ele>
        <time>2017-10-15T13:46:57Z</time>
      </trkpt>
      <trkpt lat="45.20836" lon="5.77431">
        <ele>218</ele>
        <time>2017-10-15T13:46:59Z</time>
      </trkpt>
      <trkpt lat="45.20842" lon="5.77437">
        <ele>218</ele>
        <time>2017-10-15T13:47:01Z</time>
      </trkpt>
      <trkpt lat="45.20847" lon="5.77443">
        <ele>218</ele>
        <time>2017-10-15T13:47:03Z</time>
      </trkpt>
      <trkpt lat="45.20853" lon="5.7745">
        <ele>218</ele>
        <time>2017-10-15T13:47:05Z</time>
      </trkpt>
      <trkpt lat="45.20857" lon="5.77458">
        <ele>218</ele>
        <time>2017-10-15T13:47:07Z</time>
      </trkpt>
      <trkpt lat="45.20861" lon="5.77467">
        <ele>218</ele>
        <time>2017-10-15T13:47:09Z</time>
      </trkpt>
      <trkpt lat="45.20865" lon="5.77477">
        <ele>218</ele>
        <time>2017-10-15T13:47:11Z</time>
      </trkpt>
      <trkpt lat="45.20868" lon="5.77486">
        <ele>218</ele>
        <time>2017-10-15T13:47:13Z</time>
      </trkpt>
      <trkpt lat="45.20871" lon="5.77495">
        <ele>218</ele>
        <time>2017-10-15T13:47:15Z</time>
      </trkpt>
      <trkpt lat="45.20873" lon="5.77505">
        <ele>218</ele>
        <time>2017-10-15T13:47:17Z</time>
      </trkpt>
      <trkpt lat="45.20876" lon="5.77514">
        <ele>218</ele>
        <time>2017-10-15T13:47:19Z</time>
      </trkpt>
      <trkpt lat="45.20879" lon="5.77524">
        <ele>218</ele>
        <time>2017-10-15T13:47:21Z</time>
      </trkpt>
      <trkpt lat="45.20881" lon="5.77535">
        <ele>219</ele>
        <time>2017-10-15T13:47:23Z</time>
      </trkpt>
      <trkpt lat="45.20882" lon="5.77541">
        <ele>219</ele>
        <time>2017-10-15T13:47:24Z</time>
      </trkpt>
      <trkpt lat="45.20885" lon="5.77553">
        <ele>219</ele>
        <time>2017-10-15T13:47:26Z</time>
      </trkpt>
      <trkpt lat="45.20887" lon="5.77564">
        <ele>219</ele>
        <time>2017-10-15T13:47:28Z</time>
      </trkpt>
      <trkpt lat="45.2089" lon="5.77575">
        <ele>219</ele>
        <time>2017-10-15T13:47:30Z</time>
      </trkpt>
      <trkpt lat="45.20893" lon="5.77585">
        <ele>219</ele>
        <time>2017-10-15T13:47:32Z</time>
      </trkpt>
      <trkpt lat="45.20896" lon="5.77595">
        <ele>219</ele>
        <time>2017-10-15T13:47:34Z</time>
      </trkpt>
      <trkpt lat="45.20899" lon="5.77605">
        <ele>219</ele>
        <time>2017-10-15T13:47:36Z</time>
      </trkpt>
      <trkpt lat="45.20902" lon="5.77615">
        <ele>219</ele>
        <time>2017-10-15T13:47:38Z</time>
      </trkpt>
      <trkpt lat="45.20904" lon="5.77624">
        <ele>219</ele>
        <time>2017-10-15T13:47:40Z</time>
      </trkpt>
      <trkpt lat="45.20907" lon="5.77633">
        <ele>219</ele>
        <time>2017-10-15T13:47:42Z</time>
      </trkpt>
      <trkpt lat="45.2091" lon="5.77643">
        <ele>219</ele>
        <time>2017-10-15T13:47:44Z</time>
      </trkpt>
      <trkpt lat="45.20913" lon="5.77654">
        <ele>219</ele>
        <time>2017-10-15T13:47:46Z</time>
      </trkpt>
      <trkpt lat="45.20916" lon="5.77666">
        <ele>219</ele>
        <time>2017-10-15T13:47:48Z</time>
      </trkpt>
      <trkpt lat="45.20918" lon="5.77677">
        <ele>219</ele>
        <time>2017-10-15T13:47:50Z</time>
      </trkpt>
      <trkpt lat="45.20921" lon="5.77689">
        <ele>219</ele>
        <time>2017-10-15T13:47:52Z</time>
      </trkpt>
      <trkpt lat="45.20923" lon="5.77703">
        <ele>220</ele>
        <time>2017-10-15T13:47:54Z</time>
      </trkpt>
      <trkpt lat="45.20924" lon="5.77709">
        <ele>220</ele>
        <time>2017-10-15T13:47:55Z</time>
      </trkpt>
      <trkpt lat="45.20926" lon="5.77715">
        <ele>220</ele>
        <time>2017-10-15T13:47:56Z</time>
      </trkpt>
      <trkpt lat="45.20927" lon="5.77726">
        <ele>220</ele>
        <time>2017-10-15T13:47:58Z</time>
      </trkpt>
      <trkpt lat="45.20927" lon="5.77736">
        <ele>220</ele>
        <time>2017-10-15T13:48:00Z</time>
      </trkpt>
      <trkpt lat="45.20927" lon="5.7775">
        <ele>220</ele>
        <time>2017-10-15T13:48:03Z</time>
      </trkpt>
      <trkpt lat="45.20929" lon="5.7776">
        <ele>220</ele>
        <time>2017-10-15T13:48:05Z</time>
      </trkpt>
      <trkpt lat="45.2093" lon="5.7777">
        <ele>221</ele>
        <time>2017-10-15T13:48:07Z</time>
      </trkpt>
      <trkpt lat="45.20931" lon="5.77781">
        <ele>221</ele>
        <time>2017-10-15T13:48:09Z</time>
      </trkpt>
      <trkpt lat="45.2093" lon="5.77793">
        <ele>221</ele>
        <time>2017-10-15T13:48:11Z</time>
      </trkpt>
      <trkpt lat="45.2093" lon="5.77804">
        <ele>221</ele>
        <time>2017-10-15T13:48:13Z</time>
      </trkpt>
      <trkpt lat="45.20929" lon="5.77816">
        <ele>221</ele>
        <time>2017-10-15T13:48:15Z</time>
      </trkpt>
      <trkpt lat="45.20926" lon="5.77826">
        <ele>221</ele>
        <time>2017-10-15T13:48:17Z</time>
      </trkpt>
      <trkpt lat="45.20923" lon="5.77836">
        <ele>221</ele>
        <time>2017-10-15T13:48:19Z</time>
      </trkpt>
      <trkpt lat="45.20923" lon="5.77847">
        <ele>221</ele>
        <time>2017-10-15T13:48:21Z</time>
      </trkpt>
      <trkpt lat="45.20924" lon="5.77858">
        <ele>222</ele>
        <time>2017-10-15T13:48:23Z</time>
      </trkpt>
      <trkpt lat="45.20923" lon="5.7787">
        <ele>222</ele>
        <time>2017-10-15T13:48:25Z</time>
      </trkpt>
      <trkpt lat="45.20922" lon="5.77881">
        <ele>222</ele>
        <time>2017-10-15T13:48:27Z</time>
      </trkpt>
      <trkpt lat="45.20923" lon="5.77893">
        <ele>222</ele>
        <time>2017-10-15T13:48:29Z</time>
      </trkpt>
      <trkpt lat="45.20924" lon="5.77905">
        <ele>223</ele>
        <time>2017-10-15T13:48:31Z</time>
      </trkpt>
      <trkpt lat="45.20927" lon="5.77916">
        <ele>223</ele>
        <time>2017-10-15T13:48:33Z</time>
      </trkpt>
      <trkpt lat="45.20929" lon="5.77927">
        <ele>223</ele>
        <time>2017-10-15T13:48:35Z</time>
      </trkpt>
      <trkpt lat="45.20935" lon="5.77947">
        <ele>224</ele>
        <time>2017-10-15T13:48:39Z</time>
      </trkpt>
      <trkpt lat="45.20938" lon="5.77955">
        <ele>224</ele>
        <time>2017-10-15T13:48:41Z</time>
      </trkpt>
      <trkpt lat="45.2094" lon="5.77963">
        <ele>225</ele>
        <time>2017-10-15T13:48:43Z</time>
      </trkpt>
      <trkpt lat="45.20941" lon="5.77972">
        <ele>225</ele>
        <time>2017-10-15T13:48:45Z</time>
      </trkpt>
      <trkpt lat="45.20942" lon="5.77981">
        <ele>225</ele>
        <time>2017-10-15T13:48:47Z</time>
      </trkpt>
      <trkpt lat="45.20942" lon="5.77992">
        <ele>225</ele>
        <time>2017-10-15T13:48:49Z</time>
      </trkpt>
      <trkpt lat="45.20944" lon="5.78002">
        <ele>225</ele>
        <time>2017-10-15T13:48:51Z</time>
      </trkpt>
      <trkpt lat="45.20946" lon="5.78013">
        <ele>226</ele>
        <time>2017-10-15T13:48:53Z</time>
      </trkpt>
      <trkpt lat="45.20948" lon="5.78023">
        <ele>226</ele>
        <time>2017-10-15T13:48:55Z</time>
      </trkpt>
      <trkpt lat="45.2095" lon="5.78034">
        <ele>226</ele>
        <time>2017-10-15T13:48:57Z</time>
      </trkpt>
      <trkpt lat="45.20951" lon="5.78045">
        <ele>226</ele>
        <time>2017-10-15T13:48:59Z</time>
      </trkpt>
      <trkpt lat="45.20952" lon="5.78056">
        <ele>226</ele>
        <time>2017-10-15T13:49:01Z</time>
      </trkpt>
      <trkpt lat="45.20954" lon="5.78066">
        <ele>227</ele>
        <time>2017-10-15T13:49:03Z</time>
      </trkpt>
      <trkpt lat="45.20957" lon="5.78077">
        <ele>227</ele>
        <time>2017-10-15T13:49:05Z</time>
      </trkpt>
      <trkpt lat="45.20958" lon="5.78088">
        <ele>227</ele>
        <time>2017-10-15T13:49:07Z</time>
      </trkpt>
      <trkpt lat="45.20958" lon="5.781">
        <ele>227</ele>
        <time>2017-10-15T13:49:09Z</time>
      </trkpt>
      <trkpt lat="45.20959" lon="5.78112">
        <ele>227</ele>
        <time>2017-10-15T13:49:11Z</time>
      </trkpt>
      <trkpt lat="45.2096" lon="5.78124">
        <ele>227</ele>
        <time>2017-10-15T13:49:13Z</time>
      </trkpt>
      <trkpt lat="45.20961" lon="5.78137">
        <ele>227</ele>
        <time>2017-10-15T13:49:15Z</time>
      </trkpt>
      <trkpt lat="45.20962" lon="5.78143">
        <ele>227</ele>
        <time>2017-10-15T13:49:16Z</time>
      </trkpt>
      <trkpt lat="45.20963" lon="5.78149">
        <ele>227</ele>
        <time>2017-10-15T13:49:17Z</time>
      </trkpt>
      <trkpt lat="45.20964" lon="5.78157">
        <ele>227</ele>
        <time>2017-10-15T13:49:18Z</time>
      </trkpt>
      <trkpt lat="45.20969" lon="5.78175">
        <ele>227</ele>
        <time>2017-10-15T13:49:21Z</time>
      </trkpt>
      <trkpt lat="45.2097" lon="5.78182">
        <ele>227</ele>
        <time>2017-10-15T13:49:22Z</time>
      </trkpt>
      <trkpt lat="45.20973" lon="5.78195">
        <ele>227</ele>
        <time>2017-10-15T13:49:24Z</time>
      </trkpt>
      <trkpt lat="45.20975" lon="5.78207">
        <ele>227</ele>
        <time>2017-10-15T13:49:26Z</time>
      </trkpt>
      <trkpt lat="45.20976" lon="5.78213">
        <ele>227</ele>
        <time>2017-10-15T13:49:27Z</time>
      </trkpt>
      <trkpt lat="45.20977" lon="5.78219">
        <ele>227</ele>
        <time>2017-10-15T13:49:28Z</time>
      </trkpt>
      <trkpt lat="45.2098" lon="5.78231">
        <ele>227</ele>
        <time>2017-10-15T13:49:30Z</time>
      </trkpt>
      <trkpt lat="45.20981" lon="5.78238">
        <ele>227</ele>
        <time>2017-10-15T13:49:31Z</time>
      </trkpt>
      <trkpt lat="45.20983" lon="5.78243">
        <ele>227</ele>
        <time>2017-10-15T13:49:32Z</time>
      </trkpt>
      <trkpt lat="45.20985" lon="5.78255">
        <ele>227</ele>
        <time>2017-10-15T13:49:34Z</time>
      </trkpt>
      <trkpt lat="45.20989" lon="5.78273">
        <ele>228</ele>
        <time>2017-10-15T13:49:37Z</time>
      </trkpt>
      <trkpt lat="45.20992" lon="5.78285">
        <ele>228</ele>
        <time>2017-10-15T13:49:39Z</time>
      </trkpt>
      <trkpt lat="45.20994" lon="5.78296">
        <ele>228</ele>
        <time>2017-10-15T13:49:41Z</time>
      </trkpt>
      <trkpt lat="45.20997" lon="5.78308">
        <ele>228</ele>
        <time>2017-10-15T13:49:43Z</time>
      </trkpt>
      <trkpt lat="45.21" lon="5.7832">
        <ele>228</ele>
        <time>2017-10-15T13:49:45Z</time>
      </trkpt>
      <trkpt lat="45.21002" lon="5.78331">
        <ele>228</ele>
        <time>2017-10-15T13:49:47Z</time>
      </trkpt>
      <trkpt lat="45.21004" lon="5.78343">
        <ele>228</ele>
        <time>2017-10-15T13:49:49Z</time>
      </trkpt>
      <trkpt lat="45.21008" lon="5.7836">
        <ele>227</ele>
        <time>2017-10-15T13:49:52Z</time>
      </trkpt>
      <trkpt lat="45.2101" lon="5.78372">
        <ele>227</ele>
        <time>2017-10-15T13:49:54Z</time>
      </trkpt>
      <trkpt lat="45.21013" lon="5.78383">
        <ele>228</ele>
        <time>2017-10-15T13:49:56Z</time>
      </trkpt>
      <trkpt lat="45.21015" lon="5.78395">
        <ele>228</ele>
        <time>2017-10-15T13:49:58Z</time>
      </trkpt>
      <trkpt lat="45.21018" lon="5.78406">
        <ele>228</ele>
        <time>2017-10-15T13:50:00Z</time>
      </trkpt>
      <trkpt lat="45.2102" lon="5.78417">
        <ele>228</ele>
        <time>2017-10-15T13:50:02Z</time>
      </trkpt>
      <trkpt lat="45.21022" lon="5.78429">
        <ele>228</ele>
        <time>2017-10-15T13:50:04Z</time>
      </trkpt>
      <trkpt lat="45.21025" lon="5.7844">
        <ele>228</ele>
        <time>2017-10-15T13:50:06Z</time>
      </trkpt>
      <trkpt lat="45.21027" lon="5.78452">
        <ele>228</ele>
        <time>2017-10-15T13:50:08Z</time>
      </trkpt>
      <trkpt lat="45.2103" lon="5.78463">
        <ele>228</ele>
        <time>2017-10-15T13:50:10Z</time>
      </trkpt>
      <trkpt lat="45.21032" lon="5.78475">
        <ele>228</ele>
        <time>2017-10-15T13:50:12Z</time>
      </trkpt>
      <trkpt lat="45.21034" lon="5.78486">
        <ele>228</ele>
        <time>2017-10-15T13:50:14Z</time>
      </trkpt>
      <trkpt lat="45.21037" lon="5.78497">
        <ele>229</ele>
        <time>2017-10-15T13:50:16Z</time>
      </trkpt>
      <trkpt lat="45.21039" lon="5.78508">
        <ele>229</ele>
        <time>2017-10-15T13:50:18Z</time>
      </trkpt>
      <trkpt lat="45.21042" lon="5.78519">
        <ele>229</ele>
        <time>2017-10-15T13:50:20Z</time>
      </trkpt>
      <trkpt lat="45.21044" lon="5.78531">
        <ele>228</ele>
        <time>2017-10-15T13:50:22Z</time>
      </trkpt>
      <trkpt lat="45.21046" lon="5.78542">
        <ele>228</ele>
        <time>2017-10-15T13:50:24Z</time>
      </trkpt>
      <trkpt lat="45.21049" lon="5.78553">
        <ele>228</ele>
        <time>2017-10-15T13:50:26Z</time>
      </trkpt>
      <trkpt lat="45.21051" lon="5.78565">
        <ele>228</ele>
        <time>2017-10-15T13:50:28Z</time>
      </trkpt>
      <trkpt lat="45.21053" lon="5.78576">
        <ele>228</ele>
        <time>2017-10-15T13:50:30Z</time>
      </trkpt>
      <trkpt lat="45.21056" lon="5.78588">
        <ele>228</ele>
        <time>2017-10-15T13:50:32Z</time>
      </trkpt>
      <trkpt lat="45.21058" lon="5.78599">
        <ele>229</ele>
        <time>2017-10-15T13:50:34Z</time>
      </trkpt>
      <trkpt lat="45.21061" lon="5.7861">
        <ele>229</ele>
        <time>2017-10-15T13:50:36Z</time>
      </trkpt>
      <trkpt lat="45.21063" lon="5.78621">
        <ele>229</ele>
        <time>2017-10-15T13:50:38Z</time>
      </trkpt>
      <trkpt lat="45.21067" lon="5.78631">
        <ele>229</ele>
        <time>2017-10-15T13:50:40Z</time>
      </trkpt>
      <trkpt lat="45.21075" lon="5.78644">
        <ele>229</ele>
        <time>2017-10-15T13:50:43Z</time>
      </trkpt>
      <trkpt lat="45.21082" lon="5.78651">
        <ele>229</ele>
        <time>2017-10-15T13:50:45Z</time>
      </trkpt>
      <trkpt lat="45.21087" lon="5.78653">
        <ele>229</ele>
        <time>2017-10-15T13:50:49Z</time>
      </trkpt>
      <trkpt lat="45.21091" lon="5.78646">
        <ele>230</ele>
        <time>2017-10-15T13:50:52Z</time>
      </trkpt>
      <trkpt lat="45.21096" lon="5.78643">
        <ele>230</ele>
        <time>2017-10-15T13:50:55Z</time>
      </trkpt>
      <trkpt lat="45.211" lon="5.78647">
        <ele>230</ele>
        <time>2017-10-15T13:50:57Z</time>
      </trkpt>
      <trkpt lat="45.21106" lon="5.78647">
        <ele>230</ele>
        <time>2017-10-15T13:50:59Z</time>
      </trkpt>
      <trkpt lat="45.21112" lon="5.78644">
        <ele>230</ele>
        <time>2017-10-15T13:51:01Z</time>
      </trkpt>
      <trkpt lat="45.21118" lon="5.78639">
        <ele>231</ele>
        <time>2017-10-15T13:51:03Z</time>
      </trkpt>
      <trkpt lat="45.21124" lon="5.78635">
        <ele>231</ele>
        <time>2017-10-15T13:51:05Z</time>
      </trkpt>
      <trkpt lat="45.21129" lon="5.78628">
        <ele>231</ele>
        <time>2017-10-15T13:51:07Z</time>
      </trkpt>
      <trkpt lat="45.21132" lon="5.78618">
        <ele>231</ele>
        <time>2017-10-15T13:51:09Z</time>
      </trkpt>
      <trkpt lat="45.21135" lon="5.78609">
        <ele>231</ele>
        <time>2017-10-15T13:51:11Z</time>
      </trkpt>
      <trkpt lat="45.21137" lon="5.78599">
        <ele>232</ele>
        <time>2017-10-15T13:51:13Z</time>
      </trkpt>
      <trkpt lat="45.21139" lon="5.7859">
        <ele>232</ele>
        <time>2017-10-15T13:51:15Z</time>
      </trkpt>
      <trkpt lat="45.21141" lon="5.7858">
        <ele>232</ele>
        <time>2017-10-15T13:51:17Z</time>
      </trkpt>
      <trkpt lat="45.21144" lon="5.78571">
        <ele>232</ele>
        <time>2017-10-15T13:51:19Z</time>
      </trkpt>
      <trkpt lat="45.21147" lon="5.78563">
        <ele>232</ele>
        <time>2017-10-15T13:51:21Z</time>
      </trkpt>
      <trkpt lat="45.21151" lon="5.78559">
        <ele>233</ele>
        <time>2017-10-15T13:51:23Z</time>
      </trkpt>
      <trkpt lat="45.21157" lon="5.7856">
        <ele>233</ele>
        <time>2017-10-15T13:51:25Z</time>
      </trkpt>
      <trkpt lat="45.21162" lon="5.78564">
        <ele>233</ele>
        <time>2017-10-15T13:51:27Z</time>
      </trkpt>
      <trkpt lat="45.21166" lon="5.78569">
        <ele>233</ele>
        <time>2017-10-15T13:51:29Z</time>
      </trkpt>
      <trkpt lat="45.21172" lon="5.78572">
        <ele>233</ele>
        <time>2017-10-15T13:51:31Z</time>
      </trkpt>
      <trkpt lat="45.21177" lon="5.78573">
        <ele>234</ele>
        <time>2017-10-15T13:51:33Z</time>
      </trkpt>
      <trkpt lat="45.21183" lon="5.78576">
        <ele>234</ele>
        <time>2017-10-15T13:51:35Z</time>
      </trkpt>
      <trkpt lat="45.21189" lon="5.78579">
        <ele>234</ele>
        <time>2017-10-15T13:51:37Z</time>
      </trkpt>
      <trkpt lat="45.21194" lon="5.78585">
        <ele>234</ele>
        <time>2017-10-15T13:51:39Z</time>
      </trkpt>
      <trkpt lat="45.21198" lon="5.7859">
        <ele>234</ele>
        <time>2017-10-15T13:51:41Z</time>
      </trkpt>
      <trkpt lat="45.21201" lon="5.78598">
        <ele>234</ele>
        <time>2017-10-15T13:51:44Z</time>
      </trkpt>
      <trkpt lat="45.21205" lon="5.78601">
        <ele>234</ele>
        <time>2017-10-15T13:51:47Z</time>
      </trkpt>
      <trkpt lat="45.21208" lon="5.78592">
        <ele>235</ele>
        <time>2017-10-15T13:51:50Z</time>
      </trkpt>
      <trkpt lat="45.21209" lon="5.78585">
        <ele>235</ele>
        <time>2017-10-15T13:51:52Z</time>
      </trkpt>
      <trkpt lat="45.2121" lon="5.78577">
        <ele>235</ele>
        <time>2017-10-15T13:51:54Z</time>
      </trkpt>
      <trkpt lat="45.21212" lon="5.7857">
        <ele>235</ele>
        <time>2017-10-15T13:51:56Z</time>
      </trkpt>
      <trkpt lat="45.21215" lon="5.78576">
        <ele>235</ele>
        <time>2017-10-15T13:52:01Z</time>
      </trkpt>
      <trkpt lat="45.21214" lon="5.78585">
        <ele>235</ele>
        <time>2017-10-15T13:52:04Z</time>
      </trkpt>
      <trkpt lat="45.21215" lon="5.78593">
        <ele>235</ele>
        <time>2017-10-15T13:52:07Z</time>
      </trkpt>
      <trkpt lat="45.21222" lon="5.78595">
        <ele>235</ele>
        <time>2017-10-15T13:52:10Z</time>
      </trkpt>
      <trkpt lat="45.21227" lon="5.78591">
        <ele>235</ele>
        <time>2017-10-15T13:52:12Z</time>
      </trkpt>
      <trkpt lat="45.21231" lon="5.78586">
        <ele>236</ele>
        <time>2017-10-15T13:52:14Z</time>
      </trkpt>
      <trkpt lat="45.21234" lon="5.7858">
        <ele>236</ele>
        <time>2017-10-15T13:52:16Z</time>
      </trkpt>
      <trkpt lat="45.21237" lon="5.78573">
        <ele>236</ele>
        <time>2017-10-15T13:52:18Z</time>
      </trkpt>
      <trkpt lat="45.21241" lon="5.78568">
        <ele>236</ele>
        <time>2017-10-15T13:52:20Z</time>
      </trkpt>
      <trkpt lat="45.21246" lon="5.78566">
        <ele>236</ele>
        <time>2017-10-15T13:52:22Z</time>
      </trkpt>
      <trkpt lat="45.21252" lon="5.78563">
        <ele>237</ele>
        <time>2017-10-15T13:52:24Z</time>
      </trkpt>
      <trkpt lat="45.21257" lon="5.78561">
        <ele>237</ele>
        <time>2017-10-15T13:52:26Z</time>
      </trkpt>
      <trkpt lat="45.21263" lon="5.78559">
        <ele>237</ele>
        <time>2017-10-15T13:52:28Z</time>
      </trkpt>
      <trkpt lat="45.21271" lon="5.78555">
        <ele>237</ele>
        <time>2017-10-15T13:52:31Z</time>
      </trkpt>
      <trkpt lat="45.21277" lon="5.78551">
        <ele>237</ele>
        <time>2017-10-15T13:52:33Z</time>
      </trkpt>
      <trkpt lat="45.21281" lon="5.78548">
        <ele>237</ele>
        <time>2017-10-15T13:52:35Z</time>
      </trkpt>
      <trkpt lat="45.21287" lon="5.78545">
        <ele>238</ele>
        <time>2017-10-15T13:52:37Z</time>
      </trkpt>
      <trkpt lat="45.21292" lon="5.78542">
        <ele>238</ele>
        <time>2017-10-15T13:52:39Z</time>
      </trkpt>
      <trkpt lat="45.21297" lon="5.78544">
        <ele>238</ele>
        <time>2017-10-15T13:52:41Z</time>
      </trkpt>
      <trkpt lat="45.21298" lon="5.78552">
        <ele>238</ele>
        <time>2017-10-15T13:52:43Z</time>
      </trkpt>
      <trkpt lat="45.21299" lon="5.78562">
        <ele>238</ele>
        <time>2017-10-15T13:52:45Z</time>
      </trkpt>
      <trkpt lat="45.213" lon="5.78574">
        <ele>238</ele>
        <time>2017-10-15T13:52:47Z</time>
      </trkpt>
      <trkpt lat="45.21298" lon="5.78586">
        <ele>238</ele>
        <time>2017-10-15T13:52:49Z</time>
      </trkpt>
      <trkpt lat="45.21296" lon="5.78597">
        <ele>238</ele>
        <time>2017-10-15T13:52:51Z</time>
      </trkpt>
      <trkpt lat="45.21296" lon="5.78607">
        <ele>238</ele>
        <time>2017-10-15T13:52:53Z</time>
      </trkpt>
      <trkpt lat="45.21297" lon="5.78616">
        <ele>238</ele>
        <time>2017-10-15T13:52:55Z</time>
      </trkpt>
      <trkpt lat="45.21298" lon="5.78629">
        <ele>238</ele>
        <time>2017-10-15T13:53:00Z</time>
      </trkpt>
      <trkpt lat="45.21296" lon="5.78635">
        <ele>238</ele>
        <time>2017-10-15T13:53:04Z</time>
      </trkpt>
      <trkpt lat="45.21291" lon="5.78637">
        <ele>238</ele>
        <time>2017-10-15T13:53:06Z</time>
      </trkpt>
      <trkpt lat="45.21286" lon="5.78638">
        <ele>237</ele>
        <time>2017-10-15T13:53:08Z</time>
      </trkpt>
      <trkpt lat="45.21279" lon="5.7864">
        <ele>237</ele>
        <time>2017-10-15T13:53:10Z</time>
      </trkpt>
      <trkpt lat="45.21273" lon="5.78644">
        <ele>237</ele>
        <time>2017-10-15T13:53:12Z</time>
      </trkpt>
      <trkpt lat="45.2127" lon="5.78651">
        <ele>237</ele>
        <time>2017-10-15T13:53:14Z</time>
      </trkpt>
      <trkpt lat="45.21271" lon="5.7866">
        <ele>237</ele>
        <time>2017-10-15T13:53:16Z</time>
      </trkpt>
      <trkpt lat="45.21274" lon="5.78669">
        <ele>237</ele>
        <time>2017-10-15T13:53:18Z</time>
      </trkpt>
      <trkpt lat="45.21277" lon="5.78677">
        <ele>237</ele>
        <time>2017-10-15T13:53:20Z</time>
      </trkpt>
      <trkpt lat="45.21279" lon="5.78685">
        <ele>237</ele>
        <time>2017-10-15T13:53:22Z</time>
      </trkpt>
      <trkpt lat="45.21281" lon="5.78693">
        <ele>237</ele>
        <time>2017-10-15T13:53:24Z</time>
      </trkpt>
      <trkpt lat="45.21284" lon="5.78701">
        <ele>236</ele>
        <time>2017-10-15T13:53:26Z</time>
      </trkpt>
      <trkpt lat="45.21286" lon="5.7871">
        <ele>236</ele>
        <time>2017-10-15T13:53:28Z</time>
      </trkpt>
      <trkpt lat="45.21291" lon="5.78722">
        <ele>236</ele>
        <time>2017-10-15T13:53:31Z</time>
      </trkpt>
      <trkpt lat="45.21293" lon="5.7873">
        <ele>236</ele>
        <time>2017-10-15T13:53:33Z</time>
      </trkpt>
      <trkpt lat="45.21294" lon="5.7874">
        <ele>236</ele>
        <time>2017-10-15T13:53:35Z</time>
      </trkpt>
      <trkpt lat="45.21296" lon="5.7875">
        <ele>236</ele>
        <time>2017-10-15T13:53:37Z</time>
      </trkpt>
      <trkpt lat="45.21299" lon="5.7876">
        <ele>236</ele>
        <time>2017-10-15T13:53:39Z</time>
      </trkpt>
      <trkpt lat="45.21302" lon="5.7877">
        <ele>236</ele>
        <time>2017-10-15T13:53:41Z</time>
      </trkpt>
      <trkpt lat="45.21304" lon="5.7878">
        <ele>236</ele>
        <time>2017-10-15T13:53:43Z</time>
      </trkpt>
      <trkpt lat="45.21307" lon="5.78789">
        <ele>236</ele>
        <time>2017-10-15T13:53:45Z</time>
      </trkpt>
      <trkpt lat="45.2131" lon="5.78799">
        <ele>237</ele>
        <time>2017-10-15T13:53:47Z</time>
      </trkpt>
      <trkpt lat="45.21312" lon="5.78808">
        <ele>237</ele>
        <time>2017-10-15T13:53:49Z</time>
      </trkpt>
      <trkpt lat="45.21315" lon="5.78817">
        <ele>237</ele>
        <time>2017-10-15T13:53:51Z</time>
      </trkpt>
      <trkpt lat="45.21317" lon="5.78826">
        <ele>237</ele>
        <time>2017-10-15T13:53:53Z</time>
      </trkpt>
      <trkpt lat="45.21319" lon="5.78835">
        <ele>237</ele>
        <time>2017-10-15T13:53:55Z</time>
      </trkpt>
      <trkpt lat="45.21321" lon="5.78843">
        <ele>237</ele>
        <time>2017-10-15T13:53:57Z</time>
      </trkpt>
      <trkpt lat="45.21323" lon="5.78852">
        <ele>237</ele>
        <time>2017-10-15T13:54:00Z</time>
      </trkpt>
      <trkpt lat="45.21326" lon="5.78859">
        <ele>237</ele>
        <time>2017-10-15T13:54:02Z</time>
      </trkpt>
      <trkpt lat="45.2133" lon="5.78867">
        <ele>237</ele>
        <time>2017-10-15T13:54:04Z</time>
      </trkpt>
      <trkpt lat="45.21333" lon="5.78874">
        <ele>237</ele>
        <time>2017-10-15T13:54:06Z</time>
      </trkpt>
      <trkpt lat="45.21337" lon="5.78881">
        <ele>237</ele>
        <time>2017-10-15T13:54:08Z</time>
      </trkpt>
      <trkpt lat="45.21341" lon="5.78889">
        <ele>237</ele>
        <time>2017-10-15T13:54:10Z</time>
      </trkpt>
      <trkpt lat="45.21343" lon="5.78897">
        <ele>236</ele>
        <time>2017-10-15T13:54:12Z</time>
      </trkpt>
      <trkpt lat="45.21346" lon="5.78905">
        <ele>236</ele>
        <time>2017-10-15T13:54:14Z</time>
      </trkpt>
      <trkpt lat="45.21347" lon="5.78915">
        <ele>236</ele>
        <time>2017-10-15T13:54:16Z</time>
      </trkpt>
      <trkpt lat="45.21347" lon="5.78926">
        <ele>236</ele>
        <time>2017-10-15T13:54:18Z</time>
      </trkpt>
      <trkpt lat="45.21348" lon="5.78938">
        <ele>236</ele>
        <time>2017-10-15T13:54:20Z</time>
      </trkpt>
      <trkpt lat="45.21351" lon="5.78946">
        <ele>236</ele>
        <time>2017-10-15T13:54:22Z</time>
      </trkpt>
      <trkpt lat="45.21352" lon="5.78952">
        <ele>236</ele>
        <time>2017-10-15T13:54:24Z</time>
      </trkpt>
      <trkpt lat="45.21353" lon="5.7896">
        <ele>236</ele>
        <time>2017-10-15T13:54:26Z</time>
      </trkpt>
      <trkpt lat="45.21353" lon="5.78967">
        <ele>236</ele>
        <time>2017-10-15T13:54:28Z</time>
      </trkpt>
      <trkpt lat="45.21353" lon="5.78975">
        <ele>235</ele>
        <time>2017-10-15T13:54:30Z</time>
      </trkpt>
      <trkpt lat="45.21355" lon="5.78984">
        <ele>235</ele>
        <time>2017-10-15T13:54:32Z</time>
      </trkpt>
      <trkpt lat="45.21359" lon="5.78993">
        <ele>235</ele>
        <time>2017-10-15T13:54:34Z</time>
      </trkpt>
      <trkpt lat="45.21362" lon="5.79003">
        <ele>235</ele>
        <time>2017-10-15T13:54:36Z</time>
      </trkpt>
      <trkpt lat="45.21365" lon="5.79011">
        <ele>235</ele>
        <time>2017-10-15T13:54:38Z</time>
      </trkpt>
      <trkpt lat="45.2137" lon="5.79018">
        <ele>236</ele>
        <time>2017-10-15T13:54:40Z</time>
      </trkpt>
      <trkpt lat="45.21376" lon="5.79029">
        <ele>236</ele>
        <time>2017-10-15T13:54:43Z</time>
      </trkpt>
      <trkpt lat="45.21376" lon="5.79037">
        <ele>236</ele>
        <time>2017-10-15T13:54:45Z</time>
      </trkpt>
      <trkpt lat="45.21375" lon="5.79046">
        <ele>235</ele>
        <time>2017-10-15T13:54:47Z</time>
      </trkpt>
      <trkpt lat="45.21376" lon="5.79054">
        <ele>235</ele>
        <time>2017-10-15T13:54:49Z</time>
      </trkpt>
      <trkpt lat="45.21379" lon="5.79064">
        <ele>235</ele>
        <time>2017-10-15T13:54:51Z</time>
      </trkpt>
      <trkpt lat="45.21381" lon="5.79074">
        <ele>235</ele>
        <time>2017-10-15T13:54:53Z</time>
      </trkpt>
      <trkpt lat="45.21384" lon="5.79084">
        <ele>235</ele>
        <time>2017-10-15T13:54:55Z</time>
      </trkpt>
      <trkpt lat="45.21388" lon="5.79093">
        <ele>235</ele>
        <time>2017-10-15T13:54:57Z</time>
      </trkpt>
      <trkpt lat="45.21396" lon="5.79096">
        <ele>235</ele>
        <time>2017-10-15T13:54:59Z</time>
      </trkpt>
      <trkpt lat="45.21403" lon="5.79094">
        <ele>235</ele>
        <time>2017-10-15T13:55:01Z</time>
      </trkpt>
      <trkpt lat="45.2141" lon="5.79095">
        <ele>236</ele>
        <time>2017-10-15T13:55:03Z</time>
      </trkpt>
      <trkpt lat="45.21417" lon="5.79098">
        <ele>236</ele>
        <time>2017-10-15T13:55:05Z</time>
      </trkpt>
      <trkpt lat="45.21424" lon="5.79099">
        <ele>236</ele>
        <time>2017-10-15T13:55:07Z</time>
      </trkpt>
      <trkpt lat="45.2143" lon="5.79098">
        <ele>236</ele>
        <time>2017-10-15T13:55:09Z</time>
      </trkpt>
      <trkpt lat="45.21437" lon="5.79095">
        <ele>237</ele>
        <time>2017-10-15T13:55:11Z</time>
      </trkpt>
      <trkpt lat="45.21442" lon="5.79091">
        <ele>237</ele>
        <time>2017-10-15T13:55:13Z</time>
      </trkpt>
      <trkpt lat="45.21447" lon="5.79087">
        <ele>237</ele>
        <time>2017-10-15T13:55:15Z</time>
      </trkpt>
      <trkpt lat="45.21452" lon="5.79084">
        <ele>238</ele>
        <time>2017-10-15T13:55:17Z</time>
      </trkpt>
      <trkpt lat="45.21457" lon="5.79081">
        <ele>238</ele>
        <time>2017-10-15T13:55:19Z</time>
      </trkpt>
      <trkpt lat="45.21462" lon="5.79082">
        <ele>238</ele>
        <time>2017-10-15T13:55:21Z</time>
      </trkpt>
      <trkpt lat="45.21464" lon="5.79088">
        <ele>238</ele>
        <time>2017-10-15T13:55:23Z</time>
      </trkpt>
      <trkpt lat="45.21466" lon="5.79096">
        <ele>238</ele>
        <time>2017-10-15T13:55:25Z</time>
      </trkpt>
      <trkpt lat="45.21468" lon="5.79104">
        <ele>238</ele>
        <time>2017-10-15T13:55:27Z</time>
      </trkpt>
      <trkpt lat="45.2147" lon="5.79111">
        <ele>238</ele>
        <time>2017-10-15T13:55:29Z</time>
      </trkpt>
      <trkpt lat="45.21473" lon="5.79117">
        <ele>238</ele>
        <time>2017-10-15T13:55:31Z</time>
      </trkpt>
      <trkpt lat="45.21475" lon="5.79124">
        <ele>238</ele>
        <time>2017-10-15T13:55:33Z</time>
      </trkpt>
      <trkpt lat="45.21476" lon="5.7913">
        <ele>238</ele>
        <time>2017-10-15T13:55:35Z</time>
      </trkpt>
      <trkpt lat="45.21478" lon="5.79139">
        <ele>238</ele>
        <time>2017-10-15T13:55:38Z</time>
      </trkpt>
      <trkpt lat="45.21481" lon="5.79147">
        <ele>238</ele>
        <time>2017-10-15T13:55:41Z</time>
      </trkpt>
      <trkpt lat="45.21481" lon="5.79155">
        <ele>237</ele>
        <time>2017-10-15T13:55:43Z</time>
      </trkpt>
      <trkpt lat="45.21484" lon="5.79163">
        <ele>237</ele>
        <time>2017-10-15T13:55:45Z</time>
      </trkpt>
      <trkpt lat="45.21486" lon="5.79172">
        <ele>237</ele>
        <time>2017-10-15T13:55:47Z</time>
      </trkpt>
      <trkpt lat="45.21489" lon="5.79181">
        <ele>237</ele>
        <time>2017-10-15T13:55:49Z</time>
      </trkpt>
      <trkpt lat="45.21491" lon="5.79187">
        <ele>237</ele>
        <time>2017-10-15T13:55:50Z</time>
      </trkpt>
      <trkpt lat="45.21493" lon="5.79192">
        <ele>238</ele>
        <time>2017-10-15T13:55:51Z</time>
      </trkpt>
      <trkpt lat="45.21497" lon="5.79203">
        <ele>238</ele>
        <time>2017-10-15T13:55:53Z</time>
      </trkpt>
      <trkpt lat="45.21502" lon="5.79213">
        <ele>238</ele>
        <time>2017-10-15T13:55:55Z</time>
      </trkpt>
      <trkpt lat="45.21507" lon="5.79223">
        <ele>238</ele>
        <time>2017-10-15T13:55:57Z</time>
      </trkpt>
      <trkpt lat="45.21511" lon="5.79233">
        <ele>239</ele>
        <time>2017-10-15T13:55:59Z</time>
      </trkpt>
      <trkpt lat="45.21514" lon="5.79244">
        <ele>239</ele>
        <time>2017-10-15T13:56:01Z</time>
      </trkpt>
      <trkpt lat="45.21516" lon="5.79255">
        <ele>239</ele>
        <time>2017-10-15T13:56:03Z</time>
      </trkpt>
      <trkpt lat="45.21516" lon="5.79266">
        <ele>239</ele>
        <time>2017-10-15T13:56:05Z</time>
      </trkpt>
      <trkpt lat="45.21517" lon="5.79277">
        <ele>238</ele>
        <time>2017-10-15T13:56:07Z</time>
      </trkpt>
      <trkpt lat="45.21516" lon="5.79286">
        <ele>238</ele>
        <time>2017-10-15T13:56:09Z</time>
      </trkpt>
      <trkpt lat="45.21515" lon="5.79296">
        <ele>238</ele>
        <time>2017-10-15T13:56:11Z</time>
      </trkpt>
      <trkpt lat="45.21516" lon="5.79309">
        <ele>237</ele>
        <time>2017-10-15T13:56:13Z</time>
      </trkpt>
      <trkpt lat="45.21518" lon="5.79321">
        <ele>237</ele>
        <time>2017-10-15T13:56:15Z</time>
      </trkpt>
      <trkpt lat="45.21522" lon="5.79332">
        <ele>237</ele>
        <time>2017-10-15T13:56:17Z</time>
      </trkpt>
      <trkpt lat="45.21524" lon="5.79344">
        <ele>237</ele>
        <time>2017-10-15T13:56:19Z</time>
      </trkpt>
      <trkpt lat="45.21524" lon="5.79356">
        <ele>237</ele>
        <time>2017-10-15T13:56:21Z</time>
      </trkpt>
      <trkpt lat="45.21524" lon="5.79369">
        <ele>236</ele>
        <time>2017-10-15T13:56:23Z</time>
      </trkpt>
      <trkpt lat="45.21523" lon="5.79377">
        <ele>236</ele>
        <time>2017-10-15T13:56:24Z</time>
      </trkpt>
      <trkpt lat="45.21524" lon="5.79384">
        <ele>236</ele>
        <time>2017-10-15T13:56:25Z</time>
      </trkpt>
      <trkpt lat="45.21524" lon="5.79391">
        <ele>236</ele>
        <time>2017-10-15T13:56:26Z</time>
      </trkpt>
      <trkpt lat="45.21524" lon="5.79402">
        <ele>236</ele>
        <time>2017-10-15T13:56:28Z</time>
      </trkpt>
      <trkpt lat="45.21525" lon="5.79409">
        <ele>236</ele>
        <time>2017-10-15T13:56:29Z</time>
      </trkpt>
      <trkpt lat="45.21526" lon="5.79417">
        <ele>236</ele>
        <time>2017-10-15T13:56:30Z</time>
      </trkpt>
      <trkpt lat="45.21528" lon="5.79431">
        <ele>235</ele>
        <time>2017-10-15T13:56:32Z</time>
      </trkpt>
      <trkpt lat="45.21529" lon="5.7944">
        <ele>235</ele>
        <time>2017-10-15T13:56:33Z</time>
      </trkpt>
      <trkpt lat="45.21533" lon="5.79455">
        <ele>235</ele>
        <time>2017-10-15T13:56:35Z</time>
      </trkpt>
      <trkpt lat="45.21535" lon="5.79463">
        <ele>235</ele>
        <time>2017-10-15T13:56:36Z</time>
      </trkpt>
      <trkpt lat="45.2154" lon="5.79478">
        <ele>236</ele>
        <time>2017-10-15T13:56:38Z</time>
      </trkpt>
      <trkpt lat="45.21542" lon="5.79486">
        <ele>236</ele>
        <time>2017-10-15T13:56:39Z</time>
      </trkpt>
      <trkpt lat="45.21545" lon="5.79493">
        <ele>236</ele>
        <time>2017-10-15T13:56:40Z</time>
      </trkpt>
      <trkpt lat="45.21547" lon="5.79499">
        <ele>236</ele>
        <time>2017-10-15T13:56:41Z</time>
      </trkpt>
      <trkpt lat="45.21549" lon="5.79507">
        <ele>236</ele>
        <time>2017-10-15T13:56:42Z</time>
      </trkpt>
      <trkpt lat="45.21552" lon="5.79514">
        <ele>236</ele>
        <time>2017-10-15T13:56:43Z</time>
      </trkpt>
      <trkpt lat="45.21556" lon="5.79525">
        <ele>236</ele>
        <time>2017-10-15T13:56:45Z</time>
      </trkpt>
      <trkpt lat="45.21558" lon="5.79532">
        <ele>236</ele>
        <time>2017-10-15T13:56:47Z</time>
      </trkpt>
      <trkpt lat="45.21561" lon="5.7954">
        <ele>236</ele>
        <time>2017-10-15T13:56:49Z</time>
      </trkpt>
      <trkpt lat="45.21563" lon="5.79547">
        <ele>236</ele>
        <time>2017-10-15T13:56:51Z</time>
      </trkpt>
      <trkpt lat="45.21568" lon="5.79551">
        <ele>236</ele>
        <time>2017-10-15T13:56:53Z</time>
      </trkpt>
      <trkpt lat="45.21572" lon="5.79555">
        <ele>236</ele>
        <time>2017-10-15T13:56:55Z</time>
      </trkpt>
      <trkpt lat="45.21578" lon="5.79559">
        <ele>237</ele>
        <time>2017-10-15T13:56:58Z</time>
      </trkpt>
      <trkpt lat="45.21583" lon="5.79562">
        <ele>237</ele>
        <time>2017-10-15T13:57:01Z</time>
      </trkpt>
      <trkpt lat="45.21588" lon="5.79563">
        <ele>237</ele>
        <time>2017-10-15T13:57:03Z</time>
      </trkpt>
      <trkpt lat="45.21594" lon="5.79563">
        <ele>237</ele>
        <time>2017-10-15T13:57:05Z</time>
      </trkpt>
      <trkpt lat="45.21599" lon="5.79561">
        <ele>237</ele>
        <time>2017-10-15T13:57:07Z</time>
      </trkpt>
      <trkpt lat="45.21604" lon="5.79558">
        <ele>237</ele>
        <time>2017-10-15T13:57:09Z</time>
      </trkpt>
      <trkpt lat="45.21609" lon="5.79553">
        <ele>238</ele>
        <time>2017-10-15T13:57:11Z</time>
      </trkpt>
      <trkpt lat="45.21613" lon="5.79548">
        <ele>238</ele>
        <time>2017-10-15T13:57:13Z</time>
      </trkpt>
      <trkpt lat="45.21616" lon="5.79542">
        <ele>238</ele>
        <time>2017-10-15T13:57:15Z</time>
      </trkpt>
      <trkpt lat="45.21618" lon="5.79535">
        <ele>238</ele>
        <time>2017-10-15T13:57:17Z</time>
      </trkpt>
      <trkpt lat="45.21622" lon="5.79528">
        <ele>238</ele>
        <time>2017-10-15T13:57:19Z</time>
      </trkpt>
      <trkpt lat="45.21625" lon="5.79522">
        <ele>238</ele>
        <time>2017-10-15T13:57:21Z</time>
      </trkpt>
      <trkpt lat="45.21629" lon="5.79515">
        <ele>239</ele>
        <time>2017-10-15T13:57:23Z</time>
      </trkpt>
      <trkpt lat="45.21632" lon="5.79509">
        <ele>239</ele>
        <time>2017-10-15T13:57:25Z</time>
      </trkpt>
      <trkpt lat="45.21635" lon="5.79501">
        <ele>239</ele>
        <time>2017-10-15T13:57:27Z</time>
      </trkpt>
      <trkpt lat="45.21637" lon="5.79494">
        <ele>239</ele>
        <time>2017-10-15T13:57:29Z</time>
      </trkpt>
      <trkpt lat="45.21639" lon="5.79487">
        <ele>240</ele>
        <time>2017-10-15T13:57:31Z</time>
      </trkpt>
      <trkpt lat="45.21643" lon="5.79482">
        <ele>240</ele>
        <time>2017-10-15T13:57:33Z</time>
      </trkpt>
      <trkpt lat="45.21648" lon="5.79479">
        <ele>240</ele>
        <time>2017-10-15T13:57:35Z</time>
      </trkpt>
      <trkpt lat="45.21653" lon="5.7948">
        <ele>240</ele>
        <time>2017-10-15T13:57:37Z</time>
      </trkpt>
      <trkpt lat="45.21658" lon="5.79479">
        <ele>241</ele>
        <time>2017-10-15T13:57:53Z</time>
      </trkpt>
      <trkpt lat="45.21664" lon="5.79481">
        <ele>241</ele>
        <time>2017-10-15T13:57:56Z</time>
      </trkpt>
      <trkpt lat="45.21675" lon="5.79483">
        <ele>242</ele>
        <time>2017-10-15T13:58:01Z</time>
      </trkpt>
      <trkpt lat="45.21679" lon="5.79476">
        <ele>242</ele>
        <time>2017-10-15T13:58:04Z</time>
      </trkpt>
      <trkpt lat="45.21683" lon="5.79471">
        <ele>242</ele>
        <time>2017-10-15T13:58:06Z</time>
      </trkpt>
      <trkpt lat="45.21689" lon="5.79468">
        <ele>243</ele>
        <time>2017-10-15T13:58:09Z</time>
      </trkpt>
      <trkpt lat="45.21692" lon="5.79464">
        <ele>243</ele>
        <time>2017-10-15T13:58:12Z</time>
      </trkpt>
      <trkpt lat="45.21697" lon="5.7946">
        <ele>243</ele>
        <time>2017-10-15T13:58:15Z</time>
      </trkpt>
      <trkpt lat="45.21702" lon="5.79457">
        <ele>244</ele>
        <time>2017-10-15T13:58:18Z</time>
      </trkpt>
      <trkpt lat="45.21708" lon="5.79455">
        <ele>244</ele>
        <time>2017-10-15T13:58:21Z</time>
      </trkpt>
      <trkpt lat="45.21714" lon="5.79455">
        <ele>245</ele>
        <time>2017-10-15T13:58:24Z</time>
      </trkpt>
      <trkpt lat="45.21719" lon="5.79454">
        <ele>245</ele>
        <time>2017-10-15T13:58:27Z</time>
      </trkpt>
      <trkpt lat="45.21723" lon="5.79448">
        <ele>245</ele>
        <time>2017-10-15T13:58:30Z</time>
      </trkpt>
      <trkpt lat="45.21727" lon="5.79444">
        <ele>246</ele>
        <time>2017-10-15T13:58:32Z</time>
      </trkpt>
      <trkpt lat="45.21731" lon="5.79441">
        <ele>246</ele>
        <time>2017-10-15T13:58:34Z</time>
      </trkpt>
      <trkpt lat="45.21735" lon="5.79438">
        <ele>246</ele>
        <time>2017-10-15T13:58:36Z</time>
      </trkpt>
      <trkpt lat="45.21741" lon="5.79434">
        <ele>247</ele>
        <time>2017-10-15T13:58:39Z</time>
      </trkpt>
      <trkpt lat="45.21747" lon="5.79429">
        <ele>247</ele>
        <time>2017-10-15T13:58:42Z</time>
      </trkpt>
      <trkpt lat="45.21751" lon="5.79426">
        <ele>247</ele>
        <time>2017-10-15T13:58:44Z</time>
      </trkpt>
      <trkpt lat="45.21755" lon="5.79422">
        <ele>248</ele>
        <time>2017-10-15T13:58:46Z</time>
      </trkpt>
      <trkpt lat="45.2176" lon="5.79419">
        <ele>248</ele>
        <time>2017-10-15T13:58:48Z</time>
      </trkpt>
      <trkpt lat="45.21766" lon="5.79418">
        <ele>249</ele>
        <time>2017-10-15T13:58:51Z</time>
      </trkpt>
      <trkpt lat="45.21772" lon="5.79418">
        <ele>249</ele>
        <time>2017-10-15T13:58:54Z</time>
      </trkpt>
      <trkpt lat="45.21779" lon="5.79421">
        <ele>250</ele>
        <time>2017-10-15T13:58:57Z</time>
      </trkpt>
      <trkpt lat="45.21784" lon="5.79425">
        <ele>250</ele>
        <time>2017-10-15T13:59:00Z</time>
      </trkpt>
      <trkpt lat="45.21788" lon="5.7943">
        <ele>250</ele>
        <time>2017-10-15T13:59:02Z</time>
      </trkpt>
      <trkpt lat="45.21793" lon="5.79438">
        <ele>250</ele>
        <time>2017-10-15T13:59:06Z</time>
      </trkpt>
      <trkpt lat="45.21799" lon="5.7944">
        <ele>251</ele>
        <time>2017-10-15T13:59:09Z</time>
      </trkpt>
      <trkpt lat="45.21804" lon="5.7944">
        <ele>251</ele>
        <time>2017-10-15T13:59:12Z</time>
      </trkpt>
      <trkpt lat="45.21809" lon="5.79444">
        <ele>252</ele>
        <time>2017-10-15T13:59:16Z</time>
      </trkpt>
      <trkpt lat="45.21814" lon="5.79447">
        <ele>252</ele>
        <time>2017-10-15T13:59:19Z</time>
      </trkpt>
      <trkpt lat="45.21818" lon="5.79455">
        <ele>252</ele>
        <time>2017-10-15T13:59:22Z</time>
      </trkpt>
      <trkpt lat="45.2182" lon="5.79462">
        <ele>252</ele>
        <time>2017-10-15T13:59:24Z</time>
      </trkpt>
      <trkpt lat="45.21823" lon="5.79469">
        <ele>252</ele>
        <time>2017-10-15T13:59:26Z</time>
      </trkpt>
      <trkpt lat="45.21827" lon="5.79474">
        <ele>252</ele>
        <time>2017-10-15T13:59:28Z</time>
      </trkpt>
      <trkpt lat="45.21829" lon="5.79482">
        <ele>252</ele>
        <time>2017-10-15T13:59:31Z</time>
      </trkpt>
      <trkpt lat="45.21826" lon="5.7949">
        <ele>251</ele>
        <time>2017-10-15T13:59:34Z</time>
      </trkpt>
      <trkpt lat="45.21828" lon="5.79497">
        <ele>251</ele>
        <time>2017-10-15T13:59:38Z</time>
      </trkpt>
      <trkpt lat="45.21832" lon="5.79501">
        <ele>251</ele>
        <time>2017-10-15T13:59:43Z</time>
      </trkpt>
      <trkpt lat="45.21837" lon="5.79506">
        <ele>252</ele>
        <time>2017-10-15T13:59:46Z</time>
      </trkpt>
      <trkpt lat="45.21841" lon="5.79511">
        <ele>252</ele>
        <time>2017-10-15T13:59:48Z</time>
      </trkpt>
      <trkpt lat="45.21845" lon="5.79517">
        <ele>252</ele>
        <time>2017-10-15T13:59:50Z</time>
      </trkpt>
      <trkpt lat="45.21849" lon="5.79522">
        <ele>252</ele>
        <time>2017-10-15T13:59:52Z</time>
      </trkpt>
      <trkpt lat="45.21851" lon="5.79529">
        <ele>252</ele>
        <time>2017-10-15T13:59:54Z</time>
      </trkpt>
      <trkpt lat="45.21853" lon="5.79536">
        <ele>252</ele>
        <time>2017-10-15T13:59:56Z</time>
      </trkpt>
      <trkpt lat="45.21858" lon="5.7954">
        <ele>252</ele>
        <time>2017-10-15T13:59:59Z</time>
      </trkpt>
      <trkpt lat="45.21864" lon="5.79544">
        <ele>253</ele>
        <time>2017-10-15T14:00:02Z</time>
      </trkpt>
      <trkpt lat="45.21868" lon="5.79551">
        <ele>253</ele>
        <time>2017-10-15T14:00:04Z</time>
      </trkpt>
      <trkpt lat="45.21873" lon="5.79556">
        <ele>253</ele>
        <time>2017-10-15T14:00:06Z</time>
      </trkpt>
      <trkpt lat="45.21877" lon="5.79562">
        <ele>254</ele>
        <time>2017-10-15T14:00:08Z</time>
      </trkpt>
      <trkpt lat="45.21881" lon="5.79569">
        <ele>254</ele>
        <time>2017-10-15T14:00:10Z</time>
      </trkpt>
      <trkpt lat="45.21885" lon="5.79575">
        <ele>254</ele>
        <time>2017-10-15T14:00:12Z</time>
      </trkpt>
      <trkpt lat="45.2189" lon="5.79581">
        <ele>254</ele>
        <time>2017-10-15T14:00:14Z</time>
      </trkpt>
      <trkpt lat="45.21894" lon="5.79586">
        <ele>255</ele>
        <time>2017-10-15T14:00:16Z</time>
      </trkpt>
      <trkpt lat="45.21898" lon="5.79592">
        <ele>255</ele>
        <time>2017-10-15T14:00:18Z</time>
      </trkpt>
      <trkpt lat="45.21903" lon="5.79594">
        <ele>255</ele>
        <time>2017-10-15T14:00:20Z</time>
      </trkpt>
      <trkpt lat="45.21909" lon="5.79593">
        <ele>256</ele>
        <time>2017-10-15T14:00:22Z</time>
      </trkpt>
      <trkpt lat="45.21915" lon="5.79594">
        <ele>256</ele>
        <time>2017-10-15T14:00:24Z</time>
      </trkpt>
      <trkpt lat="45.21921" lon="5.79593">
        <ele>257</ele>
        <time>2017-10-15T14:00:27Z</time>
      </trkpt>
      <trkpt lat="45.2193" lon="5.79591">
        <ele>258</ele>
        <time>2017-10-15T14:00:31Z</time>
      </trkpt>
      <trkpt lat="45.21934" lon="5.79586">
        <ele>258</ele>
        <time>2017-10-15T14:00:33Z</time>
      </trkpt>
      <trkpt lat="45.21937" lon="5.79581">
        <ele>258</ele>
        <time>2017-10-15T14:00:35Z</time>
      </trkpt>
      <trkpt lat="45.21941" lon="5.79577">
        <ele>259</ele>
        <time>2017-10-15T14:00:37Z</time>
      </trkpt>
      <trkpt lat="45.21945" lon="5.79577">
        <ele>259</ele>
        <time>2017-10-15T14:00:39Z</time>
      </trkpt>
      <trkpt lat="45.2195" lon="5.7958">
        <ele>259</ele>
        <time>2017-10-15T14:00:41Z</time>
      </trkpt>
      <trkpt lat="45.21955" lon="5.79585">
        <ele>260</ele>
        <time>2017-10-15T14:00:43Z</time>
      </trkpt>
      <trkpt lat="45.21962" lon="5.7959">
        <ele>260</ele>
        <time>2017-10-15T14:00:45Z</time>
      </trkpt>
      <trkpt lat="45.21968" lon="5.79594">
        <ele>260</ele>
        <time>2017-10-15T14:00:47Z</time>
      </trkpt>
      <trkpt lat="45.21974" lon="5.79599">
        <ele>261</ele>
        <time>2017-10-15T14:00:49Z</time>
      </trkpt>
      <trkpt lat="45.2198" lon="5.79603">
        <ele>261</ele>
        <time>2017-10-15T14:00:51Z</time>
      </trkpt>
      <trkpt lat="45.21985" lon="5.79607">
        <ele>261</ele>
        <time>2017-10-15T14:00:53Z</time>
      </trkpt>
      <trkpt lat="45.21989" lon="5.79613">
        <ele>261</ele>
        <time>2017-10-15T14:00:55Z</time>
      </trkpt>
      <trkpt lat="45.21992" lon="5.79621">
        <ele>262</ele>
        <time>2017-10-15T14:00:57Z</time>
      </trkpt>
      <trkpt lat="45.21994" lon="5.79628">
        <ele>262</ele>
        <time>2017-10-15T14:00:59Z</time>
      </trkpt>
      <trkpt lat="45.22002" lon="5.79631">
        <ele>262</ele>
        <time>2017-10-15T14:01:04Z</time>
      </trkpt>
      <trkpt lat="45.22007" lon="5.79626">
        <ele>263</ele>
        <time>2017-10-15T14:01:06Z</time>
      </trkpt>
      <trkpt lat="45.22012" lon="5.79622">
        <ele>263</ele>
        <time>2017-10-15T14:01:08Z</time>
      </trkpt>
      <trkpt lat="45.22016" lon="5.79618">
        <ele>263</ele>
        <time>2017-10-15T14:01:10Z</time>
      </trkpt>
      <trkpt lat="45.2202" lon="5.79613">
        <ele>264</ele>
        <time>2017-10-15T14:01:12Z</time>
      </trkpt>
      <trkpt lat="45.22027" lon="5.79604">
        <ele>264</ele>
        <time>2017-10-15T14:01:16Z</time>
      </trkpt>
      <trkpt lat="45.22031" lon="5.796">
        <ele>265</ele>
        <time>2017-10-15T14:01:18Z</time>
      </trkpt>
      <trkpt lat="45.22035" lon="5.79596">
        <ele>265</ele>
        <time>2017-10-15T14:01:20Z</time>
      </trkpt>
      <trkpt lat="45.22038" lon="5.79591">
        <ele>266</ele>
        <time>2017-10-15T14:01:22Z</time>
      </trkpt>
      <trkpt lat="45.22043" lon="5.79585">
        <ele>266</ele>
        <time>2017-10-15T14:01:25Z</time>
      </trkpt>
      <trkpt lat="45.22048" lon="5.79579">
        <ele>267</ele>
        <time>2017-10-15T14:01:28Z</time>
      </trkpt>
      <trkpt lat="45.22053" lon="5.79573">
        <ele>267</ele>
        <time>2017-10-15T14:01:31Z</time>
      </trkpt>
      <trkpt lat="45.22054" lon="5.79567">
        <ele>268</ele>
        <time>2017-10-15T14:01:33Z</time>
      </trkpt>
      <trkpt lat="45.22054" lon="5.7956">
        <ele>268</ele>
        <time>2017-10-15T14:01:35Z</time>
      </trkpt>
      <trkpt lat="45.22052" lon="5.79552">
        <ele>268</ele>
        <time>2017-10-15T14:01:37Z</time>
      </trkpt>
      <trkpt lat="45.2205" lon="5.79545">
        <ele>268</ele>
        <time>2017-10-15T14:01:39Z</time>
      </trkpt>
      <trkpt lat="45.22049" lon="5.79537">
        <ele>269</ele>
        <time>2017-10-15T14:01:41Z</time>
      </trkpt>
      <trkpt lat="45.22049" lon="5.79529">
        <ele>269</ele>
        <time>2017-10-15T14:01:43Z</time>
      </trkpt>
      <trkpt lat="45.22049" lon="5.79521">
        <ele>269</ele>
        <time>2017-10-15T14:01:45Z</time>
      </trkpt>
      <trkpt lat="45.22049" lon="5.79514">
        <ele>269</ele>
        <time>2017-10-15T14:01:47Z</time>
      </trkpt>
      <trkpt lat="45.2205" lon="5.79507">
        <ele>270</ele>
        <time>2017-10-15T14:01:49Z</time>
      </trkpt>
      <trkpt lat="45.22052" lon="5.795">
        <ele>270</ele>
        <time>2017-10-15T14:01:51Z</time>
      </trkpt>
      <trkpt lat="45.22054" lon="5.79494">
        <ele>270</ele>
        <time>2017-10-15T14:01:53Z</time>
      </trkpt>
      <trkpt lat="45.22056" lon="5.79489">
        <ele>271</ele>
        <time>2017-10-15T14:01:55Z</time>
      </trkpt>
      <trkpt lat="45.2206" lon="5.79484">
        <ele>271</ele>
        <time>2017-10-15T14:01:57Z</time>
      </trkpt>
      <trkpt lat="45.22063" lon="5.79479">
        <ele>272</ele>
        <time>2017-10-15T14:01:59Z</time>
      </trkpt>
      <trkpt lat="45.22067" lon="5.79475">
        <ele>272</ele>
        <time>2017-10-15T14:02:01Z</time>
      </trkpt>
      <trkpt lat="45.22071" lon="5.79472">
        <ele>272</ele>
        <time>2017-10-15T14:02:03Z</time>
      </trkpt>
      <trkpt lat="45.22076" lon="5.79469">
        <ele>273</ele>
        <time>2017-10-15T14:02:05Z</time>
      </trkpt>
      <trkpt lat="45.22085" lon="5.79462">
        <ele>274</ele>
        <time>2017-10-15T14:02:10Z</time>
      </trkpt>
      <trkpt lat="45.22089" lon="5.79457">
        <ele>274</ele>
        <time>2017-10-15T14:02:12Z</time>
      </trkpt>
      <trkpt lat="45.22094" lon="5.79452">
        <ele>274</ele>
        <time>2017-10-15T14:02:15Z</time>
      </trkpt>
      <trkpt lat="45.22097" lon="5.79447">
        <ele>275</ele>
        <time>2017-10-15T14:02:17Z</time>
      </trkpt>
      <trkpt lat="45.22101" lon="5.79443">
        <ele>275</ele>
        <time>2017-10-15T14:02:19Z</time>
      </trkpt>
      <trkpt lat="45.22105" lon="5.79439">
        <ele>275</ele>
        <time>2017-10-15T14:02:21Z</time>
      </trkpt>
      <trkpt lat="45.22113" lon="5.79431">
        <ele>276</ele>
        <time>2017-10-15T14:02:25Z</time>
      </trkpt>
      <trkpt lat="45.22117" lon="5.79426">
        <ele>276</ele>
        <time>2017-10-15T14:02:27Z</time>
      </trkpt>
      <trkpt lat="45.2212" lon="5.79421">
        <ele>277</ele>
        <time>2017-10-15T14:02:29Z</time>
      </trkpt>
      <trkpt lat="45.22124" lon="5.79416">
        <ele>277</ele>
        <time>2017-10-15T14:02:31Z</time>
      </trkpt>
      <trkpt lat="45.22128" lon="5.79412">
        <ele>278</ele>
        <time>2017-10-15T14:02:33Z</time>
      </trkpt>
      <trkpt lat="45.22131" lon="5.79406">
        <ele>278</ele>
        <time>2017-10-15T14:02:35Z</time>
      </trkpt>
      <trkpt lat="45.22136" lon="5.79398">
        <ele>278</ele>
        <time>2017-10-15T14:02:38Z</time>
      </trkpt>
      <trkpt lat="45.22139" lon="5.79392">
        <ele>279</ele>
        <time>2017-10-15T14:02:40Z</time>
      </trkpt>
      <trkpt lat="45.22142" lon="5.79386">
        <ele>279</ele>
        <time>2017-10-15T14:02:42Z</time>
      </trkpt>
      <trkpt lat="45.22145" lon="5.7938">
        <ele>279</ele>
        <time>2017-10-15T14:02:44Z</time>
      </trkpt>
      <trkpt lat="45.22148" lon="5.79374">
        <ele>279</ele>
        <time>2017-10-15T14:02:46Z</time>
      </trkpt>
      <trkpt lat="45.22152" lon="5.7937">
        <ele>280</ele>
        <time>2017-10-15T14:02:48Z</time>
      </trkpt>
      <trkpt lat="45.22156" lon="5.79366">
        <ele>280</ele>
        <time>2017-10-15T14:02:50Z</time>
      </trkpt>
      <trkpt lat="45.2216" lon="5.79362">
        <ele>280</ele>
        <time>2017-10-15T14:02:52Z</time>
      </trkpt>
      <trkpt lat="45.22165" lon="5.7936">
        <ele>281</ele>
        <time>2017-10-15T14:02:54Z</time>
      </trkpt>
      <trkpt lat="45.2217" lon="5.79359">
        <ele>281</ele>
        <time>2017-10-15T14:02:56Z</time>
      </trkpt>
      <trkpt lat="45.22175" lon="5.79358">
        <ele>281</ele>
        <time>2017-10-15T14:02:58Z</time>
      </trkpt>
      <trkpt lat="45.22179" lon="5.79357">
        <ele>282</ele>
        <time>2017-10-15T14:03:00Z</time>
      </trkpt>
      <trkpt lat="45.22186" lon="5.79357">
        <ele>282</ele>
        <time>2017-10-15T14:03:03Z</time>
      </trkpt>
      <trkpt lat="45.22191" lon="5.79357">
        <ele>282</ele>
        <time>2017-10-15T14:03:05Z</time>
      </trkpt>
      <trkpt lat="45.22195" lon="5.79357">
        <ele>283</ele>
        <time>2017-10-15T14:03:07Z</time>
      </trkpt>
      <trkpt lat="45.222" lon="5.79356">
        <ele>283</ele>
        <time>2017-10-15T14:03:09Z</time>
      </trkpt>
      <trkpt lat="45.22205" lon="5.79356">
        <ele>283</ele>
        <time>2017-10-15T14:03:11Z</time>
      </trkpt>
      <trkpt lat="45.22209" lon="5.79356">
        <ele>284</ele>
        <time>2017-10-15T14:03:13Z</time>
      </trkpt>
      <trkpt lat="45.22214" lon="5.79356">
        <ele>284</ele>
        <time>2017-10-15T14:03:15Z</time>
      </trkpt>
      <trkpt lat="45.22218" lon="5.79357">
        <ele>284</ele>
        <time>2017-10-15T14:03:17Z</time>
      </trkpt>
      <trkpt lat="45.22223" lon="5.79356">
        <ele>285</ele>
        <time>2017-10-15T14:03:19Z</time>
      </trkpt>
      <trkpt lat="45.22228" lon="5.79354">
        <ele>285</ele>
        <time>2017-10-15T14:03:21Z</time>
      </trkpt>
      <trkpt lat="45.22237" lon="5.7935">
        <ele>286</ele>
        <time>2017-10-15T14:03:25Z</time>
      </trkpt>
      <trkpt lat="45.22246" lon="5.79347">
        <ele>286</ele>
        <time>2017-10-15T14:03:29Z</time>
      </trkpt>
      <trkpt lat="45.22252" lon="5.79342">
        <ele>287</ele>
        <time>2017-10-15T14:03:32Z</time>
      </trkpt>
      <trkpt lat="45.22255" lon="5.79337">
        <ele>287</ele>
        <time>2017-10-15T14:03:34Z</time>
      </trkpt>
      <trkpt lat="45.22259" lon="5.79333">
        <ele>288</ele>
        <time>2017-10-15T14:03:36Z</time>
      </trkpt>
      <trkpt lat="45.22263" lon="5.79329">
        <ele>288</ele>
        <time>2017-10-15T14:03:38Z</time>
      </trkpt>
      <trkpt lat="45.22266" lon="5.79325">
        <ele>288</ele>
        <time>2017-10-15T14:03:40Z</time>
      </trkpt>
      <trkpt lat="45.22274" lon="5.79314">
        <ele>290</ele>
        <time>2017-10-15T14:03:45Z</time>
      </trkpt>
      <trkpt lat="45.22278" lon="5.79307">
        <ele>290</ele>
        <time>2017-10-15T14:03:48Z</time>
      </trkpt>
      <trkpt lat="45.22282" lon="5.793">
        <ele>291</ele>
        <time>2017-10-15T14:03:51Z</time>
      </trkpt>
      <trkpt lat="45.22286" lon="5.79295">
        <ele>291</ele>
        <time>2017-10-15T14:03:54Z</time>
      </trkpt>
      <trkpt lat="45.2229" lon="5.79292">
        <ele>292</ele>
        <time>2017-10-15T14:03:57Z</time>
      </trkpt>
      <trkpt lat="45.22295" lon="5.79291">
        <ele>292</ele>
        <time>2017-10-15T14:04:00Z</time>
      </trkpt>
      <trkpt lat="45.223" lon="5.79296">
        <ele>292</ele>
        <time>2017-10-15T14:04:03Z</time>
      </trkpt>
      <trkpt lat="45.22302" lon="5.79302">
        <ele>293</ele>
        <time>2017-10-15T14:04:05Z</time>
      </trkpt>
      <trkpt lat="45.22305" lon="5.79308">
        <ele>293</ele>
        <time>2017-10-15T14:04:07Z</time>
      </trkpt>
      <trkpt lat="45.22308" lon="5.79315">
        <ele>293</ele>
        <time>2017-10-15T14:04:09Z</time>
      </trkpt>
      <trkpt lat="45.22311" lon="5.79321">
        <ele>293</ele>
        <time>2017-10-15T14:04:11Z</time>
      </trkpt>
      <trkpt lat="45.22314" lon="5.79328">
        <ele>293</ele>
        <time>2017-10-15T14:04:13Z</time>
      </trkpt>
      <trkpt lat="45.22317" lon="5.79334">
        <ele>293</ele>
        <time>2017-10-15T14:04:15Z</time>
      </trkpt>
      <trkpt lat="45.2232" lon="5.7934">
        <ele>293</ele>
        <time>2017-10-15T14:04:17Z</time>
      </trkpt>
      <trkpt lat="45.22324" lon="5.79347">
        <ele>293</ele>
        <time>2017-10-15T14:04:19Z</time>
      </trkpt>
      <trkpt lat="45.22327" lon="5.79353">
        <ele>294</ele>
        <time>2017-10-15T14:04:21Z</time>
      </trkpt>
      <trkpt lat="45.2233" lon="5.7936">
        <ele>294</ele>
        <time>2017-10-15T14:04:23Z</time>
      </trkpt>
      <trkpt lat="45.22333" lon="5.79367">
        <ele>294</ele>
        <time>2017-10-15T14:04:25Z</time>
      </trkpt>
      <trkpt lat="45.22336" lon="5.79373">
        <ele>294</ele>
        <time>2017-10-15T14:04:27Z</time>
      </trkpt>
      <trkpt lat="45.22339" lon="5.7938">
        <ele>294</ele>
        <time>2017-10-15T14:04:29Z</time>
      </trkpt>
      <trkpt lat="45.22345" lon="5.79389">
        <ele>294</ele>
        <time>2017-10-15T14:04:32Z</time>
      </trkpt>
      <trkpt lat="45.22349" lon="5.79396">
        <ele>294</ele>
        <time>2017-10-15T14:04:34Z</time>
      </trkpt>
      <trkpt lat="45.22353" lon="5.79403">
        <ele>294</ele>
        <time>2017-10-15T14:04:36Z</time>
      </trkpt>
      <trkpt lat="45.22358" lon="5.7941">
        <ele>295</ele>
        <time>2017-10-15T14:04:38Z</time>
      </trkpt>
      <trkpt lat="45.22361" lon="5.79418">
        <ele>295</ele>
        <time>2017-10-15T14:04:40Z</time>
      </trkpt>
      <trkpt lat="45.22365" lon="5.79426">
        <ele>295</ele>
        <time>2017-10-15T14:04:42Z</time>
      </trkpt>
      <trkpt lat="45.22369" lon="5.79434">
        <ele>295</ele>
        <time>2017-10-15T14:04:44Z</time>
      </trkpt>
      <trkpt lat="45.22374" lon="5.79442">
        <ele>295</ele>
        <time>2017-10-15T14:04:46Z</time>
      </trkpt>
      <trkpt lat="45.22378" lon="5.79451">
        <ele>295</ele>
        <time>2017-10-15T14:04:48Z</time>
      </trkpt>
      <trkpt lat="45.22382" lon="5.7946">
        <ele>295</ele>
        <time>2017-10-15T14:04:50Z</time>
      </trkpt>
      <trkpt lat="45.22387" lon="5.79468">
        <ele>296</ele>
        <time>2017-10-15T14:04:52Z</time>
      </trkpt>
      <trkpt lat="45.22391" lon="5.79477">
        <ele>296</ele>
        <time>2017-10-15T14:04:54Z</time>
      </trkpt>
      <trkpt lat="45.22395" lon="5.79487">
        <ele>296</ele>
        <time>2017-10-15T14:04:56Z</time>
      </trkpt>
      <trkpt lat="45.22399" lon="5.79495">
        <ele>296</ele>
        <time>2017-10-15T14:04:58Z</time>
      </trkpt>
      <trkpt lat="45.22404" lon="5.79504">
        <ele>296</ele>
        <time>2017-10-15T14:05:00Z</time>
      </trkpt>
      <trkpt lat="45.22408" lon="5.79513">
        <ele>296</ele>
        <time>2017-10-15T14:05:02Z</time>
      </trkpt>
      <trkpt lat="45.22413" lon="5.79522">
        <ele>297</ele>
        <time>2017-10-15T14:05:04Z</time>
      </trkpt>
      <trkpt lat="45.22416" lon="5.79531">
        <ele>297</ele>
        <time>2017-10-15T14:05:06Z</time>
      </trkpt>
      <trkpt lat="45.22419" lon="5.79541">
        <ele>297</ele>
        <time>2017-10-15T14:05:08Z</time>
      </trkpt>
      <trkpt lat="45.22422" lon="5.79551">
        <ele>297</ele>
        <time>2017-10-15T14:05:10Z</time>
      </trkpt>
      <trkpt lat="45.22424" lon="5.79561">
        <ele>297</ele>
        <time>2017-10-15T14:05:12Z</time>
      </trkpt>
      <trkpt lat="45.22426" lon="5.79571">
        <ele>297</ele>
        <time>2017-10-15T14:05:14Z</time>
      </trkpt>
      <trkpt lat="45.22428" lon="5.79581">
        <ele>297</ele>
        <time>2017-10-15T14:05:16Z</time>
      </trkpt>
      <trkpt lat="45.2243" lon="5.7959">
        <ele>298</ele>
        <time>2017-10-15T14:05:18Z</time>
      </trkpt>
      <trkpt lat="45.22432" lon="5.796">
        <ele>298</ele>
        <time>2017-10-15T14:05:20Z</time>
      </trkpt>
      <trkpt lat="45.22434" lon="5.7961">
        <ele>298</ele>
        <time>2017-10-15T14:05:22Z</time>
      </trkpt>
      <trkpt lat="45.22437" lon="5.79621">
        <ele>299</ele>
        <time>2017-10-15T14:05:24Z</time>
      </trkpt>
      <trkpt lat="45.2244" lon="5.79632">
        <ele>299</ele>
        <time>2017-10-15T14:05:26Z</time>
      </trkpt>
      <trkpt lat="45.22443" lon="5.79644">
        <ele>300</ele>
        <time>2017-10-15T14:05:28Z</time>
      </trkpt>
      <trkpt lat="45.22446" lon="5.79655">
        <ele>300</ele>
        <time>2017-10-15T14:05:30Z</time>
      </trkpt>
      <trkpt lat="45.2245" lon="5.79666">
        <ele>301</ele>
        <time>2017-10-15T14:05:32Z</time>
      </trkpt>
      <trkpt lat="45.22453" lon="5.79678">
        <ele>302</ele>
        <time>2017-10-15T14:05:34Z</time>
      </trkpt>
      <trkpt lat="45.22455" lon="5.79685">
        <ele>302</ele>
        <time>2017-10-15T14:05:35Z</time>
      </trkpt>
      <trkpt lat="45.22456" lon="5.79692">
        <ele>302</ele>
        <time>2017-10-15T14:05:36Z</time>
      </trkpt>
      <trkpt lat="45.22459" lon="5.79704">
        <ele>302</ele>
        <time>2017-10-15T14:05:38Z</time>
      </trkpt>
      <trkpt lat="45.22461" lon="5.7971">
        <ele>303</ele>
        <time>2017-10-15T14:05:39Z</time>
      </trkpt>
      <trkpt lat="45.22461" lon="5.79717">
        <ele>303</ele>
        <time>2017-10-15T14:05:40Z</time>
      </trkpt>
      <trkpt lat="45.22463" lon="5.79724">
        <ele>303</ele>
        <time>2017-10-15T14:05:41Z</time>
      </trkpt>
      <trkpt lat="45.22466" lon="5.79737">
        <ele>303</ele>
        <time>2017-10-15T14:05:43Z</time>
      </trkpt>
      <trkpt lat="45.22468" lon="5.79743">
        <ele>303</ele>
        <time>2017-10-15T14:05:44Z</time>
      </trkpt>
      <trkpt lat="45.22471" lon="5.79757">
        <ele>303</ele>
        <time>2017-10-15T14:05:46Z</time>
      </trkpt>
      <trkpt lat="45.22472" lon="5.7977">
        <ele>303</ele>
        <time>2017-10-15T14:05:48Z</time>
      </trkpt>
      <trkpt lat="45.22474" lon="5.79777">
        <ele>303</ele>
        <time>2017-10-15T14:05:49Z</time>
      </trkpt>
      <trkpt lat="45.22475" lon="5.79783">
        <ele>303</ele>
        <time>2017-10-15T14:05:50Z</time>
      </trkpt>
      <trkpt lat="45.22478" lon="5.79795">
        <ele>303</ele>
        <time>2017-10-15T14:05:52Z</time>
      </trkpt>
      <trkpt lat="45.22479" lon="5.79802">
        <ele>303</ele>
        <time>2017-10-15T14:05:53Z</time>
      </trkpt>
      <trkpt lat="45.22481" lon="5.79808">
        <ele>303</ele>
        <time>2017-10-15T14:05:54Z</time>
      </trkpt>
      <trkpt lat="45.22483" lon="5.79814">
        <ele>303</ele>
        <time>2017-10-15T14:05:55Z</time>
      </trkpt>
      <trkpt lat="45.22485" lon="5.7982">
        <ele>303</ele>
        <time>2017-10-15T14:05:56Z</time>
      </trkpt>
      <trkpt lat="45.22487" lon="5.79826">
        <ele>302</ele>
        <time>2017-10-15T14:05:57Z</time>
      </trkpt>
      <trkpt lat="45.2249" lon="5.79838">
        <ele>302</ele>
        <time>2017-10-15T14:05:59Z</time>
      </trkpt>
      <trkpt lat="45.22492" lon="5.79845">
        <ele>302</ele>
        <time>2017-10-15T14:06:00Z</time>
      </trkpt>
      <trkpt lat="45.22496" lon="5.79857">
        <ele>302</ele>
        <time>2017-10-15T14:06:02Z</time>
      </trkpt>
      <trkpt lat="45.22499" lon="5.79868">
        <ele>302</ele>
        <time>2017-10-15T14:06:04Z</time>
      </trkpt>
      <trkpt lat="45.22501" lon="5.79874">
        <ele>302</ele>
        <time>2017-10-15T14:06:05Z</time>
      </trkpt>
      <trkpt lat="45.22503" lon="5.79886">
        <ele>302</ele>
        <time>2017-10-15T14:06:07Z</time>
      </trkpt>
      <trkpt lat="45.22505" lon="5.79892">
        <ele>302</ele>
        <time>2017-10-15T14:06:08Z</time>
      </trkpt>
      <trkpt lat="45.22507" lon="5.79899">
        <ele>302</ele>
        <time>2017-10-15T14:06:09Z</time>
      </trkpt>
      <trkpt lat="45.22509" lon="5.79905">
        <ele>302</ele>
        <time>2017-10-15T14:06:10Z</time>
      </trkpt>
      <trkpt lat="45.22511" lon="5.79917">
        <ele>302</ele>
        <time>2017-10-15T14:06:12Z</time>
      </trkpt>
      <trkpt lat="45.22514" lon="5.79928">
        <ele>302</ele>
        <time>2017-10-15T14:06:14Z</time>
      </trkpt>
      <trkpt lat="45.22517" lon="5.7994">
        <ele>303</ele>
        <time>2017-10-15T14:06:16Z</time>
      </trkpt>
      <trkpt lat="45.22519" lon="5.7995">
        <ele>303</ele>
        <time>2017-10-15T14:06:18Z</time>
      </trkpt>
      <trkpt lat="45.22522" lon="5.79962">
        <ele>303</ele>
        <time>2017-10-15T14:06:20Z</time>
      </trkpt>
      <trkpt lat="45.22525" lon="5.79973">
        <ele>303</ele>
        <time>2017-10-15T14:06:22Z</time>
      </trkpt>
      <trkpt lat="45.22528" lon="5.79984">
        <ele>303</ele>
        <time>2017-10-15T14:06:24Z</time>
      </trkpt>
      <trkpt lat="45.22531" lon="5.79995">
        <ele>303</ele>
        <time>2017-10-15T14:06:26Z</time>
      </trkpt>
      <trkpt lat="45.22534" lon="5.80006">
        <ele>303</ele>
        <time>2017-10-15T14:06:28Z</time>
      </trkpt>
      <trkpt lat="45.22538" lon="5.80017">
        <ele>304</ele>
        <time>2017-10-15T14:06:30Z</time>
      </trkpt>
      <trkpt lat="45.22541" lon="5.80027">
        <ele>304</ele>
        <time>2017-10-15T14:06:32Z</time>
      </trkpt>
      <trkpt lat="45.22546" lon="5.80036">
        <ele>304</ele>
        <time>2017-10-15T14:06:34Z</time>
      </trkpt>
      <trkpt lat="45.22552" lon="5.80046">
        <ele>304</ele>
        <time>2017-10-15T14:06:36Z</time>
      </trkpt>
      <trkpt lat="45.22557" lon="5.80055">
        <ele>304</ele>
        <time>2017-10-15T14:06:38Z</time>
      </trkpt>
      <trkpt lat="45.22562" lon="5.80065">
        <ele>305</ele>
        <time>2017-10-15T14:06:40Z</time>
      </trkpt>
      <trkpt lat="45.22565" lon="5.8007">
        <ele>305</ele>
        <time>2017-10-15T14:06:41Z</time>
      </trkpt>
      <trkpt lat="45.2257" lon="5.80079">
        <ele>305</ele>
        <time>2017-10-15T14:06:43Z</time>
      </trkpt>
      <trkpt lat="45.22577" lon="5.80088">
        <ele>305</ele>
        <time>2017-10-15T14:06:45Z</time>
      </trkpt>
      <trkpt lat="45.22582" lon="5.80097">
        <ele>306</ele>
        <time>2017-10-15T14:06:47Z</time>
      </trkpt>
      <trkpt lat="45.22592" lon="5.8011">
        <ele>306</ele>
        <time>2017-10-15T14:06:50Z</time>
      </trkpt>
      <trkpt lat="45.22598" lon="5.80119">
        <ele>306</ele>
        <time>2017-10-15T14:06:52Z</time>
      </trkpt>
      <trkpt lat="45.22604" lon="5.80127">
        <ele>306</ele>
        <time>2017-10-15T14:06:54Z</time>
      </trkpt>
      <trkpt lat="45.2261" lon="5.80136">
        <ele>307</ele>
        <time>2017-10-15T14:06:56Z</time>
      </trkpt>
      <trkpt lat="45.22615" lon="5.80146">
        <ele>307</ele>
        <time>2017-10-15T14:06:58Z</time>
      </trkpt>
      <trkpt lat="45.22619" lon="5.80155">
        <ele>307</ele>
        <time>2017-10-15T14:07:00Z</time>
      </trkpt>
      <trkpt lat="45.22621" lon="5.80163">
        <ele>306</ele>
        <time>2017-10-15T14:07:02Z</time>
      </trkpt>
      <trkpt lat="45.22622" lon="5.80171">
        <ele>306</ele>
        <time>2017-10-15T14:07:04Z</time>
      </trkpt>
      <trkpt lat="45.22621" lon="5.80179">
        <ele>306</ele>
        <time>2017-10-15T14:07:06Z</time>
      </trkpt>
      <trkpt lat="45.2262" lon="5.80187">
        <ele>306</ele>
        <time>2017-10-15T14:07:08Z</time>
      </trkpt>
      <trkpt lat="45.22622" lon="5.80197">
        <ele>306</ele>
        <time>2017-10-15T14:07:10Z</time>
      </trkpt>
      <trkpt lat="45.22624" lon="5.80207">
        <ele>306</ele>
        <time>2017-10-15T14:07:12Z</time>
      </trkpt>
      <trkpt lat="45.22622" lon="5.80216">
        <ele>305</ele>
        <time>2017-10-15T14:07:14Z</time>
      </trkpt>
      <trkpt lat="45.22615" lon="5.8023">
        <ele>305</ele>
        <time>2017-10-15T14:07:20Z</time>
      </trkpt>
    </trkseg>
  </trk>
</gpx>